<?xml version="1.0" encoding="UTF-8" standalone="no" ?>
<gpx xmlns="http://www.topografix.com/GPX/1/1" xmlns:xsi="http://www.w3.org/2001/XMLSchema-instance" xsi:schemaLocation="http://www.topografix.com/GPX/1/1 http://www.topografix.com/GPX/1/1/gpx.xsd" version="1.1" creator="VisuGPX - https://www.visugpx.com">
  <metadata>
    <name>Becca du Lac 3405m</name>
    <desc><![CDATA[Refuge du Ruitor, Becca du Lac par le glacier de l\'Invernet et le Noeud des Vedettes, puis redescente par le glacier du Grand.

http://www.camptocamp.org/routes/54502/fr/becca-du-lac-voie-normale]]></desc>
  </metadata>
  <trk>
    <name><![CDATA[Trk046-S1]]></name>
    <trkseg>
      <trkpt lat="45.62544" lon="6.94181">
        <ele>2045</ele>
        <time>2012-07-10T02:31:31Z</time>
      </trkpt>
      <trkpt lat="45.62549" lon="6.94187">
        <ele>2045</ele>
        <time>2012-07-10T02:31:36Z</time>
      </trkpt>
      <trkpt lat="45.62552" lon="6.94193">
        <ele>2045</ele>
        <time>2012-07-10T02:31:41Z</time>
      </trkpt>
      <trkpt lat="45.62556" lon="6.942">
        <ele>2045</ele>
        <time>2012-07-10T02:31:46Z</time>
      </trkpt>
      <trkpt lat="45.6256" lon="6.94206">
        <ele>2046</ele>
        <time>2012-07-10T02:31:51Z</time>
      </trkpt>
      <trkpt lat="45.62565" lon="6.94212">
        <ele>2046</ele>
        <time>2012-07-10T02:31:56Z</time>
      </trkpt>
      <trkpt lat="45.62569" lon="6.94218">
        <ele>2046</ele>
        <time>2012-07-10T02:32:01Z</time>
      </trkpt>
      <trkpt lat="45.62574" lon="6.94223">
        <ele>2046</ele>
        <time>2012-07-10T02:32:06Z</time>
      </trkpt>
      <trkpt lat="45.62579" lon="6.94228">
        <ele>2047</ele>
        <time>2012-07-10T02:32:11Z</time>
      </trkpt>
      <trkpt lat="45.62585" lon="6.94231">
        <ele>2047</ele>
        <time>2012-07-10T02:32:16Z</time>
      </trkpt>
      <trkpt lat="45.62591" lon="6.94235">
        <ele>2047</ele>
        <time>2012-07-10T02:32:21Z</time>
      </trkpt>
      <trkpt lat="45.62597" lon="6.94238">
        <ele>2047</ele>
        <time>2012-07-10T02:32:26Z</time>
      </trkpt>
      <trkpt lat="45.62602" lon="6.94241">
        <ele>2048</ele>
        <time>2012-07-10T02:32:31Z</time>
      </trkpt>
      <trkpt lat="45.62607" lon="6.94244">
        <ele>2048</ele>
        <time>2012-07-10T02:32:36Z</time>
      </trkpt>
      <trkpt lat="45.62613" lon="6.94248">
        <ele>2048</ele>
        <time>2012-07-10T02:32:41Z</time>
      </trkpt>
      <trkpt lat="45.62618" lon="6.94253">
        <ele>2048</ele>
        <time>2012-07-10T02:32:46Z</time>
      </trkpt>
      <trkpt lat="45.62623" lon="6.94258">
        <ele>2049</ele>
        <time>2012-07-10T02:32:51Z</time>
      </trkpt>
      <trkpt lat="45.62626" lon="6.94263">
        <ele>2049</ele>
        <time>2012-07-10T02:32:56Z</time>
      </trkpt>
      <trkpt lat="45.62629" lon="6.94269">
        <ele>2049</ele>
        <time>2012-07-10T02:33:01Z</time>
      </trkpt>
      <trkpt lat="45.62633" lon="6.94276">
        <ele>2049</ele>
        <time>2012-07-10T02:33:06Z</time>
      </trkpt>
      <trkpt lat="45.62636" lon="6.94283">
        <ele>2049</ele>
        <time>2012-07-10T02:33:11Z</time>
      </trkpt>
      <trkpt lat="45.62639" lon="6.9429">
        <ele>2050</ele>
        <time>2012-07-10T02:33:16Z</time>
      </trkpt>
      <trkpt lat="45.62644" lon="6.94295">
        <ele>2050</ele>
        <time>2012-07-10T02:33:21Z</time>
      </trkpt>
      <trkpt lat="45.62646" lon="6.94302">
        <ele>2050</ele>
        <time>2012-07-10T02:33:26Z</time>
      </trkpt>
      <trkpt lat="45.62647" lon="6.9431">
        <ele>2051</ele>
        <time>2012-07-10T02:33:31Z</time>
      </trkpt>
      <trkpt lat="45.62645" lon="6.94317">
        <ele>2051</ele>
        <time>2012-07-10T02:33:36Z</time>
      </trkpt>
      <trkpt lat="45.62644" lon="6.94325">
        <ele>2051</ele>
        <time>2012-07-10T02:33:41Z</time>
      </trkpt>
      <trkpt lat="45.62642" lon="6.94334">
        <ele>2051</ele>
        <time>2012-07-10T02:33:46Z</time>
      </trkpt>
      <trkpt lat="45.6264" lon="6.94343">
        <ele>2051</ele>
        <time>2012-07-10T02:33:51Z</time>
      </trkpt>
      <trkpt lat="45.62639" lon="6.9435">
        <ele>2051</ele>
        <time>2012-07-10T02:33:56Z</time>
      </trkpt>
      <trkpt lat="45.6264" lon="6.94358">
        <ele>2051</ele>
        <time>2012-07-10T02:34:01Z</time>
      </trkpt>
      <trkpt lat="45.62641" lon="6.94367">
        <ele>2051</ele>
        <time>2012-07-10T02:34:06Z</time>
      </trkpt>
      <trkpt lat="45.62645" lon="6.94374">
        <ele>2051</ele>
        <time>2012-07-10T02:34:11Z</time>
      </trkpt>
      <trkpt lat="45.62648" lon="6.9438">
        <ele>2051</ele>
        <time>2012-07-10T02:34:16Z</time>
      </trkpt>
      <trkpt lat="45.62652" lon="6.94388">
        <ele>2052</ele>
        <time>2012-07-10T02:34:21Z</time>
      </trkpt>
      <trkpt lat="45.62655" lon="6.94396">
        <ele>2052</ele>
        <time>2012-07-10T02:34:26Z</time>
      </trkpt>
      <trkpt lat="45.62658" lon="6.94404">
        <ele>2052</ele>
        <time>2012-07-10T02:34:31Z</time>
      </trkpt>
      <trkpt lat="45.62663" lon="6.94409">
        <ele>2052</ele>
        <time>2012-07-10T02:34:36Z</time>
      </trkpt>
      <trkpt lat="45.62668" lon="6.94414">
        <ele>2052</ele>
        <time>2012-07-10T02:34:41Z</time>
      </trkpt>
      <trkpt lat="45.62673" lon="6.9442">
        <ele>2052</ele>
        <time>2012-07-10T02:34:46Z</time>
      </trkpt>
      <trkpt lat="45.62676" lon="6.94427">
        <ele>2052</ele>
        <time>2012-07-10T02:34:51Z</time>
      </trkpt>
      <trkpt lat="45.6268" lon="6.94433">
        <ele>2052</ele>
        <time>2012-07-10T02:34:56Z</time>
      </trkpt>
      <trkpt lat="45.62684" lon="6.9444">
        <ele>2053</ele>
        <time>2012-07-10T02:35:01Z</time>
      </trkpt>
      <trkpt lat="45.62687" lon="6.94447">
        <ele>2053</ele>
        <time>2012-07-10T02:35:06Z</time>
      </trkpt>
      <trkpt lat="45.62691" lon="6.94453">
        <ele>2053</ele>
        <time>2012-07-10T02:35:11Z</time>
      </trkpt>
      <trkpt lat="45.62696" lon="6.94459">
        <ele>2053</ele>
        <time>2012-07-10T02:35:16Z</time>
      </trkpt>
      <trkpt lat="45.627" lon="6.94464">
        <ele>2054</ele>
        <time>2012-07-10T02:35:21Z</time>
      </trkpt>
      <trkpt lat="45.62705" lon="6.9447">
        <ele>2054</ele>
        <time>2012-07-10T02:35:26Z</time>
      </trkpt>
      <trkpt lat="45.6271" lon="6.94476">
        <ele>2054</ele>
        <time>2012-07-10T02:35:31Z</time>
      </trkpt>
      <trkpt lat="45.62715" lon="6.94481">
        <ele>2054</ele>
        <time>2012-07-10T02:35:36Z</time>
      </trkpt>
      <trkpt lat="45.6272" lon="6.94486">
        <ele>2054</ele>
        <time>2012-07-10T02:35:41Z</time>
      </trkpt>
      <trkpt lat="45.62724" lon="6.94491">
        <ele>2055</ele>
        <time>2012-07-10T02:35:46Z</time>
      </trkpt>
      <trkpt lat="45.62729" lon="6.94495">
        <ele>2055</ele>
        <time>2012-07-10T02:35:51Z</time>
      </trkpt>
      <trkpt lat="45.62734" lon="6.94501">
        <ele>2055</ele>
        <time>2012-07-10T02:35:56Z</time>
      </trkpt>
      <trkpt lat="45.62739" lon="6.94506">
        <ele>2055</ele>
        <time>2012-07-10T02:36:01Z</time>
      </trkpt>
      <trkpt lat="45.62744" lon="6.94511">
        <ele>2055</ele>
        <time>2012-07-10T02:36:06Z</time>
      </trkpt>
      <trkpt lat="45.62749" lon="6.94516">
        <ele>2055</ele>
        <time>2012-07-10T02:36:11Z</time>
      </trkpt>
      <trkpt lat="45.62754" lon="6.94522">
        <ele>2055</ele>
        <time>2012-07-10T02:36:16Z</time>
      </trkpt>
      <trkpt lat="45.62759" lon="6.94527">
        <ele>2055</ele>
        <time>2012-07-10T02:36:21Z</time>
      </trkpt>
      <trkpt lat="45.62764" lon="6.94531">
        <ele>2056</ele>
        <time>2012-07-10T02:36:26Z</time>
      </trkpt>
      <trkpt lat="45.62769" lon="6.94536">
        <ele>2056</ele>
        <time>2012-07-10T02:36:31Z</time>
      </trkpt>
      <trkpt lat="45.62774" lon="6.94541">
        <ele>2056</ele>
        <time>2012-07-10T02:36:36Z</time>
      </trkpt>
      <trkpt lat="45.62779" lon="6.94546">
        <ele>2056</ele>
        <time>2012-07-10T02:36:41Z</time>
      </trkpt>
      <trkpt lat="45.62784" lon="6.9455">
        <ele>2057</ele>
        <time>2012-07-10T02:36:46Z</time>
      </trkpt>
      <trkpt lat="45.62789" lon="6.94555">
        <ele>2057</ele>
        <time>2012-07-10T02:36:51Z</time>
      </trkpt>
      <trkpt lat="45.62794" lon="6.9456">
        <ele>2057</ele>
        <time>2012-07-10T02:36:56Z</time>
      </trkpt>
      <trkpt lat="45.62798" lon="6.94565">
        <ele>2058</ele>
        <time>2012-07-10T02:37:01Z</time>
      </trkpt>
      <trkpt lat="45.62801" lon="6.94573">
        <ele>2058</ele>
        <time>2012-07-10T02:37:06Z</time>
      </trkpt>
      <trkpt lat="45.62805" lon="6.9458">
        <ele>2058</ele>
        <time>2012-07-10T02:37:11Z</time>
      </trkpt>
      <trkpt lat="45.62808" lon="6.94587">
        <ele>2058</ele>
        <time>2012-07-10T02:37:16Z</time>
      </trkpt>
      <trkpt lat="45.62811" lon="6.94594">
        <ele>2058</ele>
        <time>2012-07-10T02:37:21Z</time>
      </trkpt>
      <trkpt lat="45.62814" lon="6.94602">
        <ele>2058</ele>
        <time>2012-07-10T02:37:26Z</time>
      </trkpt>
      <trkpt lat="45.62817" lon="6.94609">
        <ele>2059</ele>
        <time>2012-07-10T02:37:31Z</time>
      </trkpt>
      <trkpt lat="45.62819" lon="6.94616">
        <ele>2059</ele>
        <time>2012-07-10T02:37:36Z</time>
      </trkpt>
      <trkpt lat="45.62822" lon="6.94623">
        <ele>2059</ele>
        <time>2012-07-10T02:37:41Z</time>
      </trkpt>
      <trkpt lat="45.62825" lon="6.94631">
        <ele>2059</ele>
        <time>2012-07-10T02:37:46Z</time>
      </trkpt>
      <trkpt lat="45.62827" lon="6.94639">
        <ele>2060</ele>
        <time>2012-07-10T02:37:51Z</time>
      </trkpt>
      <trkpt lat="45.62828" lon="6.94647">
        <ele>2060</ele>
        <time>2012-07-10T02:37:56Z</time>
      </trkpt>
      <trkpt lat="45.62829" lon="6.94655">
        <ele>2060</ele>
        <time>2012-07-10T02:38:01Z</time>
      </trkpt>
      <trkpt lat="45.62831" lon="6.94663">
        <ele>2060</ele>
        <time>2012-07-10T02:38:06Z</time>
      </trkpt>
      <trkpt lat="45.62833" lon="6.94671">
        <ele>2060</ele>
        <time>2012-07-10T02:38:11Z</time>
      </trkpt>
      <trkpt lat="45.62837" lon="6.94676">
        <ele>2060</ele>
        <time>2012-07-10T02:38:16Z</time>
      </trkpt>
      <trkpt lat="45.62841" lon="6.94681">
        <ele>2061</ele>
        <time>2012-07-10T02:38:21Z</time>
      </trkpt>
      <trkpt lat="45.62844" lon="6.94688">
        <ele>2061</ele>
        <time>2012-07-10T02:38:26Z</time>
      </trkpt>
      <trkpt lat="45.62846" lon="6.94695">
        <ele>2061</ele>
        <time>2012-07-10T02:38:31Z</time>
      </trkpt>
      <trkpt lat="45.62847" lon="6.94703">
        <ele>2062</ele>
        <time>2012-07-10T02:38:36Z</time>
      </trkpt>
      <trkpt lat="45.62848" lon="6.9471">
        <ele>2062</ele>
        <time>2012-07-10T02:38:41Z</time>
      </trkpt>
      <trkpt lat="45.62851" lon="6.94717">
        <ele>2062</ele>
        <time>2012-07-10T02:38:46Z</time>
      </trkpt>
      <trkpt lat="45.62855" lon="6.94721">
        <ele>2062</ele>
        <time>2012-07-10T02:38:51Z</time>
      </trkpt>
      <trkpt lat="45.62859" lon="6.94726">
        <ele>2062</ele>
        <time>2012-07-10T02:38:56Z</time>
      </trkpt>
      <trkpt lat="45.62863" lon="6.9473">
        <ele>2063</ele>
        <time>2012-07-10T02:39:01Z</time>
      </trkpt>
      <trkpt lat="45.62866" lon="6.94735">
        <ele>2063</ele>
        <time>2012-07-10T02:39:06Z</time>
      </trkpt>
      <trkpt lat="45.62872" lon="6.94736">
        <ele>2063</ele>
        <time>2012-07-10T02:39:11Z</time>
      </trkpt>
      <trkpt lat="45.62878" lon="6.94735">
        <ele>2063</ele>
        <time>2012-07-10T02:39:16Z</time>
      </trkpt>
      <trkpt lat="45.62883" lon="6.94736">
        <ele>2063</ele>
        <time>2012-07-10T02:39:21Z</time>
      </trkpt>
      <trkpt lat="45.62888" lon="6.94737">
        <ele>2063</ele>
        <time>2012-07-10T02:39:26Z</time>
      </trkpt>
      <trkpt lat="45.62893" lon="6.94736">
        <ele>2063</ele>
        <time>2012-07-10T02:39:31Z</time>
      </trkpt>
      <trkpt lat="45.62898" lon="6.94736">
        <ele>2063</ele>
        <time>2012-07-10T02:39:36Z</time>
      </trkpt>
      <trkpt lat="45.62904" lon="6.94736">
        <ele>2064</ele>
        <time>2012-07-10T02:39:41Z</time>
      </trkpt>
      <trkpt lat="45.62909" lon="6.94735">
        <ele>2064</ele>
        <time>2012-07-10T02:39:46Z</time>
      </trkpt>
      <trkpt lat="45.62915" lon="6.94733">
        <ele>2064</ele>
        <time>2012-07-10T02:39:51Z</time>
      </trkpt>
      <trkpt lat="45.6292" lon="6.94732">
        <ele>2064</ele>
        <time>2012-07-10T02:39:56Z</time>
      </trkpt>
      <trkpt lat="45.62924" lon="6.94731">
        <ele>2064</ele>
        <time>2012-07-10T02:40:01Z</time>
      </trkpt>
      <trkpt lat="45.62928" lon="6.94728">
        <ele>2064</ele>
        <time>2012-07-10T02:40:06Z</time>
      </trkpt>
      <trkpt lat="45.62933" lon="6.94725">
        <ele>2065</ele>
        <time>2012-07-10T02:40:11Z</time>
      </trkpt>
      <trkpt lat="45.62938" lon="6.94722">
        <ele>2065</ele>
        <time>2012-07-10T02:40:16Z</time>
      </trkpt>
      <trkpt lat="45.62943" lon="6.94721">
        <ele>2065</ele>
        <time>2012-07-10T02:40:21Z</time>
      </trkpt>
      <trkpt lat="45.62949" lon="6.9472">
        <ele>2065</ele>
        <time>2012-07-10T02:40:26Z</time>
      </trkpt>
      <trkpt lat="45.62954" lon="6.9472">
        <ele>2066</ele>
        <time>2012-07-10T02:40:31Z</time>
      </trkpt>
      <trkpt lat="45.6296" lon="6.94719">
        <ele>2066</ele>
        <time>2012-07-10T02:40:36Z</time>
      </trkpt>
      <trkpt lat="45.62965" lon="6.94721">
        <ele>2066</ele>
        <time>2012-07-10T02:40:41Z</time>
      </trkpt>
      <trkpt lat="45.6297" lon="6.9472">
        <ele>2066</ele>
        <time>2012-07-10T02:40:46Z</time>
      </trkpt>
      <trkpt lat="45.62976" lon="6.94721">
        <ele>2067</ele>
        <time>2012-07-10T02:40:51Z</time>
      </trkpt>
      <trkpt lat="45.62981" lon="6.94722">
        <ele>2067</ele>
        <time>2012-07-10T02:40:56Z</time>
      </trkpt>
      <trkpt lat="45.62983" lon="6.94725">
        <ele>2067</ele>
        <time>2012-07-10T02:41:01Z</time>
      </trkpt>
      <trkpt lat="45.62988" lon="6.94728">
        <ele>2067</ele>
        <time>2012-07-10T02:41:06Z</time>
      </trkpt>
      <trkpt lat="45.62991" lon="6.94733">
        <ele>2067</ele>
        <time>2012-07-10T02:41:11Z</time>
      </trkpt>
      <trkpt lat="45.62992" lon="6.94739">
        <ele>2068</ele>
        <time>2012-07-10T02:41:16Z</time>
      </trkpt>
      <trkpt lat="45.62993" lon="6.94746">
        <ele>2068</ele>
        <time>2012-07-10T02:41:21Z</time>
      </trkpt>
      <trkpt lat="45.62994" lon="6.9475">
        <ele>2068</ele>
        <time>2012-07-10T02:41:26Z</time>
      </trkpt>
      <trkpt lat="45.62995" lon="6.94751">
        <ele>2068</ele>
        <time>2012-07-10T02:41:31Z</time>
      </trkpt>
      <trkpt lat="45.62997" lon="6.94753">
        <ele>2068</ele>
        <time>2012-07-10T02:41:36Z</time>
      </trkpt>
      <trkpt lat="45.62999" lon="6.94758">
        <ele>2069</ele>
        <time>2012-07-10T02:41:41Z</time>
      </trkpt>
      <trkpt lat="45.62999" lon="6.94756">
        <ele>2069</ele>
        <time>2012-07-10T02:41:46Z</time>
      </trkpt>
      <trkpt lat="45.62995" lon="6.94753">
        <ele>2069</ele>
        <time>2012-07-10T02:41:51Z</time>
      </trkpt>
      <trkpt lat="45.62993" lon="6.94758">
        <ele>2070</ele>
        <time>2012-07-10T02:41:56Z</time>
      </trkpt>
      <trkpt lat="45.62992" lon="6.94763">
        <ele>2071</ele>
        <time>2012-07-10T02:42:01Z</time>
      </trkpt>
      <trkpt lat="45.62994" lon="6.94767">
        <ele>2071</ele>
        <time>2012-07-10T02:42:06Z</time>
      </trkpt>
      <trkpt lat="45.62996" lon="6.94771">
        <ele>2071</ele>
        <time>2012-07-10T02:42:11Z</time>
      </trkpt>
      <trkpt lat="45.62996" lon="6.94777">
        <ele>2072</ele>
        <time>2012-07-10T02:42:16Z</time>
      </trkpt>
      <trkpt lat="45.62994" lon="6.94781">
        <ele>2073</ele>
        <time>2012-07-10T02:42:21Z</time>
      </trkpt>
      <trkpt lat="45.62995" lon="6.94787">
        <ele>2073</ele>
        <time>2012-07-10T02:42:26Z</time>
      </trkpt>
      <trkpt lat="45.62994" lon="6.94794">
        <ele>2073</ele>
        <time>2012-07-10T02:42:31Z</time>
      </trkpt>
      <trkpt lat="45.62995" lon="6.94801">
        <ele>2074</ele>
        <time>2012-07-10T02:42:36Z</time>
      </trkpt>
      <trkpt lat="45.62996" lon="6.94806">
        <ele>2074</ele>
        <time>2012-07-10T02:42:41Z</time>
      </trkpt>
      <trkpt lat="45.62996" lon="6.94811">
        <ele>2075</ele>
        <time>2012-07-10T02:42:46Z</time>
      </trkpt>
      <trkpt lat="45.62999" lon="6.94816">
        <ele>2075</ele>
        <time>2012-07-10T02:42:51Z</time>
      </trkpt>
      <trkpt lat="45.62999" lon="6.9482">
        <ele>2076</ele>
        <time>2012-07-10T02:42:56Z</time>
      </trkpt>
      <trkpt lat="45.62996" lon="6.94823">
        <ele>2076</ele>
        <time>2012-07-10T02:43:01Z</time>
      </trkpt>
      <trkpt lat="45.62997" lon="6.94829">
        <ele>2076</ele>
        <time>2012-07-10T02:43:06Z</time>
      </trkpt>
      <trkpt lat="45.62998" lon="6.94833">
        <ele>2077</ele>
        <time>2012-07-10T02:43:11Z</time>
      </trkpt>
      <trkpt lat="45.63" lon="6.94837">
        <ele>2076</ele>
        <time>2012-07-10T02:43:16Z</time>
      </trkpt>
      <trkpt lat="45.63002" lon="6.94843">
        <ele>2077</ele>
        <time>2012-07-10T02:43:21Z</time>
      </trkpt>
      <trkpt lat="45.63002" lon="6.94848">
        <ele>2078</ele>
        <time>2012-07-10T02:43:26Z</time>
      </trkpt>
      <trkpt lat="45.63002" lon="6.94852">
        <ele>2078</ele>
        <time>2012-07-10T02:43:31Z</time>
      </trkpt>
      <trkpt lat="45.63002" lon="6.94853">
        <ele>2079</ele>
        <time>2012-07-10T02:43:36Z</time>
      </trkpt>
      <trkpt lat="45.63002" lon="6.94854">
        <ele>2079</ele>
        <time>2012-07-10T02:43:41Z</time>
      </trkpt>
      <trkpt lat="45.63001" lon="6.94855">
        <ele>2080</ele>
        <time>2012-07-10T02:43:46Z</time>
      </trkpt>
      <trkpt lat="45.63002" lon="6.94855">
        <ele>2079</ele>
        <time>2012-07-10T02:43:51Z</time>
      </trkpt>
      <trkpt lat="45.63002" lon="6.94849">
        <ele>2078</ele>
        <time>2012-07-10T02:43:56Z</time>
      </trkpt>
      <trkpt lat="45.62999" lon="6.94843">
        <ele>2077</ele>
        <time>2012-07-10T02:44:01Z</time>
      </trkpt>
      <trkpt lat="45.62994" lon="6.94838">
        <ele>2076</ele>
        <time>2012-07-10T02:44:06Z</time>
      </trkpt>
      <trkpt lat="45.6299" lon="6.9484">
        <ele>2077</ele>
        <time>2012-07-10T02:44:11Z</time>
      </trkpt>
      <trkpt lat="45.62985" lon="6.9484">
        <ele>2077</ele>
        <time>2012-07-10T02:44:16Z</time>
      </trkpt>
      <trkpt lat="45.6298" lon="6.94841">
        <ele>2077</ele>
        <time>2012-07-10T02:44:21Z</time>
      </trkpt>
      <trkpt lat="45.62975" lon="6.94843">
        <ele>2078</ele>
        <time>2012-07-10T02:44:26Z</time>
      </trkpt>
      <trkpt lat="45.6297" lon="6.94845">
        <ele>2078</ele>
        <time>2012-07-10T02:44:31Z</time>
      </trkpt>
      <trkpt lat="45.62964" lon="6.94848">
        <ele>2078</ele>
        <time>2012-07-10T02:44:36Z</time>
      </trkpt>
      <trkpt lat="45.62959" lon="6.94851">
        <ele>2078</ele>
        <time>2012-07-10T02:44:41Z</time>
      </trkpt>
      <trkpt lat="45.62955" lon="6.94854">
        <ele>2078</ele>
        <time>2012-07-10T02:44:46Z</time>
      </trkpt>
      <trkpt lat="45.62953" lon="6.94854">
        <ele>2078</ele>
        <time>2012-07-10T02:44:51Z</time>
      </trkpt>
      <trkpt lat="45.62953" lon="6.94854">
        <ele>2079</ele>
        <time>2012-07-10T02:44:56Z</time>
      </trkpt>
      <trkpt lat="45.62953" lon="6.94854">
        <ele>2079</ele>
        <time>2012-07-10T02:45:01Z</time>
      </trkpt>
      <trkpt lat="45.6295" lon="6.94852">
        <ele>2079</ele>
        <time>2012-07-10T02:45:06Z</time>
      </trkpt>
      <trkpt lat="45.62946" lon="6.94854">
        <ele>2079</ele>
        <time>2012-07-10T02:45:11Z</time>
      </trkpt>
      <trkpt lat="45.62941" lon="6.94852">
        <ele>2079</ele>
        <time>2012-07-10T02:45:16Z</time>
      </trkpt>
      <trkpt lat="45.62936" lon="6.94849">
        <ele>2078</ele>
        <time>2012-07-10T02:45:21Z</time>
      </trkpt>
      <trkpt lat="45.6293" lon="6.94851">
        <ele>2079</ele>
        <time>2012-07-10T02:45:26Z</time>
      </trkpt>
      <trkpt lat="45.62926" lon="6.94855">
        <ele>2078</ele>
        <time>2012-07-10T02:45:31Z</time>
      </trkpt>
      <trkpt lat="45.6292" lon="6.94857">
        <ele>2078</ele>
        <time>2012-07-10T02:45:36Z</time>
      </trkpt>
      <trkpt lat="45.62914" lon="6.94857">
        <ele>2078</ele>
        <time>2012-07-10T02:45:41Z</time>
      </trkpt>
      <trkpt lat="45.62908" lon="6.94859">
        <ele>2078</ele>
        <time>2012-07-10T02:45:46Z</time>
      </trkpt>
      <trkpt lat="45.62902" lon="6.94863">
        <ele>2078</ele>
        <time>2012-07-10T02:45:51Z</time>
      </trkpt>
      <trkpt lat="45.62897" lon="6.94865">
        <ele>2078</ele>
        <time>2012-07-10T02:45:56Z</time>
      </trkpt>
      <trkpt lat="45.62893" lon="6.94869">
        <ele>2078</ele>
        <time>2012-07-10T02:46:01Z</time>
      </trkpt>
      <trkpt lat="45.62892" lon="6.94872">
        <ele>2078</ele>
        <time>2012-07-10T02:46:06Z</time>
      </trkpt>
      <trkpt lat="45.62892" lon="6.94875">
        <ele>2079</ele>
        <time>2012-07-10T02:46:11Z</time>
      </trkpt>
      <trkpt lat="45.62895" lon="6.94876">
        <ele>2080</ele>
        <time>2012-07-10T02:46:16Z</time>
      </trkpt>
      <trkpt lat="45.62898" lon="6.94878">
        <ele>2081</ele>
        <time>2012-07-10T02:46:21Z</time>
      </trkpt>
      <trkpt lat="45.62898" lon="6.94881">
        <ele>2082</ele>
        <time>2012-07-10T02:46:26Z</time>
      </trkpt>
      <trkpt lat="45.62895" lon="6.94886">
        <ele>2083</ele>
        <time>2012-07-10T02:46:31Z</time>
      </trkpt>
      <trkpt lat="45.62892" lon="6.94892">
        <ele>2083</ele>
        <time>2012-07-10T02:46:36Z</time>
      </trkpt>
      <trkpt lat="45.62891" lon="6.94897">
        <ele>2084</ele>
        <time>2012-07-10T02:46:41Z</time>
      </trkpt>
      <trkpt lat="45.62893" lon="6.949">
        <ele>2086</ele>
        <time>2012-07-10T02:46:46Z</time>
      </trkpt>
      <trkpt lat="45.62895" lon="6.94902">
        <ele>2087</ele>
        <time>2012-07-10T02:46:51Z</time>
      </trkpt>
      <trkpt lat="45.62899" lon="6.94903">
        <ele>2088</ele>
        <time>2012-07-10T02:46:56Z</time>
      </trkpt>
      <trkpt lat="45.62901" lon="6.94904">
        <ele>2089</ele>
        <time>2012-07-10T02:47:01Z</time>
      </trkpt>
      <trkpt lat="45.62902" lon="6.94907">
        <ele>2091</ele>
        <time>2012-07-10T02:47:06Z</time>
      </trkpt>
      <trkpt lat="45.62902" lon="6.9491">
        <ele>2092</ele>
        <time>2012-07-10T02:47:11Z</time>
      </trkpt>
      <trkpt lat="45.62904" lon="6.94913">
        <ele>2093</ele>
        <time>2012-07-10T02:47:16Z</time>
      </trkpt>
      <trkpt lat="45.62906" lon="6.94916">
        <ele>2094</ele>
        <time>2012-07-10T02:47:21Z</time>
      </trkpt>
      <trkpt lat="45.62907" lon="6.9492">
        <ele>2094</ele>
        <time>2012-07-10T02:47:26Z</time>
      </trkpt>
      <trkpt lat="45.62906" lon="6.94926">
        <ele>2095</ele>
        <time>2012-07-10T02:47:31Z</time>
      </trkpt>
      <trkpt lat="45.62904" lon="6.9493">
        <ele>2095</ele>
        <time>2012-07-10T02:47:36Z</time>
      </trkpt>
      <trkpt lat="45.62904" lon="6.94934">
        <ele>2096</ele>
        <time>2012-07-10T02:47:41Z</time>
      </trkpt>
      <trkpt lat="45.62904" lon="6.94941">
        <ele>2096</ele>
        <time>2012-07-10T02:47:46Z</time>
      </trkpt>
      <trkpt lat="45.62906" lon="6.94946">
        <ele>2097</ele>
        <time>2012-07-10T02:47:51Z</time>
      </trkpt>
      <trkpt lat="45.62909" lon="6.94946">
        <ele>2097</ele>
        <time>2012-07-10T02:47:56Z</time>
      </trkpt>
      <trkpt lat="45.6291" lon="6.94948">
        <ele>2097</ele>
        <time>2012-07-10T02:48:01Z</time>
      </trkpt>
      <trkpt lat="45.62911" lon="6.94948">
        <ele>2098</ele>
        <time>2012-07-10T02:48:06Z</time>
      </trkpt>
      <trkpt lat="45.62912" lon="6.94948">
        <ele>2098</ele>
        <time>2012-07-10T02:48:11Z</time>
      </trkpt>
      <trkpt lat="45.62914" lon="6.94946">
        <ele>2098</ele>
        <time>2012-07-10T02:48:16Z</time>
      </trkpt>
      <trkpt lat="45.62915" lon="6.94944">
        <ele>2098</ele>
        <time>2012-07-10T02:48:21Z</time>
      </trkpt>
      <trkpt lat="45.62918" lon="6.94944">
        <ele>2099</ele>
        <time>2012-07-10T02:48:26Z</time>
      </trkpt>
      <trkpt lat="45.62921" lon="6.94944">
        <ele>2099</ele>
        <time>2012-07-10T02:48:31Z</time>
      </trkpt>
      <trkpt lat="45.62924" lon="6.94944">
        <ele>2099</ele>
        <time>2012-07-10T02:48:36Z</time>
      </trkpt>
      <trkpt lat="45.62928" lon="6.94946">
        <ele>2100</ele>
        <time>2012-07-10T02:48:41Z</time>
      </trkpt>
      <trkpt lat="45.62932" lon="6.94949">
        <ele>2100</ele>
        <time>2012-07-10T02:48:46Z</time>
      </trkpt>
      <trkpt lat="45.62934" lon="6.94954">
        <ele>2100</ele>
        <time>2012-07-10T02:48:51Z</time>
      </trkpt>
      <trkpt lat="45.62938" lon="6.94954">
        <ele>2100</ele>
        <time>2012-07-10T02:48:56Z</time>
      </trkpt>
      <trkpt lat="45.62943" lon="6.94957">
        <ele>2101</ele>
        <time>2012-07-10T02:49:01Z</time>
      </trkpt>
      <trkpt lat="45.62947" lon="6.94962">
        <ele>2101</ele>
        <time>2012-07-10T02:49:06Z</time>
      </trkpt>
      <trkpt lat="45.62948" lon="6.94968">
        <ele>2102</ele>
        <time>2012-07-10T02:49:11Z</time>
      </trkpt>
      <trkpt lat="45.62948" lon="6.94976">
        <ele>2102</ele>
        <time>2012-07-10T02:49:16Z</time>
      </trkpt>
      <trkpt lat="45.62951" lon="6.94981">
        <ele>2102</ele>
        <time>2012-07-10T02:49:21Z</time>
      </trkpt>
      <trkpt lat="45.62953" lon="6.94983">
        <ele>2103</ele>
        <time>2012-07-10T02:49:26Z</time>
      </trkpt>
      <trkpt lat="45.62955" lon="6.94984">
        <ele>2104</ele>
        <time>2012-07-10T02:49:31Z</time>
      </trkpt>
      <trkpt lat="45.62956" lon="6.94987">
        <ele>2104</ele>
        <time>2012-07-10T02:49:36Z</time>
      </trkpt>
      <trkpt lat="45.62956" lon="6.94987">
        <ele>2105</ele>
        <time>2012-07-10T02:49:41Z</time>
      </trkpt>
      <trkpt lat="45.62957" lon="6.94987">
        <ele>2105</ele>
        <time>2012-07-10T02:49:46Z</time>
      </trkpt>
      <trkpt lat="45.62959" lon="6.94986">
        <ele>2105</ele>
        <time>2012-07-10T02:49:51Z</time>
      </trkpt>
      <trkpt lat="45.6296" lon="6.94986">
        <ele>2105</ele>
        <time>2012-07-10T02:49:56Z</time>
      </trkpt>
      <trkpt lat="45.6296" lon="6.94986">
        <ele>2106</ele>
        <time>2012-07-10T02:50:01Z</time>
      </trkpt>
      <trkpt lat="45.62962" lon="6.94987">
        <ele>2105</ele>
        <time>2012-07-10T02:50:06Z</time>
      </trkpt>
      <trkpt lat="45.62964" lon="6.94988">
        <ele>2105</ele>
        <time>2012-07-10T02:50:11Z</time>
      </trkpt>
      <trkpt lat="45.62964" lon="6.94988">
        <ele>2105</ele>
        <time>2012-07-10T02:50:16Z</time>
      </trkpt>
      <trkpt lat="45.62966" lon="6.94987">
        <ele>2105</ele>
        <time>2012-07-10T02:50:21Z</time>
      </trkpt>
      <trkpt lat="45.62967" lon="6.94985">
        <ele>2105</ele>
        <time>2012-07-10T02:50:26Z</time>
      </trkpt>
      <trkpt lat="45.62968" lon="6.94987">
        <ele>2105</ele>
        <time>2012-07-10T02:50:31Z</time>
      </trkpt>
      <trkpt lat="45.6297" lon="6.94989">
        <ele>2106</ele>
        <time>2012-07-10T02:50:36Z</time>
      </trkpt>
      <trkpt lat="45.62972" lon="6.94988">
        <ele>2106</ele>
        <time>2012-07-10T02:50:41Z</time>
      </trkpt>
      <trkpt lat="45.62972" lon="6.94988">
        <ele>2107</ele>
        <time>2012-07-10T02:50:46Z</time>
      </trkpt>
      <trkpt lat="45.62972" lon="6.94988">
        <ele>2107</ele>
        <time>2012-07-10T02:50:51Z</time>
      </trkpt>
      <trkpt lat="45.62973" lon="6.9499">
        <ele>2107</ele>
        <time>2012-07-10T02:50:56Z</time>
      </trkpt>
      <trkpt lat="45.62973" lon="6.9499">
        <ele>2107</ele>
        <time>2012-07-10T02:51:01Z</time>
      </trkpt>
      <trkpt lat="45.62973" lon="6.9499">
        <ele>2106</ele>
        <time>2012-07-10T02:51:06Z</time>
      </trkpt>
      <trkpt lat="45.62974" lon="6.94992">
        <ele>2106</ele>
        <time>2012-07-10T02:51:11Z</time>
      </trkpt>
      <trkpt lat="45.62976" lon="6.94993">
        <ele>2106</ele>
        <time>2012-07-10T02:51:16Z</time>
      </trkpt>
      <trkpt lat="45.62979" lon="6.94994">
        <ele>2106</ele>
        <time>2012-07-10T02:51:21Z</time>
      </trkpt>
      <trkpt lat="45.62981" lon="6.94995">
        <ele>2104</ele>
        <time>2012-07-10T02:51:26Z</time>
      </trkpt>
      <trkpt lat="45.62983" lon="6.94997">
        <ele>2104</ele>
        <time>2012-07-10T02:51:31Z</time>
      </trkpt>
      <trkpt lat="45.62983" lon="6.95">
        <ele>2104</ele>
        <time>2012-07-10T02:51:36Z</time>
      </trkpt>
      <trkpt lat="45.62983" lon="6.95002">
        <ele>2099</ele>
        <time>2012-07-10T02:51:41Z</time>
      </trkpt>
      <trkpt lat="45.62986" lon="6.95005">
        <ele>2099</ele>
        <time>2012-07-10T02:51:46Z</time>
      </trkpt>
      <trkpt lat="45.62989" lon="6.95005">
        <ele>2099</ele>
        <time>2012-07-10T02:51:51Z</time>
      </trkpt>
      <trkpt lat="45.62992" lon="6.95009">
        <ele>2099</ele>
        <time>2012-07-10T02:51:56Z</time>
      </trkpt>
      <trkpt lat="45.62993" lon="6.95013">
        <ele>2100</ele>
        <time>2012-07-10T02:52:01Z</time>
      </trkpt>
      <trkpt lat="45.62993" lon="6.95017">
        <ele>2100</ele>
        <time>2012-07-10T02:52:06Z</time>
      </trkpt>
      <trkpt lat="45.62998" lon="6.9502">
        <ele>2100</ele>
        <time>2012-07-10T02:52:11Z</time>
      </trkpt>
      <trkpt lat="45.63002" lon="6.95022">
        <ele>2100</ele>
        <time>2012-07-10T02:52:16Z</time>
      </trkpt>
      <trkpt lat="45.63007" lon="6.95025">
        <ele>2100</ele>
        <time>2012-07-10T02:52:21Z</time>
      </trkpt>
      <trkpt lat="45.63009" lon="6.95029">
        <ele>2099</ele>
        <time>2012-07-10T02:58:16Z</time>
      </trkpt>
      <trkpt lat="45.63006" lon="6.95033">
        <ele>2100</ele>
        <time>2012-07-10T02:58:21Z</time>
      </trkpt>
      <trkpt lat="45.63002" lon="6.95035">
        <ele>2101</ele>
        <time>2012-07-10T02:58:26Z</time>
      </trkpt>
      <trkpt lat="45.63001" lon="6.9504">
        <ele>2101</ele>
        <time>2012-07-10T02:58:31Z</time>
      </trkpt>
      <trkpt lat="45.62998" lon="6.95042">
        <ele>2102</ele>
        <time>2012-07-10T02:58:36Z</time>
      </trkpt>
      <trkpt lat="45.62993" lon="6.95043">
        <ele>2102</ele>
        <time>2012-07-10T02:58:41Z</time>
      </trkpt>
      <trkpt lat="45.6299" lon="6.95048">
        <ele>2103</ele>
        <time>2012-07-10T02:58:46Z</time>
      </trkpt>
      <trkpt lat="45.62989" lon="6.95053">
        <ele>2103</ele>
        <time>2012-07-10T02:58:51Z</time>
      </trkpt>
      <trkpt lat="45.62989" lon="6.95055">
        <ele>2103</ele>
        <time>2012-07-10T02:58:56Z</time>
      </trkpt>
      <trkpt lat="45.62989" lon="6.95057">
        <ele>2103</ele>
        <time>2012-07-10T02:59:01Z</time>
      </trkpt>
      <trkpt lat="45.62988" lon="6.95058">
        <ele>2103</ele>
        <time>2012-07-10T02:59:06Z</time>
      </trkpt>
      <trkpt lat="45.62987" lon="6.95058">
        <ele>2104</ele>
        <time>2012-07-10T02:59:11Z</time>
      </trkpt>
      <trkpt lat="45.62986" lon="6.95058">
        <ele>2104</ele>
        <time>2012-07-10T02:59:16Z</time>
      </trkpt>
      <trkpt lat="45.62986" lon="6.95058">
        <ele>2104</ele>
        <time>2012-07-10T02:59:21Z</time>
      </trkpt>
      <trkpt lat="45.62986" lon="6.95057">
        <ele>2104</ele>
        <time>2012-07-10T02:59:26Z</time>
      </trkpt>
      <trkpt lat="45.62986" lon="6.95058">
        <ele>2104</ele>
        <time>2012-07-10T02:59:31Z</time>
      </trkpt>
      <trkpt lat="45.62986" lon="6.95058">
        <ele>2104</ele>
        <time>2012-07-10T02:59:36Z</time>
      </trkpt>
      <trkpt lat="45.62986" lon="6.95058">
        <ele>2104</ele>
        <time>2012-07-10T02:59:41Z</time>
      </trkpt>
      <trkpt lat="45.62987" lon="6.95058">
        <ele>2105</ele>
        <time>2012-07-10T02:59:46Z</time>
      </trkpt>
      <trkpt lat="45.62987" lon="6.95059">
        <ele>2105</ele>
        <time>2012-07-10T02:59:51Z</time>
      </trkpt>
      <trkpt lat="45.62988" lon="6.9506">
        <ele>2106</ele>
        <time>2012-07-10T02:59:56Z</time>
      </trkpt>
      <trkpt lat="45.6299" lon="6.95059">
        <ele>2105</ele>
        <time>2012-07-10T03:00:01Z</time>
      </trkpt>
      <trkpt lat="45.62992" lon="6.95062">
        <ele>2105</ele>
        <time>2012-07-10T03:00:06Z</time>
      </trkpt>
      <trkpt lat="45.62992" lon="6.95063">
        <ele>2105</ele>
        <time>2012-07-10T03:00:11Z</time>
      </trkpt>
      <trkpt lat="45.62992" lon="6.95065">
        <ele>2105</ele>
        <time>2012-07-10T03:00:16Z</time>
      </trkpt>
      <trkpt lat="45.62992" lon="6.95066">
        <ele>2105</ele>
        <time>2012-07-10T03:00:21Z</time>
      </trkpt>
      <trkpt lat="45.62991" lon="6.95066">
        <ele>2105</ele>
        <time>2012-07-10T03:00:26Z</time>
      </trkpt>
      <trkpt lat="45.6299" lon="6.95066">
        <ele>2105</ele>
        <time>2012-07-10T03:00:31Z</time>
      </trkpt>
      <trkpt lat="45.62989" lon="6.95067">
        <ele>2105</ele>
        <time>2012-07-10T03:00:36Z</time>
      </trkpt>
      <trkpt lat="45.62989" lon="6.95067">
        <ele>2105</ele>
        <time>2012-07-10T03:00:41Z</time>
      </trkpt>
      <trkpt lat="45.62988" lon="6.95067">
        <ele>2105</ele>
        <time>2012-07-10T03:00:46Z</time>
      </trkpt>
      <trkpt lat="45.62986" lon="6.95068">
        <ele>2105</ele>
        <time>2012-07-10T03:00:51Z</time>
      </trkpt>
      <trkpt lat="45.62986" lon="6.95068">
        <ele>2106</ele>
        <time>2012-07-10T03:00:56Z</time>
      </trkpt>
      <trkpt lat="45.62985" lon="6.95067">
        <ele>2106</ele>
        <time>2012-07-10T03:01:01Z</time>
      </trkpt>
      <trkpt lat="45.62985" lon="6.95065">
        <ele>2106</ele>
        <time>2012-07-10T03:01:06Z</time>
      </trkpt>
      <trkpt lat="45.62984" lon="6.95064">
        <ele>2106</ele>
        <time>2012-07-10T03:01:11Z</time>
      </trkpt>
      <trkpt lat="45.62984" lon="6.95064">
        <ele>2105</ele>
        <time>2012-07-10T03:01:16Z</time>
      </trkpt>
      <trkpt lat="45.62984" lon="6.95064">
        <ele>2105</ele>
        <time>2012-07-10T03:01:21Z</time>
      </trkpt>
      <trkpt lat="45.62983" lon="6.95064">
        <ele>2107</ele>
        <time>2012-07-10T03:01:26Z</time>
      </trkpt>
      <trkpt lat="45.62982" lon="6.95063">
        <ele>2107</ele>
        <time>2012-07-10T03:01:31Z</time>
      </trkpt>
      <trkpt lat="45.62981" lon="6.95063">
        <ele>2107</ele>
        <time>2012-07-10T03:01:36Z</time>
      </trkpt>
      <trkpt lat="45.6298" lon="6.95063">
        <ele>2108</ele>
        <time>2012-07-10T03:01:41Z</time>
      </trkpt>
      <trkpt lat="45.62977" lon="6.95061">
        <ele>2108</ele>
        <time>2012-07-10T03:01:46Z</time>
      </trkpt>
      <trkpt lat="45.62974" lon="6.95062">
        <ele>2109</ele>
        <time>2012-07-10T03:01:51Z</time>
      </trkpt>
      <trkpt lat="45.62972" lon="6.95064">
        <ele>2110</ele>
        <time>2012-07-10T03:01:56Z</time>
      </trkpt>
      <trkpt lat="45.6297" lon="6.95067">
        <ele>2110</ele>
        <time>2012-07-10T03:02:01Z</time>
      </trkpt>
      <trkpt lat="45.62969" lon="6.95071">
        <ele>2110</ele>
        <time>2012-07-10T03:02:06Z</time>
      </trkpt>
      <trkpt lat="45.62969" lon="6.95075">
        <ele>2111</ele>
        <time>2012-07-10T03:02:11Z</time>
      </trkpt>
      <trkpt lat="45.62968" lon="6.95079">
        <ele>2111</ele>
        <time>2012-07-10T03:02:16Z</time>
      </trkpt>
      <trkpt lat="45.62968" lon="6.95083">
        <ele>2112</ele>
        <time>2012-07-10T03:02:21Z</time>
      </trkpt>
      <trkpt lat="45.62966" lon="6.95087">
        <ele>2113</ele>
        <time>2012-07-10T03:02:26Z</time>
      </trkpt>
      <trkpt lat="45.62966" lon="6.95092">
        <ele>2114</ele>
        <time>2012-07-10T03:02:31Z</time>
      </trkpt>
      <trkpt lat="45.62966" lon="6.95095">
        <ele>2114</ele>
        <time>2012-07-10T03:02:36Z</time>
      </trkpt>
      <trkpt lat="45.62965" lon="6.95097">
        <ele>2115</ele>
        <time>2012-07-10T03:02:41Z</time>
      </trkpt>
      <trkpt lat="45.62965" lon="6.95099">
        <ele>2116</ele>
        <time>2012-07-10T03:02:46Z</time>
      </trkpt>
      <trkpt lat="45.62965" lon="6.95099">
        <ele>2117</ele>
        <time>2012-07-10T03:02:51Z</time>
      </trkpt>
      <trkpt lat="45.62963" lon="6.95102">
        <ele>2118</ele>
        <time>2012-07-10T03:02:56Z</time>
      </trkpt>
      <trkpt lat="45.62962" lon="6.95105">
        <ele>2119</ele>
        <time>2012-07-10T03:03:01Z</time>
      </trkpt>
      <trkpt lat="45.62961" lon="6.95108">
        <ele>2120</ele>
        <time>2012-07-10T03:03:06Z</time>
      </trkpt>
      <trkpt lat="45.6296" lon="6.95111">
        <ele>2121</ele>
        <time>2012-07-10T03:03:11Z</time>
      </trkpt>
      <trkpt lat="45.62957" lon="6.95115">
        <ele>2122</ele>
        <time>2012-07-10T03:03:16Z</time>
      </trkpt>
      <trkpt lat="45.62956" lon="6.95119">
        <ele>2123</ele>
        <time>2012-07-10T03:03:21Z</time>
      </trkpt>
      <trkpt lat="45.62954" lon="6.95123">
        <ele>2124</ele>
        <time>2012-07-10T03:03:26Z</time>
      </trkpt>
      <trkpt lat="45.62953" lon="6.95124">
        <ele>2125</ele>
        <time>2012-07-10T03:03:31Z</time>
      </trkpt>
      <trkpt lat="45.6295" lon="6.95126">
        <ele>2126</ele>
        <time>2012-07-10T03:03:36Z</time>
      </trkpt>
      <trkpt lat="45.62948" lon="6.9513">
        <ele>2127</ele>
        <time>2012-07-10T03:03:41Z</time>
      </trkpt>
      <trkpt lat="45.62947" lon="6.95134">
        <ele>2127</ele>
        <time>2012-07-10T03:03:46Z</time>
      </trkpt>
      <trkpt lat="45.62945" lon="6.95139">
        <ele>2127</ele>
        <time>2012-07-10T03:03:51Z</time>
      </trkpt>
      <trkpt lat="45.62943" lon="6.95143">
        <ele>2128</ele>
        <time>2012-07-10T03:03:56Z</time>
      </trkpt>
      <trkpt lat="45.62943" lon="6.95148">
        <ele>2129</ele>
        <time>2012-07-10T03:04:01Z</time>
      </trkpt>
      <trkpt lat="45.62942" lon="6.95149">
        <ele>2129</ele>
        <time>2012-07-10T03:04:06Z</time>
      </trkpt>
      <trkpt lat="45.62941" lon="6.9515">
        <ele>2129</ele>
        <time>2012-07-10T03:04:11Z</time>
      </trkpt>
      <trkpt lat="45.62938" lon="6.95154">
        <ele>2129</ele>
        <time>2012-07-10T03:04:16Z</time>
      </trkpt>
      <trkpt lat="45.62935" lon="6.95156">
        <ele>2130</ele>
        <time>2012-07-10T03:04:21Z</time>
      </trkpt>
      <trkpt lat="45.62933" lon="6.95158">
        <ele>2131</ele>
        <time>2012-07-10T03:04:26Z</time>
      </trkpt>
      <trkpt lat="45.6293" lon="6.95161">
        <ele>2132</ele>
        <time>2012-07-10T03:04:31Z</time>
      </trkpt>
      <trkpt lat="45.62929" lon="6.95165">
        <ele>2133</ele>
        <time>2012-07-10T03:04:36Z</time>
      </trkpt>
      <trkpt lat="45.62927" lon="6.95166">
        <ele>2134</ele>
        <time>2012-07-10T03:04:41Z</time>
      </trkpt>
      <trkpt lat="45.62925" lon="6.9517">
        <ele>2135</ele>
        <time>2012-07-10T03:04:46Z</time>
      </trkpt>
      <trkpt lat="45.62922" lon="6.95172">
        <ele>2135</ele>
        <time>2012-07-10T03:04:51Z</time>
      </trkpt>
      <trkpt lat="45.62919" lon="6.95173">
        <ele>2136</ele>
        <time>2012-07-10T03:04:56Z</time>
      </trkpt>
      <trkpt lat="45.62917" lon="6.95177">
        <ele>2137</ele>
        <time>2012-07-10T03:05:01Z</time>
      </trkpt>
      <trkpt lat="45.62917" lon="6.95182">
        <ele>2138</ele>
        <time>2012-07-10T03:05:06Z</time>
      </trkpt>
      <trkpt lat="45.62919" lon="6.95186">
        <ele>2139</ele>
        <time>2012-07-10T03:05:11Z</time>
      </trkpt>
      <trkpt lat="45.6292" lon="6.95192">
        <ele>2140</ele>
        <time>2012-07-10T03:05:16Z</time>
      </trkpt>
      <trkpt lat="45.62922" lon="6.95198">
        <ele>2140</ele>
        <time>2012-07-10T03:05:21Z</time>
      </trkpt>
      <trkpt lat="45.62923" lon="6.95204">
        <ele>2141</ele>
        <time>2012-07-10T03:05:26Z</time>
      </trkpt>
      <trkpt lat="45.62925" lon="6.95209">
        <ele>2141</ele>
        <time>2012-07-10T03:05:31Z</time>
      </trkpt>
      <trkpt lat="45.62924" lon="6.95213">
        <ele>2141</ele>
        <time>2012-07-10T03:05:36Z</time>
      </trkpt>
      <trkpt lat="45.62922" lon="6.95215">
        <ele>2142</ele>
        <time>2012-07-10T03:05:41Z</time>
      </trkpt>
      <trkpt lat="45.62919" lon="6.95218">
        <ele>2143</ele>
        <time>2012-07-10T03:05:46Z</time>
      </trkpt>
      <trkpt lat="45.62917" lon="6.95222">
        <ele>2144</ele>
        <time>2012-07-10T03:05:51Z</time>
      </trkpt>
      <trkpt lat="45.62917" lon="6.95227">
        <ele>2145</ele>
        <time>2012-07-10T03:05:56Z</time>
      </trkpt>
      <trkpt lat="45.62915" lon="6.9523">
        <ele>2146</ele>
        <time>2012-07-10T03:06:01Z</time>
      </trkpt>
      <trkpt lat="45.62913" lon="6.95234">
        <ele>2147</ele>
        <time>2012-07-10T03:06:06Z</time>
      </trkpt>
      <trkpt lat="45.62911" lon="6.95237">
        <ele>2148</ele>
        <time>2012-07-10T03:06:11Z</time>
      </trkpt>
      <trkpt lat="45.62912" lon="6.95241">
        <ele>2148</ele>
        <time>2012-07-10T03:06:16Z</time>
      </trkpt>
      <trkpt lat="45.62911" lon="6.95244">
        <ele>2149</ele>
        <time>2012-07-10T03:06:21Z</time>
      </trkpt>
      <trkpt lat="45.62909" lon="6.95246">
        <ele>2150</ele>
        <time>2012-07-10T03:06:26Z</time>
      </trkpt>
      <trkpt lat="45.62911" lon="6.95248">
        <ele>2152</ele>
        <time>2012-07-10T03:06:31Z</time>
      </trkpt>
      <trkpt lat="45.62912" lon="6.95251">
        <ele>2153</ele>
        <time>2012-07-10T03:06:36Z</time>
      </trkpt>
      <trkpt lat="45.62909" lon="6.95255">
        <ele>2153</ele>
        <time>2012-07-10T03:06:41Z</time>
      </trkpt>
      <trkpt lat="45.6291" lon="6.95258">
        <ele>2154</ele>
        <time>2012-07-10T03:06:46Z</time>
      </trkpt>
      <trkpt lat="45.62911" lon="6.9526">
        <ele>2155</ele>
        <time>2012-07-10T03:06:51Z</time>
      </trkpt>
      <trkpt lat="45.62912" lon="6.95261">
        <ele>2156</ele>
        <time>2012-07-10T03:06:56Z</time>
      </trkpt>
      <trkpt lat="45.62914" lon="6.95262">
        <ele>2157</ele>
        <time>2012-07-10T03:07:01Z</time>
      </trkpt>
      <trkpt lat="45.62914" lon="6.95265">
        <ele>2158</ele>
        <time>2012-07-10T03:07:06Z</time>
      </trkpt>
      <trkpt lat="45.62913" lon="6.95267">
        <ele>2159</ele>
        <time>2012-07-10T03:07:11Z</time>
      </trkpt>
      <trkpt lat="45.62912" lon="6.95268">
        <ele>2160</ele>
        <time>2012-07-10T03:07:16Z</time>
      </trkpt>
      <trkpt lat="45.62913" lon="6.9527">
        <ele>2161</ele>
        <time>2012-07-10T03:07:21Z</time>
      </trkpt>
      <trkpt lat="45.62912" lon="6.9527">
        <ele>2162</ele>
        <time>2012-07-10T03:07:26Z</time>
      </trkpt>
      <trkpt lat="45.62911" lon="6.95271">
        <ele>2163</ele>
        <time>2012-07-10T03:07:31Z</time>
      </trkpt>
      <trkpt lat="45.62912" lon="6.95273">
        <ele>2164</ele>
        <time>2012-07-10T03:07:36Z</time>
      </trkpt>
      <trkpt lat="45.62912" lon="6.95274">
        <ele>2164</ele>
        <time>2012-07-10T03:07:41Z</time>
      </trkpt>
      <trkpt lat="45.62912" lon="6.95275">
        <ele>2165</ele>
        <time>2012-07-10T03:07:46Z</time>
      </trkpt>
      <trkpt lat="45.62911" lon="6.95277">
        <ele>2166</ele>
        <time>2012-07-10T03:07:51Z</time>
      </trkpt>
      <trkpt lat="45.62909" lon="6.95277">
        <ele>2167</ele>
        <time>2012-07-10T03:07:56Z</time>
      </trkpt>
      <trkpt lat="45.62907" lon="6.95279">
        <ele>2167</ele>
        <time>2012-07-10T03:08:01Z</time>
      </trkpt>
      <trkpt lat="45.62907" lon="6.95279">
        <ele>2167</ele>
        <time>2012-07-10T03:08:06Z</time>
      </trkpt>
      <trkpt lat="45.62908" lon="6.95279">
        <ele>2166</ele>
        <time>2012-07-10T03:08:11Z</time>
      </trkpt>
      <trkpt lat="45.62908" lon="6.95279">
        <ele>2166</ele>
        <time>2012-07-10T03:08:16Z</time>
      </trkpt>
      <trkpt lat="45.62908" lon="6.95279">
        <ele>2167</ele>
        <time>2012-07-10T03:08:21Z</time>
      </trkpt>
      <trkpt lat="45.62907" lon="6.95279">
        <ele>2167</ele>
        <time>2012-07-10T03:08:26Z</time>
      </trkpt>
      <trkpt lat="45.62907" lon="6.95279">
        <ele>2167</ele>
        <time>2012-07-10T03:08:31Z</time>
      </trkpt>
      <trkpt lat="45.62906" lon="6.95279">
        <ele>2167</ele>
        <time>2012-07-10T03:08:36Z</time>
      </trkpt>
      <trkpt lat="45.62905" lon="6.9528">
        <ele>2168</ele>
        <time>2012-07-10T03:08:41Z</time>
      </trkpt>
      <trkpt lat="45.62907" lon="6.9528">
        <ele>2168</ele>
        <time>2012-07-10T03:08:46Z</time>
      </trkpt>
      <trkpt lat="45.62907" lon="6.95281">
        <ele>2168</ele>
        <time>2012-07-10T03:08:51Z</time>
      </trkpt>
      <trkpt lat="45.62906" lon="6.9528">
        <ele>2169</ele>
        <time>2012-07-10T03:08:56Z</time>
      </trkpt>
      <trkpt lat="45.62906" lon="6.95281">
        <ele>2169</ele>
        <time>2012-07-10T03:09:01Z</time>
      </trkpt>
      <trkpt lat="45.62906" lon="6.95282">
        <ele>2170</ele>
        <time>2012-07-10T03:09:06Z</time>
      </trkpt>
      <trkpt lat="45.62905" lon="6.95281">
        <ele>2170</ele>
        <time>2012-07-10T03:09:11Z</time>
      </trkpt>
      <trkpt lat="45.62905" lon="6.95281">
        <ele>2170</ele>
        <time>2012-07-10T03:09:16Z</time>
      </trkpt>
      <trkpt lat="45.62904" lon="6.95282">
        <ele>2170</ele>
        <time>2012-07-10T03:09:21Z</time>
      </trkpt>
      <trkpt lat="45.62906" lon="6.95283">
        <ele>2170</ele>
        <time>2012-07-10T03:09:26Z</time>
      </trkpt>
      <trkpt lat="45.62907" lon="6.95284">
        <ele>2171</ele>
        <time>2012-07-10T03:09:31Z</time>
      </trkpt>
      <trkpt lat="45.62907" lon="6.95285">
        <ele>2172</ele>
        <time>2012-07-10T03:09:36Z</time>
      </trkpt>
      <trkpt lat="45.62907" lon="6.95285">
        <ele>2172</ele>
        <time>2012-07-10T03:09:41Z</time>
      </trkpt>
      <trkpt lat="45.62907" lon="6.95286">
        <ele>2172</ele>
        <time>2012-07-10T03:09:46Z</time>
      </trkpt>
      <trkpt lat="45.62906" lon="6.95288">
        <ele>2173</ele>
        <time>2012-07-10T03:09:51Z</time>
      </trkpt>
      <trkpt lat="45.62905" lon="6.95291">
        <ele>2174</ele>
        <time>2012-07-10T03:09:56Z</time>
      </trkpt>
      <trkpt lat="45.62905" lon="6.95291">
        <ele>2174</ele>
        <time>2012-07-10T03:10:01Z</time>
      </trkpt>
      <trkpt lat="45.62905" lon="6.95291">
        <ele>2174</ele>
        <time>2012-07-10T03:10:06Z</time>
      </trkpt>
      <trkpt lat="45.62905" lon="6.95291">
        <ele>2174</ele>
        <time>2012-07-10T03:10:11Z</time>
      </trkpt>
      <trkpt lat="45.62905" lon="6.95292">
        <ele>2174</ele>
        <time>2012-07-10T03:10:16Z</time>
      </trkpt>
      <trkpt lat="45.62904" lon="6.95294">
        <ele>2175</ele>
        <time>2012-07-10T03:10:21Z</time>
      </trkpt>
      <trkpt lat="45.62904" lon="6.95295">
        <ele>2176</ele>
        <time>2012-07-10T03:10:26Z</time>
      </trkpt>
      <trkpt lat="45.62904" lon="6.95297">
        <ele>2177</ele>
        <time>2012-07-10T03:10:31Z</time>
      </trkpt>
      <trkpt lat="45.62903" lon="6.95298">
        <ele>2177</ele>
        <time>2012-07-10T03:10:36Z</time>
      </trkpt>
      <trkpt lat="45.62903" lon="6.95298">
        <ele>2177</ele>
        <time>2012-07-10T03:10:41Z</time>
      </trkpt>
      <trkpt lat="45.62903" lon="6.95299">
        <ele>2177</ele>
        <time>2012-07-10T03:10:46Z</time>
      </trkpt>
      <trkpt lat="45.62902" lon="6.95299">
        <ele>2178</ele>
        <time>2012-07-10T03:10:51Z</time>
      </trkpt>
      <trkpt lat="45.629" lon="6.953">
        <ele>2178</ele>
        <time>2012-07-10T03:10:56Z</time>
      </trkpt>
      <trkpt lat="45.62899" lon="6.95302">
        <ele>2179</ele>
        <time>2012-07-10T03:11:01Z</time>
      </trkpt>
      <trkpt lat="45.62901" lon="6.95304">
        <ele>2180</ele>
        <time>2012-07-10T03:11:06Z</time>
      </trkpt>
      <trkpt lat="45.62903" lon="6.95306">
        <ele>2180</ele>
        <time>2012-07-10T03:11:11Z</time>
      </trkpt>
      <trkpt lat="45.62904" lon="6.95309">
        <ele>2181</ele>
        <time>2012-07-10T03:11:16Z</time>
      </trkpt>
      <trkpt lat="45.62903" lon="6.95312">
        <ele>2182</ele>
        <time>2012-07-10T03:11:21Z</time>
      </trkpt>
      <trkpt lat="45.62901" lon="6.95315">
        <ele>2182</ele>
        <time>2012-07-10T03:11:26Z</time>
      </trkpt>
      <trkpt lat="45.62898" lon="6.95314">
        <ele>2182</ele>
        <time>2012-07-10T03:11:31Z</time>
      </trkpt>
      <trkpt lat="45.62896" lon="6.95316">
        <ele>2182</ele>
        <time>2012-07-10T03:11:36Z</time>
      </trkpt>
      <trkpt lat="45.62895" lon="6.95318">
        <ele>2182</ele>
        <time>2012-07-10T03:11:41Z</time>
      </trkpt>
      <trkpt lat="45.62897" lon="6.9532">
        <ele>2182</ele>
        <time>2012-07-10T03:11:46Z</time>
      </trkpt>
      <trkpt lat="45.62899" lon="6.95321">
        <ele>2183</ele>
        <time>2012-07-10T03:11:51Z</time>
      </trkpt>
      <trkpt lat="45.62901" lon="6.95322">
        <ele>2184</ele>
        <time>2012-07-10T03:11:56Z</time>
      </trkpt>
      <trkpt lat="45.62901" lon="6.95325">
        <ele>2184</ele>
        <time>2012-07-10T03:12:01Z</time>
      </trkpt>
      <trkpt lat="45.62901" lon="6.95327">
        <ele>2185</ele>
        <time>2012-07-10T03:12:06Z</time>
      </trkpt>
      <trkpt lat="45.62903" lon="6.95326">
        <ele>2186</ele>
        <time>2012-07-10T03:12:11Z</time>
      </trkpt>
      <trkpt lat="45.62904" lon="6.95328">
        <ele>2186</ele>
        <time>2012-07-10T03:12:16Z</time>
      </trkpt>
      <trkpt lat="45.62904" lon="6.95331">
        <ele>2187</ele>
        <time>2012-07-10T03:12:21Z</time>
      </trkpt>
      <trkpt lat="45.62903" lon="6.95332">
        <ele>2187</ele>
        <time>2012-07-10T03:12:26Z</time>
      </trkpt>
      <trkpt lat="45.62904" lon="6.95334">
        <ele>2188</ele>
        <time>2012-07-10T03:12:31Z</time>
      </trkpt>
      <trkpt lat="45.62905" lon="6.95338">
        <ele>2188</ele>
        <time>2012-07-10T03:12:36Z</time>
      </trkpt>
      <trkpt lat="45.62906" lon="6.95341">
        <ele>2189</ele>
        <time>2012-07-10T03:12:41Z</time>
      </trkpt>
      <trkpt lat="45.62905" lon="6.95346">
        <ele>2189</ele>
        <time>2012-07-10T03:12:46Z</time>
      </trkpt>
      <trkpt lat="45.62904" lon="6.9535">
        <ele>2190</ele>
        <time>2012-07-10T03:12:51Z</time>
      </trkpt>
      <trkpt lat="45.62904" lon="6.95355">
        <ele>2190</ele>
        <time>2012-07-10T03:12:56Z</time>
      </trkpt>
      <trkpt lat="45.62903" lon="6.95362">
        <ele>2190</ele>
        <time>2012-07-10T03:13:01Z</time>
      </trkpt>
      <trkpt lat="45.62902" lon="6.95367">
        <ele>2190</ele>
        <time>2012-07-10T03:13:06Z</time>
      </trkpt>
      <trkpt lat="45.62901" lon="6.95372">
        <ele>2190</ele>
        <time>2012-07-10T03:13:11Z</time>
      </trkpt>
      <trkpt lat="45.62901" lon="6.95379">
        <ele>2189</ele>
        <time>2012-07-10T03:13:16Z</time>
      </trkpt>
      <trkpt lat="45.629" lon="6.95383">
        <ele>2190</ele>
        <time>2012-07-10T03:13:21Z</time>
      </trkpt>
      <trkpt lat="45.629" lon="6.9539">
        <ele>2190</ele>
        <time>2012-07-10T03:13:26Z</time>
      </trkpt>
      <trkpt lat="45.629" lon="6.95396">
        <ele>2190</ele>
        <time>2012-07-10T03:13:31Z</time>
      </trkpt>
      <trkpt lat="45.629" lon="6.95401">
        <ele>2191</ele>
        <time>2012-07-10T03:13:36Z</time>
      </trkpt>
      <trkpt lat="45.62899" lon="6.95406">
        <ele>2191</ele>
        <time>2012-07-10T03:13:41Z</time>
      </trkpt>
      <trkpt lat="45.62901" lon="6.95411">
        <ele>2191</ele>
        <time>2012-07-10T03:13:46Z</time>
      </trkpt>
      <trkpt lat="45.62899" lon="6.95418">
        <ele>2191</ele>
        <time>2012-07-10T03:13:51Z</time>
      </trkpt>
      <trkpt lat="45.62899" lon="6.95425">
        <ele>2192</ele>
        <time>2012-07-10T03:13:56Z</time>
      </trkpt>
      <trkpt lat="45.629" lon="6.95431">
        <ele>2192</ele>
        <time>2012-07-10T03:14:01Z</time>
      </trkpt>
      <trkpt lat="45.629" lon="6.95437">
        <ele>2193</ele>
        <time>2012-07-10T03:14:06Z</time>
      </trkpt>
      <trkpt lat="45.62898" lon="6.95442">
        <ele>2193</ele>
        <time>2012-07-10T03:14:11Z</time>
      </trkpt>
      <trkpt lat="45.62898" lon="6.95448">
        <ele>2193</ele>
        <time>2012-07-10T03:14:16Z</time>
      </trkpt>
      <trkpt lat="45.62896" lon="6.95453">
        <ele>2194</ele>
        <time>2012-07-10T03:14:21Z</time>
      </trkpt>
      <trkpt lat="45.62895" lon="6.95457">
        <ele>2195</ele>
        <time>2012-07-10T03:14:26Z</time>
      </trkpt>
      <trkpt lat="45.62893" lon="6.9546">
        <ele>2196</ele>
        <time>2012-07-10T03:14:31Z</time>
      </trkpt>
      <trkpt lat="45.62893" lon="6.95464">
        <ele>2195</ele>
        <time>2012-07-10T03:14:36Z</time>
      </trkpt>
      <trkpt lat="45.62893" lon="6.9547">
        <ele>2196</ele>
        <time>2012-07-10T03:14:41Z</time>
      </trkpt>
      <trkpt lat="45.62892" lon="6.95475">
        <ele>2196</ele>
        <time>2012-07-10T03:14:46Z</time>
      </trkpt>
      <trkpt lat="45.62892" lon="6.95482">
        <ele>2196</ele>
        <time>2012-07-10T03:14:51Z</time>
      </trkpt>
      <trkpt lat="45.62893" lon="6.95488">
        <ele>2196</ele>
        <time>2012-07-10T03:14:56Z</time>
      </trkpt>
      <trkpt lat="45.62895" lon="6.95494">
        <ele>2196</ele>
        <time>2012-07-10T03:15:01Z</time>
      </trkpt>
      <trkpt lat="45.62895" lon="6.95499">
        <ele>2197</ele>
        <time>2012-07-10T03:15:06Z</time>
      </trkpt>
      <trkpt lat="45.62896" lon="6.95504">
        <ele>2198</ele>
        <time>2012-07-10T03:15:11Z</time>
      </trkpt>
      <trkpt lat="45.62898" lon="6.95507">
        <ele>2198</ele>
        <time>2012-07-10T03:15:16Z</time>
      </trkpt>
      <trkpt lat="45.62898" lon="6.95509">
        <ele>2199</ele>
        <time>2012-07-10T03:15:21Z</time>
      </trkpt>
      <trkpt lat="45.62897" lon="6.95513">
        <ele>2200</ele>
        <time>2012-07-10T03:15:26Z</time>
      </trkpt>
      <trkpt lat="45.62895" lon="6.95516">
        <ele>2201</ele>
        <time>2012-07-10T03:15:31Z</time>
      </trkpt>
      <trkpt lat="45.62895" lon="6.95521">
        <ele>2201</ele>
        <time>2012-07-10T03:15:36Z</time>
      </trkpt>
      <trkpt lat="45.62894" lon="6.95525">
        <ele>2202</ele>
        <time>2012-07-10T03:15:41Z</time>
      </trkpt>
      <trkpt lat="45.62893" lon="6.95528">
        <ele>2202</ele>
        <time>2012-07-10T03:15:46Z</time>
      </trkpt>
      <trkpt lat="45.62892" lon="6.95532">
        <ele>2203</ele>
        <time>2012-07-10T03:15:51Z</time>
      </trkpt>
      <trkpt lat="45.62891" lon="6.95537">
        <ele>2203</ele>
        <time>2012-07-10T03:15:56Z</time>
      </trkpt>
      <trkpt lat="45.62893" lon="6.9554">
        <ele>2204</ele>
        <time>2012-07-10T03:16:01Z</time>
      </trkpt>
      <trkpt lat="45.62893" lon="6.95541">
        <ele>2204</ele>
        <time>2012-07-10T03:16:06Z</time>
      </trkpt>
      <trkpt lat="45.62895" lon="6.95542">
        <ele>2204</ele>
        <time>2012-07-10T03:16:11Z</time>
      </trkpt>
      <trkpt lat="45.62895" lon="6.95545">
        <ele>2205</ele>
        <time>2012-07-10T03:16:16Z</time>
      </trkpt>
      <trkpt lat="45.62894" lon="6.95548">
        <ele>2206</ele>
        <time>2012-07-10T03:16:21Z</time>
      </trkpt>
      <trkpt lat="45.62894" lon="6.95551">
        <ele>2206</ele>
        <time>2012-07-10T03:16:26Z</time>
      </trkpt>
      <trkpt lat="45.62893" lon="6.95554">
        <ele>2207</ele>
        <time>2012-07-10T03:16:31Z</time>
      </trkpt>
      <trkpt lat="45.62893" lon="6.9556">
        <ele>2207</ele>
        <time>2012-07-10T03:16:36Z</time>
      </trkpt>
      <trkpt lat="45.62895" lon="6.95566">
        <ele>2206</ele>
        <time>2012-07-10T03:16:41Z</time>
      </trkpt>
      <trkpt lat="45.62894" lon="6.95572">
        <ele>2206</ele>
        <time>2012-07-10T03:16:46Z</time>
      </trkpt>
      <trkpt lat="45.62893" lon="6.95578">
        <ele>2206</ele>
        <time>2012-07-10T03:16:51Z</time>
      </trkpt>
      <trkpt lat="45.62891" lon="6.95584">
        <ele>2207</ele>
        <time>2012-07-10T03:16:56Z</time>
      </trkpt>
      <trkpt lat="45.62888" lon="6.95587">
        <ele>2207</ele>
        <time>2012-07-10T03:17:01Z</time>
      </trkpt>
      <trkpt lat="45.62885" lon="6.95592">
        <ele>2208</ele>
        <time>2012-07-10T03:17:06Z</time>
      </trkpt>
      <trkpt lat="45.62883" lon="6.95598">
        <ele>2208</ele>
        <time>2012-07-10T03:17:11Z</time>
      </trkpt>
      <trkpt lat="45.62882" lon="6.95604">
        <ele>2208</ele>
        <time>2012-07-10T03:17:16Z</time>
      </trkpt>
      <trkpt lat="45.62879" lon="6.95608">
        <ele>2209</ele>
        <time>2012-07-10T03:17:21Z</time>
      </trkpt>
      <trkpt lat="45.62878" lon="6.95612">
        <ele>2208</ele>
        <time>2012-07-10T03:17:26Z</time>
      </trkpt>
      <trkpt lat="45.62877" lon="6.95615">
        <ele>2209</ele>
        <time>2012-07-10T03:17:31Z</time>
      </trkpt>
      <trkpt lat="45.62876" lon="6.95621">
        <ele>2209</ele>
        <time>2012-07-10T03:17:36Z</time>
      </trkpt>
      <trkpt lat="45.62877" lon="6.95626">
        <ele>2210</ele>
        <time>2012-07-10T03:17:41Z</time>
      </trkpt>
      <trkpt lat="45.62877" lon="6.95632">
        <ele>2210</ele>
        <time>2012-07-10T03:17:46Z</time>
      </trkpt>
      <trkpt lat="45.62877" lon="6.95637">
        <ele>2210</ele>
        <time>2012-07-10T03:17:51Z</time>
      </trkpt>
      <trkpt lat="45.62877" lon="6.95642">
        <ele>2211</ele>
        <time>2012-07-10T03:17:56Z</time>
      </trkpt>
      <trkpt lat="45.62877" lon="6.95645">
        <ele>2211</ele>
        <time>2012-07-10T03:18:01Z</time>
      </trkpt>
      <trkpt lat="45.62876" lon="6.95651">
        <ele>2211</ele>
        <time>2012-07-10T03:18:06Z</time>
      </trkpt>
      <trkpt lat="45.62875" lon="6.95654">
        <ele>2212</ele>
        <time>2012-07-10T03:18:11Z</time>
      </trkpt>
      <trkpt lat="45.62874" lon="6.95656">
        <ele>2212</ele>
        <time>2012-07-10T03:18:16Z</time>
      </trkpt>
      <trkpt lat="45.62875" lon="6.95658">
        <ele>2212</ele>
        <time>2012-07-10T03:18:21Z</time>
      </trkpt>
      <trkpt lat="45.62874" lon="6.9566">
        <ele>2212</ele>
        <time>2012-07-10T03:18:26Z</time>
      </trkpt>
      <trkpt lat="45.62873" lon="6.95663">
        <ele>2212</ele>
        <time>2012-07-10T03:18:31Z</time>
      </trkpt>
      <trkpt lat="45.62872" lon="6.95664">
        <ele>2213</ele>
        <time>2012-07-10T03:18:36Z</time>
      </trkpt>
      <trkpt lat="45.62872" lon="6.95668">
        <ele>2213</ele>
        <time>2012-07-10T03:18:41Z</time>
      </trkpt>
      <trkpt lat="45.62872" lon="6.95673">
        <ele>2213</ele>
        <time>2012-07-10T03:18:46Z</time>
      </trkpt>
      <trkpt lat="45.62873" lon="6.95677">
        <ele>2214</ele>
        <time>2012-07-10T03:18:51Z</time>
      </trkpt>
      <trkpt lat="45.62873" lon="6.95681">
        <ele>2214</ele>
        <time>2012-07-10T03:18:56Z</time>
      </trkpt>
      <trkpt lat="45.62874" lon="6.95685">
        <ele>2215</ele>
        <time>2012-07-10T03:19:01Z</time>
      </trkpt>
      <trkpt lat="45.62874" lon="6.95687">
        <ele>2216</ele>
        <time>2012-07-10T03:19:06Z</time>
      </trkpt>
      <trkpt lat="45.62874" lon="6.9569">
        <ele>2216</ele>
        <time>2012-07-10T03:19:11Z</time>
      </trkpt>
      <trkpt lat="45.62873" lon="6.95691">
        <ele>2217</ele>
        <time>2012-07-10T03:19:16Z</time>
      </trkpt>
      <trkpt lat="45.62874" lon="6.95695">
        <ele>2218</ele>
        <time>2012-07-10T03:19:21Z</time>
      </trkpt>
      <trkpt lat="45.62875" lon="6.95699">
        <ele>2219</ele>
        <time>2012-07-10T03:19:26Z</time>
      </trkpt>
      <trkpt lat="45.62876" lon="6.95702">
        <ele>2219</ele>
        <time>2012-07-10T03:19:31Z</time>
      </trkpt>
      <trkpt lat="45.62875" lon="6.95704">
        <ele>2220</ele>
        <time>2012-07-10T03:19:36Z</time>
      </trkpt>
      <trkpt lat="45.62876" lon="6.95707">
        <ele>2220</ele>
        <time>2012-07-10T03:19:41Z</time>
      </trkpt>
      <trkpt lat="45.62875" lon="6.95709">
        <ele>2220</ele>
        <time>2012-07-10T03:19:46Z</time>
      </trkpt>
      <trkpt lat="45.62875" lon="6.95713">
        <ele>2221</ele>
        <time>2012-07-10T03:19:51Z</time>
      </trkpt>
      <trkpt lat="45.62877" lon="6.95716">
        <ele>2222</ele>
        <time>2012-07-10T03:19:56Z</time>
      </trkpt>
      <trkpt lat="45.6288" lon="6.95717">
        <ele>2222</ele>
        <time>2012-07-10T03:20:01Z</time>
      </trkpt>
      <trkpt lat="45.62881" lon="6.9572">
        <ele>2224</ele>
        <time>2012-07-10T03:20:06Z</time>
      </trkpt>
      <trkpt lat="45.62882" lon="6.95723">
        <ele>2224</ele>
        <time>2012-07-10T03:20:11Z</time>
      </trkpt>
      <trkpt lat="45.62883" lon="6.95727">
        <ele>2225</ele>
        <time>2012-07-10T03:20:16Z</time>
      </trkpt>
      <trkpt lat="45.62884" lon="6.9573">
        <ele>2226</ele>
        <time>2012-07-10T03:20:21Z</time>
      </trkpt>
      <trkpt lat="45.62885" lon="6.95734">
        <ele>2226</ele>
        <time>2012-07-10T03:20:26Z</time>
      </trkpt>
      <trkpt lat="45.62887" lon="6.95739">
        <ele>2227</ele>
        <time>2012-07-10T03:20:31Z</time>
      </trkpt>
      <trkpt lat="45.62889" lon="6.95745">
        <ele>2227</ele>
        <time>2012-07-10T03:20:36Z</time>
      </trkpt>
      <trkpt lat="45.62889" lon="6.95751">
        <ele>2227</ele>
        <time>2012-07-10T03:20:41Z</time>
      </trkpt>
      <trkpt lat="45.62888" lon="6.95756">
        <ele>2227</ele>
        <time>2012-07-10T03:20:46Z</time>
      </trkpt>
      <trkpt lat="45.62888" lon="6.95758">
        <ele>2227</ele>
        <time>2012-07-10T03:20:51Z</time>
      </trkpt>
      <trkpt lat="45.62888" lon="6.95762">
        <ele>2228</ele>
        <time>2012-07-10T03:20:56Z</time>
      </trkpt>
      <trkpt lat="45.6289" lon="6.95768">
        <ele>2228</ele>
        <time>2012-07-10T03:21:01Z</time>
      </trkpt>
      <trkpt lat="45.62891" lon="6.95774">
        <ele>2228</ele>
        <time>2012-07-10T03:21:06Z</time>
      </trkpt>
      <trkpt lat="45.62893" lon="6.9578">
        <ele>2228</ele>
        <time>2012-07-10T03:21:11Z</time>
      </trkpt>
      <trkpt lat="45.62893" lon="6.95786">
        <ele>2228</ele>
        <time>2012-07-10T03:21:16Z</time>
      </trkpt>
      <trkpt lat="45.62895" lon="6.95791">
        <ele>2229</ele>
        <time>2012-07-10T03:21:21Z</time>
      </trkpt>
      <trkpt lat="45.62896" lon="6.95797">
        <ele>2229</ele>
        <time>2012-07-10T03:21:26Z</time>
      </trkpt>
      <trkpt lat="45.62898" lon="6.95803">
        <ele>2230</ele>
        <time>2012-07-10T03:21:31Z</time>
      </trkpt>
      <trkpt lat="45.62901" lon="6.95809">
        <ele>2230</ele>
        <time>2012-07-10T03:21:36Z</time>
      </trkpt>
      <trkpt lat="45.62904" lon="6.95814">
        <ele>2231</ele>
        <time>2012-07-10T03:21:41Z</time>
      </trkpt>
      <trkpt lat="45.62906" lon="6.95818">
        <ele>2231</ele>
        <time>2012-07-10T03:21:46Z</time>
      </trkpt>
      <trkpt lat="45.6291" lon="6.95823">
        <ele>2232</ele>
        <time>2012-07-10T03:21:51Z</time>
      </trkpt>
      <trkpt lat="45.62912" lon="6.95829">
        <ele>2232</ele>
        <time>2012-07-10T03:21:56Z</time>
      </trkpt>
      <trkpt lat="45.62913" lon="6.95836">
        <ele>2233</ele>
        <time>2012-07-10T03:22:01Z</time>
      </trkpt>
      <trkpt lat="45.62913" lon="6.95842">
        <ele>2233</ele>
        <time>2012-07-10T03:22:06Z</time>
      </trkpt>
      <trkpt lat="45.62912" lon="6.95847">
        <ele>2234</ele>
        <time>2012-07-10T03:22:11Z</time>
      </trkpt>
      <trkpt lat="45.62911" lon="6.95852">
        <ele>2234</ele>
        <time>2012-07-10T03:22:16Z</time>
      </trkpt>
      <trkpt lat="45.62911" lon="6.95857">
        <ele>2234</ele>
        <time>2012-07-10T03:22:21Z</time>
      </trkpt>
      <trkpt lat="45.62907" lon="6.9586">
        <ele>2234</ele>
        <time>2012-07-10T03:22:26Z</time>
      </trkpt>
      <trkpt lat="45.62906" lon="6.95865">
        <ele>2235</ele>
        <time>2012-07-10T03:22:31Z</time>
      </trkpt>
      <trkpt lat="45.62906" lon="6.95869">
        <ele>2236</ele>
        <time>2012-07-10T03:22:36Z</time>
      </trkpt>
      <trkpt lat="45.62906" lon="6.95872">
        <ele>2237</ele>
        <time>2012-07-10T03:22:41Z</time>
      </trkpt>
      <trkpt lat="45.62904" lon="6.95874">
        <ele>2237</ele>
        <time>2012-07-10T03:22:46Z</time>
      </trkpt>
      <trkpt lat="45.62904" lon="6.95875">
        <ele>2237</ele>
        <time>2012-07-10T03:22:51Z</time>
      </trkpt>
      <trkpt lat="45.62904" lon="6.95875">
        <ele>2236</ele>
        <time>2012-07-10T03:22:56Z</time>
      </trkpt>
      <trkpt lat="45.62898" lon="6.95872">
        <ele>2232</ele>
        <time>2012-07-10T03:24:41Z</time>
      </trkpt>
      <trkpt lat="45.62898" lon="6.95872">
        <ele>2233</ele>
        <time>2012-07-10T03:24:46Z</time>
      </trkpt>
      <trkpt lat="45.62899" lon="6.95873">
        <ele>2234</ele>
        <time>2012-07-10T03:24:51Z</time>
      </trkpt>
      <trkpt lat="45.62898" lon="6.95877">
        <ele>2235</ele>
        <time>2012-07-10T03:24:56Z</time>
      </trkpt>
      <trkpt lat="45.62898" lon="6.9588">
        <ele>2237</ele>
        <time>2012-07-10T03:25:01Z</time>
      </trkpt>
      <trkpt lat="45.62896" lon="6.95881">
        <ele>2239</ele>
        <time>2012-07-10T03:25:06Z</time>
      </trkpt>
      <trkpt lat="45.62896" lon="6.95885">
        <ele>2240</ele>
        <time>2012-07-10T03:25:11Z</time>
      </trkpt>
      <trkpt lat="45.62895" lon="6.95886">
        <ele>2241</ele>
        <time>2012-07-10T03:25:16Z</time>
      </trkpt>
      <trkpt lat="45.62895" lon="6.95886">
        <ele>2240</ele>
        <time>2012-07-10T03:25:21Z</time>
      </trkpt>
      <trkpt lat="45.62895" lon="6.95886">
        <ele>2239</ele>
        <time>2012-07-10T03:25:26Z</time>
      </trkpt>
      <trkpt lat="45.62895" lon="6.95887">
        <ele>2238</ele>
        <time>2012-07-10T03:25:31Z</time>
      </trkpt>
      <trkpt lat="45.62895" lon="6.9589">
        <ele>2238</ele>
        <time>2012-07-10T03:25:36Z</time>
      </trkpt>
      <trkpt lat="45.62893" lon="6.95892">
        <ele>2240</ele>
        <time>2012-07-10T03:25:41Z</time>
      </trkpt>
      <trkpt lat="45.62892" lon="6.95894">
        <ele>2239</ele>
        <time>2012-07-10T03:25:46Z</time>
      </trkpt>
      <trkpt lat="45.6289" lon="6.95894">
        <ele>2240</ele>
        <time>2012-07-10T03:25:51Z</time>
      </trkpt>
      <trkpt lat="45.62888" lon="6.95895">
        <ele>2241</ele>
        <time>2012-07-10T03:25:56Z</time>
      </trkpt>
      <trkpt lat="45.62885" lon="6.95897">
        <ele>2242</ele>
        <time>2012-07-10T03:26:01Z</time>
      </trkpt>
      <trkpt lat="45.62885" lon="6.959">
        <ele>2243</ele>
        <time>2012-07-10T03:26:06Z</time>
      </trkpt>
      <trkpt lat="45.62885" lon="6.95903">
        <ele>2244</ele>
        <time>2012-07-10T03:26:11Z</time>
      </trkpt>
      <trkpt lat="45.62883" lon="6.95905">
        <ele>2245</ele>
        <time>2012-07-10T03:26:16Z</time>
      </trkpt>
      <trkpt lat="45.62882" lon="6.95907">
        <ele>2245</ele>
        <time>2012-07-10T03:26:21Z</time>
      </trkpt>
      <trkpt lat="45.62881" lon="6.9591">
        <ele>2245</ele>
        <time>2012-07-10T03:26:26Z</time>
      </trkpt>
      <trkpt lat="45.62879" lon="6.95913">
        <ele>2245</ele>
        <time>2012-07-10T03:26:31Z</time>
      </trkpt>
      <trkpt lat="45.62878" lon="6.95916">
        <ele>2248</ele>
        <time>2012-07-10T03:26:36Z</time>
      </trkpt>
      <trkpt lat="45.62878" lon="6.95918">
        <ele>2250</ele>
        <time>2012-07-10T03:26:41Z</time>
      </trkpt>
      <trkpt lat="45.62877" lon="6.95921">
        <ele>2251</ele>
        <time>2012-07-10T03:26:46Z</time>
      </trkpt>
      <trkpt lat="45.62874" lon="6.95922">
        <ele>2252</ele>
        <time>2012-07-10T03:26:51Z</time>
      </trkpt>
      <trkpt lat="45.62872" lon="6.95924">
        <ele>2252</ele>
        <time>2012-07-10T03:26:56Z</time>
      </trkpt>
      <trkpt lat="45.6287" lon="6.95926">
        <ele>2253</ele>
        <time>2012-07-10T03:27:01Z</time>
      </trkpt>
      <trkpt lat="45.62869" lon="6.95927">
        <ele>2255</ele>
        <time>2012-07-10T03:27:06Z</time>
      </trkpt>
      <trkpt lat="45.62869" lon="6.9593">
        <ele>2258</ele>
        <time>2012-07-10T03:27:11Z</time>
      </trkpt>
      <trkpt lat="45.62867" lon="6.95933">
        <ele>2257</ele>
        <time>2012-07-10T03:27:16Z</time>
      </trkpt>
      <trkpt lat="45.62866" lon="6.95935">
        <ele>2258</ele>
        <time>2012-07-10T03:27:21Z</time>
      </trkpt>
      <trkpt lat="45.62862" lon="6.95936">
        <ele>2259</ele>
        <time>2012-07-10T03:27:26Z</time>
      </trkpt>
      <trkpt lat="45.62862" lon="6.95938">
        <ele>2260</ele>
        <time>2012-07-10T03:27:31Z</time>
      </trkpt>
      <trkpt lat="45.62861" lon="6.9594">
        <ele>2261</ele>
        <time>2012-07-10T03:27:36Z</time>
      </trkpt>
      <trkpt lat="45.62859" lon="6.95943">
        <ele>2262</ele>
        <time>2012-07-10T03:27:41Z</time>
      </trkpt>
      <trkpt lat="45.62858" lon="6.95946">
        <ele>2263</ele>
        <time>2012-07-10T03:27:46Z</time>
      </trkpt>
      <trkpt lat="45.62857" lon="6.95949">
        <ele>2263</ele>
        <time>2012-07-10T03:27:51Z</time>
      </trkpt>
      <trkpt lat="45.62857" lon="6.95953">
        <ele>2264</ele>
        <time>2012-07-10T03:27:56Z</time>
      </trkpt>
      <trkpt lat="45.62857" lon="6.95958">
        <ele>2265</ele>
        <time>2012-07-10T03:28:01Z</time>
      </trkpt>
      <trkpt lat="45.62855" lon="6.95961">
        <ele>2267</ele>
        <time>2012-07-10T03:28:06Z</time>
      </trkpt>
      <trkpt lat="45.62854" lon="6.95966">
        <ele>2267</ele>
        <time>2012-07-10T03:28:11Z</time>
      </trkpt>
      <trkpt lat="45.62854" lon="6.9597">
        <ele>2267</ele>
        <time>2012-07-10T03:28:16Z</time>
      </trkpt>
      <trkpt lat="45.62854" lon="6.95974">
        <ele>2267</ele>
        <time>2012-07-10T03:28:21Z</time>
      </trkpt>
      <trkpt lat="45.62853" lon="6.95978">
        <ele>2269</ele>
        <time>2012-07-10T03:28:26Z</time>
      </trkpt>
      <trkpt lat="45.62852" lon="6.95982">
        <ele>2268</ele>
        <time>2012-07-10T03:28:31Z</time>
      </trkpt>
      <trkpt lat="45.62852" lon="6.95986">
        <ele>2269</ele>
        <time>2012-07-10T03:28:36Z</time>
      </trkpt>
      <trkpt lat="45.62851" lon="6.95989">
        <ele>2270</ele>
        <time>2012-07-10T03:28:41Z</time>
      </trkpt>
      <trkpt lat="45.6285" lon="6.95992">
        <ele>2270</ele>
        <time>2012-07-10T03:28:46Z</time>
      </trkpt>
      <trkpt lat="45.62848" lon="6.95993">
        <ele>2272</ele>
        <time>2012-07-10T03:28:51Z</time>
      </trkpt>
      <trkpt lat="45.62847" lon="6.95997">
        <ele>2273</ele>
        <time>2012-07-10T03:28:56Z</time>
      </trkpt>
      <trkpt lat="45.62846" lon="6.96">
        <ele>2273</ele>
        <time>2012-07-10T03:29:01Z</time>
      </trkpt>
      <trkpt lat="45.62845" lon="6.96002">
        <ele>2276</ele>
        <time>2012-07-10T03:29:06Z</time>
      </trkpt>
      <trkpt lat="45.62846" lon="6.96007">
        <ele>2277</ele>
        <time>2012-07-10T03:29:11Z</time>
      </trkpt>
      <trkpt lat="45.62843" lon="6.9601">
        <ele>2277</ele>
        <time>2012-07-10T03:29:16Z</time>
      </trkpt>
      <trkpt lat="45.62843" lon="6.96013">
        <ele>2278</ele>
        <time>2012-07-10T03:29:21Z</time>
      </trkpt>
      <trkpt lat="45.62842" lon="6.96018">
        <ele>2279</ele>
        <time>2012-07-10T03:29:26Z</time>
      </trkpt>
      <trkpt lat="45.62841" lon="6.96021">
        <ele>2280</ele>
        <time>2012-07-10T03:29:31Z</time>
      </trkpt>
      <trkpt lat="45.6284" lon="6.96026">
        <ele>2281</ele>
        <time>2012-07-10T03:29:36Z</time>
      </trkpt>
      <trkpt lat="45.62838" lon="6.96031">
        <ele>2281</ele>
        <time>2012-07-10T03:29:41Z</time>
      </trkpt>
      <trkpt lat="45.62837" lon="6.96035">
        <ele>2280</ele>
        <time>2012-07-10T03:29:46Z</time>
      </trkpt>
      <trkpt lat="45.62837" lon="6.96041">
        <ele>2279</ele>
        <time>2012-07-10T03:29:51Z</time>
      </trkpt>
      <trkpt lat="45.62835" lon="6.96045">
        <ele>2280</ele>
        <time>2012-07-10T03:29:56Z</time>
      </trkpt>
      <trkpt lat="45.62835" lon="6.96051">
        <ele>2280</ele>
        <time>2012-07-10T03:30:01Z</time>
      </trkpt>
      <trkpt lat="45.62834" lon="6.96055">
        <ele>2281</ele>
        <time>2012-07-10T03:30:06Z</time>
      </trkpt>
      <trkpt lat="45.62833" lon="6.96058">
        <ele>2281</ele>
        <time>2012-07-10T03:30:11Z</time>
      </trkpt>
      <trkpt lat="45.62832" lon="6.96063">
        <ele>2281</ele>
        <time>2012-07-10T03:30:16Z</time>
      </trkpt>
      <trkpt lat="45.62831" lon="6.96068">
        <ele>2281</ele>
        <time>2012-07-10T03:30:21Z</time>
      </trkpt>
      <trkpt lat="45.62829" lon="6.9607">
        <ele>2283</ele>
        <time>2012-07-10T03:30:26Z</time>
      </trkpt>
      <trkpt lat="45.62826" lon="6.96073">
        <ele>2284</ele>
        <time>2012-07-10T03:30:31Z</time>
      </trkpt>
      <trkpt lat="45.62824" lon="6.96078">
        <ele>2284</ele>
        <time>2012-07-10T03:30:36Z</time>
      </trkpt>
      <trkpt lat="45.62823" lon="6.96084">
        <ele>2285</ele>
        <time>2012-07-10T03:30:41Z</time>
      </trkpt>
      <trkpt lat="45.62823" lon="6.96089">
        <ele>2286</ele>
        <time>2012-07-10T03:30:46Z</time>
      </trkpt>
      <trkpt lat="45.62823" lon="6.96093">
        <ele>2286</ele>
        <time>2012-07-10T03:30:51Z</time>
      </trkpt>
      <trkpt lat="45.62822" lon="6.96098">
        <ele>2286</ele>
        <time>2012-07-10T03:30:56Z</time>
      </trkpt>
      <trkpt lat="45.62822" lon="6.96102">
        <ele>2286</ele>
        <time>2012-07-10T03:31:01Z</time>
      </trkpt>
      <trkpt lat="45.62823" lon="6.96106">
        <ele>2286</ele>
        <time>2012-07-10T03:31:06Z</time>
      </trkpt>
      <trkpt lat="45.62823" lon="6.96109">
        <ele>2286</ele>
        <time>2012-07-10T03:31:11Z</time>
      </trkpt>
      <trkpt lat="45.62822" lon="6.96111">
        <ele>2287</ele>
        <time>2012-07-10T03:31:16Z</time>
      </trkpt>
      <trkpt lat="45.62822" lon="6.96114">
        <ele>2289</ele>
        <time>2012-07-10T03:31:21Z</time>
      </trkpt>
      <trkpt lat="45.62819" lon="6.96115">
        <ele>2289</ele>
        <time>2012-07-10T03:31:26Z</time>
      </trkpt>
      <trkpt lat="45.62816" lon="6.96116">
        <ele>2288</ele>
        <time>2012-07-10T03:31:31Z</time>
      </trkpt>
      <trkpt lat="45.62811" lon="6.9612">
        <ele>2289</ele>
        <time>2012-07-10T03:31:36Z</time>
      </trkpt>
      <trkpt lat="45.6281" lon="6.96126">
        <ele>2291</ele>
        <time>2012-07-10T03:31:41Z</time>
      </trkpt>
      <trkpt lat="45.6281" lon="6.96132">
        <ele>2292</ele>
        <time>2012-07-10T03:31:46Z</time>
      </trkpt>
      <trkpt lat="45.62811" lon="6.96137">
        <ele>2292</ele>
        <time>2012-07-10T03:31:51Z</time>
      </trkpt>
      <trkpt lat="45.62813" lon="6.96142">
        <ele>2292</ele>
        <time>2012-07-10T03:31:56Z</time>
      </trkpt>
      <trkpt lat="45.62813" lon="6.96147">
        <ele>2291</ele>
        <time>2012-07-10T03:32:01Z</time>
      </trkpt>
      <trkpt lat="45.62813" lon="6.96153">
        <ele>2296</ele>
        <time>2012-07-10T03:32:06Z</time>
      </trkpt>
      <trkpt lat="45.62811" lon="6.96157">
        <ele>2299</ele>
        <time>2012-07-10T03:32:11Z</time>
      </trkpt>
      <trkpt lat="45.62809" lon="6.96161">
        <ele>2300</ele>
        <time>2012-07-10T03:32:16Z</time>
      </trkpt>
      <trkpt lat="45.62807" lon="6.96164">
        <ele>2301</ele>
        <time>2012-07-10T03:32:21Z</time>
      </trkpt>
      <trkpt lat="45.62806" lon="6.96167">
        <ele>2302</ele>
        <time>2012-07-10T03:32:26Z</time>
      </trkpt>
      <trkpt lat="45.62804" lon="6.96171">
        <ele>2303</ele>
        <time>2012-07-10T03:32:31Z</time>
      </trkpt>
      <trkpt lat="45.62805" lon="6.96174">
        <ele>2305</ele>
        <time>2012-07-10T03:32:36Z</time>
      </trkpt>
      <trkpt lat="45.62804" lon="6.96177">
        <ele>2307</ele>
        <time>2012-07-10T03:32:41Z</time>
      </trkpt>
      <trkpt lat="45.62803" lon="6.96182">
        <ele>2307</ele>
        <time>2012-07-10T03:32:46Z</time>
      </trkpt>
      <trkpt lat="45.62801" lon="6.96185">
        <ele>2306</ele>
        <time>2012-07-10T03:32:51Z</time>
      </trkpt>
      <trkpt lat="45.62802" lon="6.96189">
        <ele>2305</ele>
        <time>2012-07-10T03:32:56Z</time>
      </trkpt>
      <trkpt lat="45.62801" lon="6.96192">
        <ele>2305</ele>
        <time>2012-07-10T03:33:01Z</time>
      </trkpt>
      <trkpt lat="45.62799" lon="6.96196">
        <ele>2304</ele>
        <time>2012-07-10T03:33:06Z</time>
      </trkpt>
      <trkpt lat="45.62798" lon="6.96199">
        <ele>2305</ele>
        <time>2012-07-10T03:33:11Z</time>
      </trkpt>
      <trkpt lat="45.62798" lon="6.96204">
        <ele>2305</ele>
        <time>2012-07-10T03:33:16Z</time>
      </trkpt>
      <trkpt lat="45.62796" lon="6.96205">
        <ele>2305</ele>
        <time>2012-07-10T03:33:21Z</time>
      </trkpt>
      <trkpt lat="45.62797" lon="6.96208">
        <ele>2306</ele>
        <time>2012-07-10T03:33:26Z</time>
      </trkpt>
      <trkpt lat="45.62797" lon="6.96209">
        <ele>2307</ele>
        <time>2012-07-10T03:33:31Z</time>
      </trkpt>
      <trkpt lat="45.62798" lon="6.96211">
        <ele>2308</ele>
        <time>2012-07-10T03:33:36Z</time>
      </trkpt>
      <trkpt lat="45.62799" lon="6.96214">
        <ele>2309</ele>
        <time>2012-07-10T03:33:41Z</time>
      </trkpt>
      <trkpt lat="45.62797" lon="6.96217">
        <ele>2311</ele>
        <time>2012-07-10T03:33:46Z</time>
      </trkpt>
      <trkpt lat="45.62796" lon="6.96218">
        <ele>2312</ele>
        <time>2012-07-10T03:33:51Z</time>
      </trkpt>
      <trkpt lat="45.62795" lon="6.96221">
        <ele>2313</ele>
        <time>2012-07-10T03:33:56Z</time>
      </trkpt>
      <trkpt lat="45.62794" lon="6.96223">
        <ele>2314</ele>
        <time>2012-07-10T03:34:01Z</time>
      </trkpt>
      <trkpt lat="45.62795" lon="6.96225">
        <ele>2313</ele>
        <time>2012-07-10T03:34:06Z</time>
      </trkpt>
      <trkpt lat="45.62793" lon="6.96229">
        <ele>2314</ele>
        <time>2012-07-10T03:34:11Z</time>
      </trkpt>
      <trkpt lat="45.62793" lon="6.96233">
        <ele>2315</ele>
        <time>2012-07-10T03:34:16Z</time>
      </trkpt>
      <trkpt lat="45.62792" lon="6.96237">
        <ele>2315</ele>
        <time>2012-07-10T03:34:21Z</time>
      </trkpt>
      <trkpt lat="45.62791" lon="6.9624">
        <ele>2316</ele>
        <time>2012-07-10T03:34:26Z</time>
      </trkpt>
      <trkpt lat="45.6279" lon="6.96242">
        <ele>2316</ele>
        <time>2012-07-10T03:34:31Z</time>
      </trkpt>
      <trkpt lat="45.62789" lon="6.96243">
        <ele>2316</ele>
        <time>2012-07-10T03:34:36Z</time>
      </trkpt>
      <trkpt lat="45.6279" lon="6.96246">
        <ele>2316</ele>
        <time>2012-07-10T03:34:41Z</time>
      </trkpt>
      <trkpt lat="45.62789" lon="6.9625">
        <ele>2316</ele>
        <time>2012-07-10T03:34:46Z</time>
      </trkpt>
      <trkpt lat="45.62787" lon="6.96254">
        <ele>2316</ele>
        <time>2012-07-10T03:34:51Z</time>
      </trkpt>
      <trkpt lat="45.62786" lon="6.96258">
        <ele>2317</ele>
        <time>2012-07-10T03:34:56Z</time>
      </trkpt>
      <trkpt lat="45.62783" lon="6.9626">
        <ele>2315</ele>
        <time>2012-07-10T03:35:01Z</time>
      </trkpt>
      <trkpt lat="45.62781" lon="6.96262">
        <ele>2315</ele>
        <time>2012-07-10T03:35:06Z</time>
      </trkpt>
      <trkpt lat="45.62781" lon="6.96265">
        <ele>2316</ele>
        <time>2012-07-10T03:35:11Z</time>
      </trkpt>
      <trkpt lat="45.6278" lon="6.9627">
        <ele>2316</ele>
        <time>2012-07-10T03:35:16Z</time>
      </trkpt>
      <trkpt lat="45.62779" lon="6.96274">
        <ele>2316</ele>
        <time>2012-07-10T03:35:21Z</time>
      </trkpt>
      <trkpt lat="45.62778" lon="6.96277">
        <ele>2318</ele>
        <time>2012-07-10T03:35:26Z</time>
      </trkpt>
      <trkpt lat="45.62778" lon="6.9628">
        <ele>2320</ele>
        <time>2012-07-10T03:35:31Z</time>
      </trkpt>
      <trkpt lat="45.62778" lon="6.96284">
        <ele>2321</ele>
        <time>2012-07-10T03:35:36Z</time>
      </trkpt>
      <trkpt lat="45.62777" lon="6.96288">
        <ele>2322</ele>
        <time>2012-07-10T03:35:41Z</time>
      </trkpt>
      <trkpt lat="45.62776" lon="6.9629">
        <ele>2324</ele>
        <time>2012-07-10T03:35:46Z</time>
      </trkpt>
      <trkpt lat="45.62775" lon="6.96294">
        <ele>2325</ele>
        <time>2012-07-10T03:35:51Z</time>
      </trkpt>
      <trkpt lat="45.62774" lon="6.96298">
        <ele>2327</ele>
        <time>2012-07-10T03:35:56Z</time>
      </trkpt>
      <trkpt lat="45.62774" lon="6.96301">
        <ele>2328</ele>
        <time>2012-07-10T03:36:01Z</time>
      </trkpt>
      <trkpt lat="45.62774" lon="6.96304">
        <ele>2328</ele>
        <time>2012-07-10T03:36:06Z</time>
      </trkpt>
      <trkpt lat="45.62773" lon="6.96306">
        <ele>2329</ele>
        <time>2012-07-10T03:36:11Z</time>
      </trkpt>
      <trkpt lat="45.62773" lon="6.96309">
        <ele>2330</ele>
        <time>2012-07-10T03:36:16Z</time>
      </trkpt>
      <trkpt lat="45.62774" lon="6.96313">
        <ele>2328</ele>
        <time>2012-07-10T03:36:21Z</time>
      </trkpt>
      <trkpt lat="45.62774" lon="6.96315">
        <ele>2329</ele>
        <time>2012-07-10T03:36:26Z</time>
      </trkpt>
      <trkpt lat="45.62774" lon="6.9632">
        <ele>2329</ele>
        <time>2012-07-10T03:36:31Z</time>
      </trkpt>
      <trkpt lat="45.62775" lon="6.96324">
        <ele>2330</ele>
        <time>2012-07-10T03:36:36Z</time>
      </trkpt>
      <trkpt lat="45.62775" lon="6.96328">
        <ele>2328</ele>
        <time>2012-07-10T03:36:41Z</time>
      </trkpt>
      <trkpt lat="45.62774" lon="6.96332">
        <ele>2328</ele>
        <time>2012-07-10T03:36:46Z</time>
      </trkpt>
      <trkpt lat="45.62773" lon="6.96333">
        <ele>2326</ele>
        <time>2012-07-10T03:36:51Z</time>
      </trkpt>
      <trkpt lat="45.62772" lon="6.96335">
        <ele>2326</ele>
        <time>2012-07-10T03:36:56Z</time>
      </trkpt>
      <trkpt lat="45.62771" lon="6.96337">
        <ele>2326</ele>
        <time>2012-07-10T03:37:01Z</time>
      </trkpt>
      <trkpt lat="45.6277" lon="6.96341">
        <ele>2327</ele>
        <time>2012-07-10T03:37:06Z</time>
      </trkpt>
      <trkpt lat="45.62771" lon="6.96345">
        <ele>2328</ele>
        <time>2012-07-10T03:37:11Z</time>
      </trkpt>
      <trkpt lat="45.62769" lon="6.96349">
        <ele>2331</ele>
        <time>2012-07-10T03:37:16Z</time>
      </trkpt>
      <trkpt lat="45.62767" lon="6.96353">
        <ele>2331</ele>
        <time>2012-07-10T03:37:21Z</time>
      </trkpt>
      <trkpt lat="45.62765" lon="6.96358">
        <ele>2331</ele>
        <time>2012-07-10T03:37:26Z</time>
      </trkpt>
      <trkpt lat="45.62764" lon="6.96363">
        <ele>2333</ele>
        <time>2012-07-10T03:37:31Z</time>
      </trkpt>
      <trkpt lat="45.62761" lon="6.96367">
        <ele>2333</ele>
        <time>2012-07-10T03:37:36Z</time>
      </trkpt>
      <trkpt lat="45.62761" lon="6.96372">
        <ele>2335</ele>
        <time>2012-07-10T03:37:41Z</time>
      </trkpt>
      <trkpt lat="45.62761" lon="6.96376">
        <ele>2335</ele>
        <time>2012-07-10T03:37:46Z</time>
      </trkpt>
      <trkpt lat="45.62761" lon="6.96379">
        <ele>2334</ele>
        <time>2012-07-10T03:37:51Z</time>
      </trkpt>
      <trkpt lat="45.6276" lon="6.96385">
        <ele>2333</ele>
        <time>2012-07-10T03:37:56Z</time>
      </trkpt>
      <trkpt lat="45.62759" lon="6.96389">
        <ele>2333</ele>
        <time>2012-07-10T03:38:01Z</time>
      </trkpt>
      <trkpt lat="45.62759" lon="6.96393">
        <ele>2332</ele>
        <time>2012-07-10T03:38:06Z</time>
      </trkpt>
      <trkpt lat="45.62759" lon="6.96399">
        <ele>2333</ele>
        <time>2012-07-10T03:38:11Z</time>
      </trkpt>
      <trkpt lat="45.6276" lon="6.96406">
        <ele>2337</ele>
        <time>2012-07-10T03:38:16Z</time>
      </trkpt>
      <trkpt lat="45.62759" lon="6.96411">
        <ele>2338</ele>
        <time>2012-07-10T03:38:21Z</time>
      </trkpt>
      <trkpt lat="45.62758" lon="6.96415">
        <ele>2338</ele>
        <time>2012-07-10T03:38:26Z</time>
      </trkpt>
      <trkpt lat="45.62758" lon="6.96419">
        <ele>2340</ele>
        <time>2012-07-10T03:38:31Z</time>
      </trkpt>
      <trkpt lat="45.62757" lon="6.96422">
        <ele>2339</ele>
        <time>2012-07-10T03:38:36Z</time>
      </trkpt>
      <trkpt lat="45.62756" lon="6.96425">
        <ele>2340</ele>
        <time>2012-07-10T03:38:41Z</time>
      </trkpt>
      <trkpt lat="45.62756" lon="6.9643">
        <ele>2340</ele>
        <time>2012-07-10T03:38:46Z</time>
      </trkpt>
      <trkpt lat="45.62756" lon="6.96435">
        <ele>2342</ele>
        <time>2012-07-10T03:38:51Z</time>
      </trkpt>
      <trkpt lat="45.62756" lon="6.9644">
        <ele>2345</ele>
        <time>2012-07-10T03:38:56Z</time>
      </trkpt>
      <trkpt lat="45.62756" lon="6.96443">
        <ele>2345</ele>
        <time>2012-07-10T03:39:01Z</time>
      </trkpt>
      <trkpt lat="45.62758" lon="6.96448">
        <ele>2345</ele>
        <time>2012-07-10T03:39:06Z</time>
      </trkpt>
      <trkpt lat="45.62758" lon="6.96451">
        <ele>2344</ele>
        <time>2012-07-10T03:39:11Z</time>
      </trkpt>
      <trkpt lat="45.62758" lon="6.96454">
        <ele>2342</ele>
        <time>2012-07-10T03:39:16Z</time>
      </trkpt>
      <trkpt lat="45.62758" lon="6.96456">
        <ele>2341</ele>
        <time>2012-07-10T03:39:21Z</time>
      </trkpt>
      <trkpt lat="45.62759" lon="6.96461">
        <ele>2343</ele>
        <time>2012-07-10T03:39:26Z</time>
      </trkpt>
      <trkpt lat="45.6276" lon="6.96465">
        <ele>2344</ele>
        <time>2012-07-10T03:39:31Z</time>
      </trkpt>
      <trkpt lat="45.6276" lon="6.96471">
        <ele>2345</ele>
        <time>2012-07-10T03:39:36Z</time>
      </trkpt>
      <trkpt lat="45.62758" lon="6.96475">
        <ele>2345</ele>
        <time>2012-07-10T03:39:41Z</time>
      </trkpt>
      <trkpt lat="45.62756" lon="6.96477">
        <ele>2345</ele>
        <time>2012-07-10T03:39:46Z</time>
      </trkpt>
      <trkpt lat="45.62757" lon="6.96483">
        <ele>2346</ele>
        <time>2012-07-10T03:39:51Z</time>
      </trkpt>
      <trkpt lat="45.62757" lon="6.96489">
        <ele>2347</ele>
        <time>2012-07-10T03:39:56Z</time>
      </trkpt>
      <trkpt lat="45.62756" lon="6.96493">
        <ele>2347</ele>
        <time>2012-07-10T03:40:01Z</time>
      </trkpt>
      <trkpt lat="45.62757" lon="6.96497">
        <ele>2347</ele>
        <time>2012-07-10T03:40:06Z</time>
      </trkpt>
      <trkpt lat="45.62758" lon="6.96501">
        <ele>2350</ele>
        <time>2012-07-10T03:40:11Z</time>
      </trkpt>
      <trkpt lat="45.62758" lon="6.96505">
        <ele>2351</ele>
        <time>2012-07-10T03:40:16Z</time>
      </trkpt>
      <trkpt lat="45.62758" lon="6.9651">
        <ele>2352</ele>
        <time>2012-07-10T03:40:21Z</time>
      </trkpt>
      <trkpt lat="45.62759" lon="6.96514">
        <ele>2348</ele>
        <time>2012-07-10T03:40:26Z</time>
      </trkpt>
      <trkpt lat="45.62761" lon="6.96519">
        <ele>2349</ele>
        <time>2012-07-10T03:40:31Z</time>
      </trkpt>
      <trkpt lat="45.62761" lon="6.96521">
        <ele>2350</ele>
        <time>2012-07-10T03:40:36Z</time>
      </trkpt>
      <trkpt lat="45.62761" lon="6.96522">
        <ele>2353</ele>
        <time>2012-07-10T03:40:41Z</time>
      </trkpt>
      <trkpt lat="45.62762" lon="6.96522">
        <ele>2354</ele>
        <time>2012-07-10T03:40:46Z</time>
      </trkpt>
      <trkpt lat="45.62763" lon="6.96523">
        <ele>2354</ele>
        <time>2012-07-10T03:40:51Z</time>
      </trkpt>
      <trkpt lat="45.62764" lon="6.96525">
        <ele>2355</ele>
        <time>2012-07-10T03:40:56Z</time>
      </trkpt>
      <trkpt lat="45.62764" lon="6.96526">
        <ele>2355</ele>
        <time>2012-07-10T03:41:01Z</time>
      </trkpt>
      <trkpt lat="45.62764" lon="6.96526">
        <ele>2354</ele>
        <time>2012-07-10T03:41:06Z</time>
      </trkpt>
      <trkpt lat="45.62764" lon="6.96527">
        <ele>2353</ele>
        <time>2012-07-10T03:41:11Z</time>
      </trkpt>
      <trkpt lat="45.62764" lon="6.96527">
        <ele>2354</ele>
        <time>2012-07-10T03:41:16Z</time>
      </trkpt>
      <trkpt lat="45.62764" lon="6.96527">
        <ele>2354</ele>
        <time>2012-07-10T03:41:21Z</time>
      </trkpt>
      <trkpt lat="45.62764" lon="6.96527">
        <ele>2355</ele>
        <time>2012-07-10T03:41:26Z</time>
      </trkpt>
      <trkpt lat="45.62764" lon="6.96527">
        <ele>2356</ele>
        <time>2012-07-10T03:41:31Z</time>
      </trkpt>
      <trkpt lat="45.62764" lon="6.96527">
        <ele>2356</ele>
        <time>2012-07-10T03:41:36Z</time>
      </trkpt>
      <trkpt lat="45.62765" lon="6.96528">
        <ele>2355</ele>
        <time>2012-07-10T03:41:41Z</time>
      </trkpt>
      <trkpt lat="45.62764" lon="6.96529">
        <ele>2355</ele>
        <time>2012-07-10T03:41:46Z</time>
      </trkpt>
      <trkpt lat="45.62764" lon="6.96533">
        <ele>2355</ele>
        <time>2012-07-10T03:41:51Z</time>
      </trkpt>
      <trkpt lat="45.62764" lon="6.96538">
        <ele>2354</ele>
        <time>2012-07-10T03:41:56Z</time>
      </trkpt>
      <trkpt lat="45.62764" lon="6.96542">
        <ele>2355</ele>
        <time>2012-07-10T03:42:01Z</time>
      </trkpt>
      <trkpt lat="45.62765" lon="6.9655">
        <ele>2357</ele>
        <time>2012-07-10T03:42:06Z</time>
      </trkpt>
      <trkpt lat="45.62766" lon="6.96556">
        <ele>2358</ele>
        <time>2012-07-10T03:42:11Z</time>
      </trkpt>
      <trkpt lat="45.62766" lon="6.96563">
        <ele>2358</ele>
        <time>2012-07-10T03:42:16Z</time>
      </trkpt>
      <trkpt lat="45.62766" lon="6.96567">
        <ele>2359</ele>
        <time>2012-07-10T03:42:21Z</time>
      </trkpt>
      <trkpt lat="45.62766" lon="6.9657">
        <ele>2358</ele>
        <time>2012-07-10T03:42:26Z</time>
      </trkpt>
      <trkpt lat="45.62765" lon="6.96573">
        <ele>2359</ele>
        <time>2012-07-10T03:42:31Z</time>
      </trkpt>
      <trkpt lat="45.62766" lon="6.96575">
        <ele>2359</ele>
        <time>2012-07-10T03:42:36Z</time>
      </trkpt>
      <trkpt lat="45.62767" lon="6.96582">
        <ele>2361</ele>
        <time>2012-07-10T03:42:41Z</time>
      </trkpt>
      <trkpt lat="45.62767" lon="6.96585">
        <ele>2361</ele>
        <time>2012-07-10T03:42:46Z</time>
      </trkpt>
      <trkpt lat="45.62769" lon="6.96588">
        <ele>2361</ele>
        <time>2012-07-10T03:42:51Z</time>
      </trkpt>
      <trkpt lat="45.62774" lon="6.96588">
        <ele>2368</ele>
        <time>2012-07-10T03:42:56Z</time>
      </trkpt>
      <trkpt lat="45.62778" lon="6.96587">
        <ele>2372</ele>
        <time>2012-07-10T03:43:01Z</time>
      </trkpt>
      <trkpt lat="45.62782" lon="6.96589">
        <ele>2376</ele>
        <time>2012-07-10T03:43:06Z</time>
      </trkpt>
      <trkpt lat="45.62785" lon="6.96589">
        <ele>2379</ele>
        <time>2012-07-10T03:43:11Z</time>
      </trkpt>
      <trkpt lat="45.62785" lon="6.96592">
        <ele>2381</ele>
        <time>2012-07-10T03:43:16Z</time>
      </trkpt>
      <trkpt lat="45.62785" lon="6.96596">
        <ele>2381</ele>
        <time>2012-07-10T03:43:21Z</time>
      </trkpt>
      <trkpt lat="45.62786" lon="6.96601">
        <ele>2386</ele>
        <time>2012-07-10T03:43:26Z</time>
      </trkpt>
      <trkpt lat="45.62787" lon="6.96603">
        <ele>2387</ele>
        <time>2012-07-10T03:43:31Z</time>
      </trkpt>
      <trkpt lat="45.62788" lon="6.96603">
        <ele>2388</ele>
        <time>2012-07-10T03:43:36Z</time>
      </trkpt>
      <trkpt lat="45.62792" lon="6.96602">
        <ele>2386</ele>
        <time>2012-07-10T03:43:41Z</time>
      </trkpt>
      <trkpt lat="45.62794" lon="6.96601">
        <ele>2383</ele>
        <time>2012-07-10T03:43:46Z</time>
      </trkpt>
      <trkpt lat="45.62794" lon="6.966">
        <ele>2380</ele>
        <time>2012-07-10T03:43:51Z</time>
      </trkpt>
      <trkpt lat="45.62795" lon="6.96599">
        <ele>2384</ele>
        <time>2012-07-10T03:43:56Z</time>
      </trkpt>
      <trkpt lat="45.62795" lon="6.96597">
        <ele>2387</ele>
        <time>2012-07-10T03:44:01Z</time>
      </trkpt>
      <trkpt lat="45.62796" lon="6.96594">
        <ele>2386</ele>
        <time>2012-07-10T03:44:06Z</time>
      </trkpt>
      <trkpt lat="45.62797" lon="6.96596">
        <ele>2387</ele>
        <time>2012-07-10T03:44:11Z</time>
      </trkpt>
      <trkpt lat="45.62799" lon="6.96599">
        <ele>2391</ele>
        <time>2012-07-10T03:44:16Z</time>
      </trkpt>
      <trkpt lat="45.62801" lon="6.96601">
        <ele>2391</ele>
        <time>2012-07-10T03:44:21Z</time>
      </trkpt>
      <trkpt lat="45.62803" lon="6.96604">
        <ele>2391</ele>
        <time>2012-07-10T03:44:26Z</time>
      </trkpt>
      <trkpt lat="45.62804" lon="6.96608">
        <ele>2395</ele>
        <time>2012-07-10T03:44:31Z</time>
      </trkpt>
      <trkpt lat="45.62804" lon="6.96608">
        <ele>2395</ele>
        <time>2012-07-10T03:44:36Z</time>
      </trkpt>
      <trkpt lat="45.62806" lon="6.9661">
        <ele>2397</ele>
        <time>2012-07-10T03:44:41Z</time>
      </trkpt>
      <trkpt lat="45.62808" lon="6.96612">
        <ele>2398</ele>
        <time>2012-07-10T03:44:46Z</time>
      </trkpt>
      <trkpt lat="45.6281" lon="6.96615">
        <ele>2389</ele>
        <time>2012-07-10T03:44:51Z</time>
      </trkpt>
      <trkpt lat="45.62811" lon="6.96615">
        <ele>2386</ele>
        <time>2012-07-10T03:44:56Z</time>
      </trkpt>
      <trkpt lat="45.62812" lon="6.96614">
        <ele>2388</ele>
        <time>2012-07-10T03:45:01Z</time>
      </trkpt>
      <trkpt lat="45.62813" lon="6.96616">
        <ele>2388</ele>
        <time>2012-07-10T03:45:06Z</time>
      </trkpt>
      <trkpt lat="45.62813" lon="6.96617">
        <ele>2387</ele>
        <time>2012-07-10T03:45:11Z</time>
      </trkpt>
      <trkpt lat="45.62813" lon="6.96616">
        <ele>2388</ele>
        <time>2012-07-10T03:45:16Z</time>
      </trkpt>
      <trkpt lat="45.62816" lon="6.96617">
        <ele>2390</ele>
        <time>2012-07-10T03:45:21Z</time>
      </trkpt>
      <trkpt lat="45.62817" lon="6.96616">
        <ele>2394</ele>
        <time>2012-07-10T03:45:26Z</time>
      </trkpt>
      <trkpt lat="45.62817" lon="6.96615">
        <ele>2391</ele>
        <time>2012-07-10T03:45:31Z</time>
      </trkpt>
      <trkpt lat="45.62818" lon="6.96613">
        <ele>2389</ele>
        <time>2012-07-10T03:45:36Z</time>
      </trkpt>
      <trkpt lat="45.6282" lon="6.96613">
        <ele>2389</ele>
        <time>2012-07-10T03:45:41Z</time>
      </trkpt>
      <trkpt lat="45.62822" lon="6.96612">
        <ele>2386</ele>
        <time>2012-07-10T03:45:46Z</time>
      </trkpt>
      <trkpt lat="45.62824" lon="6.9661">
        <ele>2386</ele>
        <time>2012-07-10T03:45:51Z</time>
      </trkpt>
      <trkpt lat="45.62824" lon="6.96609">
        <ele>2388</ele>
        <time>2012-07-10T03:45:56Z</time>
      </trkpt>
      <trkpt lat="45.62825" lon="6.96608">
        <ele>2389</ele>
        <time>2012-07-10T03:46:01Z</time>
      </trkpt>
      <trkpt lat="45.62827" lon="6.9661">
        <ele>2389</ele>
        <time>2012-07-10T03:46:06Z</time>
      </trkpt>
      <trkpt lat="45.6283" lon="6.96612">
        <ele>2388</ele>
        <time>2012-07-10T03:46:11Z</time>
      </trkpt>
      <trkpt lat="45.62832" lon="6.96613">
        <ele>2387</ele>
        <time>2012-07-10T03:46:16Z</time>
      </trkpt>
      <trkpt lat="45.62834" lon="6.96615">
        <ele>2389</ele>
        <time>2012-07-10T03:46:21Z</time>
      </trkpt>
      <trkpt lat="45.62834" lon="6.96617">
        <ele>2390</ele>
        <time>2012-07-10T03:46:26Z</time>
      </trkpt>
      <trkpt lat="45.62835" lon="6.9662">
        <ele>2390</ele>
        <time>2012-07-10T03:46:31Z</time>
      </trkpt>
      <trkpt lat="45.62837" lon="6.96624">
        <ele>2390</ele>
        <time>2012-07-10T03:46:36Z</time>
      </trkpt>
      <trkpt lat="45.62839" lon="6.96629">
        <ele>2390</ele>
        <time>2012-07-10T03:46:41Z</time>
      </trkpt>
      <trkpt lat="45.62841" lon="6.96632">
        <ele>2390</ele>
        <time>2012-07-10T03:46:46Z</time>
      </trkpt>
      <trkpt lat="45.62842" lon="6.96633">
        <ele>2391</ele>
        <time>2012-07-10T03:46:51Z</time>
      </trkpt>
      <trkpt lat="45.62843" lon="6.96634">
        <ele>2390</ele>
        <time>2012-07-10T03:46:56Z</time>
      </trkpt>
      <trkpt lat="45.62847" lon="6.96638">
        <ele>2389</ele>
        <time>2012-07-10T03:47:01Z</time>
      </trkpt>
      <trkpt lat="45.6285" lon="6.9664">
        <ele>2389</ele>
        <time>2012-07-10T03:47:06Z</time>
      </trkpt>
      <trkpt lat="45.62852" lon="6.96645">
        <ele>2390</ele>
        <time>2012-07-10T03:47:11Z</time>
      </trkpt>
      <trkpt lat="45.62853" lon="6.9665">
        <ele>2393</ele>
        <time>2012-07-10T03:47:16Z</time>
      </trkpt>
      <trkpt lat="45.62856" lon="6.96651">
        <ele>2395</ele>
        <time>2012-07-10T03:47:21Z</time>
      </trkpt>
      <trkpt lat="45.62858" lon="6.96652">
        <ele>2395</ele>
        <time>2012-07-10T03:47:26Z</time>
      </trkpt>
      <trkpt lat="45.62859" lon="6.96653">
        <ele>2397</ele>
        <time>2012-07-10T03:47:31Z</time>
      </trkpt>
      <trkpt lat="45.62861" lon="6.96656">
        <ele>2397</ele>
        <time>2012-07-10T03:47:36Z</time>
      </trkpt>
      <trkpt lat="45.62863" lon="6.96661">
        <ele>2397</ele>
        <time>2012-07-10T03:47:41Z</time>
      </trkpt>
      <trkpt lat="45.62866" lon="6.96665">
        <ele>2396</ele>
        <time>2012-07-10T03:47:46Z</time>
      </trkpt>
      <trkpt lat="45.62868" lon="6.96669">
        <ele>2396</ele>
        <time>2012-07-10T03:47:51Z</time>
      </trkpt>
      <trkpt lat="45.62869" lon="6.96672">
        <ele>2397</ele>
        <time>2012-07-10T03:47:56Z</time>
      </trkpt>
      <trkpt lat="45.62869" lon="6.96678">
        <ele>2397</ele>
        <time>2012-07-10T03:48:01Z</time>
      </trkpt>
      <trkpt lat="45.62867" lon="6.96681">
        <ele>2398</ele>
        <time>2012-07-10T03:48:06Z</time>
      </trkpt>
      <trkpt lat="45.62867" lon="6.96684">
        <ele>2398</ele>
        <time>2012-07-10T03:48:11Z</time>
      </trkpt>
      <trkpt lat="45.62865" lon="6.96686">
        <ele>2398</ele>
        <time>2012-07-10T03:48:16Z</time>
      </trkpt>
      <trkpt lat="45.62866" lon="6.9669">
        <ele>2399</ele>
        <time>2012-07-10T03:48:21Z</time>
      </trkpt>
      <trkpt lat="45.62869" lon="6.96694">
        <ele>2402</ele>
        <time>2012-07-10T03:48:26Z</time>
      </trkpt>
      <trkpt lat="45.62872" lon="6.96695">
        <ele>2403</ele>
        <time>2012-07-10T03:48:31Z</time>
      </trkpt>
      <trkpt lat="45.62874" lon="6.96697">
        <ele>2406</ele>
        <time>2012-07-10T03:48:36Z</time>
      </trkpt>
      <trkpt lat="45.62875" lon="6.96698">
        <ele>2405</ele>
        <time>2012-07-10T03:48:41Z</time>
      </trkpt>
      <trkpt lat="45.62877" lon="6.96701">
        <ele>2403</ele>
        <time>2012-07-10T03:48:46Z</time>
      </trkpt>
      <trkpt lat="45.62879" lon="6.96705">
        <ele>2401</ele>
        <time>2012-07-10T03:48:51Z</time>
      </trkpt>
      <trkpt lat="45.62882" lon="6.96708">
        <ele>2400</ele>
        <time>2012-07-10T03:48:56Z</time>
      </trkpt>
      <trkpt lat="45.62883" lon="6.96711">
        <ele>2401</ele>
        <time>2012-07-10T03:49:01Z</time>
      </trkpt>
      <trkpt lat="45.62883" lon="6.96713">
        <ele>2401</ele>
        <time>2012-07-10T03:49:06Z</time>
      </trkpt>
      <trkpt lat="45.62885" lon="6.96716">
        <ele>2402</ele>
        <time>2012-07-10T03:49:11Z</time>
      </trkpt>
      <trkpt lat="45.62885" lon="6.96719">
        <ele>2403</ele>
        <time>2012-07-10T03:49:16Z</time>
      </trkpt>
      <trkpt lat="45.62885" lon="6.96723">
        <ele>2404</ele>
        <time>2012-07-10T03:49:21Z</time>
      </trkpt>
      <trkpt lat="45.62886" lon="6.96726">
        <ele>2405</ele>
        <time>2012-07-10T03:49:26Z</time>
      </trkpt>
      <trkpt lat="45.62887" lon="6.96729">
        <ele>2406</ele>
        <time>2012-07-10T03:49:31Z</time>
      </trkpt>
      <trkpt lat="45.62887" lon="6.9673">
        <ele>2406</ele>
        <time>2012-07-10T03:49:36Z</time>
      </trkpt>
      <trkpt lat="45.62886" lon="6.9673">
        <ele>2417</ele>
        <time>2012-07-10T03:52:36Z</time>
      </trkpt>
      <trkpt lat="45.62888" lon="6.96732">
        <ele>2418</ele>
        <time>2012-07-10T03:52:41Z</time>
      </trkpt>
      <trkpt lat="45.62891" lon="6.96736">
        <ele>2420</ele>
        <time>2012-07-10T03:52:46Z</time>
      </trkpt>
      <trkpt lat="45.62894" lon="6.96741">
        <ele>2421</ele>
        <time>2012-07-10T03:52:51Z</time>
      </trkpt>
      <trkpt lat="45.62898" lon="6.96746">
        <ele>2421</ele>
        <time>2012-07-10T03:52:56Z</time>
      </trkpt>
      <trkpt lat="45.629" lon="6.96743">
        <ele>2424</ele>
        <time>2012-07-10T03:53:01Z</time>
      </trkpt>
      <trkpt lat="45.62903" lon="6.96741">
        <ele>2424</ele>
        <time>2012-07-10T03:53:06Z</time>
      </trkpt>
      <trkpt lat="45.62906" lon="6.96744">
        <ele>2424</ele>
        <time>2012-07-10T03:53:11Z</time>
      </trkpt>
      <trkpt lat="45.62909" lon="6.96745">
        <ele>2425</ele>
        <time>2012-07-10T03:53:16Z</time>
      </trkpt>
      <trkpt lat="45.6291" lon="6.96747">
        <ele>2427</ele>
        <time>2012-07-10T03:53:21Z</time>
      </trkpt>
      <trkpt lat="45.62912" lon="6.9675">
        <ele>2428</ele>
        <time>2012-07-10T03:53:26Z</time>
      </trkpt>
      <trkpt lat="45.62913" lon="6.9675">
        <ele>2431</ele>
        <time>2012-07-10T03:53:31Z</time>
      </trkpt>
      <trkpt lat="45.62916" lon="6.96751">
        <ele>2433</ele>
        <time>2012-07-10T03:53:36Z</time>
      </trkpt>
      <trkpt lat="45.62917" lon="6.96759">
        <ele>2432</ele>
        <time>2012-07-10T03:53:41Z</time>
      </trkpt>
      <trkpt lat="45.62918" lon="6.96766">
        <ele>2432</ele>
        <time>2012-07-10T03:53:46Z</time>
      </trkpt>
      <trkpt lat="45.62919" lon="6.96773">
        <ele>2431</ele>
        <time>2012-07-10T03:53:51Z</time>
      </trkpt>
      <trkpt lat="45.6292" lon="6.96778">
        <ele>2431</ele>
        <time>2012-07-10T03:53:56Z</time>
      </trkpt>
      <trkpt lat="45.62921" lon="6.9678">
        <ele>2433</ele>
        <time>2012-07-10T03:54:01Z</time>
      </trkpt>
      <trkpt lat="45.62925" lon="6.96782">
        <ele>2433</ele>
        <time>2012-07-10T03:54:06Z</time>
      </trkpt>
      <trkpt lat="45.62929" lon="6.96786">
        <ele>2434</ele>
        <time>2012-07-10T03:54:11Z</time>
      </trkpt>
      <trkpt lat="45.62932" lon="6.96785">
        <ele>2435</ele>
        <time>2012-07-10T03:54:16Z</time>
      </trkpt>
      <trkpt lat="45.62931" lon="6.96784">
        <ele>2437</ele>
        <time>2012-07-10T03:54:21Z</time>
      </trkpt>
      <trkpt lat="45.62929" lon="6.96786">
        <ele>2437</ele>
        <time>2012-07-10T03:54:26Z</time>
      </trkpt>
      <trkpt lat="45.6293" lon="6.96788">
        <ele>2438</ele>
        <time>2012-07-10T03:54:31Z</time>
      </trkpt>
      <trkpt lat="45.62929" lon="6.96788">
        <ele>2440</ele>
        <time>2012-07-10T03:54:36Z</time>
      </trkpt>
      <trkpt lat="45.6293" lon="6.96791">
        <ele>2440</ele>
        <time>2012-07-10T03:54:41Z</time>
      </trkpt>
      <trkpt lat="45.6293" lon="6.96796">
        <ele>2440</ele>
        <time>2012-07-10T03:54:46Z</time>
      </trkpt>
      <trkpt lat="45.62931" lon="6.96797">
        <ele>2441</ele>
        <time>2012-07-10T03:54:51Z</time>
      </trkpt>
      <trkpt lat="45.62931" lon="6.968">
        <ele>2442</ele>
        <time>2012-07-10T03:54:56Z</time>
      </trkpt>
      <trkpt lat="45.62932" lon="6.96805">
        <ele>2442</ele>
        <time>2012-07-10T03:55:01Z</time>
      </trkpt>
      <trkpt lat="45.62933" lon="6.96806">
        <ele>2443</ele>
        <time>2012-07-10T03:55:06Z</time>
      </trkpt>
      <trkpt lat="45.62933" lon="6.96808">
        <ele>2445</ele>
        <time>2012-07-10T03:55:11Z</time>
      </trkpt>
      <trkpt lat="45.62932" lon="6.9681">
        <ele>2446</ele>
        <time>2012-07-10T03:55:16Z</time>
      </trkpt>
      <trkpt lat="45.62932" lon="6.96813">
        <ele>2447</ele>
        <time>2012-07-10T03:55:21Z</time>
      </trkpt>
      <trkpt lat="45.62933" lon="6.96815">
        <ele>2447</ele>
        <time>2012-07-10T03:55:26Z</time>
      </trkpt>
      <trkpt lat="45.62933" lon="6.96817">
        <ele>2448</ele>
        <time>2012-07-10T03:55:31Z</time>
      </trkpt>
      <trkpt lat="45.62932" lon="6.96818">
        <ele>2449</ele>
        <time>2012-07-10T03:55:36Z</time>
      </trkpt>
      <trkpt lat="45.6293" lon="6.96819">
        <ele>2451</ele>
        <time>2012-07-10T03:55:41Z</time>
      </trkpt>
      <trkpt lat="45.62929" lon="6.96821">
        <ele>2452</ele>
        <time>2012-07-10T03:55:46Z</time>
      </trkpt>
      <trkpt lat="45.62927" lon="6.96823">
        <ele>2452</ele>
        <time>2012-07-10T03:55:51Z</time>
      </trkpt>
      <trkpt lat="45.62926" lon="6.96826">
        <ele>2452</ele>
        <time>2012-07-10T03:55:56Z</time>
      </trkpt>
      <trkpt lat="45.62925" lon="6.96832">
        <ele>2452</ele>
        <time>2012-07-10T03:56:01Z</time>
      </trkpt>
      <trkpt lat="45.62924" lon="6.96834">
        <ele>2452</ele>
        <time>2012-07-10T03:56:06Z</time>
      </trkpt>
      <trkpt lat="45.62923" lon="6.96838">
        <ele>2453</ele>
        <time>2012-07-10T03:56:11Z</time>
      </trkpt>
      <trkpt lat="45.62921" lon="6.96842">
        <ele>2452</ele>
        <time>2012-07-10T03:56:16Z</time>
      </trkpt>
      <trkpt lat="45.62921" lon="6.96846">
        <ele>2452</ele>
        <time>2012-07-10T03:56:21Z</time>
      </trkpt>
      <trkpt lat="45.6292" lon="6.96849">
        <ele>2453</ele>
        <time>2012-07-10T03:56:26Z</time>
      </trkpt>
      <trkpt lat="45.62919" lon="6.96852">
        <ele>2453</ele>
        <time>2012-07-10T03:56:31Z</time>
      </trkpt>
      <trkpt lat="45.62919" lon="6.96853">
        <ele>2454</ele>
        <time>2012-07-10T03:56:36Z</time>
      </trkpt>
      <trkpt lat="45.62919" lon="6.96855">
        <ele>2455</ele>
        <time>2012-07-10T03:56:41Z</time>
      </trkpt>
      <trkpt lat="45.62917" lon="6.96857">
        <ele>2456</ele>
        <time>2012-07-10T03:56:46Z</time>
      </trkpt>
      <trkpt lat="45.62917" lon="6.9686">
        <ele>2456</ele>
        <time>2012-07-10T03:56:51Z</time>
      </trkpt>
      <trkpt lat="45.62917" lon="6.96861">
        <ele>2457</ele>
        <time>2012-07-10T03:56:56Z</time>
      </trkpt>
      <trkpt lat="45.62919" lon="6.96863">
        <ele>2458</ele>
        <time>2012-07-10T03:57:01Z</time>
      </trkpt>
      <trkpt lat="45.62919" lon="6.96864">
        <ele>2460</ele>
        <time>2012-07-10T03:57:06Z</time>
      </trkpt>
      <trkpt lat="45.62918" lon="6.96869">
        <ele>2460</ele>
        <time>2012-07-10T03:57:11Z</time>
      </trkpt>
      <trkpt lat="45.62919" lon="6.96873">
        <ele>2460</ele>
        <time>2012-07-10T03:57:16Z</time>
      </trkpt>
      <trkpt lat="45.62919" lon="6.96875">
        <ele>2462</ele>
        <time>2012-07-10T03:57:21Z</time>
      </trkpt>
      <trkpt lat="45.62918" lon="6.96877">
        <ele>2462</ele>
        <time>2012-07-10T03:57:26Z</time>
      </trkpt>
      <trkpt lat="45.62917" lon="6.96882">
        <ele>2462</ele>
        <time>2012-07-10T03:57:31Z</time>
      </trkpt>
      <trkpt lat="45.62916" lon="6.96886">
        <ele>2462</ele>
        <time>2012-07-10T03:57:36Z</time>
      </trkpt>
      <trkpt lat="45.62915" lon="6.9689">
        <ele>2463</ele>
        <time>2012-07-10T03:57:41Z</time>
      </trkpt>
      <trkpt lat="45.62916" lon="6.96891">
        <ele>2465</ele>
        <time>2012-07-10T03:57:46Z</time>
      </trkpt>
      <trkpt lat="45.62917" lon="6.96892">
        <ele>2466</ele>
        <time>2012-07-10T03:57:51Z</time>
      </trkpt>
      <trkpt lat="45.62917" lon="6.96893">
        <ele>2468</ele>
        <time>2012-07-10T03:57:56Z</time>
      </trkpt>
      <trkpt lat="45.62918" lon="6.96895">
        <ele>2469</ele>
        <time>2012-07-10T03:58:01Z</time>
      </trkpt>
      <trkpt lat="45.62919" lon="6.96895">
        <ele>2470</ele>
        <time>2012-07-10T03:58:06Z</time>
      </trkpt>
      <trkpt lat="45.62919" lon="6.96896">
        <ele>2472</ele>
        <time>2012-07-10T03:58:11Z</time>
      </trkpt>
      <trkpt lat="45.62919" lon="6.96899">
        <ele>2473</ele>
        <time>2012-07-10T03:58:16Z</time>
      </trkpt>
      <trkpt lat="45.6292" lon="6.96907">
        <ele>2472</ele>
        <time>2012-07-10T03:58:21Z</time>
      </trkpt>
      <trkpt lat="45.62919" lon="6.96911">
        <ele>2473</ele>
        <time>2012-07-10T03:58:26Z</time>
      </trkpt>
      <trkpt lat="45.62917" lon="6.96914">
        <ele>2473</ele>
        <time>2012-07-10T03:58:31Z</time>
      </trkpt>
      <trkpt lat="45.62917" lon="6.9692">
        <ele>2473</ele>
        <time>2012-07-10T03:58:36Z</time>
      </trkpt>
      <trkpt lat="45.62916" lon="6.96923">
        <ele>2473</ele>
        <time>2012-07-10T03:58:41Z</time>
      </trkpt>
      <trkpt lat="45.62914" lon="6.96927">
        <ele>2473</ele>
        <time>2012-07-10T03:58:46Z</time>
      </trkpt>
      <trkpt lat="45.62914" lon="6.9693">
        <ele>2474</ele>
        <time>2012-07-10T03:58:51Z</time>
      </trkpt>
      <trkpt lat="45.62913" lon="6.96933">
        <ele>2475</ele>
        <time>2012-07-10T03:58:56Z</time>
      </trkpt>
      <trkpt lat="45.62912" lon="6.96936">
        <ele>2476</ele>
        <time>2012-07-10T03:59:01Z</time>
      </trkpt>
      <trkpt lat="45.62912" lon="6.9694">
        <ele>2477</ele>
        <time>2012-07-10T03:59:06Z</time>
      </trkpt>
      <trkpt lat="45.62912" lon="6.96943">
        <ele>2477</ele>
        <time>2012-07-10T03:59:11Z</time>
      </trkpt>
      <trkpt lat="45.62912" lon="6.96944">
        <ele>2478</ele>
        <time>2012-07-10T03:59:16Z</time>
      </trkpt>
      <trkpt lat="45.62913" lon="6.96946">
        <ele>2480</ele>
        <time>2012-07-10T03:59:21Z</time>
      </trkpt>
      <trkpt lat="45.62913" lon="6.9695">
        <ele>2481</ele>
        <time>2012-07-10T03:59:26Z</time>
      </trkpt>
      <trkpt lat="45.62914" lon="6.96951">
        <ele>2482</ele>
        <time>2012-07-10T03:59:31Z</time>
      </trkpt>
      <trkpt lat="45.62914" lon="6.96956">
        <ele>2483</ele>
        <time>2012-07-10T03:59:36Z</time>
      </trkpt>
      <trkpt lat="45.62915" lon="6.9696">
        <ele>2485</ele>
        <time>2012-07-10T03:59:41Z</time>
      </trkpt>
      <trkpt lat="45.62916" lon="6.96963">
        <ele>2486</ele>
        <time>2012-07-10T03:59:46Z</time>
      </trkpt>
      <trkpt lat="45.62916" lon="6.96967">
        <ele>2487</ele>
        <time>2012-07-10T03:59:51Z</time>
      </trkpt>
      <trkpt lat="45.62916" lon="6.96973">
        <ele>2487</ele>
        <time>2012-07-10T03:59:56Z</time>
      </trkpt>
      <trkpt lat="45.62916" lon="6.96978">
        <ele>2487</ele>
        <time>2012-07-10T04:00:01Z</time>
      </trkpt>
      <trkpt lat="45.62917" lon="6.96983">
        <ele>2487</ele>
        <time>2012-07-10T04:00:06Z</time>
      </trkpt>
      <trkpt lat="45.62917" lon="6.96987">
        <ele>2488</ele>
        <time>2012-07-10T04:00:11Z</time>
      </trkpt>
      <trkpt lat="45.62916" lon="6.96992">
        <ele>2488</ele>
        <time>2012-07-10T04:00:16Z</time>
      </trkpt>
      <trkpt lat="45.62915" lon="6.96995">
        <ele>2489</ele>
        <time>2012-07-10T04:00:21Z</time>
      </trkpt>
      <trkpt lat="45.62914" lon="6.97001">
        <ele>2489</ele>
        <time>2012-07-10T04:00:26Z</time>
      </trkpt>
      <trkpt lat="45.62914" lon="6.97006">
        <ele>2489</ele>
        <time>2012-07-10T04:00:31Z</time>
      </trkpt>
      <trkpt lat="45.62914" lon="6.97011">
        <ele>2490</ele>
        <time>2012-07-10T04:00:36Z</time>
      </trkpt>
      <trkpt lat="45.62915" lon="6.97016">
        <ele>2491</ele>
        <time>2012-07-10T04:00:41Z</time>
      </trkpt>
      <trkpt lat="45.62916" lon="6.97022">
        <ele>2491</ele>
        <time>2012-07-10T04:00:46Z</time>
      </trkpt>
      <trkpt lat="45.62916" lon="6.97028">
        <ele>2492</ele>
        <time>2012-07-10T04:00:51Z</time>
      </trkpt>
      <trkpt lat="45.62917" lon="6.97034">
        <ele>2493</ele>
        <time>2012-07-10T04:00:56Z</time>
      </trkpt>
      <trkpt lat="45.62918" lon="6.97036">
        <ele>2493</ele>
        <time>2012-07-10T04:01:01Z</time>
      </trkpt>
      <trkpt lat="45.62919" lon="6.97039">
        <ele>2492</ele>
        <time>2012-07-10T04:01:06Z</time>
      </trkpt>
      <trkpt lat="45.6292" lon="6.97042">
        <ele>2494</ele>
        <time>2012-07-10T04:01:11Z</time>
      </trkpt>
      <trkpt lat="45.6292" lon="6.97045">
        <ele>2495</ele>
        <time>2012-07-10T04:01:16Z</time>
      </trkpt>
      <trkpt lat="45.6292" lon="6.97049">
        <ele>2495</ele>
        <time>2012-07-10T04:01:21Z</time>
      </trkpt>
      <trkpt lat="45.6292" lon="6.97053">
        <ele>2496</ele>
        <time>2012-07-10T04:01:26Z</time>
      </trkpt>
      <trkpt lat="45.62919" lon="6.97057">
        <ele>2496</ele>
        <time>2012-07-10T04:01:31Z</time>
      </trkpt>
      <trkpt lat="45.62917" lon="6.9706">
        <ele>2496</ele>
        <time>2012-07-10T04:01:36Z</time>
      </trkpt>
      <trkpt lat="45.62915" lon="6.97063">
        <ele>2496</ele>
        <time>2012-07-10T04:01:41Z</time>
      </trkpt>
      <trkpt lat="45.62914" lon="6.97066">
        <ele>2496</ele>
        <time>2012-07-10T04:01:46Z</time>
      </trkpt>
      <trkpt lat="45.62914" lon="6.97068">
        <ele>2496</ele>
        <time>2012-07-10T04:01:51Z</time>
      </trkpt>
      <trkpt lat="45.62913" lon="6.97071">
        <ele>2496</ele>
        <time>2012-07-10T04:01:56Z</time>
      </trkpt>
      <trkpt lat="45.62912" lon="6.97074">
        <ele>2496</ele>
        <time>2012-07-10T04:02:01Z</time>
      </trkpt>
      <trkpt lat="45.62912" lon="6.97076">
        <ele>2498</ele>
        <time>2012-07-10T04:02:06Z</time>
      </trkpt>
      <trkpt lat="45.62911" lon="6.97079">
        <ele>2498</ele>
        <time>2012-07-10T04:02:11Z</time>
      </trkpt>
      <trkpt lat="45.62911" lon="6.97084">
        <ele>2498</ele>
        <time>2012-07-10T04:02:16Z</time>
      </trkpt>
      <trkpt lat="45.62911" lon="6.97089">
        <ele>2499</ele>
        <time>2012-07-10T04:02:21Z</time>
      </trkpt>
      <trkpt lat="45.6291" lon="6.97094">
        <ele>2500</ele>
        <time>2012-07-10T04:02:26Z</time>
      </trkpt>
      <trkpt lat="45.62911" lon="6.97098">
        <ele>2501</ele>
        <time>2012-07-10T04:02:31Z</time>
      </trkpt>
      <trkpt lat="45.62911" lon="6.97102">
        <ele>2501</ele>
        <time>2012-07-10T04:02:36Z</time>
      </trkpt>
      <trkpt lat="45.62911" lon="6.97108">
        <ele>2501</ele>
        <time>2012-07-10T04:02:41Z</time>
      </trkpt>
      <trkpt lat="45.62912" lon="6.97111">
        <ele>2503</ele>
        <time>2012-07-10T04:02:46Z</time>
      </trkpt>
      <trkpt lat="45.62912" lon="6.97117">
        <ele>2504</ele>
        <time>2012-07-10T04:02:51Z</time>
      </trkpt>
      <trkpt lat="45.62912" lon="6.97123">
        <ele>2504</ele>
        <time>2012-07-10T04:02:56Z</time>
      </trkpt>
      <trkpt lat="45.62912" lon="6.97127">
        <ele>2505</ele>
        <time>2012-07-10T04:03:01Z</time>
      </trkpt>
      <trkpt lat="45.62911" lon="6.97132">
        <ele>2505</ele>
        <time>2012-07-10T04:03:06Z</time>
      </trkpt>
      <trkpt lat="45.6291" lon="6.97135">
        <ele>2506</ele>
        <time>2012-07-10T04:03:11Z</time>
      </trkpt>
      <trkpt lat="45.62911" lon="6.97139">
        <ele>2507</ele>
        <time>2012-07-10T04:03:16Z</time>
      </trkpt>
      <trkpt lat="45.62909" lon="6.97143">
        <ele>2507</ele>
        <time>2012-07-10T04:03:21Z</time>
      </trkpt>
      <trkpt lat="45.62909" lon="6.9715">
        <ele>2506</ele>
        <time>2012-07-10T04:03:26Z</time>
      </trkpt>
      <trkpt lat="45.62909" lon="6.97154">
        <ele>2508</ele>
        <time>2012-07-10T04:03:31Z</time>
      </trkpt>
      <trkpt lat="45.62909" lon="6.97158">
        <ele>2508</ele>
        <time>2012-07-10T04:03:36Z</time>
      </trkpt>
      <trkpt lat="45.62908" lon="6.97162">
        <ele>2509</ele>
        <time>2012-07-10T04:03:41Z</time>
      </trkpt>
      <trkpt lat="45.62907" lon="6.97166">
        <ele>2510</ele>
        <time>2012-07-10T04:03:46Z</time>
      </trkpt>
      <trkpt lat="45.62909" lon="6.97169">
        <ele>2511</ele>
        <time>2012-07-10T04:03:51Z</time>
      </trkpt>
      <trkpt lat="45.62911" lon="6.97171">
        <ele>2513</ele>
        <time>2012-07-10T04:03:56Z</time>
      </trkpt>
      <trkpt lat="45.62914" lon="6.97173">
        <ele>2515</ele>
        <time>2012-07-10T04:04:01Z</time>
      </trkpt>
      <trkpt lat="45.62917" lon="6.97174">
        <ele>2515</ele>
        <time>2012-07-10T04:04:06Z</time>
      </trkpt>
      <trkpt lat="45.62919" lon="6.97178">
        <ele>2517</ele>
        <time>2012-07-10T04:04:11Z</time>
      </trkpt>
      <trkpt lat="45.62921" lon="6.97182">
        <ele>2518</ele>
        <time>2012-07-10T04:04:16Z</time>
      </trkpt>
      <trkpt lat="45.62925" lon="6.97186">
        <ele>2518</ele>
        <time>2012-07-10T04:04:21Z</time>
      </trkpt>
      <trkpt lat="45.62928" lon="6.97191">
        <ele>2518</ele>
        <time>2012-07-10T04:04:26Z</time>
      </trkpt>
      <trkpt lat="45.62931" lon="6.97196">
        <ele>2517</ele>
        <time>2012-07-10T04:04:31Z</time>
      </trkpt>
      <trkpt lat="45.62933" lon="6.97199">
        <ele>2517</ele>
        <time>2012-07-10T04:04:36Z</time>
      </trkpt>
      <trkpt lat="45.62934" lon="6.97202">
        <ele>2518</ele>
        <time>2012-07-10T04:04:41Z</time>
      </trkpt>
      <trkpt lat="45.62934" lon="6.97205">
        <ele>2520</ele>
        <time>2012-07-10T04:04:46Z</time>
      </trkpt>
      <trkpt lat="45.62935" lon="6.97207">
        <ele>2521</ele>
        <time>2012-07-10T04:04:51Z</time>
      </trkpt>
      <trkpt lat="45.62937" lon="6.9721">
        <ele>2521</ele>
        <time>2012-07-10T04:04:56Z</time>
      </trkpt>
      <trkpt lat="45.62936" lon="6.97213">
        <ele>2522</ele>
        <time>2012-07-10T04:05:01Z</time>
      </trkpt>
      <trkpt lat="45.62937" lon="6.97215">
        <ele>2523</ele>
        <time>2012-07-10T04:05:06Z</time>
      </trkpt>
      <trkpt lat="45.62936" lon="6.97216">
        <ele>2524</ele>
        <time>2012-07-10T04:05:11Z</time>
      </trkpt>
      <trkpt lat="45.62937" lon="6.97219">
        <ele>2525</ele>
        <time>2012-07-10T04:05:16Z</time>
      </trkpt>
      <trkpt lat="45.62938" lon="6.97222">
        <ele>2525</ele>
        <time>2012-07-10T04:05:21Z</time>
      </trkpt>
      <trkpt lat="45.62938" lon="6.97224">
        <ele>2525</ele>
        <time>2012-07-10T04:05:26Z</time>
      </trkpt>
      <trkpt lat="45.62938" lon="6.97227">
        <ele>2526</ele>
        <time>2012-07-10T04:05:31Z</time>
      </trkpt>
      <trkpt lat="45.62939" lon="6.97229">
        <ele>2527</ele>
        <time>2012-07-10T04:05:36Z</time>
      </trkpt>
      <trkpt lat="45.6294" lon="6.97231">
        <ele>2528</ele>
        <time>2012-07-10T04:05:41Z</time>
      </trkpt>
      <trkpt lat="45.6294" lon="6.97234">
        <ele>2529</ele>
        <time>2012-07-10T04:05:46Z</time>
      </trkpt>
      <trkpt lat="45.62941" lon="6.97236">
        <ele>2530</ele>
        <time>2012-07-10T04:05:51Z</time>
      </trkpt>
      <trkpt lat="45.62943" lon="6.97237">
        <ele>2531</ele>
        <time>2012-07-10T04:05:56Z</time>
      </trkpt>
      <trkpt lat="45.62944" lon="6.97238">
        <ele>2532</ele>
        <time>2012-07-10T04:06:01Z</time>
      </trkpt>
      <trkpt lat="45.62944" lon="6.9724">
        <ele>2534</ele>
        <time>2012-07-10T04:06:06Z</time>
      </trkpt>
      <trkpt lat="45.62944" lon="6.97242">
        <ele>2535</ele>
        <time>2012-07-10T04:06:11Z</time>
      </trkpt>
      <trkpt lat="45.62944" lon="6.97244">
        <ele>2537</ele>
        <time>2012-07-10T04:06:16Z</time>
      </trkpt>
      <trkpt lat="45.62945" lon="6.97247">
        <ele>2539</ele>
        <time>2012-07-10T04:06:21Z</time>
      </trkpt>
      <trkpt lat="45.62945" lon="6.9725">
        <ele>2540</ele>
        <time>2012-07-10T04:06:26Z</time>
      </trkpt>
      <trkpt lat="45.62947" lon="6.97252">
        <ele>2541</ele>
        <time>2012-07-10T04:06:31Z</time>
      </trkpt>
      <trkpt lat="45.62949" lon="6.97255">
        <ele>2541</ele>
        <time>2012-07-10T04:06:36Z</time>
      </trkpt>
      <trkpt lat="45.62951" lon="6.97257">
        <ele>2542</ele>
        <time>2012-07-10T04:06:41Z</time>
      </trkpt>
      <trkpt lat="45.62951" lon="6.9726">
        <ele>2543</ele>
        <time>2012-07-10T04:06:46Z</time>
      </trkpt>
      <trkpt lat="45.62953" lon="6.97264">
        <ele>2544</ele>
        <time>2012-07-10T04:06:51Z</time>
      </trkpt>
      <trkpt lat="45.62954" lon="6.97265">
        <ele>2544</ele>
        <time>2012-07-10T04:06:56Z</time>
      </trkpt>
      <trkpt lat="45.62956" lon="6.97269">
        <ele>2545</ele>
        <time>2012-07-10T04:07:01Z</time>
      </trkpt>
      <trkpt lat="45.62958" lon="6.97273">
        <ele>2546</ele>
        <time>2012-07-10T04:07:06Z</time>
      </trkpt>
      <trkpt lat="45.62961" lon="6.97276">
        <ele>2547</ele>
        <time>2012-07-10T04:07:11Z</time>
      </trkpt>
      <trkpt lat="45.62962" lon="6.97281">
        <ele>2548</ele>
        <time>2012-07-10T04:07:16Z</time>
      </trkpt>
      <trkpt lat="45.62963" lon="6.97285">
        <ele>2548</ele>
        <time>2012-07-10T04:07:21Z</time>
      </trkpt>
      <trkpt lat="45.62964" lon="6.97289">
        <ele>2549</ele>
        <time>2012-07-10T04:07:26Z</time>
      </trkpt>
      <trkpt lat="45.62965" lon="6.97293">
        <ele>2548</ele>
        <time>2012-07-10T04:07:31Z</time>
      </trkpt>
      <trkpt lat="45.62964" lon="6.97293">
        <ele>2548</ele>
        <time>2012-07-10T04:07:36Z</time>
      </trkpt>
      <trkpt lat="45.62965" lon="6.97295">
        <ele>2549</ele>
        <time>2012-07-10T04:07:41Z</time>
      </trkpt>
      <trkpt lat="45.62964" lon="6.97293">
        <ele>2551</ele>
        <time>2012-07-10T04:07:46Z</time>
      </trkpt>
      <trkpt lat="45.62965" lon="6.97294">
        <ele>2548</ele>
        <time>2012-07-10T04:07:51Z</time>
      </trkpt>
      <trkpt lat="45.62964" lon="6.97293">
        <ele>2547</ele>
        <time>2012-07-10T04:07:56Z</time>
      </trkpt>
      <trkpt lat="45.62964" lon="6.97291">
        <ele>2548</ele>
        <time>2012-07-10T04:08:01Z</time>
      </trkpt>
      <trkpt lat="45.62963" lon="6.9729">
        <ele>2549</ele>
        <time>2012-07-10T04:08:06Z</time>
      </trkpt>
      <trkpt lat="45.62962" lon="6.97289">
        <ele>2552</ele>
        <time>2012-07-10T04:08:11Z</time>
      </trkpt>
      <trkpt lat="45.62961" lon="6.9729">
        <ele>2552</ele>
        <time>2012-07-10T04:08:16Z</time>
      </trkpt>
      <trkpt lat="45.62959" lon="6.97285">
        <ele>2556</ele>
        <time>2012-07-10T04:08:21Z</time>
      </trkpt>
      <trkpt lat="45.62959" lon="6.97288">
        <ele>2554</ele>
        <time>2012-07-10T04:08:26Z</time>
      </trkpt>
      <trkpt lat="45.6296" lon="6.97291">
        <ele>2551</ele>
        <time>2012-07-10T04:08:31Z</time>
      </trkpt>
      <trkpt lat="45.62961" lon="6.97297">
        <ele>2549</ele>
        <time>2012-07-10T04:08:36Z</time>
      </trkpt>
      <trkpt lat="45.62961" lon="6.97302">
        <ele>2549</ele>
        <time>2012-07-10T04:08:41Z</time>
      </trkpt>
      <trkpt lat="45.6296" lon="6.97308">
        <ele>2548</ele>
        <time>2012-07-10T04:08:46Z</time>
      </trkpt>
      <trkpt lat="45.62959" lon="6.97313">
        <ele>2548</ele>
        <time>2012-07-10T04:08:51Z</time>
      </trkpt>
      <trkpt lat="45.62957" lon="6.97319">
        <ele>2547</ele>
        <time>2012-07-10T04:08:56Z</time>
      </trkpt>
      <trkpt lat="45.62956" lon="6.97328">
        <ele>2545</ele>
        <time>2012-07-10T04:09:01Z</time>
      </trkpt>
      <trkpt lat="45.62954" lon="6.97332">
        <ele>2546</ele>
        <time>2012-07-10T04:09:06Z</time>
      </trkpt>
      <trkpt lat="45.62954" lon="6.97334">
        <ele>2546</ele>
        <time>2012-07-10T04:09:11Z</time>
      </trkpt>
      <trkpt lat="45.62954" lon="6.97337">
        <ele>2550</ele>
        <time>2012-07-10T04:10:06Z</time>
      </trkpt>
      <trkpt lat="45.62953" lon="6.97343">
        <ele>2550</ele>
        <time>2012-07-10T04:10:11Z</time>
      </trkpt>
      <trkpt lat="45.62951" lon="6.97349">
        <ele>2550</ele>
        <time>2012-07-10T04:10:16Z</time>
      </trkpt>
      <trkpt lat="45.62949" lon="6.97353">
        <ele>2549</ele>
        <time>2012-07-10T04:10:21Z</time>
      </trkpt>
      <trkpt lat="45.62948" lon="6.9736">
        <ele>2549</ele>
        <time>2012-07-10T04:10:26Z</time>
      </trkpt>
      <trkpt lat="45.62947" lon="6.97366">
        <ele>2548</ele>
        <time>2012-07-10T04:10:31Z</time>
      </trkpt>
      <trkpt lat="45.62945" lon="6.97368">
        <ele>2549</ele>
        <time>2012-07-10T04:10:36Z</time>
      </trkpt>
      <trkpt lat="45.62944" lon="6.97372">
        <ele>2550</ele>
        <time>2012-07-10T04:10:41Z</time>
      </trkpt>
      <trkpt lat="45.62944" lon="6.97377">
        <ele>2550</ele>
        <time>2012-07-10T04:10:46Z</time>
      </trkpt>
      <trkpt lat="45.62943" lon="6.97379">
        <ele>2552</ele>
        <time>2012-07-10T04:10:51Z</time>
      </trkpt>
      <trkpt lat="45.62943" lon="6.97379">
        <ele>2555</ele>
        <time>2012-07-10T04:10:56Z</time>
      </trkpt>
      <trkpt lat="45.62943" lon="6.97382">
        <ele>2556</ele>
        <time>2012-07-10T04:11:01Z</time>
      </trkpt>
      <trkpt lat="45.62942" lon="6.97387">
        <ele>2556</ele>
        <time>2012-07-10T04:11:06Z</time>
      </trkpt>
      <trkpt lat="45.62946" lon="6.97391">
        <ele>2556</ele>
        <time>2012-07-10T04:11:11Z</time>
      </trkpt>
      <trkpt lat="45.62948" lon="6.97395">
        <ele>2556</ele>
        <time>2012-07-10T04:11:16Z</time>
      </trkpt>
      <trkpt lat="45.62949" lon="6.97396">
        <ele>2557</ele>
        <time>2012-07-10T04:11:21Z</time>
      </trkpt>
      <trkpt lat="45.62951" lon="6.97403">
        <ele>2556</ele>
        <time>2012-07-10T04:11:26Z</time>
      </trkpt>
      <trkpt lat="45.62953" lon="6.97405">
        <ele>2556</ele>
        <time>2012-07-10T04:11:31Z</time>
      </trkpt>
      <trkpt lat="45.62954" lon="6.97408">
        <ele>2556</ele>
        <time>2012-07-10T04:11:36Z</time>
      </trkpt>
      <trkpt lat="45.62954" lon="6.97411">
        <ele>2557</ele>
        <time>2012-07-10T04:11:41Z</time>
      </trkpt>
      <trkpt lat="45.62954" lon="6.97415">
        <ele>2558</ele>
        <time>2012-07-10T04:11:46Z</time>
      </trkpt>
      <trkpt lat="45.62954" lon="6.9742">
        <ele>2557</ele>
        <time>2012-07-10T04:11:51Z</time>
      </trkpt>
      <trkpt lat="45.62954" lon="6.97425">
        <ele>2556</ele>
        <time>2012-07-10T04:11:56Z</time>
      </trkpt>
      <trkpt lat="45.62953" lon="6.97429">
        <ele>2556</ele>
        <time>2012-07-10T04:12:01Z</time>
      </trkpt>
      <trkpt lat="45.62953" lon="6.97431">
        <ele>2556</ele>
        <time>2012-07-10T04:12:06Z</time>
      </trkpt>
      <trkpt lat="45.62953" lon="6.97433">
        <ele>2557</ele>
        <time>2012-07-10T04:12:11Z</time>
      </trkpt>
      <trkpt lat="45.62952" lon="6.97434">
        <ele>2559</ele>
        <time>2012-07-10T04:12:16Z</time>
      </trkpt>
      <trkpt lat="45.62952" lon="6.97436">
        <ele>2560</ele>
        <time>2012-07-10T04:12:21Z</time>
      </trkpt>
      <trkpt lat="45.62951" lon="6.97438">
        <ele>2561</ele>
        <time>2012-07-10T04:12:26Z</time>
      </trkpt>
      <trkpt lat="45.62951" lon="6.97442">
        <ele>2562</ele>
        <time>2012-07-10T04:12:31Z</time>
      </trkpt>
      <trkpt lat="45.62951" lon="6.97445">
        <ele>2563</ele>
        <time>2012-07-10T04:12:36Z</time>
      </trkpt>
      <trkpt lat="45.62953" lon="6.97447">
        <ele>2564</ele>
        <time>2012-07-10T04:12:41Z</time>
      </trkpt>
      <trkpt lat="45.62953" lon="6.97449">
        <ele>2566</ele>
        <time>2012-07-10T04:12:46Z</time>
      </trkpt>
      <trkpt lat="45.62956" lon="6.97453">
        <ele>2567</ele>
        <time>2012-07-10T04:12:51Z</time>
      </trkpt>
      <trkpt lat="45.62956" lon="6.97456">
        <ele>2567</ele>
        <time>2012-07-10T04:12:56Z</time>
      </trkpt>
      <trkpt lat="45.62958" lon="6.97459">
        <ele>2567</ele>
        <time>2012-07-10T04:13:01Z</time>
      </trkpt>
      <trkpt lat="45.6296" lon="6.97462">
        <ele>2567</ele>
        <time>2012-07-10T04:13:06Z</time>
      </trkpt>
      <trkpt lat="45.62961" lon="6.97465">
        <ele>2565</ele>
        <time>2012-07-10T04:13:11Z</time>
      </trkpt>
      <trkpt lat="45.62962" lon="6.97465">
        <ele>2565</ele>
        <time>2012-07-10T04:13:16Z</time>
      </trkpt>
      <trkpt lat="45.62962" lon="6.97464">
        <ele>2565</ele>
        <time>2012-07-10T04:13:21Z</time>
      </trkpt>
      <trkpt lat="45.62961" lon="6.97462">
        <ele>2567</ele>
        <time>2012-07-10T04:13:26Z</time>
      </trkpt>
      <trkpt lat="45.62961" lon="6.97462">
        <ele>2568</ele>
        <time>2012-07-10T04:13:31Z</time>
      </trkpt>
      <trkpt lat="45.62962" lon="6.97463">
        <ele>2567</ele>
        <time>2012-07-10T04:13:36Z</time>
      </trkpt>
      <trkpt lat="45.62962" lon="6.97462">
        <ele>2567</ele>
        <time>2012-07-10T04:13:41Z</time>
      </trkpt>
      <trkpt lat="45.62962" lon="6.9746">
        <ele>2569</ele>
        <time>2012-07-10T04:13:46Z</time>
      </trkpt>
      <trkpt lat="45.62962" lon="6.9746">
        <ele>2571</ele>
        <time>2012-07-10T04:13:51Z</time>
      </trkpt>
      <trkpt lat="45.62962" lon="6.97459">
        <ele>2572</ele>
        <time>2012-07-10T04:13:56Z</time>
      </trkpt>
      <trkpt lat="45.62962" lon="6.97457">
        <ele>2571</ele>
        <time>2012-07-10T04:14:01Z</time>
      </trkpt>
      <trkpt lat="45.62962" lon="6.9746">
        <ele>2571</ele>
        <time>2012-07-10T04:14:06Z</time>
      </trkpt>
      <trkpt lat="45.62963" lon="6.97461">
        <ele>2570</ele>
        <time>2012-07-10T04:14:11Z</time>
      </trkpt>
      <trkpt lat="45.62963" lon="6.97463">
        <ele>2570</ele>
        <time>2012-07-10T04:14:16Z</time>
      </trkpt>
      <trkpt lat="45.62964" lon="6.97465">
        <ele>2568</ele>
        <time>2012-07-10T04:14:21Z</time>
      </trkpt>
      <trkpt lat="45.62965" lon="6.97467">
        <ele>2568</ele>
        <time>2012-07-10T04:14:26Z</time>
      </trkpt>
      <trkpt lat="45.62964" lon="6.97475">
        <ele>2563</ele>
        <time>2012-07-10T04:33:16Z</time>
      </trkpt>
      <trkpt lat="45.62964" lon="6.97476">
        <ele>2562</ele>
        <time>2012-07-10T04:33:21Z</time>
      </trkpt>
      <trkpt lat="45.62966" lon="6.97478">
        <ele>2563</ele>
        <time>2012-07-10T04:33:26Z</time>
      </trkpt>
      <trkpt lat="45.62978" lon="6.97488">
        <ele>2548</ele>
        <time>2012-07-10T04:34:15Z</time>
      </trkpt>
      <trkpt lat="45.62981" lon="6.97497">
        <ele>2561</ele>
        <time>2012-07-10T04:34:21Z</time>
      </trkpt>
      <trkpt lat="45.62978" lon="6.97501">
        <ele>2561</ele>
        <time>2012-07-10T04:34:26Z</time>
      </trkpt>
      <trkpt lat="45.62979" lon="6.97505">
        <ele>2562</ele>
        <time>2012-07-10T04:34:31Z</time>
      </trkpt>
      <trkpt lat="45.6298" lon="6.97512">
        <ele>2568</ele>
        <time>2012-07-10T04:34:36Z</time>
      </trkpt>
      <trkpt lat="45.6298" lon="6.97515">
        <ele>2571</ele>
        <time>2012-07-10T04:34:41Z</time>
      </trkpt>
      <trkpt lat="45.62981" lon="6.97517">
        <ele>2573</ele>
        <time>2012-07-10T04:34:46Z</time>
      </trkpt>
      <trkpt lat="45.62983" lon="6.97521">
        <ele>2573</ele>
        <time>2012-07-10T04:34:51Z</time>
      </trkpt>
      <trkpt lat="45.62983" lon="6.97523">
        <ele>2573</ele>
        <time>2012-07-10T04:34:56Z</time>
      </trkpt>
      <trkpt lat="45.62985" lon="6.97527">
        <ele>2572</ele>
        <time>2012-07-10T04:35:01Z</time>
      </trkpt>
      <trkpt lat="45.62986" lon="6.97531">
        <ele>2574</ele>
        <time>2012-07-10T04:35:06Z</time>
      </trkpt>
      <trkpt lat="45.62986" lon="6.97535">
        <ele>2577</ele>
        <time>2012-07-10T04:35:11Z</time>
      </trkpt>
      <trkpt lat="45.62987" lon="6.97538">
        <ele>2576</ele>
        <time>2012-07-10T04:35:16Z</time>
      </trkpt>
      <trkpt lat="45.62988" lon="6.97541">
        <ele>2575</ele>
        <time>2012-07-10T04:35:21Z</time>
      </trkpt>
      <trkpt lat="45.62989" lon="6.97545">
        <ele>2574</ele>
        <time>2012-07-10T04:35:26Z</time>
      </trkpt>
      <trkpt lat="45.62991" lon="6.9755">
        <ele>2574</ele>
        <time>2012-07-10T04:35:31Z</time>
      </trkpt>
      <trkpt lat="45.62993" lon="6.97553">
        <ele>2574</ele>
        <time>2012-07-10T04:35:36Z</time>
      </trkpt>
      <trkpt lat="45.62993" lon="6.97556">
        <ele>2577</ele>
        <time>2012-07-10T04:35:41Z</time>
      </trkpt>
      <trkpt lat="45.62994" lon="6.97559">
        <ele>2579</ele>
        <time>2012-07-10T04:35:46Z</time>
      </trkpt>
      <trkpt lat="45.62996" lon="6.97562">
        <ele>2583</ele>
        <time>2012-07-10T04:35:51Z</time>
      </trkpt>
      <trkpt lat="45.62996" lon="6.97566">
        <ele>2585</ele>
        <time>2012-07-10T04:35:56Z</time>
      </trkpt>
      <trkpt lat="45.62998" lon="6.97571">
        <ele>2590</ele>
        <time>2012-07-10T04:36:01Z</time>
      </trkpt>
      <trkpt lat="45.62999" lon="6.97575">
        <ele>2589</ele>
        <time>2012-07-10T04:36:06Z</time>
      </trkpt>
      <trkpt lat="45.63001" lon="6.9758">
        <ele>2588</ele>
        <time>2012-07-10T04:36:11Z</time>
      </trkpt>
      <trkpt lat="45.63001" lon="6.97584">
        <ele>2586</ele>
        <time>2012-07-10T04:36:16Z</time>
      </trkpt>
      <trkpt lat="45.62999" lon="6.97587">
        <ele>2587</ele>
        <time>2012-07-10T04:36:21Z</time>
      </trkpt>
      <trkpt lat="45.63" lon="6.97592">
        <ele>2587</ele>
        <time>2012-07-10T04:36:26Z</time>
      </trkpt>
      <trkpt lat="45.63001" lon="6.97596">
        <ele>2586</ele>
        <time>2012-07-10T04:36:31Z</time>
      </trkpt>
      <trkpt lat="45.63001" lon="6.976">
        <ele>2585</ele>
        <time>2012-07-10T04:36:36Z</time>
      </trkpt>
      <trkpt lat="45.63002" lon="6.97606">
        <ele>2584</ele>
        <time>2012-07-10T04:36:41Z</time>
      </trkpt>
      <trkpt lat="45.63003" lon="6.97609">
        <ele>2584</ele>
        <time>2012-07-10T04:36:46Z</time>
      </trkpt>
      <trkpt lat="45.63004" lon="6.97614">
        <ele>2584</ele>
        <time>2012-07-10T04:36:51Z</time>
      </trkpt>
      <trkpt lat="45.63006" lon="6.97617">
        <ele>2585</ele>
        <time>2012-07-10T04:36:56Z</time>
      </trkpt>
      <trkpt lat="45.63006" lon="6.9762">
        <ele>2585</ele>
        <time>2012-07-10T04:37:01Z</time>
      </trkpt>
      <trkpt lat="45.63008" lon="6.97623">
        <ele>2585</ele>
        <time>2012-07-10T04:37:06Z</time>
      </trkpt>
      <trkpt lat="45.63008" lon="6.97626">
        <ele>2586</ele>
        <time>2012-07-10T04:37:11Z</time>
      </trkpt>
      <trkpt lat="45.63009" lon="6.97628">
        <ele>2587</ele>
        <time>2012-07-10T04:37:16Z</time>
      </trkpt>
      <trkpt lat="45.63011" lon="6.9763">
        <ele>2588</ele>
        <time>2012-07-10T04:37:21Z</time>
      </trkpt>
      <trkpt lat="45.63012" lon="6.97633">
        <ele>2589</ele>
        <time>2012-07-10T04:37:26Z</time>
      </trkpt>
      <trkpt lat="45.63014" lon="6.97636">
        <ele>2590</ele>
        <time>2012-07-10T04:37:31Z</time>
      </trkpt>
      <trkpt lat="45.63015" lon="6.97637">
        <ele>2590</ele>
        <time>2012-07-10T04:37:36Z</time>
      </trkpt>
      <trkpt lat="45.63016" lon="6.9764">
        <ele>2591</ele>
        <time>2012-07-10T04:37:41Z</time>
      </trkpt>
      <trkpt lat="45.63017" lon="6.97642">
        <ele>2591</ele>
        <time>2012-07-10T04:37:46Z</time>
      </trkpt>
      <trkpt lat="45.63019" lon="6.97644">
        <ele>2592</ele>
        <time>2012-07-10T04:37:51Z</time>
      </trkpt>
      <trkpt lat="45.63019" lon="6.97648">
        <ele>2593</ele>
        <time>2012-07-10T04:37:56Z</time>
      </trkpt>
      <trkpt lat="45.6302" lon="6.97651">
        <ele>2594</ele>
        <time>2012-07-10T04:38:01Z</time>
      </trkpt>
      <trkpt lat="45.6302" lon="6.97655">
        <ele>2596</ele>
        <time>2012-07-10T04:38:06Z</time>
      </trkpt>
      <trkpt lat="45.63022" lon="6.97658">
        <ele>2596</ele>
        <time>2012-07-10T04:38:11Z</time>
      </trkpt>
      <trkpt lat="45.63023" lon="6.97662">
        <ele>2597</ele>
        <time>2012-07-10T04:38:16Z</time>
      </trkpt>
      <trkpt lat="45.63024" lon="6.97664">
        <ele>2597</ele>
        <time>2012-07-10T04:38:21Z</time>
      </trkpt>
      <trkpt lat="45.63025" lon="6.97666">
        <ele>2597</ele>
        <time>2012-07-10T04:38:26Z</time>
      </trkpt>
      <trkpt lat="45.63025" lon="6.97669">
        <ele>2597</ele>
        <time>2012-07-10T04:38:31Z</time>
      </trkpt>
      <trkpt lat="45.63026" lon="6.97671">
        <ele>2598</ele>
        <time>2012-07-10T04:38:36Z</time>
      </trkpt>
      <trkpt lat="45.63027" lon="6.97673">
        <ele>2599</ele>
        <time>2012-07-10T04:38:41Z</time>
      </trkpt>
      <trkpt lat="45.63028" lon="6.97675">
        <ele>2601</ele>
        <time>2012-07-10T04:38:46Z</time>
      </trkpt>
      <trkpt lat="45.63028" lon="6.97679">
        <ele>2601</ele>
        <time>2012-07-10T04:38:51Z</time>
      </trkpt>
      <trkpt lat="45.63029" lon="6.9768">
        <ele>2602</ele>
        <time>2012-07-10T04:38:56Z</time>
      </trkpt>
      <trkpt lat="45.63031" lon="6.97683">
        <ele>2602</ele>
        <time>2012-07-10T04:39:01Z</time>
      </trkpt>
      <trkpt lat="45.63032" lon="6.97686">
        <ele>2603</ele>
        <time>2012-07-10T04:39:06Z</time>
      </trkpt>
      <trkpt lat="45.63033" lon="6.97689">
        <ele>2604</ele>
        <time>2012-07-10T04:39:11Z</time>
      </trkpt>
      <trkpt lat="45.63034" lon="6.9769">
        <ele>2605</ele>
        <time>2012-07-10T04:39:16Z</time>
      </trkpt>
      <trkpt lat="45.63036" lon="6.97693">
        <ele>2606</ele>
        <time>2012-07-10T04:39:21Z</time>
      </trkpt>
      <trkpt lat="45.63038" lon="6.97697">
        <ele>2607</ele>
        <time>2012-07-10T04:39:26Z</time>
      </trkpt>
      <trkpt lat="45.63038" lon="6.97701">
        <ele>2609</ele>
        <time>2012-07-10T04:39:31Z</time>
      </trkpt>
      <trkpt lat="45.63038" lon="6.97704">
        <ele>2608</ele>
        <time>2012-07-10T04:39:36Z</time>
      </trkpt>
      <trkpt lat="45.63038" lon="6.97706">
        <ele>2608</ele>
        <time>2012-07-10T04:39:41Z</time>
      </trkpt>
      <trkpt lat="45.63038" lon="6.97709">
        <ele>2609</ele>
        <time>2012-07-10T04:39:46Z</time>
      </trkpt>
      <trkpt lat="45.63038" lon="6.97712">
        <ele>2609</ele>
        <time>2012-07-10T04:39:51Z</time>
      </trkpt>
      <trkpt lat="45.63039" lon="6.97715">
        <ele>2609</ele>
        <time>2012-07-10T04:39:56Z</time>
      </trkpt>
      <trkpt lat="45.6304" lon="6.97715">
        <ele>2609</ele>
        <time>2012-07-10T04:40:01Z</time>
      </trkpt>
      <trkpt lat="45.63041" lon="6.97718">
        <ele>2609</ele>
        <time>2012-07-10T04:40:06Z</time>
      </trkpt>
      <trkpt lat="45.63042" lon="6.9772">
        <ele>2610</ele>
        <time>2012-07-10T04:40:11Z</time>
      </trkpt>
      <trkpt lat="45.63043" lon="6.97721">
        <ele>2610</ele>
        <time>2012-07-10T04:40:16Z</time>
      </trkpt>
      <trkpt lat="45.63044" lon="6.97723">
        <ele>2610</ele>
        <time>2012-07-10T04:40:21Z</time>
      </trkpt>
      <trkpt lat="45.63046" lon="6.97725">
        <ele>2610</ele>
        <time>2012-07-10T04:40:26Z</time>
      </trkpt>
      <trkpt lat="45.63047" lon="6.97727">
        <ele>2611</ele>
        <time>2012-07-10T04:40:31Z</time>
      </trkpt>
      <trkpt lat="45.63048" lon="6.97729">
        <ele>2613</ele>
        <time>2012-07-10T04:40:36Z</time>
      </trkpt>
      <trkpt lat="45.63049" lon="6.97732">
        <ele>2613</ele>
        <time>2012-07-10T04:40:41Z</time>
      </trkpt>
      <trkpt lat="45.63051" lon="6.97734">
        <ele>2613</ele>
        <time>2012-07-10T04:40:46Z</time>
      </trkpt>
      <trkpt lat="45.63052" lon="6.97737">
        <ele>2613</ele>
        <time>2012-07-10T04:40:51Z</time>
      </trkpt>
      <trkpt lat="45.63053" lon="6.97739">
        <ele>2615</ele>
        <time>2012-07-10T04:40:56Z</time>
      </trkpt>
      <trkpt lat="45.63054" lon="6.97742">
        <ele>2616</ele>
        <time>2012-07-10T04:41:01Z</time>
      </trkpt>
      <trkpt lat="45.63056" lon="6.97745">
        <ele>2617</ele>
        <time>2012-07-10T04:41:06Z</time>
      </trkpt>
      <trkpt lat="45.63057" lon="6.97747">
        <ele>2617</ele>
        <time>2012-07-10T04:41:11Z</time>
      </trkpt>
      <trkpt lat="45.63057" lon="6.97751">
        <ele>2617</ele>
        <time>2012-07-10T04:41:16Z</time>
      </trkpt>
      <trkpt lat="45.63057" lon="6.97752">
        <ele>2617</ele>
        <time>2012-07-10T04:41:21Z</time>
      </trkpt>
      <trkpt lat="45.63059" lon="6.97754">
        <ele>2618</ele>
        <time>2012-07-10T04:41:26Z</time>
      </trkpt>
      <trkpt lat="45.6306" lon="6.97756">
        <ele>2618</ele>
        <time>2012-07-10T04:41:31Z</time>
      </trkpt>
      <trkpt lat="45.63061" lon="6.9776">
        <ele>2620</ele>
        <time>2012-07-10T04:41:36Z</time>
      </trkpt>
      <trkpt lat="45.6306" lon="6.97761">
        <ele>2619</ele>
        <time>2012-07-10T04:41:41Z</time>
      </trkpt>
      <trkpt lat="45.63062" lon="6.97763">
        <ele>2619</ele>
        <time>2012-07-10T04:41:46Z</time>
      </trkpt>
      <trkpt lat="45.63064" lon="6.97766">
        <ele>2619</ele>
        <time>2012-07-10T04:41:51Z</time>
      </trkpt>
      <trkpt lat="45.63064" lon="6.97769">
        <ele>2620</ele>
        <time>2012-07-10T04:41:56Z</time>
      </trkpt>
      <trkpt lat="45.63065" lon="6.97772">
        <ele>2622</ele>
        <time>2012-07-10T04:42:01Z</time>
      </trkpt>
      <trkpt lat="45.63065" lon="6.97775">
        <ele>2623</ele>
        <time>2012-07-10T04:42:06Z</time>
      </trkpt>
      <trkpt lat="45.63066" lon="6.97777">
        <ele>2625</ele>
        <time>2012-07-10T04:42:11Z</time>
      </trkpt>
      <trkpt lat="45.63066" lon="6.9778">
        <ele>2626</ele>
        <time>2012-07-10T04:42:16Z</time>
      </trkpt>
      <trkpt lat="45.63065" lon="6.97783">
        <ele>2626</ele>
        <time>2012-07-10T04:42:21Z</time>
      </trkpt>
      <trkpt lat="45.63065" lon="6.97786">
        <ele>2626</ele>
        <time>2012-07-10T04:42:26Z</time>
      </trkpt>
      <trkpt lat="45.63066" lon="6.97789">
        <ele>2627</ele>
        <time>2012-07-10T04:42:31Z</time>
      </trkpt>
      <trkpt lat="45.63067" lon="6.97793">
        <ele>2629</ele>
        <time>2012-07-10T04:42:36Z</time>
      </trkpt>
      <trkpt lat="45.63067" lon="6.97795">
        <ele>2628</ele>
        <time>2012-07-10T04:42:41Z</time>
      </trkpt>
      <trkpt lat="45.63068" lon="6.978">
        <ele>2628</ele>
        <time>2012-07-10T04:42:46Z</time>
      </trkpt>
      <trkpt lat="45.63069" lon="6.97804">
        <ele>2629</ele>
        <time>2012-07-10T04:42:51Z</time>
      </trkpt>
      <trkpt lat="45.6307" lon="6.97808">
        <ele>2631</ele>
        <time>2012-07-10T04:42:56Z</time>
      </trkpt>
      <trkpt lat="45.6307" lon="6.97811">
        <ele>2633</ele>
        <time>2012-07-10T04:43:01Z</time>
      </trkpt>
      <trkpt lat="45.63071" lon="6.97814">
        <ele>2634</ele>
        <time>2012-07-10T04:43:06Z</time>
      </trkpt>
      <trkpt lat="45.6307" lon="6.97816">
        <ele>2636</ele>
        <time>2012-07-10T04:43:11Z</time>
      </trkpt>
      <trkpt lat="45.6307" lon="6.97816">
        <ele>2637</ele>
        <time>2012-07-10T04:43:16Z</time>
      </trkpt>
      <trkpt lat="45.6307" lon="6.97818">
        <ele>2635</ele>
        <time>2012-07-10T04:43:21Z</time>
      </trkpt>
      <trkpt lat="45.6307" lon="6.9782">
        <ele>2635</ele>
        <time>2012-07-10T04:43:26Z</time>
      </trkpt>
      <trkpt lat="45.6307" lon="6.97824">
        <ele>2636</ele>
        <time>2012-07-10T04:43:31Z</time>
      </trkpt>
      <trkpt lat="45.63071" lon="6.97829">
        <ele>2639</ele>
        <time>2012-07-10T04:43:36Z</time>
      </trkpt>
      <trkpt lat="45.63073" lon="6.97833">
        <ele>2640</ele>
        <time>2012-07-10T04:43:41Z</time>
      </trkpt>
      <trkpt lat="45.63073" lon="6.97837">
        <ele>2639</ele>
        <time>2012-07-10T04:43:46Z</time>
      </trkpt>
      <trkpt lat="45.63075" lon="6.97841">
        <ele>2639</ele>
        <time>2012-07-10T04:43:51Z</time>
      </trkpt>
      <trkpt lat="45.63076" lon="6.97845">
        <ele>2639</ele>
        <time>2012-07-10T04:43:56Z</time>
      </trkpt>
      <trkpt lat="45.63077" lon="6.97849">
        <ele>2640</ele>
        <time>2012-07-10T04:44:01Z</time>
      </trkpt>
      <trkpt lat="45.63079" lon="6.97852">
        <ele>2641</ele>
        <time>2012-07-10T04:44:06Z</time>
      </trkpt>
      <trkpt lat="45.6308" lon="6.97856">
        <ele>2643</ele>
        <time>2012-07-10T04:44:11Z</time>
      </trkpt>
      <trkpt lat="45.63081" lon="6.97861">
        <ele>2642</ele>
        <time>2012-07-10T04:44:16Z</time>
      </trkpt>
      <trkpt lat="45.63083" lon="6.97865">
        <ele>2642</ele>
        <time>2012-07-10T04:44:21Z</time>
      </trkpt>
      <trkpt lat="45.63085" lon="6.97869">
        <ele>2643</ele>
        <time>2012-07-10T04:44:26Z</time>
      </trkpt>
      <trkpt lat="45.63086" lon="6.97874">
        <ele>2643</ele>
        <time>2012-07-10T04:44:31Z</time>
      </trkpt>
      <trkpt lat="45.63088" lon="6.97878">
        <ele>2643</ele>
        <time>2012-07-10T04:44:36Z</time>
      </trkpt>
      <trkpt lat="45.63088" lon="6.97881">
        <ele>2644</ele>
        <time>2012-07-10T04:44:41Z</time>
      </trkpt>
      <trkpt lat="45.6309" lon="6.97885">
        <ele>2644</ele>
        <time>2012-07-10T04:44:46Z</time>
      </trkpt>
      <trkpt lat="45.6309" lon="6.9789">
        <ele>2645</ele>
        <time>2012-07-10T04:44:51Z</time>
      </trkpt>
      <trkpt lat="45.63092" lon="6.97893">
        <ele>2645</ele>
        <time>2012-07-10T04:44:56Z</time>
      </trkpt>
      <trkpt lat="45.63093" lon="6.97896">
        <ele>2644</ele>
        <time>2012-07-10T04:45:01Z</time>
      </trkpt>
      <trkpt lat="45.63093" lon="6.979">
        <ele>2643</ele>
        <time>2012-07-10T04:45:06Z</time>
      </trkpt>
      <trkpt lat="45.63094" lon="6.97903">
        <ele>2643</ele>
        <time>2012-07-10T04:45:11Z</time>
      </trkpt>
      <trkpt lat="45.63096" lon="6.97907">
        <ele>2644</ele>
        <time>2012-07-10T04:45:16Z</time>
      </trkpt>
      <trkpt lat="45.63098" lon="6.9791">
        <ele>2646</ele>
        <time>2012-07-10T04:45:21Z</time>
      </trkpt>
      <trkpt lat="45.631" lon="6.97914">
        <ele>2646</ele>
        <time>2012-07-10T04:45:26Z</time>
      </trkpt>
      <trkpt lat="45.63101" lon="6.97918">
        <ele>2648</ele>
        <time>2012-07-10T04:45:31Z</time>
      </trkpt>
      <trkpt lat="45.63102" lon="6.97922">
        <ele>2648</ele>
        <time>2012-07-10T04:45:36Z</time>
      </trkpt>
      <trkpt lat="45.63103" lon="6.97926">
        <ele>2649</ele>
        <time>2012-07-10T04:45:41Z</time>
      </trkpt>
      <trkpt lat="45.63105" lon="6.97929">
        <ele>2649</ele>
        <time>2012-07-10T04:45:46Z</time>
      </trkpt>
      <trkpt lat="45.63107" lon="6.97933">
        <ele>2650</ele>
        <time>2012-07-10T04:45:51Z</time>
      </trkpt>
      <trkpt lat="45.63107" lon="6.97936">
        <ele>2651</ele>
        <time>2012-07-10T04:45:56Z</time>
      </trkpt>
      <trkpt lat="45.63109" lon="6.9794">
        <ele>2651</ele>
        <time>2012-07-10T04:46:01Z</time>
      </trkpt>
      <trkpt lat="45.63109" lon="6.97944">
        <ele>2651</ele>
        <time>2012-07-10T04:46:06Z</time>
      </trkpt>
      <trkpt lat="45.6311" lon="6.97948">
        <ele>2651</ele>
        <time>2012-07-10T04:46:11Z</time>
      </trkpt>
      <trkpt lat="45.6311" lon="6.97952">
        <ele>2651</ele>
        <time>2012-07-10T04:46:16Z</time>
      </trkpt>
      <trkpt lat="45.6311" lon="6.97956">
        <ele>2650</ele>
        <time>2012-07-10T04:46:21Z</time>
      </trkpt>
      <trkpt lat="45.63112" lon="6.97959">
        <ele>2650</ele>
        <time>2012-07-10T04:46:26Z</time>
      </trkpt>
      <trkpt lat="45.63113" lon="6.97963">
        <ele>2651</ele>
        <time>2012-07-10T04:46:31Z</time>
      </trkpt>
      <trkpt lat="45.63114" lon="6.97967">
        <ele>2651</ele>
        <time>2012-07-10T04:46:36Z</time>
      </trkpt>
      <trkpt lat="45.63115" lon="6.97971">
        <ele>2651</ele>
        <time>2012-07-10T04:46:41Z</time>
      </trkpt>
      <trkpt lat="45.63117" lon="6.97975">
        <ele>2651</ele>
        <time>2012-07-10T04:46:46Z</time>
      </trkpt>
      <trkpt lat="45.63119" lon="6.97978">
        <ele>2651</ele>
        <time>2012-07-10T04:46:51Z</time>
      </trkpt>
      <trkpt lat="45.63121" lon="6.97981">
        <ele>2650</ele>
        <time>2012-07-10T04:46:56Z</time>
      </trkpt>
      <trkpt lat="45.63123" lon="6.97985">
        <ele>2651</ele>
        <time>2012-07-10T04:47:01Z</time>
      </trkpt>
      <trkpt lat="45.63123" lon="6.97989">
        <ele>2652</ele>
        <time>2012-07-10T04:47:06Z</time>
      </trkpt>
      <trkpt lat="45.63125" lon="6.97994">
        <ele>2653</ele>
        <time>2012-07-10T04:47:11Z</time>
      </trkpt>
      <trkpt lat="45.63126" lon="6.97998">
        <ele>2654</ele>
        <time>2012-07-10T04:47:16Z</time>
      </trkpt>
      <trkpt lat="45.63127" lon="6.98002">
        <ele>2655</ele>
        <time>2012-07-10T04:47:21Z</time>
      </trkpt>
      <trkpt lat="45.63128" lon="6.98005">
        <ele>2655</ele>
        <time>2012-07-10T04:47:26Z</time>
      </trkpt>
      <trkpt lat="45.6313" lon="6.98009">
        <ele>2656</ele>
        <time>2012-07-10T04:47:31Z</time>
      </trkpt>
      <trkpt lat="45.63131" lon="6.98011">
        <ele>2656</ele>
        <time>2012-07-10T04:47:36Z</time>
      </trkpt>
      <trkpt lat="45.63133" lon="6.98013">
        <ele>2655</ele>
        <time>2012-07-10T04:47:41Z</time>
      </trkpt>
      <trkpt lat="45.63133" lon="6.98017">
        <ele>2654</ele>
        <time>2012-07-10T04:47:46Z</time>
      </trkpt>
      <trkpt lat="45.63133" lon="6.98022">
        <ele>2654</ele>
        <time>2012-07-10T04:47:51Z</time>
      </trkpt>
      <trkpt lat="45.63133" lon="6.98026">
        <ele>2654</ele>
        <time>2012-07-10T04:47:56Z</time>
      </trkpt>
      <trkpt lat="45.63134" lon="6.9803">
        <ele>2655</ele>
        <time>2012-07-10T04:48:01Z</time>
      </trkpt>
      <trkpt lat="45.63135" lon="6.98033">
        <ele>2656</ele>
        <time>2012-07-10T04:48:06Z</time>
      </trkpt>
      <trkpt lat="45.63135" lon="6.98037">
        <ele>2659</ele>
        <time>2012-07-10T04:48:11Z</time>
      </trkpt>
      <trkpt lat="45.63136" lon="6.9804">
        <ele>2659</ele>
        <time>2012-07-10T04:48:16Z</time>
      </trkpt>
      <trkpt lat="45.63139" lon="6.98042">
        <ele>2657</ele>
        <time>2012-07-10T04:48:21Z</time>
      </trkpt>
      <trkpt lat="45.6314" lon="6.98046">
        <ele>2658</ele>
        <time>2012-07-10T04:48:26Z</time>
      </trkpt>
      <trkpt lat="45.63141" lon="6.98049">
        <ele>2658</ele>
        <time>2012-07-10T04:48:31Z</time>
      </trkpt>
      <trkpt lat="45.63142" lon="6.98052">
        <ele>2659</ele>
        <time>2012-07-10T04:48:36Z</time>
      </trkpt>
      <trkpt lat="45.63142" lon="6.98055">
        <ele>2659</ele>
        <time>2012-07-10T04:48:41Z</time>
      </trkpt>
      <trkpt lat="45.63144" lon="6.98057">
        <ele>2658</ele>
        <time>2012-07-10T04:48:46Z</time>
      </trkpt>
      <trkpt lat="45.63144" lon="6.9806">
        <ele>2661</ele>
        <time>2012-07-10T04:48:51Z</time>
      </trkpt>
      <trkpt lat="45.63144" lon="6.98064">
        <ele>2661</ele>
        <time>2012-07-10T04:48:56Z</time>
      </trkpt>
      <trkpt lat="45.63145" lon="6.98067">
        <ele>2661</ele>
        <time>2012-07-10T04:49:01Z</time>
      </trkpt>
      <trkpt lat="45.63146" lon="6.9807">
        <ele>2660</ele>
        <time>2012-07-10T04:49:06Z</time>
      </trkpt>
      <trkpt lat="45.63147" lon="6.98073">
        <ele>2663</ele>
        <time>2012-07-10T04:49:11Z</time>
      </trkpt>
      <trkpt lat="45.63149" lon="6.98077">
        <ele>2666</ele>
        <time>2012-07-10T04:49:16Z</time>
      </trkpt>
      <trkpt lat="45.63149" lon="6.9808">
        <ele>2668</ele>
        <time>2012-07-10T04:49:21Z</time>
      </trkpt>
      <trkpt lat="45.63151" lon="6.98084">
        <ele>2670</ele>
        <time>2012-07-10T04:49:26Z</time>
      </trkpt>
      <trkpt lat="45.63152" lon="6.98087">
        <ele>2670</ele>
        <time>2012-07-10T04:49:31Z</time>
      </trkpt>
      <trkpt lat="45.63153" lon="6.9809">
        <ele>2670</ele>
        <time>2012-07-10T04:49:36Z</time>
      </trkpt>
      <trkpt lat="45.63153" lon="6.98092">
        <ele>2673</ele>
        <time>2012-07-10T04:49:41Z</time>
      </trkpt>
      <trkpt lat="45.63153" lon="6.98096">
        <ele>2675</ele>
        <time>2012-07-10T04:49:46Z</time>
      </trkpt>
      <trkpt lat="45.63153" lon="6.981">
        <ele>2677</ele>
        <time>2012-07-10T04:49:51Z</time>
      </trkpt>
      <trkpt lat="45.63153" lon="6.98102">
        <ele>2680</ele>
        <time>2012-07-10T04:49:56Z</time>
      </trkpt>
      <trkpt lat="45.63154" lon="6.98106">
        <ele>2681</ele>
        <time>2012-07-10T04:50:01Z</time>
      </trkpt>
      <trkpt lat="45.63156" lon="6.98108">
        <ele>2679</ele>
        <time>2012-07-10T04:50:06Z</time>
      </trkpt>
      <trkpt lat="45.63157" lon="6.98111">
        <ele>2678</ele>
        <time>2012-07-10T04:50:11Z</time>
      </trkpt>
      <trkpt lat="45.63158" lon="6.98114">
        <ele>2677</ele>
        <time>2012-07-10T04:50:16Z</time>
      </trkpt>
      <trkpt lat="45.63159" lon="6.98116">
        <ele>2676</ele>
        <time>2012-07-10T04:50:21Z</time>
      </trkpt>
      <trkpt lat="45.63159" lon="6.98118">
        <ele>2676</ele>
        <time>2012-07-10T04:50:26Z</time>
      </trkpt>
      <trkpt lat="45.63159" lon="6.9812">
        <ele>2677</ele>
        <time>2012-07-10T04:50:31Z</time>
      </trkpt>
      <trkpt lat="45.6316" lon="6.98123">
        <ele>2679</ele>
        <time>2012-07-10T04:50:36Z</time>
      </trkpt>
      <trkpt lat="45.6316" lon="6.98125">
        <ele>2680</ele>
        <time>2012-07-10T04:50:41Z</time>
      </trkpt>
      <trkpt lat="45.6316" lon="6.98128">
        <ele>2682</ele>
        <time>2012-07-10T04:50:46Z</time>
      </trkpt>
      <trkpt lat="45.63159" lon="6.9813">
        <ele>2685</ele>
        <time>2012-07-10T04:50:51Z</time>
      </trkpt>
      <trkpt lat="45.63159" lon="6.98133">
        <ele>2686</ele>
        <time>2012-07-10T04:50:56Z</time>
      </trkpt>
      <trkpt lat="45.63159" lon="6.98136">
        <ele>2688</ele>
        <time>2012-07-10T04:51:01Z</time>
      </trkpt>
      <trkpt lat="45.63158" lon="6.9814">
        <ele>2689</ele>
        <time>2012-07-10T04:51:06Z</time>
      </trkpt>
      <trkpt lat="45.63157" lon="6.98141">
        <ele>2689</ele>
        <time>2012-07-10T04:51:11Z</time>
      </trkpt>
      <trkpt lat="45.63157" lon="6.98144">
        <ele>2688</ele>
        <time>2012-07-10T04:51:16Z</time>
      </trkpt>
      <trkpt lat="45.63158" lon="6.98146">
        <ele>2686</ele>
        <time>2012-07-10T04:51:21Z</time>
      </trkpt>
      <trkpt lat="45.63158" lon="6.98148">
        <ele>2683</ele>
        <time>2012-07-10T04:51:26Z</time>
      </trkpt>
      <trkpt lat="45.63157" lon="6.98151">
        <ele>2684</ele>
        <time>2012-07-10T04:51:31Z</time>
      </trkpt>
      <trkpt lat="45.63158" lon="6.98152">
        <ele>2686</ele>
        <time>2012-07-10T04:51:36Z</time>
      </trkpt>
      <trkpt lat="45.63158" lon="6.98156">
        <ele>2688</ele>
        <time>2012-07-10T04:51:41Z</time>
      </trkpt>
      <trkpt lat="45.63158" lon="6.98157">
        <ele>2688</ele>
        <time>2012-07-10T04:51:46Z</time>
      </trkpt>
      <trkpt lat="45.63159" lon="6.98161">
        <ele>2691</ele>
        <time>2012-07-10T04:51:51Z</time>
      </trkpt>
      <trkpt lat="45.6316" lon="6.98163">
        <ele>2694</ele>
        <time>2012-07-10T04:51:56Z</time>
      </trkpt>
      <trkpt lat="45.63161" lon="6.98166">
        <ele>2696</ele>
        <time>2012-07-10T04:52:01Z</time>
      </trkpt>
      <trkpt lat="45.63162" lon="6.98169">
        <ele>2697</ele>
        <time>2012-07-10T04:52:06Z</time>
      </trkpt>
      <trkpt lat="45.63162" lon="6.98174">
        <ele>2697</ele>
        <time>2012-07-10T04:52:11Z</time>
      </trkpt>
      <trkpt lat="45.63161" lon="6.98177">
        <ele>2698</ele>
        <time>2012-07-10T04:52:16Z</time>
      </trkpt>
      <trkpt lat="45.63161" lon="6.98179">
        <ele>2699</ele>
        <time>2012-07-10T04:52:21Z</time>
      </trkpt>
      <trkpt lat="45.63161" lon="6.98178">
        <ele>2699</ele>
        <time>2012-07-10T04:52:26Z</time>
      </trkpt>
      <trkpt lat="45.63162" lon="6.9818">
        <ele>2701</ele>
        <time>2012-07-10T04:52:31Z</time>
      </trkpt>
      <trkpt lat="45.63162" lon="6.98181">
        <ele>2703</ele>
        <time>2012-07-10T04:52:36Z</time>
      </trkpt>
      <trkpt lat="45.63163" lon="6.9818">
        <ele>2706</ele>
        <time>2012-07-10T04:52:41Z</time>
      </trkpt>
      <trkpt lat="45.63162" lon="6.98182">
        <ele>2708</ele>
        <time>2012-07-10T04:52:46Z</time>
      </trkpt>
      <trkpt lat="45.63162" lon="6.98185">
        <ele>2709</ele>
        <time>2012-07-10T04:52:51Z</time>
      </trkpt>
      <trkpt lat="45.63162" lon="6.98189">
        <ele>2710</ele>
        <time>2012-07-10T04:52:56Z</time>
      </trkpt>
      <trkpt lat="45.63162" lon="6.98193">
        <ele>2710</ele>
        <time>2012-07-10T04:53:01Z</time>
      </trkpt>
      <trkpt lat="45.63163" lon="6.98193">
        <ele>2711</ele>
        <time>2012-07-10T04:53:06Z</time>
      </trkpt>
      <trkpt lat="45.63163" lon="6.98195">
        <ele>2712</ele>
        <time>2012-07-10T04:53:11Z</time>
      </trkpt>
      <trkpt lat="45.63163" lon="6.98198">
        <ele>2710</ele>
        <time>2012-07-10T04:53:16Z</time>
      </trkpt>
      <trkpt lat="45.63164" lon="6.98204">
        <ele>2709</ele>
        <time>2012-07-10T04:53:21Z</time>
      </trkpt>
      <trkpt lat="45.63165" lon="6.98207">
        <ele>2707</ele>
        <time>2012-07-10T04:53:26Z</time>
      </trkpt>
      <trkpt lat="45.63165" lon="6.98211">
        <ele>2707</ele>
        <time>2012-07-10T04:53:31Z</time>
      </trkpt>
      <trkpt lat="45.63164" lon="6.98216">
        <ele>2708</ele>
        <time>2012-07-10T04:53:36Z</time>
      </trkpt>
      <trkpt lat="45.63163" lon="6.98219">
        <ele>2709</ele>
        <time>2012-07-10T04:53:41Z</time>
      </trkpt>
      <trkpt lat="45.63164" lon="6.98222">
        <ele>2710</ele>
        <time>2012-07-10T04:53:46Z</time>
      </trkpt>
      <trkpt lat="45.63165" lon="6.98227">
        <ele>2711</ele>
        <time>2012-07-10T04:53:51Z</time>
      </trkpt>
      <trkpt lat="45.63165" lon="6.98228">
        <ele>2712</ele>
        <time>2012-07-10T04:53:56Z</time>
      </trkpt>
      <trkpt lat="45.63165" lon="6.98228">
        <ele>2714</ele>
        <time>2012-07-10T04:54:01Z</time>
      </trkpt>
      <trkpt lat="45.63165" lon="6.98231">
        <ele>2716</ele>
        <time>2012-07-10T04:54:06Z</time>
      </trkpt>
      <trkpt lat="45.63166" lon="6.98233">
        <ele>2718</ele>
        <time>2012-07-10T04:54:11Z</time>
      </trkpt>
      <trkpt lat="45.63167" lon="6.98235">
        <ele>2717</ele>
        <time>2012-07-10T04:54:16Z</time>
      </trkpt>
      <trkpt lat="45.63169" lon="6.98235">
        <ele>2720</ele>
        <time>2012-07-10T04:54:21Z</time>
      </trkpt>
      <trkpt lat="45.63171" lon="6.98237">
        <ele>2721</ele>
        <time>2012-07-10T04:54:26Z</time>
      </trkpt>
      <trkpt lat="45.63172" lon="6.9824">
        <ele>2721</ele>
        <time>2012-07-10T04:54:31Z</time>
      </trkpt>
      <trkpt lat="45.63173" lon="6.98244">
        <ele>2720</ele>
        <time>2012-07-10T04:54:36Z</time>
      </trkpt>
      <trkpt lat="45.63175" lon="6.9825">
        <ele>2719</ele>
        <time>2012-07-10T04:54:41Z</time>
      </trkpt>
      <trkpt lat="45.63177" lon="6.98254">
        <ele>2716</ele>
        <time>2012-07-10T04:54:46Z</time>
      </trkpt>
      <trkpt lat="45.63179" lon="6.98258">
        <ele>2714</ele>
        <time>2012-07-10T04:54:51Z</time>
      </trkpt>
      <trkpt lat="45.6318" lon="6.98262">
        <ele>2712</ele>
        <time>2012-07-10T04:54:56Z</time>
      </trkpt>
      <trkpt lat="45.63181" lon="6.98267">
        <ele>2708</ele>
        <time>2012-07-10T04:55:01Z</time>
      </trkpt>
      <trkpt lat="45.63182" lon="6.98269">
        <ele>2703</ele>
        <time>2012-07-10T04:55:06Z</time>
      </trkpt>
      <trkpt lat="45.63184" lon="6.9827">
        <ele>2704</ele>
        <time>2012-07-10T04:55:11Z</time>
      </trkpt>
      <trkpt lat="45.63186" lon="6.98272">
        <ele>2706</ele>
        <time>2012-07-10T04:55:16Z</time>
      </trkpt>
      <trkpt lat="45.63188" lon="6.98276">
        <ele>2708</ele>
        <time>2012-07-10T04:55:21Z</time>
      </trkpt>
      <trkpt lat="45.63191" lon="6.98279">
        <ele>2710</ele>
        <time>2012-07-10T04:55:26Z</time>
      </trkpt>
      <trkpt lat="45.63194" lon="6.98283">
        <ele>2711</ele>
        <time>2012-07-10T04:55:31Z</time>
      </trkpt>
      <trkpt lat="45.63198" lon="6.98287">
        <ele>2714</ele>
        <time>2012-07-10T04:55:36Z</time>
      </trkpt>
      <trkpt lat="45.632" lon="6.98291">
        <ele>2716</ele>
        <time>2012-07-10T04:55:41Z</time>
      </trkpt>
      <trkpt lat="45.63204" lon="6.98295">
        <ele>2718</ele>
        <time>2012-07-10T04:55:46Z</time>
      </trkpt>
      <trkpt lat="45.63207" lon="6.98299">
        <ele>2718</ele>
        <time>2012-07-10T04:55:51Z</time>
      </trkpt>
      <trkpt lat="45.6321" lon="6.98303">
        <ele>2719</ele>
        <time>2012-07-10T04:55:56Z</time>
      </trkpt>
      <trkpt lat="45.63212" lon="6.98306">
        <ele>2720</ele>
        <time>2012-07-10T04:56:01Z</time>
      </trkpt>
      <trkpt lat="45.63215" lon="6.98309">
        <ele>2720</ele>
        <time>2012-07-10T04:56:06Z</time>
      </trkpt>
      <trkpt lat="45.63217" lon="6.98313">
        <ele>2720</ele>
        <time>2012-07-10T04:56:11Z</time>
      </trkpt>
      <trkpt lat="45.63218" lon="6.98316">
        <ele>2722</ele>
        <time>2012-07-10T04:56:16Z</time>
      </trkpt>
      <trkpt lat="45.63219" lon="6.98319">
        <ele>2723</ele>
        <time>2012-07-10T04:56:21Z</time>
      </trkpt>
      <trkpt lat="45.63221" lon="6.98323">
        <ele>2723</ele>
        <time>2012-07-10T04:56:26Z</time>
      </trkpt>
      <trkpt lat="45.63224" lon="6.98326">
        <ele>2723</ele>
        <time>2012-07-10T04:56:31Z</time>
      </trkpt>
      <trkpt lat="45.63227" lon="6.98331">
        <ele>2724</ele>
        <time>2012-07-10T04:56:36Z</time>
      </trkpt>
      <trkpt lat="45.63228" lon="6.98334">
        <ele>2724</ele>
        <time>2012-07-10T04:56:41Z</time>
      </trkpt>
      <trkpt lat="45.63228" lon="6.98345">
        <ele>2737</ele>
        <time>2012-07-10T05:00:01Z</time>
      </trkpt>
      <trkpt lat="45.6323" lon="6.98351">
        <ele>2731</ele>
        <time>2012-07-10T05:00:06Z</time>
      </trkpt>
      <trkpt lat="45.6323" lon="6.98355">
        <ele>2727</ele>
        <time>2012-07-10T05:00:11Z</time>
      </trkpt>
      <trkpt lat="45.6323" lon="6.98357">
        <ele>2724</ele>
        <time>2012-07-10T05:00:16Z</time>
      </trkpt>
      <trkpt lat="45.6323" lon="6.98359">
        <ele>2722</ele>
        <time>2012-07-10T05:00:21Z</time>
      </trkpt>
      <trkpt lat="45.63237" lon="6.98368">
        <ele>2714</ele>
        <time>2012-07-10T05:06:21Z</time>
      </trkpt>
      <trkpt lat="45.63235" lon="6.98362">
        <ele>2720</ele>
        <time>2012-07-10T05:06:26Z</time>
      </trkpt>
      <trkpt lat="45.63239" lon="6.9836">
        <ele>2721</ele>
        <time>2012-07-10T05:06:31Z</time>
      </trkpt>
      <trkpt lat="45.63241" lon="6.98362">
        <ele>2721</ele>
        <time>2012-07-10T05:06:36Z</time>
      </trkpt>
      <trkpt lat="45.63242" lon="6.98364">
        <ele>2720</ele>
        <time>2012-07-10T05:06:41Z</time>
      </trkpt>
      <trkpt lat="45.63241" lon="6.98369">
        <ele>2716</ele>
        <time>2012-07-10T05:06:46Z</time>
      </trkpt>
      <trkpt lat="45.63242" lon="6.98375">
        <ele>2712</ele>
        <time>2012-07-10T05:06:51Z</time>
      </trkpt>
      <trkpt lat="45.63244" lon="6.98379">
        <ele>2709</ele>
        <time>2012-07-10T05:06:56Z</time>
      </trkpt>
      <trkpt lat="45.63243" lon="6.98384">
        <ele>2707</ele>
        <time>2012-07-10T05:07:01Z</time>
      </trkpt>
      <trkpt lat="45.63243" lon="6.98388">
        <ele>2708</ele>
        <time>2012-07-10T05:07:06Z</time>
      </trkpt>
      <trkpt lat="45.63244" lon="6.98391">
        <ele>2708</ele>
        <time>2012-07-10T05:07:11Z</time>
      </trkpt>
      <trkpt lat="45.63246" lon="6.98393">
        <ele>2707</ele>
        <time>2012-07-10T05:07:16Z</time>
      </trkpt>
      <trkpt lat="45.63247" lon="6.98397">
        <ele>2706</ele>
        <time>2012-07-10T05:07:21Z</time>
      </trkpt>
      <trkpt lat="45.63249" lon="6.98399">
        <ele>2705</ele>
        <time>2012-07-10T05:07:26Z</time>
      </trkpt>
      <trkpt lat="45.6325" lon="6.98404">
        <ele>2702</ele>
        <time>2012-07-10T05:07:31Z</time>
      </trkpt>
      <trkpt lat="45.6325" lon="6.98409">
        <ele>2700</ele>
        <time>2012-07-10T05:07:36Z</time>
      </trkpt>
      <trkpt lat="45.63252" lon="6.9841">
        <ele>2700</ele>
        <time>2012-07-10T05:07:41Z</time>
      </trkpt>
      <trkpt lat="45.63252" lon="6.98413">
        <ele>2700</ele>
        <time>2012-07-10T05:07:46Z</time>
      </trkpt>
      <trkpt lat="45.63253" lon="6.98416">
        <ele>2699</ele>
        <time>2012-07-10T05:07:51Z</time>
      </trkpt>
      <trkpt lat="45.63255" lon="6.9842">
        <ele>2697</ele>
        <time>2012-07-10T05:07:56Z</time>
      </trkpt>
      <trkpt lat="45.63257" lon="6.98423">
        <ele>2696</ele>
        <time>2012-07-10T05:08:01Z</time>
      </trkpt>
      <trkpt lat="45.63258" lon="6.98425">
        <ele>2693</ele>
        <time>2012-07-10T05:08:06Z</time>
      </trkpt>
      <trkpt lat="45.6326" lon="6.98427">
        <ele>2690</ele>
        <time>2012-07-10T05:08:11Z</time>
      </trkpt>
      <trkpt lat="45.63261" lon="6.98432">
        <ele>2686</ele>
        <time>2012-07-10T05:08:16Z</time>
      </trkpt>
      <trkpt lat="45.63263" lon="6.98436">
        <ele>2685</ele>
        <time>2012-07-10T05:08:21Z</time>
      </trkpt>
      <trkpt lat="45.63263" lon="6.9844">
        <ele>2688</ele>
        <time>2012-07-10T05:08:26Z</time>
      </trkpt>
      <trkpt lat="45.63263" lon="6.98442">
        <ele>2690</ele>
        <time>2012-07-10T05:08:31Z</time>
      </trkpt>
      <trkpt lat="45.63265" lon="6.98446">
        <ele>2688</ele>
        <time>2012-07-10T05:08:36Z</time>
      </trkpt>
      <trkpt lat="45.63266" lon="6.98449">
        <ele>2691</ele>
        <time>2012-07-10T05:08:41Z</time>
      </trkpt>
      <trkpt lat="45.63269" lon="6.98448">
        <ele>2695</ele>
        <time>2012-07-10T05:08:46Z</time>
      </trkpt>
      <trkpt lat="45.63271" lon="6.98447">
        <ele>2700</ele>
        <time>2012-07-10T05:08:51Z</time>
      </trkpt>
      <trkpt lat="45.63275" lon="6.98444">
        <ele>2704</ele>
        <time>2012-07-10T05:08:56Z</time>
      </trkpt>
      <trkpt lat="45.63276" lon="6.98446">
        <ele>2702</ele>
        <time>2012-07-10T05:09:01Z</time>
      </trkpt>
      <trkpt lat="45.63278" lon="6.9845">
        <ele>2698</ele>
        <time>2012-07-10T05:09:06Z</time>
      </trkpt>
      <trkpt lat="45.63279" lon="6.98453">
        <ele>2695</ele>
        <time>2012-07-10T05:09:11Z</time>
      </trkpt>
      <trkpt lat="45.63281" lon="6.98458">
        <ele>2694</ele>
        <time>2012-07-10T05:09:16Z</time>
      </trkpt>
      <trkpt lat="45.63284" lon="6.9846">
        <ele>2696</ele>
        <time>2012-07-10T05:09:21Z</time>
      </trkpt>
      <trkpt lat="45.63286" lon="6.9846">
        <ele>2697</ele>
        <time>2012-07-10T05:09:26Z</time>
      </trkpt>
      <trkpt lat="45.63289" lon="6.98459">
        <ele>2699</ele>
        <time>2012-07-10T05:09:31Z</time>
      </trkpt>
      <trkpt lat="45.63292" lon="6.98457">
        <ele>2703</ele>
        <time>2012-07-10T05:09:36Z</time>
      </trkpt>
      <trkpt lat="45.63294" lon="6.98457">
        <ele>2703</ele>
        <time>2012-07-10T05:09:41Z</time>
      </trkpt>
      <trkpt lat="45.63296" lon="6.98458">
        <ele>2703</ele>
        <time>2012-07-10T05:09:46Z</time>
      </trkpt>
      <trkpt lat="45.63295" lon="6.98463">
        <ele>2700</ele>
        <time>2012-07-10T05:09:51Z</time>
      </trkpt>
      <trkpt lat="45.63296" lon="6.98468">
        <ele>2695</ele>
        <time>2012-07-10T05:09:56Z</time>
      </trkpt>
      <trkpt lat="45.63297" lon="6.9847">
        <ele>2699</ele>
        <time>2012-07-10T05:10:01Z</time>
      </trkpt>
      <trkpt lat="45.63299" lon="6.98473">
        <ele>2702</ele>
        <time>2012-07-10T05:10:06Z</time>
      </trkpt>
      <trkpt lat="45.63301" lon="6.98472">
        <ele>2708</ele>
        <time>2012-07-10T05:10:11Z</time>
      </trkpt>
      <trkpt lat="45.63302" lon="6.98473">
        <ele>2710</ele>
        <time>2012-07-10T05:10:16Z</time>
      </trkpt>
      <trkpt lat="45.63303" lon="6.98473">
        <ele>2714</ele>
        <time>2012-07-10T05:10:21Z</time>
      </trkpt>
      <trkpt lat="45.63304" lon="6.98475">
        <ele>2714</ele>
        <time>2012-07-10T05:10:26Z</time>
      </trkpt>
      <trkpt lat="45.63307" lon="6.98474">
        <ele>2717</ele>
        <time>2012-07-10T05:10:31Z</time>
      </trkpt>
      <trkpt lat="45.63306" lon="6.98476">
        <ele>2719</ele>
        <time>2012-07-10T05:10:36Z</time>
      </trkpt>
      <trkpt lat="45.63308" lon="6.9848">
        <ele>2719</ele>
        <time>2012-07-10T05:10:41Z</time>
      </trkpt>
      <trkpt lat="45.6331" lon="6.98482">
        <ele>2719</ele>
        <time>2012-07-10T05:10:46Z</time>
      </trkpt>
      <trkpt lat="45.63311" lon="6.98482">
        <ele>2721</ele>
        <time>2012-07-10T05:10:51Z</time>
      </trkpt>
      <trkpt lat="45.63313" lon="6.98484">
        <ele>2720</ele>
        <time>2012-07-10T05:10:56Z</time>
      </trkpt>
      <trkpt lat="45.63315" lon="6.98487">
        <ele>2718</ele>
        <time>2012-07-10T05:11:01Z</time>
      </trkpt>
      <trkpt lat="45.63317" lon="6.98487">
        <ele>2720</ele>
        <time>2012-07-10T05:11:06Z</time>
      </trkpt>
      <trkpt lat="45.63319" lon="6.98488">
        <ele>2722</ele>
        <time>2012-07-10T05:11:11Z</time>
      </trkpt>
      <trkpt lat="45.63319" lon="6.98489">
        <ele>2724</ele>
        <time>2012-07-10T05:11:16Z</time>
      </trkpt>
      <trkpt lat="45.63321" lon="6.98491">
        <ele>2725</ele>
        <time>2012-07-10T05:11:21Z</time>
      </trkpt>
      <trkpt lat="45.63323" lon="6.98493">
        <ele>2725</ele>
        <time>2012-07-10T05:11:26Z</time>
      </trkpt>
      <trkpt lat="45.63324" lon="6.98495">
        <ele>2727</ele>
        <time>2012-07-10T05:11:31Z</time>
      </trkpt>
      <trkpt lat="45.63324" lon="6.98497">
        <ele>2727</ele>
        <time>2012-07-10T05:11:36Z</time>
      </trkpt>
      <trkpt lat="45.63325" lon="6.98499">
        <ele>2729</ele>
        <time>2012-07-10T05:11:41Z</time>
      </trkpt>
      <trkpt lat="45.63325" lon="6.985">
        <ele>2732</ele>
        <time>2012-07-10T05:11:46Z</time>
      </trkpt>
      <trkpt lat="45.63325" lon="6.98502">
        <ele>2734</ele>
        <time>2012-07-10T05:11:51Z</time>
      </trkpt>
      <trkpt lat="45.63325" lon="6.98505">
        <ele>2734</ele>
        <time>2012-07-10T05:11:56Z</time>
      </trkpt>
      <trkpt lat="45.63326" lon="6.98508">
        <ele>2736</ele>
        <time>2012-07-10T05:12:01Z</time>
      </trkpt>
      <trkpt lat="45.63326" lon="6.98512">
        <ele>2736</ele>
        <time>2012-07-10T05:12:06Z</time>
      </trkpt>
      <trkpt lat="45.63327" lon="6.98515">
        <ele>2736</ele>
        <time>2012-07-10T05:12:11Z</time>
      </trkpt>
      <trkpt lat="45.63327" lon="6.98517">
        <ele>2739</ele>
        <time>2012-07-10T05:12:16Z</time>
      </trkpt>
      <trkpt lat="45.63327" lon="6.98519">
        <ele>2744</ele>
        <time>2012-07-10T05:12:21Z</time>
      </trkpt>
      <trkpt lat="45.63328" lon="6.98523">
        <ele>2747</ele>
        <time>2012-07-10T05:12:26Z</time>
      </trkpt>
      <trkpt lat="45.6333" lon="6.98525">
        <ele>2750</ele>
        <time>2012-07-10T05:12:31Z</time>
      </trkpt>
      <trkpt lat="45.63331" lon="6.98528">
        <ele>2749</ele>
        <time>2012-07-10T05:12:36Z</time>
      </trkpt>
      <trkpt lat="45.63332" lon="6.98529">
        <ele>2750</ele>
        <time>2012-07-10T05:12:41Z</time>
      </trkpt>
      <trkpt lat="45.63332" lon="6.98532">
        <ele>2750</ele>
        <time>2012-07-10T05:12:46Z</time>
      </trkpt>
      <trkpt lat="45.63333" lon="6.98534">
        <ele>2751</ele>
        <time>2012-07-10T05:12:51Z</time>
      </trkpt>
      <trkpt lat="45.63334" lon="6.98536">
        <ele>2749</ele>
        <time>2012-07-10T05:12:56Z</time>
      </trkpt>
      <trkpt lat="45.63335" lon="6.98539">
        <ele>2749</ele>
        <time>2012-07-10T05:13:01Z</time>
      </trkpt>
      <trkpt lat="45.63335" lon="6.98542">
        <ele>2748</ele>
        <time>2012-07-10T05:13:06Z</time>
      </trkpt>
      <trkpt lat="45.63336" lon="6.98544">
        <ele>2748</ele>
        <time>2012-07-10T05:13:11Z</time>
      </trkpt>
      <trkpt lat="45.63337" lon="6.98547">
        <ele>2750</ele>
        <time>2012-07-10T05:13:16Z</time>
      </trkpt>
      <trkpt lat="45.63337" lon="6.98548">
        <ele>2752</ele>
        <time>2012-07-10T05:13:21Z</time>
      </trkpt>
      <trkpt lat="45.63338" lon="6.9855">
        <ele>2751</ele>
        <time>2012-07-10T05:13:26Z</time>
      </trkpt>
      <trkpt lat="45.63339" lon="6.98553">
        <ele>2751</ele>
        <time>2012-07-10T05:13:31Z</time>
      </trkpt>
      <trkpt lat="45.6334" lon="6.98557">
        <ele>2751</ele>
        <time>2012-07-10T05:13:36Z</time>
      </trkpt>
      <trkpt lat="45.63341" lon="6.98558">
        <ele>2753</ele>
        <time>2012-07-10T05:13:41Z</time>
      </trkpt>
      <trkpt lat="45.63341" lon="6.98557">
        <ele>2754</ele>
        <time>2012-07-10T05:13:46Z</time>
      </trkpt>
      <trkpt lat="45.63342" lon="6.98556">
        <ele>2754</ele>
        <time>2012-07-10T05:13:51Z</time>
      </trkpt>
      <trkpt lat="45.63341" lon="6.98558">
        <ele>2752</ele>
        <time>2012-07-10T05:13:56Z</time>
      </trkpt>
      <trkpt lat="45.63342" lon="6.98558">
        <ele>2750</ele>
        <time>2012-07-10T05:14:01Z</time>
      </trkpt>
      <trkpt lat="45.63343" lon="6.98557">
        <ele>2754</ele>
        <time>2012-07-10T05:14:06Z</time>
      </trkpt>
      <trkpt lat="45.63344" lon="6.9856">
        <ele>2757</ele>
        <time>2012-07-10T05:14:11Z</time>
      </trkpt>
      <trkpt lat="45.63345" lon="6.98563">
        <ele>2759</ele>
        <time>2012-07-10T05:14:16Z</time>
      </trkpt>
      <trkpt lat="45.63347" lon="6.98565">
        <ele>2761</ele>
        <time>2012-07-10T05:14:21Z</time>
      </trkpt>
      <trkpt lat="45.63348" lon="6.98567">
        <ele>2762</ele>
        <time>2012-07-10T05:14:26Z</time>
      </trkpt>
      <trkpt lat="45.6335" lon="6.9857">
        <ele>2762</ele>
        <time>2012-07-10T05:14:31Z</time>
      </trkpt>
      <trkpt lat="45.6335" lon="6.98574">
        <ele>2763</ele>
        <time>2012-07-10T05:14:36Z</time>
      </trkpt>
      <trkpt lat="45.6335" lon="6.98579">
        <ele>2763</ele>
        <time>2012-07-10T05:14:41Z</time>
      </trkpt>
      <trkpt lat="45.6335" lon="6.98584">
        <ele>2762</ele>
        <time>2012-07-10T05:14:46Z</time>
      </trkpt>
      <trkpt lat="45.63351" lon="6.98589">
        <ele>2762</ele>
        <time>2012-07-10T05:14:51Z</time>
      </trkpt>
      <trkpt lat="45.63352" lon="6.98591">
        <ele>2764</ele>
        <time>2012-07-10T05:14:56Z</time>
      </trkpt>
      <trkpt lat="45.63353" lon="6.98594">
        <ele>2765</ele>
        <time>2012-07-10T05:15:01Z</time>
      </trkpt>
      <trkpt lat="45.63354" lon="6.98597">
        <ele>2766</ele>
        <time>2012-07-10T05:15:06Z</time>
      </trkpt>
      <trkpt lat="45.63355" lon="6.986">
        <ele>2766</ele>
        <time>2012-07-10T05:15:11Z</time>
      </trkpt>
      <trkpt lat="45.63356" lon="6.98602">
        <ele>2765</ele>
        <time>2012-07-10T05:15:16Z</time>
      </trkpt>
      <trkpt lat="45.63356" lon="6.98602">
        <ele>2762</ele>
        <time>2012-07-10T05:15:21Z</time>
      </trkpt>
      <trkpt lat="45.63355" lon="6.98611">
        <ele>2758</ele>
        <time>2012-07-10T05:17:16Z</time>
      </trkpt>
      <trkpt lat="45.63356" lon="6.98613">
        <ele>2756</ele>
        <time>2012-07-10T05:17:21Z</time>
      </trkpt>
      <trkpt lat="45.63357" lon="6.98619">
        <ele>2756</ele>
        <time>2012-07-10T05:17:26Z</time>
      </trkpt>
      <trkpt lat="45.63358" lon="6.98623">
        <ele>2756</ele>
        <time>2012-07-10T05:17:31Z</time>
      </trkpt>
      <trkpt lat="45.63359" lon="6.98628">
        <ele>2757</ele>
        <time>2012-07-10T05:17:36Z</time>
      </trkpt>
      <trkpt lat="45.6336" lon="6.98632">
        <ele>2757</ele>
        <time>2012-07-10T05:17:41Z</time>
      </trkpt>
      <trkpt lat="45.63361" lon="6.98637">
        <ele>2757</ele>
        <time>2012-07-10T05:17:46Z</time>
      </trkpt>
      <trkpt lat="45.63363" lon="6.9864">
        <ele>2758</ele>
        <time>2012-07-10T05:17:51Z</time>
      </trkpt>
      <trkpt lat="45.63364" lon="6.98643">
        <ele>2758</ele>
        <time>2012-07-10T05:17:56Z</time>
      </trkpt>
      <trkpt lat="45.63364" lon="6.98647">
        <ele>2759</ele>
        <time>2012-07-10T05:18:01Z</time>
      </trkpt>
      <trkpt lat="45.63366" lon="6.9865">
        <ele>2758</ele>
        <time>2012-07-10T05:18:06Z</time>
      </trkpt>
      <trkpt lat="45.63368" lon="6.98653">
        <ele>2757</ele>
        <time>2012-07-10T05:18:11Z</time>
      </trkpt>
      <trkpt lat="45.63369" lon="6.98655">
        <ele>2757</ele>
        <time>2012-07-10T05:18:16Z</time>
      </trkpt>
      <trkpt lat="45.63371" lon="6.98656">
        <ele>2762</ele>
        <time>2012-07-10T05:18:21Z</time>
      </trkpt>
      <trkpt lat="45.63372" lon="6.98659">
        <ele>2765</ele>
        <time>2012-07-10T05:18:26Z</time>
      </trkpt>
      <trkpt lat="45.63373" lon="6.98662">
        <ele>2764</ele>
        <time>2012-07-10T05:18:31Z</time>
      </trkpt>
      <trkpt lat="45.63374" lon="6.98665">
        <ele>2764</ele>
        <time>2012-07-10T05:18:36Z</time>
      </trkpt>
      <trkpt lat="45.63375" lon="6.98668">
        <ele>2764</ele>
        <time>2012-07-10T05:18:41Z</time>
      </trkpt>
      <trkpt lat="45.63376" lon="6.98671">
        <ele>2764</ele>
        <time>2012-07-10T05:18:46Z</time>
      </trkpt>
      <trkpt lat="45.63377" lon="6.98674">
        <ele>2764</ele>
        <time>2012-07-10T05:18:51Z</time>
      </trkpt>
      <trkpt lat="45.63378" lon="6.98677">
        <ele>2765</ele>
        <time>2012-07-10T05:18:56Z</time>
      </trkpt>
      <trkpt lat="45.63379" lon="6.9868">
        <ele>2766</ele>
        <time>2012-07-10T05:19:01Z</time>
      </trkpt>
      <trkpt lat="45.6338" lon="6.98682">
        <ele>2767</ele>
        <time>2012-07-10T05:19:06Z</time>
      </trkpt>
      <trkpt lat="45.63381" lon="6.98684">
        <ele>2767</ele>
        <time>2012-07-10T05:19:11Z</time>
      </trkpt>
      <trkpt lat="45.63382" lon="6.98686">
        <ele>2767</ele>
        <time>2012-07-10T05:19:16Z</time>
      </trkpt>
      <trkpt lat="45.63385" lon="6.98686">
        <ele>2767</ele>
        <time>2012-07-10T05:19:21Z</time>
      </trkpt>
      <trkpt lat="45.63386" lon="6.9869">
        <ele>2766</ele>
        <time>2012-07-10T05:19:26Z</time>
      </trkpt>
      <trkpt lat="45.63386" lon="6.98693">
        <ele>2767</ele>
        <time>2012-07-10T05:19:31Z</time>
      </trkpt>
      <trkpt lat="45.63388" lon="6.98695">
        <ele>2767</ele>
        <time>2012-07-10T05:19:36Z</time>
      </trkpt>
      <trkpt lat="45.63389" lon="6.98699">
        <ele>2765</ele>
        <time>2012-07-10T05:19:41Z</time>
      </trkpt>
      <trkpt lat="45.6339" lon="6.98701">
        <ele>2766</ele>
        <time>2012-07-10T05:19:46Z</time>
      </trkpt>
      <trkpt lat="45.63393" lon="6.98701">
        <ele>2769</ele>
        <time>2012-07-10T05:19:51Z</time>
      </trkpt>
      <trkpt lat="45.63396" lon="6.98699">
        <ele>2773</ele>
        <time>2012-07-10T05:19:56Z</time>
      </trkpt>
      <trkpt lat="45.63398" lon="6.98702">
        <ele>2772</ele>
        <time>2012-07-10T05:20:01Z</time>
      </trkpt>
      <trkpt lat="45.634" lon="6.98705">
        <ele>2771</ele>
        <time>2012-07-10T05:20:06Z</time>
      </trkpt>
      <trkpt lat="45.63401" lon="6.98706">
        <ele>2768</ele>
        <time>2012-07-10T05:20:11Z</time>
      </trkpt>
      <trkpt lat="45.63402" lon="6.98705">
        <ele>2770</ele>
        <time>2012-07-10T05:20:16Z</time>
      </trkpt>
      <trkpt lat="45.63403" lon="6.98704">
        <ele>2771</ele>
        <time>2012-07-10T05:20:21Z</time>
      </trkpt>
      <trkpt lat="45.63406" lon="6.98703">
        <ele>2773</ele>
        <time>2012-07-10T05:20:26Z</time>
      </trkpt>
      <trkpt lat="45.63408" lon="6.98703">
        <ele>2775</ele>
        <time>2012-07-10T05:20:31Z</time>
      </trkpt>
      <trkpt lat="45.6341" lon="6.98702">
        <ele>2777</ele>
        <time>2012-07-10T05:20:36Z</time>
      </trkpt>
      <trkpt lat="45.63411" lon="6.98703">
        <ele>2779</ele>
        <time>2012-07-10T05:20:41Z</time>
      </trkpt>
      <trkpt lat="45.63411" lon="6.98704">
        <ele>2779</ele>
        <time>2012-07-10T05:20:46Z</time>
      </trkpt>
      <trkpt lat="45.63411" lon="6.98707">
        <ele>2782</ele>
        <time>2012-07-10T05:20:51Z</time>
      </trkpt>
      <trkpt lat="45.63411" lon="6.98709">
        <ele>2784</ele>
        <time>2012-07-10T05:20:56Z</time>
      </trkpt>
      <trkpt lat="45.63411" lon="6.98711">
        <ele>2785</ele>
        <time>2012-07-10T05:21:01Z</time>
      </trkpt>
      <trkpt lat="45.6341" lon="6.98713">
        <ele>2786</ele>
        <time>2012-07-10T05:21:06Z</time>
      </trkpt>
      <trkpt lat="45.6341" lon="6.98716">
        <ele>2787</ele>
        <time>2012-07-10T05:21:11Z</time>
      </trkpt>
      <trkpt lat="45.63408" lon="6.98718">
        <ele>2788</ele>
        <time>2012-07-10T05:21:16Z</time>
      </trkpt>
      <trkpt lat="45.63408" lon="6.9872">
        <ele>2789</ele>
        <time>2012-07-10T05:21:21Z</time>
      </trkpt>
      <trkpt lat="45.63408" lon="6.98722">
        <ele>2789</ele>
        <time>2012-07-10T05:21:26Z</time>
      </trkpt>
      <trkpt lat="45.63408" lon="6.98724">
        <ele>2789</ele>
        <time>2012-07-10T05:21:31Z</time>
      </trkpt>
      <trkpt lat="45.63408" lon="6.98726">
        <ele>2790</ele>
        <time>2012-07-10T05:21:36Z</time>
      </trkpt>
      <trkpt lat="45.63407" lon="6.98727">
        <ele>2792</ele>
        <time>2012-07-10T05:21:41Z</time>
      </trkpt>
      <trkpt lat="45.63407" lon="6.98729">
        <ele>2792</ele>
        <time>2012-07-10T05:21:46Z</time>
      </trkpt>
      <trkpt lat="45.63407" lon="6.98731">
        <ele>2792</ele>
        <time>2012-07-10T05:21:51Z</time>
      </trkpt>
      <trkpt lat="45.63406" lon="6.98733">
        <ele>2796</ele>
        <time>2012-07-10T05:21:56Z</time>
      </trkpt>
      <trkpt lat="45.63406" lon="6.98733">
        <ele>2797</ele>
        <time>2012-07-10T05:22:01Z</time>
      </trkpt>
      <trkpt lat="45.63406" lon="6.98732">
        <ele>2796</ele>
        <time>2012-07-10T05:22:06Z</time>
      </trkpt>
      <trkpt lat="45.63405" lon="6.98732">
        <ele>2796</ele>
        <time>2012-07-10T05:22:11Z</time>
      </trkpt>
      <trkpt lat="45.63405" lon="6.98733">
        <ele>2799</ele>
        <time>2012-07-10T05:22:16Z</time>
      </trkpt>
      <trkpt lat="45.63405" lon="6.98734">
        <ele>2800</ele>
        <time>2012-07-10T05:22:21Z</time>
      </trkpt>
      <trkpt lat="45.63404" lon="6.98736">
        <ele>2799</ele>
        <time>2012-07-10T05:22:26Z</time>
      </trkpt>
      <trkpt lat="45.63404" lon="6.98738">
        <ele>2798</ele>
        <time>2012-07-10T05:22:31Z</time>
      </trkpt>
      <trkpt lat="45.63404" lon="6.98741">
        <ele>2797</ele>
        <time>2012-07-10T05:22:36Z</time>
      </trkpt>
      <trkpt lat="45.63406" lon="6.98743">
        <ele>2795</ele>
        <time>2012-07-10T05:22:41Z</time>
      </trkpt>
      <trkpt lat="45.63408" lon="6.98743">
        <ele>2795</ele>
        <time>2012-07-10T05:22:46Z</time>
      </trkpt>
      <trkpt lat="45.6341" lon="6.98742">
        <ele>2795</ele>
        <time>2012-07-10T05:22:51Z</time>
      </trkpt>
      <trkpt lat="45.63412" lon="6.98742">
        <ele>2795</ele>
        <time>2012-07-10T05:22:56Z</time>
      </trkpt>
      <trkpt lat="45.63414" lon="6.98742">
        <ele>2795</ele>
        <time>2012-07-10T05:23:01Z</time>
      </trkpt>
      <trkpt lat="45.63416" lon="6.98742">
        <ele>2797</ele>
        <time>2012-07-10T05:23:06Z</time>
      </trkpt>
      <trkpt lat="45.63417" lon="6.98744">
        <ele>2796</ele>
        <time>2012-07-10T05:23:11Z</time>
      </trkpt>
      <trkpt lat="45.63419" lon="6.98743">
        <ele>2798</ele>
        <time>2012-07-10T05:23:16Z</time>
      </trkpt>
      <trkpt lat="45.63419" lon="6.98743">
        <ele>2801</ele>
        <time>2012-07-10T05:23:21Z</time>
      </trkpt>
      <trkpt lat="45.63422" lon="6.98743">
        <ele>2802</ele>
        <time>2012-07-10T05:23:26Z</time>
      </trkpt>
      <trkpt lat="45.63423" lon="6.98744">
        <ele>2801</ele>
        <time>2012-07-10T05:23:31Z</time>
      </trkpt>
      <trkpt lat="45.63426" lon="6.98744">
        <ele>2800</ele>
        <time>2012-07-10T05:23:36Z</time>
      </trkpt>
      <trkpt lat="45.63429" lon="6.98746">
        <ele>2799</ele>
        <time>2012-07-10T05:23:41Z</time>
      </trkpt>
      <trkpt lat="45.6343" lon="6.98746">
        <ele>2798</ele>
        <time>2012-07-10T05:23:46Z</time>
      </trkpt>
      <trkpt lat="45.63432" lon="6.98746">
        <ele>2796</ele>
        <time>2012-07-10T05:23:51Z</time>
      </trkpt>
      <trkpt lat="45.63434" lon="6.98745">
        <ele>2799</ele>
        <time>2012-07-10T05:23:56Z</time>
      </trkpt>
      <trkpt lat="45.63435" lon="6.98744">
        <ele>2801</ele>
        <time>2012-07-10T05:24:01Z</time>
      </trkpt>
      <trkpt lat="45.63435" lon="6.98743">
        <ele>2801</ele>
        <time>2012-07-10T05:24:06Z</time>
      </trkpt>
      <trkpt lat="45.63437" lon="6.98743">
        <ele>2802</ele>
        <time>2012-07-10T05:24:11Z</time>
      </trkpt>
      <trkpt lat="45.63438" lon="6.98742">
        <ele>2803</ele>
        <time>2012-07-10T05:24:16Z</time>
      </trkpt>
      <trkpt lat="45.63438" lon="6.98742">
        <ele>2802</ele>
        <time>2012-07-10T05:24:21Z</time>
      </trkpt>
      <trkpt lat="45.63439" lon="6.98742">
        <ele>2803</ele>
        <time>2012-07-10T05:24:26Z</time>
      </trkpt>
      <trkpt lat="45.63439" lon="6.98742">
        <ele>2808</ele>
        <time>2012-07-10T05:24:31Z</time>
      </trkpt>
      <trkpt lat="45.63439" lon="6.98745">
        <ele>2807</ele>
        <time>2012-07-10T05:24:36Z</time>
      </trkpt>
      <trkpt lat="45.63439" lon="6.98748">
        <ele>2805</ele>
        <time>2012-07-10T05:24:41Z</time>
      </trkpt>
      <trkpt lat="45.63439" lon="6.9875">
        <ele>2804</ele>
        <time>2012-07-10T05:24:46Z</time>
      </trkpt>
      <trkpt lat="45.63438" lon="6.98753">
        <ele>2805</ele>
        <time>2012-07-10T05:24:51Z</time>
      </trkpt>
      <trkpt lat="45.63437" lon="6.98755">
        <ele>2806</ele>
        <time>2012-07-10T05:24:56Z</time>
      </trkpt>
      <trkpt lat="45.63437" lon="6.98757">
        <ele>2809</ele>
        <time>2012-07-10T05:25:01Z</time>
      </trkpt>
      <trkpt lat="45.63436" lon="6.98759">
        <ele>2810</ele>
        <time>2012-07-10T05:25:06Z</time>
      </trkpt>
      <trkpt lat="45.63435" lon="6.98762">
        <ele>2812</ele>
        <time>2012-07-10T05:25:11Z</time>
      </trkpt>
      <trkpt lat="45.63435" lon="6.98764">
        <ele>2813</ele>
        <time>2012-07-10T05:25:16Z</time>
      </trkpt>
      <trkpt lat="45.63435" lon="6.98767">
        <ele>2814</ele>
        <time>2012-07-10T05:25:21Z</time>
      </trkpt>
      <trkpt lat="45.63437" lon="6.98767">
        <ele>2813</ele>
        <time>2012-07-10T05:25:26Z</time>
      </trkpt>
      <trkpt lat="45.63439" lon="6.98767">
        <ele>2813</ele>
        <time>2012-07-10T05:25:31Z</time>
      </trkpt>
      <trkpt lat="45.63441" lon="6.98767">
        <ele>2814</ele>
        <time>2012-07-10T05:25:36Z</time>
      </trkpt>
      <trkpt lat="45.63443" lon="6.98766">
        <ele>2815</ele>
        <time>2012-07-10T05:25:41Z</time>
      </trkpt>
      <trkpt lat="45.63444" lon="6.98766">
        <ele>2816</ele>
        <time>2012-07-10T05:25:46Z</time>
      </trkpt>
      <trkpt lat="45.63445" lon="6.98766">
        <ele>2816</ele>
        <time>2012-07-10T05:25:51Z</time>
      </trkpt>
      <trkpt lat="45.63447" lon="6.98767">
        <ele>2816</ele>
        <time>2012-07-10T05:25:56Z</time>
      </trkpt>
      <trkpt lat="45.63449" lon="6.98767">
        <ele>2816</ele>
        <time>2012-07-10T05:26:01Z</time>
      </trkpt>
      <trkpt lat="45.63451" lon="6.98768">
        <ele>2818</ele>
        <time>2012-07-10T05:26:06Z</time>
      </trkpt>
      <trkpt lat="45.63453" lon="6.98767">
        <ele>2817</ele>
        <time>2012-07-10T05:26:11Z</time>
      </trkpt>
      <trkpt lat="45.63454" lon="6.98766">
        <ele>2816</ele>
        <time>2012-07-10T05:26:16Z</time>
      </trkpt>
      <trkpt lat="45.63455" lon="6.98765">
        <ele>2817</ele>
        <time>2012-07-10T05:26:21Z</time>
      </trkpt>
      <trkpt lat="45.63457" lon="6.98766">
        <ele>2818</ele>
        <time>2012-07-10T05:26:26Z</time>
      </trkpt>
      <trkpt lat="45.63458" lon="6.98765">
        <ele>2821</ele>
        <time>2012-07-10T05:26:31Z</time>
      </trkpt>
      <trkpt lat="45.63459" lon="6.98765">
        <ele>2824</ele>
        <time>2012-07-10T05:26:36Z</time>
      </trkpt>
      <trkpt lat="45.6346" lon="6.98764">
        <ele>2828</ele>
        <time>2012-07-10T05:26:41Z</time>
      </trkpt>
      <trkpt lat="45.63462" lon="6.98764">
        <ele>2828</ele>
        <time>2012-07-10T05:26:46Z</time>
      </trkpt>
      <trkpt lat="45.63463" lon="6.98764">
        <ele>2826</ele>
        <time>2012-07-10T05:26:51Z</time>
      </trkpt>
      <trkpt lat="45.63465" lon="6.98764">
        <ele>2827</ele>
        <time>2012-07-10T05:26:56Z</time>
      </trkpt>
      <trkpt lat="45.63466" lon="6.98765">
        <ele>2828</ele>
        <time>2012-07-10T05:27:01Z</time>
      </trkpt>
      <trkpt lat="45.63468" lon="6.98766">
        <ele>2830</ele>
        <time>2012-07-10T05:27:06Z</time>
      </trkpt>
      <trkpt lat="45.63469" lon="6.98766">
        <ele>2830</ele>
        <time>2012-07-10T05:27:11Z</time>
      </trkpt>
      <trkpt lat="45.63471" lon="6.98765">
        <ele>2830</ele>
        <time>2012-07-10T05:27:16Z</time>
      </trkpt>
      <trkpt lat="45.63475" lon="6.98769">
        <ele>2822</ele>
        <time>2012-07-10T05:27:21Z</time>
      </trkpt>
      <trkpt lat="45.63476" lon="6.98767">
        <ele>2825</ele>
        <time>2012-07-10T05:27:26Z</time>
      </trkpt>
      <trkpt lat="45.63477" lon="6.98768">
        <ele>2827</ele>
        <time>2012-07-10T05:27:31Z</time>
      </trkpt>
      <trkpt lat="45.63477" lon="6.98769">
        <ele>2828</ele>
        <time>2012-07-10T05:27:36Z</time>
      </trkpt>
      <trkpt lat="45.63479" lon="6.98773">
        <ele>2826</ele>
        <time>2012-07-10T05:27:41Z</time>
      </trkpt>
      <trkpt lat="45.6348" lon="6.98775">
        <ele>2826</ele>
        <time>2012-07-10T05:27:46Z</time>
      </trkpt>
      <trkpt lat="45.6348" lon="6.98777">
        <ele>2826</ele>
        <time>2012-07-10T05:27:51Z</time>
      </trkpt>
      <trkpt lat="45.63479" lon="6.98779">
        <ele>2830</ele>
        <time>2012-07-10T05:27:56Z</time>
      </trkpt>
      <trkpt lat="45.63478" lon="6.98779">
        <ele>2831</ele>
        <time>2012-07-10T05:28:01Z</time>
      </trkpt>
      <trkpt lat="45.63478" lon="6.9878">
        <ele>2830</ele>
        <time>2012-07-10T05:28:06Z</time>
      </trkpt>
      <trkpt lat="45.63479" lon="6.98782">
        <ele>2830</ele>
        <time>2012-07-10T05:28:11Z</time>
      </trkpt>
      <trkpt lat="45.63479" lon="6.98785">
        <ele>2829</ele>
        <time>2012-07-10T05:28:16Z</time>
      </trkpt>
      <trkpt lat="45.63479" lon="6.98784">
        <ele>2833</ele>
        <time>2012-07-10T05:28:21Z</time>
      </trkpt>
      <trkpt lat="45.63479" lon="6.98785">
        <ele>2835</ele>
        <time>2012-07-10T05:28:26Z</time>
      </trkpt>
      <trkpt lat="45.6348" lon="6.98787">
        <ele>2836</ele>
        <time>2012-07-10T05:28:31Z</time>
      </trkpt>
      <trkpt lat="45.63482" lon="6.9879">
        <ele>2837</ele>
        <time>2012-07-10T05:28:36Z</time>
      </trkpt>
      <trkpt lat="45.63485" lon="6.98793">
        <ele>2838</ele>
        <time>2012-07-10T05:28:41Z</time>
      </trkpt>
      <trkpt lat="45.63485" lon="6.98796">
        <ele>2838</ele>
        <time>2012-07-10T05:28:46Z</time>
      </trkpt>
      <trkpt lat="45.63486" lon="6.98798">
        <ele>2837</ele>
        <time>2012-07-10T05:28:51Z</time>
      </trkpt>
      <trkpt lat="45.63487" lon="6.98801">
        <ele>2838</ele>
        <time>2012-07-10T05:28:56Z</time>
      </trkpt>
      <trkpt lat="45.63488" lon="6.98802">
        <ele>2840</ele>
        <time>2012-07-10T05:29:01Z</time>
      </trkpt>
      <trkpt lat="45.63488" lon="6.98802">
        <ele>2842</ele>
        <time>2012-07-10T05:29:06Z</time>
      </trkpt>
      <trkpt lat="45.6349" lon="6.98804">
        <ele>2845</ele>
        <time>2012-07-10T05:29:11Z</time>
      </trkpt>
      <trkpt lat="45.63493" lon="6.98807">
        <ele>2843</ele>
        <time>2012-07-10T05:29:16Z</time>
      </trkpt>
      <trkpt lat="45.63494" lon="6.98807">
        <ele>2849</ele>
        <time>2012-07-10T05:29:21Z</time>
      </trkpt>
      <trkpt lat="45.63496" lon="6.98808">
        <ele>2853</ele>
        <time>2012-07-10T05:29:26Z</time>
      </trkpt>
      <trkpt lat="45.63498" lon="6.98809">
        <ele>2854</ele>
        <time>2012-07-10T05:29:31Z</time>
      </trkpt>
      <trkpt lat="45.635" lon="6.98811">
        <ele>2852</ele>
        <time>2012-07-10T05:29:36Z</time>
      </trkpt>
      <trkpt lat="45.63501" lon="6.98807">
        <ele>2859</ele>
        <time>2012-07-10T05:29:41Z</time>
      </trkpt>
      <trkpt lat="45.63502" lon="6.98807">
        <ele>2862</ele>
        <time>2012-07-10T05:29:46Z</time>
      </trkpt>
      <trkpt lat="45.63504" lon="6.98803">
        <ele>2870</ele>
        <time>2012-07-10T05:29:51Z</time>
      </trkpt>
      <trkpt lat="45.63505" lon="6.98805">
        <ele>2869</ele>
        <time>2012-07-10T05:29:56Z</time>
      </trkpt>
      <trkpt lat="45.63506" lon="6.98806">
        <ele>2869</ele>
        <time>2012-07-10T05:30:01Z</time>
      </trkpt>
      <trkpt lat="45.63508" lon="6.98808">
        <ele>2870</ele>
        <time>2012-07-10T05:30:06Z</time>
      </trkpt>
      <trkpt lat="45.63508" lon="6.98807">
        <ele>2874</ele>
        <time>2012-07-10T05:30:11Z</time>
      </trkpt>
      <trkpt lat="45.63509" lon="6.9881">
        <ele>2872</ele>
        <time>2012-07-10T05:30:16Z</time>
      </trkpt>
      <trkpt lat="45.63511" lon="6.98814">
        <ele>2872</ele>
        <time>2012-07-10T05:30:21Z</time>
      </trkpt>
      <trkpt lat="45.63512" lon="6.98818">
        <ele>2869</ele>
        <time>2012-07-10T05:30:26Z</time>
      </trkpt>
      <trkpt lat="45.63513" lon="6.98819">
        <ele>2869</ele>
        <time>2012-07-10T05:30:31Z</time>
      </trkpt>
      <trkpt lat="45.63513" lon="6.9882">
        <ele>2869</ele>
        <time>2012-07-10T05:30:36Z</time>
      </trkpt>
      <trkpt lat="45.63514" lon="6.9882">
        <ele>2870</ele>
        <time>2012-07-10T05:30:41Z</time>
      </trkpt>
      <trkpt lat="45.63516" lon="6.98823">
        <ele>2869</ele>
        <time>2012-07-10T05:30:46Z</time>
      </trkpt>
      <trkpt lat="45.63518" lon="6.98826">
        <ele>2868</ele>
        <time>2012-07-10T05:30:51Z</time>
      </trkpt>
      <trkpt lat="45.6352" lon="6.98828">
        <ele>2867</ele>
        <time>2012-07-10T05:30:56Z</time>
      </trkpt>
      <trkpt lat="45.63521" lon="6.9883">
        <ele>2862</ele>
        <time>2012-07-10T05:31:01Z</time>
      </trkpt>
      <trkpt lat="45.63522" lon="6.9883">
        <ele>2862</ele>
        <time>2012-07-10T05:31:06Z</time>
      </trkpt>
      <trkpt lat="45.63523" lon="6.98832">
        <ele>2862</ele>
        <time>2012-07-10T05:31:11Z</time>
      </trkpt>
      <trkpt lat="45.63525" lon="6.98833">
        <ele>2862</ele>
        <time>2012-07-10T05:31:16Z</time>
      </trkpt>
      <trkpt lat="45.63527" lon="6.98835">
        <ele>2863</ele>
        <time>2012-07-10T05:31:21Z</time>
      </trkpt>
      <trkpt lat="45.63529" lon="6.98838">
        <ele>2864</ele>
        <time>2012-07-10T05:31:26Z</time>
      </trkpt>
      <trkpt lat="45.6353" lon="6.98842">
        <ele>2864</ele>
        <time>2012-07-10T05:31:31Z</time>
      </trkpt>
      <trkpt lat="45.63532" lon="6.98844">
        <ele>2862</ele>
        <time>2012-07-10T05:31:36Z</time>
      </trkpt>
      <trkpt lat="45.63533" lon="6.98846">
        <ele>2859</ele>
        <time>2012-07-10T05:31:41Z</time>
      </trkpt>
      <trkpt lat="45.63535" lon="6.98849">
        <ele>2857</ele>
        <time>2012-07-10T05:31:46Z</time>
      </trkpt>
      <trkpt lat="45.63537" lon="6.98852">
        <ele>2857</ele>
        <time>2012-07-10T05:31:51Z</time>
      </trkpt>
      <trkpt lat="45.63538" lon="6.98855">
        <ele>2858</ele>
        <time>2012-07-10T05:31:56Z</time>
      </trkpt>
      <trkpt lat="45.63538" lon="6.98855">
        <ele>2863</ele>
        <time>2012-07-10T05:32:01Z</time>
      </trkpt>
      <trkpt lat="45.6354" lon="6.98857">
        <ele>2865</ele>
        <time>2012-07-10T05:32:06Z</time>
      </trkpt>
      <trkpt lat="45.63542" lon="6.98858">
        <ele>2864</ele>
        <time>2012-07-10T05:32:11Z</time>
      </trkpt>
      <trkpt lat="45.63544" lon="6.98861">
        <ele>2858</ele>
        <time>2012-07-10T05:32:16Z</time>
      </trkpt>
      <trkpt lat="45.63545" lon="6.98863">
        <ele>2858</ele>
        <time>2012-07-10T05:32:21Z</time>
      </trkpt>
      <trkpt lat="45.63546" lon="6.98867">
        <ele>2861</ele>
        <time>2012-07-10T05:32:26Z</time>
      </trkpt>
      <trkpt lat="45.63547" lon="6.98869">
        <ele>2859</ele>
        <time>2012-07-10T05:32:31Z</time>
      </trkpt>
      <trkpt lat="45.6355" lon="6.98871">
        <ele>2858</ele>
        <time>2012-07-10T05:32:36Z</time>
      </trkpt>
      <trkpt lat="45.63553" lon="6.98873">
        <ele>2854</ele>
        <time>2012-07-10T05:32:41Z</time>
      </trkpt>
      <trkpt lat="45.63553" lon="6.98875">
        <ele>2854</ele>
        <time>2012-07-10T05:32:46Z</time>
      </trkpt>
      <trkpt lat="45.63554" lon="6.98876">
        <ele>2854</ele>
        <time>2012-07-10T05:32:51Z</time>
      </trkpt>
      <trkpt lat="45.63556" lon="6.98881">
        <ele>2851</ele>
        <time>2012-07-10T05:32:56Z</time>
      </trkpt>
      <trkpt lat="45.63557" lon="6.98883">
        <ele>2856</ele>
        <time>2012-07-10T05:33:01Z</time>
      </trkpt>
      <trkpt lat="45.63557" lon="6.98884">
        <ele>2865</ele>
        <time>2012-07-10T05:33:06Z</time>
      </trkpt>
      <trkpt lat="45.63557" lon="6.98885">
        <ele>2869</ele>
        <time>2012-07-10T05:33:11Z</time>
      </trkpt>
      <trkpt lat="45.63559" lon="6.98886">
        <ele>2871</ele>
        <time>2012-07-10T05:33:16Z</time>
      </trkpt>
      <trkpt lat="45.6356" lon="6.98888">
        <ele>2870</ele>
        <time>2012-07-10T05:33:21Z</time>
      </trkpt>
      <trkpt lat="45.63561" lon="6.98888">
        <ele>2870</ele>
        <time>2012-07-10T05:33:26Z</time>
      </trkpt>
      <trkpt lat="45.63562" lon="6.98889">
        <ele>2871</ele>
        <time>2012-07-10T05:33:31Z</time>
      </trkpt>
      <trkpt lat="45.63564" lon="6.98892">
        <ele>2870</ele>
        <time>2012-07-10T05:33:36Z</time>
      </trkpt>
      <trkpt lat="45.63566" lon="6.98895">
        <ele>2864</ele>
        <time>2012-07-10T05:33:41Z</time>
      </trkpt>
      <trkpt lat="45.63567" lon="6.98896">
        <ele>2859</ele>
        <time>2012-07-10T05:33:46Z</time>
      </trkpt>
      <trkpt lat="45.63571" lon="6.98898">
        <ele>2855</ele>
        <time>2012-07-10T05:33:51Z</time>
      </trkpt>
      <trkpt lat="45.63574" lon="6.989">
        <ele>2858</ele>
        <time>2012-07-10T05:33:56Z</time>
      </trkpt>
      <trkpt lat="45.63574" lon="6.98901">
        <ele>2864</ele>
        <time>2012-07-10T05:34:01Z</time>
      </trkpt>
      <trkpt lat="45.63575" lon="6.98905">
        <ele>2859</ele>
        <time>2012-07-10T05:34:06Z</time>
      </trkpt>
      <trkpt lat="45.63576" lon="6.98906">
        <ele>2861</ele>
        <time>2012-07-10T05:34:11Z</time>
      </trkpt>
      <trkpt lat="45.63576" lon="6.98905">
        <ele>2866</ele>
        <time>2012-07-10T05:34:16Z</time>
      </trkpt>
      <trkpt lat="45.63579" lon="6.98907">
        <ele>2866</ele>
        <time>2012-07-10T05:34:21Z</time>
      </trkpt>
      <trkpt lat="45.63579" lon="6.98909">
        <ele>2868</ele>
        <time>2012-07-10T05:34:26Z</time>
      </trkpt>
      <trkpt lat="45.6358" lon="6.9891">
        <ele>2869</ele>
        <time>2012-07-10T05:34:31Z</time>
      </trkpt>
      <trkpt lat="45.63582" lon="6.98909">
        <ele>2871</ele>
        <time>2012-07-10T05:34:36Z</time>
      </trkpt>
      <trkpt lat="45.63585" lon="6.9891">
        <ele>2873</ele>
        <time>2012-07-10T05:34:41Z</time>
      </trkpt>
      <trkpt lat="45.63585" lon="6.9891">
        <ele>2874</ele>
        <time>2012-07-10T05:34:46Z</time>
      </trkpt>
      <trkpt lat="45.63586" lon="6.98912">
        <ele>2876</ele>
        <time>2012-07-10T05:34:51Z</time>
      </trkpt>
      <trkpt lat="45.63588" lon="6.98912">
        <ele>2879</ele>
        <time>2012-07-10T05:34:56Z</time>
      </trkpt>
      <trkpt lat="45.63589" lon="6.98913">
        <ele>2881</ele>
        <time>2012-07-10T05:35:01Z</time>
      </trkpt>
      <trkpt lat="45.63588" lon="6.98915">
        <ele>2886</ele>
        <time>2012-07-10T05:35:06Z</time>
      </trkpt>
      <trkpt lat="45.6359" lon="6.98916">
        <ele>2886</ele>
        <time>2012-07-10T05:35:11Z</time>
      </trkpt>
      <trkpt lat="45.63592" lon="6.98918">
        <ele>2888</ele>
        <time>2012-07-10T05:35:16Z</time>
      </trkpt>
      <trkpt lat="45.63594" lon="6.98919">
        <ele>2893</ele>
        <time>2012-07-10T05:35:21Z</time>
      </trkpt>
      <trkpt lat="45.63594" lon="6.98919">
        <ele>2895</ele>
        <time>2012-07-10T05:35:26Z</time>
      </trkpt>
      <trkpt lat="45.63596" lon="6.9892">
        <ele>2897</ele>
        <time>2012-07-10T05:35:31Z</time>
      </trkpt>
      <trkpt lat="45.63596" lon="6.98919">
        <ele>2899</ele>
        <time>2012-07-10T05:35:36Z</time>
      </trkpt>
      <trkpt lat="45.63595" lon="6.98918">
        <ele>2903</ele>
        <time>2012-07-10T05:35:41Z</time>
      </trkpt>
      <trkpt lat="45.63598" lon="6.9892">
        <ele>2901</ele>
        <time>2012-07-10T05:35:46Z</time>
      </trkpt>
      <trkpt lat="45.636" lon="6.98925">
        <ele>2899</ele>
        <time>2012-07-10T05:35:51Z</time>
      </trkpt>
      <trkpt lat="45.63601" lon="6.98926">
        <ele>2901</ele>
        <time>2012-07-10T05:35:56Z</time>
      </trkpt>
      <trkpt lat="45.63602" lon="6.98927">
        <ele>2901</ele>
        <time>2012-07-10T05:36:01Z</time>
      </trkpt>
      <trkpt lat="45.63604" lon="6.9893">
        <ele>2900</ele>
        <time>2012-07-10T05:36:06Z</time>
      </trkpt>
      <trkpt lat="45.63606" lon="6.98932">
        <ele>2896</ele>
        <time>2012-07-10T05:36:11Z</time>
      </trkpt>
      <trkpt lat="45.63607" lon="6.98931">
        <ele>2897</ele>
        <time>2012-07-10T05:36:16Z</time>
      </trkpt>
      <trkpt lat="45.63607" lon="6.98931">
        <ele>2902</ele>
        <time>2012-07-10T05:36:21Z</time>
      </trkpt>
      <trkpt lat="45.63606" lon="6.98931">
        <ele>2898</ele>
        <time>2012-07-10T05:36:26Z</time>
      </trkpt>
      <trkpt lat="45.63607" lon="6.98931">
        <ele>2892</ele>
        <time>2012-07-10T05:36:31Z</time>
      </trkpt>
      <trkpt lat="45.63609" lon="6.98929">
        <ele>2882</ele>
        <time>2012-07-10T05:36:36Z</time>
      </trkpt>
      <trkpt lat="45.6361" lon="6.98932">
        <ele>2874</ele>
        <time>2012-07-10T05:36:41Z</time>
      </trkpt>
      <trkpt lat="45.63613" lon="6.98932">
        <ele>2869</ele>
        <time>2012-07-10T05:36:46Z</time>
      </trkpt>
      <trkpt lat="45.63614" lon="6.9893">
        <ele>2868</ele>
        <time>2012-07-10T05:36:51Z</time>
      </trkpt>
      <trkpt lat="45.63614" lon="6.98929">
        <ele>2870</ele>
        <time>2012-07-10T05:36:56Z</time>
      </trkpt>
      <trkpt lat="45.63614" lon="6.98929">
        <ele>2872</ele>
        <time>2012-07-10T05:37:01Z</time>
      </trkpt>
      <trkpt lat="45.63617" lon="6.98928">
        <ele>2864</ele>
        <time>2012-07-10T05:37:06Z</time>
      </trkpt>
      <trkpt lat="45.63617" lon="6.98929">
        <ele>2865</ele>
        <time>2012-07-10T05:37:11Z</time>
      </trkpt>
      <trkpt lat="45.63612" lon="6.9893">
        <ele>2876</ele>
        <time>2012-07-10T05:37:16Z</time>
      </trkpt>
      <trkpt lat="45.63612" lon="6.9893">
        <ele>2879</ele>
        <time>2012-07-10T05:37:21Z</time>
      </trkpt>
      <trkpt lat="45.63611" lon="6.98933">
        <ele>2881</ele>
        <time>2012-07-10T05:37:26Z</time>
      </trkpt>
      <trkpt lat="45.63612" lon="6.98936">
        <ele>2883</ele>
        <time>2012-07-10T05:37:31Z</time>
      </trkpt>
      <trkpt lat="45.63616" lon="6.98937">
        <ele>2879</ele>
        <time>2012-07-10T05:37:36Z</time>
      </trkpt>
      <trkpt lat="45.63618" lon="6.9894">
        <ele>2879</ele>
        <time>2012-07-10T05:37:41Z</time>
      </trkpt>
      <trkpt lat="45.63619" lon="6.98944">
        <ele>2879</ele>
        <time>2012-07-10T05:37:46Z</time>
      </trkpt>
      <trkpt lat="45.63619" lon="6.98945">
        <ele>2882</ele>
        <time>2012-07-10T05:37:51Z</time>
      </trkpt>
      <trkpt lat="45.63617" lon="6.98948">
        <ele>2892</ele>
        <time>2012-07-10T05:37:56Z</time>
      </trkpt>
      <trkpt lat="45.63617" lon="6.98951">
        <ele>2900</ele>
        <time>2012-07-10T05:38:01Z</time>
      </trkpt>
      <trkpt lat="45.63618" lon="6.98954">
        <ele>2902</ele>
        <time>2012-07-10T05:38:06Z</time>
      </trkpt>
      <trkpt lat="45.63619" lon="6.98958">
        <ele>2901</ele>
        <time>2012-07-10T05:38:11Z</time>
      </trkpt>
      <trkpt lat="45.63622" lon="6.98959">
        <ele>2900</ele>
        <time>2012-07-10T05:38:16Z</time>
      </trkpt>
      <trkpt lat="45.63623" lon="6.98962">
        <ele>2901</ele>
        <time>2012-07-10T05:38:21Z</time>
      </trkpt>
      <trkpt lat="45.63625" lon="6.98968">
        <ele>2900</ele>
        <time>2012-07-10T05:38:26Z</time>
      </trkpt>
      <trkpt lat="45.63624" lon="6.98972">
        <ele>2903</ele>
        <time>2012-07-10T05:38:31Z</time>
      </trkpt>
      <trkpt lat="45.63624" lon="6.98976">
        <ele>2907</ele>
        <time>2012-07-10T05:38:36Z</time>
      </trkpt>
      <trkpt lat="45.63624" lon="6.9898">
        <ele>2911</ele>
        <time>2012-07-10T05:38:41Z</time>
      </trkpt>
      <trkpt lat="45.63624" lon="6.98984">
        <ele>2914</ele>
        <time>2012-07-10T05:38:46Z</time>
      </trkpt>
      <trkpt lat="45.63625" lon="6.98989">
        <ele>2916</ele>
        <time>2012-07-10T05:38:51Z</time>
      </trkpt>
      <trkpt lat="45.63627" lon="6.98993">
        <ele>2916</ele>
        <time>2012-07-10T05:38:56Z</time>
      </trkpt>
      <trkpt lat="45.63628" lon="6.98996">
        <ele>2916</ele>
        <time>2012-07-10T05:39:01Z</time>
      </trkpt>
      <trkpt lat="45.63629" lon="6.98999">
        <ele>2915</ele>
        <time>2012-07-10T05:39:06Z</time>
      </trkpt>
      <trkpt lat="45.6363" lon="6.99003">
        <ele>2914</ele>
        <time>2012-07-10T05:39:11Z</time>
      </trkpt>
      <trkpt lat="45.63632" lon="6.99007">
        <ele>2914</ele>
        <time>2012-07-10T05:39:16Z</time>
      </trkpt>
      <trkpt lat="45.63634" lon="6.9901">
        <ele>2914</ele>
        <time>2012-07-10T05:39:21Z</time>
      </trkpt>
      <trkpt lat="45.63635" lon="6.99014">
        <ele>2914</ele>
        <time>2012-07-10T05:39:26Z</time>
      </trkpt>
      <trkpt lat="45.63638" lon="6.99018">
        <ele>2912</ele>
        <time>2012-07-10T05:39:31Z</time>
      </trkpt>
      <trkpt lat="45.6364" lon="6.99022">
        <ele>2910</ele>
        <time>2012-07-10T05:39:36Z</time>
      </trkpt>
      <trkpt lat="45.63641" lon="6.99027">
        <ele>2909</ele>
        <time>2012-07-10T05:39:41Z</time>
      </trkpt>
      <trkpt lat="45.63641" lon="6.99029">
        <ele>2907</ele>
        <time>2012-07-10T05:39:46Z</time>
      </trkpt>
      <trkpt lat="45.63642" lon="6.99033">
        <ele>2906</ele>
        <time>2012-07-10T05:39:51Z</time>
      </trkpt>
      <trkpt lat="45.63644" lon="6.99037">
        <ele>2905</ele>
        <time>2012-07-10T05:39:56Z</time>
      </trkpt>
      <trkpt lat="45.63645" lon="6.99042">
        <ele>2904</ele>
        <time>2012-07-10T05:40:01Z</time>
      </trkpt>
      <trkpt lat="45.63646" lon="6.99046">
        <ele>2902</ele>
        <time>2012-07-10T05:40:06Z</time>
      </trkpt>
      <trkpt lat="45.63648" lon="6.99051">
        <ele>2900</ele>
        <time>2012-07-10T05:40:11Z</time>
      </trkpt>
      <trkpt lat="45.63649" lon="6.99055">
        <ele>2899</ele>
        <time>2012-07-10T05:40:16Z</time>
      </trkpt>
      <trkpt lat="45.6365" lon="6.99059">
        <ele>2901</ele>
        <time>2012-07-10T05:40:21Z</time>
      </trkpt>
      <trkpt lat="45.63651" lon="6.99062">
        <ele>2901</ele>
        <time>2012-07-10T05:40:26Z</time>
      </trkpt>
      <trkpt lat="45.63652" lon="6.99065">
        <ele>2901</ele>
        <time>2012-07-10T05:40:31Z</time>
      </trkpt>
      <trkpt lat="45.63654" lon="6.99067">
        <ele>2900</ele>
        <time>2012-07-10T05:40:36Z</time>
      </trkpt>
      <trkpt lat="45.63655" lon="6.9907">
        <ele>2900</ele>
        <time>2012-07-10T05:40:41Z</time>
      </trkpt>
      <trkpt lat="45.63657" lon="6.99074">
        <ele>2902</ele>
        <time>2012-07-10T05:40:46Z</time>
      </trkpt>
      <trkpt lat="45.63657" lon="6.99076">
        <ele>2902</ele>
        <time>2012-07-10T05:40:51Z</time>
      </trkpt>
      <trkpt lat="45.63659" lon="6.99079">
        <ele>2902</ele>
        <time>2012-07-10T05:40:56Z</time>
      </trkpt>
      <trkpt lat="45.63661" lon="6.99082">
        <ele>2903</ele>
        <time>2012-07-10T05:41:01Z</time>
      </trkpt>
      <trkpt lat="45.63662" lon="6.99086">
        <ele>2904</ele>
        <time>2012-07-10T05:41:06Z</time>
      </trkpt>
      <trkpt lat="45.63663" lon="6.99089">
        <ele>2905</ele>
        <time>2012-07-10T05:41:11Z</time>
      </trkpt>
      <trkpt lat="45.63664" lon="6.99091">
        <ele>2905</ele>
        <time>2012-07-10T05:41:16Z</time>
      </trkpt>
      <trkpt lat="45.63666" lon="6.99092">
        <ele>2906</ele>
        <time>2012-07-10T05:41:21Z</time>
      </trkpt>
      <trkpt lat="45.63668" lon="6.99096">
        <ele>2905</ele>
        <time>2012-07-10T05:41:26Z</time>
      </trkpt>
      <trkpt lat="45.63669" lon="6.99098">
        <ele>2906</ele>
        <time>2012-07-10T05:41:31Z</time>
      </trkpt>
      <trkpt lat="45.6367" lon="6.991">
        <ele>2904</ele>
        <time>2012-07-10T05:41:36Z</time>
      </trkpt>
      <trkpt lat="45.6367" lon="6.99103">
        <ele>2904</ele>
        <time>2012-07-10T05:41:41Z</time>
      </trkpt>
      <trkpt lat="45.63672" lon="6.99105">
        <ele>2902</ele>
        <time>2012-07-10T05:41:46Z</time>
      </trkpt>
      <trkpt lat="45.63673" lon="6.99108">
        <ele>2903</ele>
        <time>2012-07-10T05:41:51Z</time>
      </trkpt>
      <trkpt lat="45.63674" lon="6.9911">
        <ele>2903</ele>
        <time>2012-07-10T05:41:56Z</time>
      </trkpt>
      <trkpt lat="45.63674" lon="6.99112">
        <ele>2904</ele>
        <time>2012-07-10T05:42:01Z</time>
      </trkpt>
      <trkpt lat="45.63675" lon="6.99115">
        <ele>2905</ele>
        <time>2012-07-10T05:42:06Z</time>
      </trkpt>
      <trkpt lat="45.63675" lon="6.99118">
        <ele>2906</ele>
        <time>2012-07-10T05:42:11Z</time>
      </trkpt>
      <trkpt lat="45.63675" lon="6.9912">
        <ele>2907</ele>
        <time>2012-07-10T05:42:16Z</time>
      </trkpt>
      <trkpt lat="45.63677" lon="6.99123">
        <ele>2906</ele>
        <time>2012-07-10T05:42:21Z</time>
      </trkpt>
      <trkpt lat="45.63678" lon="6.99124">
        <ele>2904</ele>
        <time>2012-07-10T05:42:26Z</time>
      </trkpt>
      <trkpt lat="45.63678" lon="6.99127">
        <ele>2906</ele>
        <time>2012-07-10T05:42:31Z</time>
      </trkpt>
      <trkpt lat="45.63678" lon="6.9913">
        <ele>2907</ele>
        <time>2012-07-10T05:42:36Z</time>
      </trkpt>
      <trkpt lat="45.63678" lon="6.99131">
        <ele>2909</ele>
        <time>2012-07-10T05:42:41Z</time>
      </trkpt>
      <trkpt lat="45.63678" lon="6.99134">
        <ele>2910</ele>
        <time>2012-07-10T05:42:46Z</time>
      </trkpt>
      <trkpt lat="45.63679" lon="6.99135">
        <ele>2908</ele>
        <time>2012-07-10T05:42:51Z</time>
      </trkpt>
      <trkpt lat="45.63679" lon="6.99137">
        <ele>2908</ele>
        <time>2012-07-10T05:42:56Z</time>
      </trkpt>
      <trkpt lat="45.6368" lon="6.9914">
        <ele>2909</ele>
        <time>2012-07-10T05:43:01Z</time>
      </trkpt>
      <trkpt lat="45.6368" lon="6.99143">
        <ele>2911</ele>
        <time>2012-07-10T05:43:06Z</time>
      </trkpt>
      <trkpt lat="45.6368" lon="6.99147">
        <ele>2915</ele>
        <time>2012-07-10T05:43:11Z</time>
      </trkpt>
      <trkpt lat="45.6368" lon="6.99149">
        <ele>2918</ele>
        <time>2012-07-10T05:43:16Z</time>
      </trkpt>
      <trkpt lat="45.6368" lon="6.99151">
        <ele>2919</ele>
        <time>2012-07-10T05:43:21Z</time>
      </trkpt>
      <trkpt lat="45.63682" lon="6.99152">
        <ele>2916</ele>
        <time>2012-07-10T05:43:26Z</time>
      </trkpt>
      <trkpt lat="45.63682" lon="6.99154">
        <ele>2917</ele>
        <time>2012-07-10T05:43:31Z</time>
      </trkpt>
      <trkpt lat="45.63683" lon="6.99156">
        <ele>2918</ele>
        <time>2012-07-10T05:43:36Z</time>
      </trkpt>
      <trkpt lat="45.63683" lon="6.99158">
        <ele>2919</ele>
        <time>2012-07-10T05:43:41Z</time>
      </trkpt>
      <trkpt lat="45.63685" lon="6.9916">
        <ele>2916</ele>
        <time>2012-07-10T05:43:46Z</time>
      </trkpt>
      <trkpt lat="45.63685" lon="6.99163">
        <ele>2916</ele>
        <time>2012-07-10T05:43:51Z</time>
      </trkpt>
      <trkpt lat="45.63685" lon="6.99164">
        <ele>2917</ele>
        <time>2012-07-10T05:43:56Z</time>
      </trkpt>
      <trkpt lat="45.63685" lon="6.99165">
        <ele>2917</ele>
        <time>2012-07-10T05:44:01Z</time>
      </trkpt>
      <trkpt lat="45.63685" lon="6.99167">
        <ele>2918</ele>
        <time>2012-07-10T05:44:06Z</time>
      </trkpt>
      <trkpt lat="45.63684" lon="6.9917">
        <ele>2921</ele>
        <time>2012-07-10T05:44:11Z</time>
      </trkpt>
      <trkpt lat="45.63684" lon="6.99173">
        <ele>2923</ele>
        <time>2012-07-10T05:44:16Z</time>
      </trkpt>
      <trkpt lat="45.63685" lon="6.99174">
        <ele>2921</ele>
        <time>2012-07-10T05:44:21Z</time>
      </trkpt>
      <trkpt lat="45.63685" lon="6.99176">
        <ele>2920</ele>
        <time>2012-07-10T05:44:26Z</time>
      </trkpt>
      <trkpt lat="45.63684" lon="6.99178">
        <ele>2923</ele>
        <time>2012-07-10T05:44:31Z</time>
      </trkpt>
      <trkpt lat="45.63685" lon="6.99179">
        <ele>2922</ele>
        <time>2012-07-10T05:44:36Z</time>
      </trkpt>
      <trkpt lat="45.63685" lon="6.99182">
        <ele>2923</ele>
        <time>2012-07-10T05:44:41Z</time>
      </trkpt>
      <trkpt lat="45.63684" lon="6.99185">
        <ele>2926</ele>
        <time>2012-07-10T05:44:46Z</time>
      </trkpt>
      <trkpt lat="45.63685" lon="6.99188">
        <ele>2927</ele>
        <time>2012-07-10T05:44:51Z</time>
      </trkpt>
      <trkpt lat="45.63685" lon="6.99191">
        <ele>2930</ele>
        <time>2012-07-10T05:44:56Z</time>
      </trkpt>
      <trkpt lat="45.63685" lon="6.99193">
        <ele>2931</ele>
        <time>2012-07-10T05:45:01Z</time>
      </trkpt>
      <trkpt lat="45.63687" lon="6.99195">
        <ele>2931</ele>
        <time>2012-07-10T05:45:06Z</time>
      </trkpt>
      <trkpt lat="45.63687" lon="6.99197">
        <ele>2930</ele>
        <time>2012-07-10T05:45:11Z</time>
      </trkpt>
      <trkpt lat="45.63688" lon="6.99199">
        <ele>2930</ele>
        <time>2012-07-10T05:45:16Z</time>
      </trkpt>
      <trkpt lat="45.63688" lon="6.99201">
        <ele>2930</ele>
        <time>2012-07-10T05:45:21Z</time>
      </trkpt>
      <trkpt lat="45.6369" lon="6.99203">
        <ele>2928</ele>
        <time>2012-07-10T05:45:26Z</time>
      </trkpt>
      <trkpt lat="45.63691" lon="6.99205">
        <ele>2928</ele>
        <time>2012-07-10T05:45:31Z</time>
      </trkpt>
      <trkpt lat="45.63693" lon="6.99207">
        <ele>2927</ele>
        <time>2012-07-10T05:45:36Z</time>
      </trkpt>
      <trkpt lat="45.63694" lon="6.99208">
        <ele>2925</ele>
        <time>2012-07-10T05:45:41Z</time>
      </trkpt>
      <trkpt lat="45.63693" lon="6.9921">
        <ele>2927</ele>
        <time>2012-07-10T05:45:46Z</time>
      </trkpt>
      <trkpt lat="45.63691" lon="6.99213">
        <ele>2931</ele>
        <time>2012-07-10T05:45:51Z</time>
      </trkpt>
      <trkpt lat="45.63691" lon="6.99215">
        <ele>2935</ele>
        <time>2012-07-10T05:45:56Z</time>
      </trkpt>
      <trkpt lat="45.63691" lon="6.99217">
        <ele>2935</ele>
        <time>2012-07-10T05:46:01Z</time>
      </trkpt>
      <trkpt lat="45.63691" lon="6.9922">
        <ele>2938</ele>
        <time>2012-07-10T05:46:06Z</time>
      </trkpt>
      <trkpt lat="45.6369" lon="6.99222">
        <ele>2942</ele>
        <time>2012-07-10T05:46:11Z</time>
      </trkpt>
      <trkpt lat="45.6369" lon="6.99224">
        <ele>2943</ele>
        <time>2012-07-10T05:46:16Z</time>
      </trkpt>
      <trkpt lat="45.6369" lon="6.99227">
        <ele>2944</ele>
        <time>2012-07-10T05:46:21Z</time>
      </trkpt>
      <trkpt lat="45.6369" lon="6.99229">
        <ele>2944</ele>
        <time>2012-07-10T05:46:26Z</time>
      </trkpt>
      <trkpt lat="45.6369" lon="6.99231">
        <ele>2945</ele>
        <time>2012-07-10T05:46:31Z</time>
      </trkpt>
      <trkpt lat="45.63691" lon="6.99233">
        <ele>2945</ele>
        <time>2012-07-10T05:46:36Z</time>
      </trkpt>
      <trkpt lat="45.63692" lon="6.99236">
        <ele>2945</ele>
        <time>2012-07-10T05:46:41Z</time>
      </trkpt>
      <trkpt lat="45.63693" lon="6.99238">
        <ele>2946</ele>
        <time>2012-07-10T05:46:46Z</time>
      </trkpt>
      <trkpt lat="45.63693" lon="6.9924">
        <ele>2947</ele>
        <time>2012-07-10T05:46:51Z</time>
      </trkpt>
      <trkpt lat="45.63693" lon="6.99243">
        <ele>2949</ele>
        <time>2012-07-10T05:46:56Z</time>
      </trkpt>
      <trkpt lat="45.63693" lon="6.99245">
        <ele>2951</ele>
        <time>2012-07-10T05:47:01Z</time>
      </trkpt>
      <trkpt lat="45.63692" lon="6.99247">
        <ele>2954</ele>
        <time>2012-07-10T05:47:06Z</time>
      </trkpt>
      <trkpt lat="45.63691" lon="6.9925">
        <ele>2955</ele>
        <time>2012-07-10T05:47:11Z</time>
      </trkpt>
      <trkpt lat="45.6369" lon="6.99252">
        <ele>2957</ele>
        <time>2012-07-10T05:47:16Z</time>
      </trkpt>
      <trkpt lat="45.63691" lon="6.99255">
        <ele>2957</ele>
        <time>2012-07-10T05:47:21Z</time>
      </trkpt>
      <trkpt lat="45.63692" lon="6.99257">
        <ele>2957</ele>
        <time>2012-07-10T05:47:26Z</time>
      </trkpt>
      <trkpt lat="45.63691" lon="6.99259">
        <ele>2957</ele>
        <time>2012-07-10T05:47:31Z</time>
      </trkpt>
      <trkpt lat="45.6369" lon="6.99262">
        <ele>2961</ele>
        <time>2012-07-10T05:47:36Z</time>
      </trkpt>
      <trkpt lat="45.63692" lon="6.99264">
        <ele>2959</ele>
        <time>2012-07-10T05:47:41Z</time>
      </trkpt>
      <trkpt lat="45.63694" lon="6.99266">
        <ele>2956</ele>
        <time>2012-07-10T05:47:46Z</time>
      </trkpt>
      <trkpt lat="45.63694" lon="6.99268">
        <ele>2956</ele>
        <time>2012-07-10T05:47:51Z</time>
      </trkpt>
      <trkpt lat="45.63694" lon="6.99271">
        <ele>2958</ele>
        <time>2012-07-10T05:47:56Z</time>
      </trkpt>
      <trkpt lat="45.63696" lon="6.99273">
        <ele>2957</ele>
        <time>2012-07-10T05:48:01Z</time>
      </trkpt>
      <trkpt lat="45.63697" lon="6.99276">
        <ele>2954</ele>
        <time>2012-07-10T05:48:06Z</time>
      </trkpt>
      <trkpt lat="45.63699" lon="6.99279">
        <ele>2954</ele>
        <time>2012-07-10T05:48:11Z</time>
      </trkpt>
      <trkpt lat="45.63699" lon="6.99283">
        <ele>2955</ele>
        <time>2012-07-10T05:48:16Z</time>
      </trkpt>
      <trkpt lat="45.63696" lon="6.99286">
        <ele>2964</ele>
        <time>2012-07-10T05:48:21Z</time>
      </trkpt>
      <trkpt lat="45.63696" lon="6.99288">
        <ele>2967</ele>
        <time>2012-07-10T05:48:26Z</time>
      </trkpt>
      <trkpt lat="45.63696" lon="6.99291">
        <ele>2968</ele>
        <time>2012-07-10T05:48:31Z</time>
      </trkpt>
      <trkpt lat="45.637" lon="6.99293">
        <ele>2960</ele>
        <time>2012-07-10T05:48:36Z</time>
      </trkpt>
      <trkpt lat="45.63703" lon="6.99295">
        <ele>2954</ele>
        <time>2012-07-10T05:48:41Z</time>
      </trkpt>
      <trkpt lat="45.63704" lon="6.99298">
        <ele>2957</ele>
        <time>2012-07-10T05:48:46Z</time>
      </trkpt>
      <trkpt lat="45.63707" lon="6.993">
        <ele>2953</ele>
        <time>2012-07-10T05:48:51Z</time>
      </trkpt>
      <trkpt lat="45.63707" lon="6.99302">
        <ele>2954</ele>
        <time>2012-07-10T05:48:56Z</time>
      </trkpt>
      <trkpt lat="45.63713" lon="6.99302">
        <ele>2942</ele>
        <time>2012-07-10T05:49:01Z</time>
      </trkpt>
      <trkpt lat="45.63714" lon="6.99305">
        <ele>2944</ele>
        <time>2012-07-10T05:49:06Z</time>
      </trkpt>
      <trkpt lat="45.63716" lon="6.99307">
        <ele>2941</ele>
        <time>2012-07-10T05:49:11Z</time>
      </trkpt>
      <trkpt lat="45.63715" lon="6.9931">
        <ele>2943</ele>
        <time>2012-07-10T05:49:16Z</time>
      </trkpt>
      <trkpt lat="45.63715" lon="6.99314">
        <ele>2946</ele>
        <time>2012-07-10T05:49:21Z</time>
      </trkpt>
      <trkpt lat="45.63715" lon="6.99317">
        <ele>2946</ele>
        <time>2012-07-10T05:49:26Z</time>
      </trkpt>
      <trkpt lat="45.63717" lon="6.99319">
        <ele>2945</ele>
        <time>2012-07-10T05:49:31Z</time>
      </trkpt>
      <trkpt lat="45.63717" lon="6.99321">
        <ele>2946</ele>
        <time>2012-07-10T05:49:36Z</time>
      </trkpt>
      <trkpt lat="45.63718" lon="6.99324">
        <ele>2947</ele>
        <time>2012-07-10T05:49:41Z</time>
      </trkpt>
      <trkpt lat="45.63719" lon="6.99326">
        <ele>2946</ele>
        <time>2012-07-10T05:49:46Z</time>
      </trkpt>
      <trkpt lat="45.63721" lon="6.99329">
        <ele>2944</ele>
        <time>2012-07-10T05:49:51Z</time>
      </trkpt>
      <trkpt lat="45.6372" lon="6.99333">
        <ele>2946</ele>
        <time>2012-07-10T05:49:56Z</time>
      </trkpt>
      <trkpt lat="45.63719" lon="6.99336">
        <ele>2951</ele>
        <time>2012-07-10T05:50:01Z</time>
      </trkpt>
      <trkpt lat="45.63719" lon="6.9934">
        <ele>2953</ele>
        <time>2012-07-10T05:50:06Z</time>
      </trkpt>
      <trkpt lat="45.6372" lon="6.99342">
        <ele>2954</ele>
        <time>2012-07-10T05:50:11Z</time>
      </trkpt>
      <trkpt lat="45.6372" lon="6.99346">
        <ele>2957</ele>
        <time>2012-07-10T05:50:16Z</time>
      </trkpt>
      <trkpt lat="45.63722" lon="6.99349">
        <ele>2954</ele>
        <time>2012-07-10T05:50:21Z</time>
      </trkpt>
      <trkpt lat="45.63723" lon="6.99351">
        <ele>2955</ele>
        <time>2012-07-10T05:50:26Z</time>
      </trkpt>
      <trkpt lat="45.63726" lon="6.99353">
        <ele>2952</ele>
        <time>2012-07-10T05:50:31Z</time>
      </trkpt>
      <trkpt lat="45.63726" lon="6.99357">
        <ele>2952</ele>
        <time>2012-07-10T05:50:36Z</time>
      </trkpt>
      <trkpt lat="45.63726" lon="6.99359">
        <ele>2956</ele>
        <time>2012-07-10T05:50:41Z</time>
      </trkpt>
      <trkpt lat="45.63726" lon="6.99362">
        <ele>2958</ele>
        <time>2012-07-10T05:50:46Z</time>
      </trkpt>
      <trkpt lat="45.63726" lon="6.99364">
        <ele>2960</ele>
        <time>2012-07-10T05:50:51Z</time>
      </trkpt>
      <trkpt lat="45.63726" lon="6.99367">
        <ele>2960</ele>
        <time>2012-07-10T05:50:56Z</time>
      </trkpt>
      <trkpt lat="45.63725" lon="6.99371">
        <ele>2965</ele>
        <time>2012-07-10T05:51:01Z</time>
      </trkpt>
      <trkpt lat="45.63725" lon="6.99373">
        <ele>2967</ele>
        <time>2012-07-10T05:51:06Z</time>
      </trkpt>
      <trkpt lat="45.63725" lon="6.99376">
        <ele>2969</ele>
        <time>2012-07-10T05:51:11Z</time>
      </trkpt>
      <trkpt lat="45.63726" lon="6.99379">
        <ele>2969</ele>
        <time>2012-07-10T05:51:16Z</time>
      </trkpt>
      <trkpt lat="45.63727" lon="6.99381">
        <ele>2969</ele>
        <time>2012-07-10T05:51:21Z</time>
      </trkpt>
      <trkpt lat="45.63731" lon="6.99383">
        <ele>2961</ele>
        <time>2012-07-10T05:51:26Z</time>
      </trkpt>
      <trkpt lat="45.63732" lon="6.99386">
        <ele>2959</ele>
        <time>2012-07-10T05:51:31Z</time>
      </trkpt>
      <trkpt lat="45.63732" lon="6.99389">
        <ele>2960</ele>
        <time>2012-07-10T05:51:36Z</time>
      </trkpt>
      <trkpt lat="45.63733" lon="6.99392">
        <ele>2960</ele>
        <time>2012-07-10T05:51:41Z</time>
      </trkpt>
      <trkpt lat="45.63736" lon="6.99395">
        <ele>2955</ele>
        <time>2012-07-10T05:51:46Z</time>
      </trkpt>
      <trkpt lat="45.63738" lon="6.99397">
        <ele>2954</ele>
        <time>2012-07-10T05:51:51Z</time>
      </trkpt>
      <trkpt lat="45.63739" lon="6.99399">
        <ele>2954</ele>
        <time>2012-07-10T05:51:56Z</time>
      </trkpt>
      <trkpt lat="45.63741" lon="6.99401">
        <ele>2953</ele>
        <time>2012-07-10T05:52:01Z</time>
      </trkpt>
      <trkpt lat="45.6374" lon="6.99402">
        <ele>2979</ele>
        <time>2012-07-10T05:55:41Z</time>
      </trkpt>
      <trkpt lat="45.63738" lon="6.99402">
        <ele>2983</ele>
        <time>2012-07-10T05:55:46Z</time>
      </trkpt>
      <trkpt lat="45.63735" lon="6.99403">
        <ele>2986</ele>
        <time>2012-07-10T05:55:51Z</time>
      </trkpt>
      <trkpt lat="45.63734" lon="6.99403">
        <ele>2987</ele>
        <time>2012-07-10T05:55:56Z</time>
      </trkpt>
      <trkpt lat="45.63732" lon="6.99404">
        <ele>2989</ele>
        <time>2012-07-10T05:56:01Z</time>
      </trkpt>
      <trkpt lat="45.63731" lon="6.99404">
        <ele>2990</ele>
        <time>2012-07-10T05:56:06Z</time>
      </trkpt>
      <trkpt lat="45.6373" lon="6.99404">
        <ele>2991</ele>
        <time>2012-07-10T05:56:11Z</time>
      </trkpt>
      <trkpt lat="45.63729" lon="6.99405">
        <ele>2992</ele>
        <time>2012-07-10T05:56:16Z</time>
      </trkpt>
      <trkpt lat="45.63728" lon="6.99405">
        <ele>2993</ele>
        <time>2012-07-10T05:56:21Z</time>
      </trkpt>
      <trkpt lat="45.63727" lon="6.99405">
        <ele>2995</ele>
        <time>2012-07-10T05:56:26Z</time>
      </trkpt>
      <trkpt lat="45.63726" lon="6.99404">
        <ele>2997</ele>
        <time>2012-07-10T05:56:31Z</time>
      </trkpt>
      <trkpt lat="45.63725" lon="6.99404">
        <ele>2999</ele>
        <time>2012-07-10T05:56:36Z</time>
      </trkpt>
      <trkpt lat="45.63725" lon="6.99404">
        <ele>2999</ele>
        <time>2012-07-10T05:56:41Z</time>
      </trkpt>
      <trkpt lat="45.63725" lon="6.99404">
        <ele>2999</ele>
        <time>2012-07-10T05:56:46Z</time>
      </trkpt>
      <trkpt lat="45.63725" lon="6.99404">
        <ele>2999</ele>
        <time>2012-07-10T05:56:51Z</time>
      </trkpt>
      <trkpt lat="45.63725" lon="6.99404">
        <ele>2999</ele>
        <time>2012-07-10T05:56:56Z</time>
      </trkpt>
      <trkpt lat="45.63725" lon="6.99404">
        <ele>2999</ele>
        <time>2012-07-10T05:57:01Z</time>
      </trkpt>
      <trkpt lat="45.63725" lon="6.99404">
        <ele>2999</ele>
        <time>2012-07-10T05:57:06Z</time>
      </trkpt>
      <trkpt lat="45.63725" lon="6.99404">
        <ele>2999</ele>
        <time>2012-07-10T05:57:11Z</time>
      </trkpt>
      <trkpt lat="45.63725" lon="6.99404">
        <ele>2999</ele>
        <time>2012-07-10T05:57:16Z</time>
      </trkpt>
      <trkpt lat="45.63725" lon="6.99404">
        <ele>2999</ele>
        <time>2012-07-10T05:57:21Z</time>
      </trkpt>
      <trkpt lat="45.63725" lon="6.99404">
        <ele>2999</ele>
        <time>2012-07-10T05:57:26Z</time>
      </trkpt>
      <trkpt lat="45.63725" lon="6.99404">
        <ele>2999</ele>
        <time>2012-07-10T05:57:31Z</time>
      </trkpt>
      <trkpt lat="45.63725" lon="6.99404">
        <ele>2999</ele>
        <time>2012-07-10T05:57:36Z</time>
      </trkpt>
      <trkpt lat="45.63725" lon="6.99405">
        <ele>2998</ele>
        <time>2012-07-10T05:57:41Z</time>
      </trkpt>
      <trkpt lat="45.63725" lon="6.99405">
        <ele>2998</ele>
        <time>2012-07-10T05:57:46Z</time>
      </trkpt>
      <trkpt lat="45.63725" lon="6.99405">
        <ele>2998</ele>
        <time>2012-07-10T05:57:51Z</time>
      </trkpt>
      <trkpt lat="45.63725" lon="6.99405">
        <ele>2998</ele>
        <time>2012-07-10T05:57:56Z</time>
      </trkpt>
      <trkpt lat="45.63725" lon="6.99405">
        <ele>2998</ele>
        <time>2012-07-10T05:58:01Z</time>
      </trkpt>
      <trkpt lat="45.63725" lon="6.99405">
        <ele>2998</ele>
        <time>2012-07-10T05:58:06Z</time>
      </trkpt>
      <trkpt lat="45.63725" lon="6.99405">
        <ele>2998</ele>
        <time>2012-07-10T05:58:11Z</time>
      </trkpt>
      <trkpt lat="45.63725" lon="6.99405">
        <ele>2998</ele>
        <time>2012-07-10T05:58:16Z</time>
      </trkpt>
      <trkpt lat="45.63725" lon="6.99405">
        <ele>2998</ele>
        <time>2012-07-10T05:58:21Z</time>
      </trkpt>
      <trkpt lat="45.63725" lon="6.99405">
        <ele>2998</ele>
        <time>2012-07-10T05:58:26Z</time>
      </trkpt>
      <trkpt lat="45.63725" lon="6.99405">
        <ele>2998</ele>
        <time>2012-07-10T05:58:31Z</time>
      </trkpt>
      <trkpt lat="45.63725" lon="6.99405">
        <ele>2998</ele>
        <time>2012-07-10T05:58:36Z</time>
      </trkpt>
      <trkpt lat="45.63725" lon="6.99405">
        <ele>2998</ele>
        <time>2012-07-10T05:58:41Z</time>
      </trkpt>
      <trkpt lat="45.63725" lon="6.99405">
        <ele>2998</ele>
        <time>2012-07-10T05:58:46Z</time>
      </trkpt>
      <trkpt lat="45.63725" lon="6.99405">
        <ele>2998</ele>
        <time>2012-07-10T05:58:51Z</time>
      </trkpt>
      <trkpt lat="45.63725" lon="6.99405">
        <ele>2998</ele>
        <time>2012-07-10T05:58:56Z</time>
      </trkpt>
      <trkpt lat="45.63725" lon="6.99405">
        <ele>2998</ele>
        <time>2012-07-10T05:59:01Z</time>
      </trkpt>
      <trkpt lat="45.63725" lon="6.99405">
        <ele>2998</ele>
        <time>2012-07-10T05:59:06Z</time>
      </trkpt>
      <trkpt lat="45.63725" lon="6.99405">
        <ele>2998</ele>
        <time>2012-07-10T05:59:11Z</time>
      </trkpt>
      <trkpt lat="45.63725" lon="6.99405">
        <ele>2998</ele>
        <time>2012-07-10T05:59:16Z</time>
      </trkpt>
      <trkpt lat="45.63725" lon="6.99405">
        <ele>2998</ele>
        <time>2012-07-10T05:59:21Z</time>
      </trkpt>
      <trkpt lat="45.63726" lon="6.99407">
        <ele>2998</ele>
        <time>2012-07-10T05:59:26Z</time>
      </trkpt>
      <trkpt lat="45.63726" lon="6.99409">
        <ele>2998</ele>
        <time>2012-07-10T05:59:31Z</time>
      </trkpt>
      <trkpt lat="45.63727" lon="6.9941">
        <ele>2999</ele>
        <time>2012-07-10T05:59:36Z</time>
      </trkpt>
      <trkpt lat="45.63728" lon="6.99412">
        <ele>2999</ele>
        <time>2012-07-10T05:59:41Z</time>
      </trkpt>
      <trkpt lat="45.63729" lon="6.99414">
        <ele>3000</ele>
        <time>2012-07-10T05:59:46Z</time>
      </trkpt>
      <trkpt lat="45.63731" lon="6.99416">
        <ele>3000</ele>
        <time>2012-07-10T05:59:51Z</time>
      </trkpt>
      <trkpt lat="45.63731" lon="6.99418">
        <ele>3000</ele>
        <time>2012-07-10T05:59:56Z</time>
      </trkpt>
      <trkpt lat="45.63732" lon="6.9942">
        <ele>3001</ele>
        <time>2012-07-10T06:00:01Z</time>
      </trkpt>
      <trkpt lat="45.63733" lon="6.99423">
        <ele>3002</ele>
        <time>2012-07-10T06:00:06Z</time>
      </trkpt>
      <trkpt lat="45.63734" lon="6.99425">
        <ele>3002</ele>
        <time>2012-07-10T06:00:11Z</time>
      </trkpt>
      <trkpt lat="45.63735" lon="6.99426">
        <ele>3002</ele>
        <time>2012-07-10T06:00:16Z</time>
      </trkpt>
      <trkpt lat="45.63736" lon="6.99428">
        <ele>3003</ele>
        <time>2012-07-10T06:00:21Z</time>
      </trkpt>
      <trkpt lat="45.63738" lon="6.99431">
        <ele>3004</ele>
        <time>2012-07-10T06:00:26Z</time>
      </trkpt>
      <trkpt lat="45.63739" lon="6.99433">
        <ele>3004</ele>
        <time>2012-07-10T06:00:31Z</time>
      </trkpt>
      <trkpt lat="45.6374" lon="6.99434">
        <ele>3005</ele>
        <time>2012-07-10T06:00:36Z</time>
      </trkpt>
      <trkpt lat="45.63741" lon="6.99435">
        <ele>3006</ele>
        <time>2012-07-10T06:00:41Z</time>
      </trkpt>
      <trkpt lat="45.63743" lon="6.99436">
        <ele>3006</ele>
        <time>2012-07-10T06:00:46Z</time>
      </trkpt>
      <trkpt lat="45.63743" lon="6.99439">
        <ele>3007</ele>
        <time>2012-07-10T06:00:51Z</time>
      </trkpt>
      <trkpt lat="45.63744" lon="6.9944">
        <ele>3007</ele>
        <time>2012-07-10T06:00:56Z</time>
      </trkpt>
      <trkpt lat="45.63746" lon="6.99442">
        <ele>3007</ele>
        <time>2012-07-10T06:01:01Z</time>
      </trkpt>
      <trkpt lat="45.63746" lon="6.99444">
        <ele>3008</ele>
        <time>2012-07-10T06:01:06Z</time>
      </trkpt>
      <trkpt lat="45.63747" lon="6.99446">
        <ele>3008</ele>
        <time>2012-07-10T06:01:11Z</time>
      </trkpt>
      <trkpt lat="45.63748" lon="6.99448">
        <ele>3009</ele>
        <time>2012-07-10T06:01:16Z</time>
      </trkpt>
      <trkpt lat="45.63749" lon="6.9945">
        <ele>3009</ele>
        <time>2012-07-10T06:01:21Z</time>
      </trkpt>
      <trkpt lat="45.63749" lon="6.99452">
        <ele>3010</ele>
        <time>2012-07-10T06:01:26Z</time>
      </trkpt>
      <trkpt lat="45.63749" lon="6.99453">
        <ele>3011</ele>
        <time>2012-07-10T06:01:31Z</time>
      </trkpt>
      <trkpt lat="45.6375" lon="6.99455">
        <ele>3011</ele>
        <time>2012-07-10T06:01:36Z</time>
      </trkpt>
      <trkpt lat="45.6375" lon="6.99457">
        <ele>3012</ele>
        <time>2012-07-10T06:01:41Z</time>
      </trkpt>
      <trkpt lat="45.63751" lon="6.99459">
        <ele>3012</ele>
        <time>2012-07-10T06:01:46Z</time>
      </trkpt>
      <trkpt lat="45.63751" lon="6.99461">
        <ele>3013</ele>
        <time>2012-07-10T06:01:51Z</time>
      </trkpt>
      <trkpt lat="45.63751" lon="6.99463">
        <ele>3013</ele>
        <time>2012-07-10T06:01:56Z</time>
      </trkpt>
      <trkpt lat="45.63752" lon="6.99465">
        <ele>3014</ele>
        <time>2012-07-10T06:02:01Z</time>
      </trkpt>
      <trkpt lat="45.63752" lon="6.99467">
        <ele>3014</ele>
        <time>2012-07-10T06:02:06Z</time>
      </trkpt>
      <trkpt lat="45.63752" lon="6.99468">
        <ele>3015</ele>
        <time>2012-07-10T06:02:11Z</time>
      </trkpt>
      <trkpt lat="45.63753" lon="6.9947">
        <ele>3015</ele>
        <time>2012-07-10T06:02:16Z</time>
      </trkpt>
      <trkpt lat="45.63754" lon="6.99471">
        <ele>3016</ele>
        <time>2012-07-10T06:02:21Z</time>
      </trkpt>
      <trkpt lat="45.63755" lon="6.99472">
        <ele>3016</ele>
        <time>2012-07-10T06:02:26Z</time>
      </trkpt>
      <trkpt lat="45.63756" lon="6.99473">
        <ele>3017</ele>
        <time>2012-07-10T06:02:31Z</time>
      </trkpt>
      <trkpt lat="45.63757" lon="6.99473">
        <ele>3017</ele>
        <time>2012-07-10T06:02:36Z</time>
      </trkpt>
      <trkpt lat="45.63757" lon="6.99475">
        <ele>3017</ele>
        <time>2012-07-10T06:02:41Z</time>
      </trkpt>
      <trkpt lat="45.63758" lon="6.99476">
        <ele>3018</ele>
        <time>2012-07-10T06:02:46Z</time>
      </trkpt>
      <trkpt lat="45.63759" lon="6.99478">
        <ele>3019</ele>
        <time>2012-07-10T06:02:51Z</time>
      </trkpt>
      <trkpt lat="45.63759" lon="6.99479">
        <ele>3019</ele>
        <time>2012-07-10T06:02:56Z</time>
      </trkpt>
      <trkpt lat="45.6376" lon="6.99481">
        <ele>3020</ele>
        <time>2012-07-10T06:03:01Z</time>
      </trkpt>
      <trkpt lat="45.6376" lon="6.99483">
        <ele>3020</ele>
        <time>2012-07-10T06:03:06Z</time>
      </trkpt>
      <trkpt lat="45.6376" lon="6.99485">
        <ele>3021</ele>
        <time>2012-07-10T06:03:11Z</time>
      </trkpt>
      <trkpt lat="45.6376" lon="6.99487">
        <ele>3021</ele>
        <time>2012-07-10T06:03:16Z</time>
      </trkpt>
      <trkpt lat="45.63761" lon="6.99489">
        <ele>3022</ele>
        <time>2012-07-10T06:03:21Z</time>
      </trkpt>
      <trkpt lat="45.63762" lon="6.99491">
        <ele>3023</ele>
        <time>2012-07-10T06:03:26Z</time>
      </trkpt>
      <trkpt lat="45.63762" lon="6.99493">
        <ele>3024</ele>
        <time>2012-07-10T06:03:31Z</time>
      </trkpt>
      <trkpt lat="45.63762" lon="6.99495">
        <ele>3024</ele>
        <time>2012-07-10T06:03:36Z</time>
      </trkpt>
      <trkpt lat="45.63762" lon="6.99497">
        <ele>3025</ele>
        <time>2012-07-10T06:03:41Z</time>
      </trkpt>
      <trkpt lat="45.63763" lon="6.99498">
        <ele>3025</ele>
        <time>2012-07-10T06:03:46Z</time>
      </trkpt>
      <trkpt lat="45.63763" lon="6.995">
        <ele>3025</ele>
        <time>2012-07-10T06:03:51Z</time>
      </trkpt>
      <trkpt lat="45.63764" lon="6.99503">
        <ele>3026</ele>
        <time>2012-07-10T06:03:56Z</time>
      </trkpt>
      <trkpt lat="45.63764" lon="6.99505">
        <ele>3027</ele>
        <time>2012-07-10T06:04:01Z</time>
      </trkpt>
      <trkpt lat="45.63765" lon="6.99507">
        <ele>3027</ele>
        <time>2012-07-10T06:04:06Z</time>
      </trkpt>
      <trkpt lat="45.63766" lon="6.99508">
        <ele>3028</ele>
        <time>2012-07-10T06:04:11Z</time>
      </trkpt>
      <trkpt lat="45.63768" lon="6.99509">
        <ele>3028</ele>
        <time>2012-07-10T06:04:16Z</time>
      </trkpt>
      <trkpt lat="45.63769" lon="6.9951">
        <ele>3028</ele>
        <time>2012-07-10T06:04:21Z</time>
      </trkpt>
      <trkpt lat="45.63771" lon="6.9951">
        <ele>3029</ele>
        <time>2012-07-10T06:04:26Z</time>
      </trkpt>
      <trkpt lat="45.63772" lon="6.9951">
        <ele>3030</ele>
        <time>2012-07-10T06:04:31Z</time>
      </trkpt>
      <trkpt lat="45.63773" lon="6.9951">
        <ele>3030</ele>
        <time>2012-07-10T06:04:36Z</time>
      </trkpt>
      <trkpt lat="45.63775" lon="6.9951">
        <ele>3031</ele>
        <time>2012-07-10T06:04:41Z</time>
      </trkpt>
      <trkpt lat="45.63776" lon="6.9951">
        <ele>3031</ele>
        <time>2012-07-10T06:04:46Z</time>
      </trkpt>
      <trkpt lat="45.63778" lon="6.99511">
        <ele>3032</ele>
        <time>2012-07-10T06:04:51Z</time>
      </trkpt>
      <trkpt lat="45.63778" lon="6.99512">
        <ele>3032</ele>
        <time>2012-07-10T06:04:56Z</time>
      </trkpt>
      <trkpt lat="45.63778" lon="6.99515">
        <ele>3033</ele>
        <time>2012-07-10T06:05:01Z</time>
      </trkpt>
      <trkpt lat="45.63778" lon="6.99517">
        <ele>3033</ele>
        <time>2012-07-10T06:05:06Z</time>
      </trkpt>
      <trkpt lat="45.63779" lon="6.99519">
        <ele>3034</ele>
        <time>2012-07-10T06:05:11Z</time>
      </trkpt>
      <trkpt lat="45.63779" lon="6.99522">
        <ele>3034</ele>
        <time>2012-07-10T06:05:16Z</time>
      </trkpt>
      <trkpt lat="45.63779" lon="6.99524">
        <ele>3035</ele>
        <time>2012-07-10T06:05:21Z</time>
      </trkpt>
      <trkpt lat="45.6378" lon="6.99526">
        <ele>3035</ele>
        <time>2012-07-10T06:05:26Z</time>
      </trkpt>
      <trkpt lat="45.6378" lon="6.99527">
        <ele>3036</ele>
        <time>2012-07-10T06:05:31Z</time>
      </trkpt>
      <trkpt lat="45.63781" lon="6.99529">
        <ele>3036</ele>
        <time>2012-07-10T06:05:36Z</time>
      </trkpt>
      <trkpt lat="45.63781" lon="6.99531">
        <ele>3037</ele>
        <time>2012-07-10T06:05:41Z</time>
      </trkpt>
      <trkpt lat="45.63781" lon="6.99533">
        <ele>3038</ele>
        <time>2012-07-10T06:05:46Z</time>
      </trkpt>
      <trkpt lat="45.63782" lon="6.99535">
        <ele>3038</ele>
        <time>2012-07-10T06:05:51Z</time>
      </trkpt>
      <trkpt lat="45.63782" lon="6.99538">
        <ele>3039</ele>
        <time>2012-07-10T06:05:56Z</time>
      </trkpt>
      <trkpt lat="45.63783" lon="6.9954">
        <ele>3039</ele>
        <time>2012-07-10T06:06:01Z</time>
      </trkpt>
      <trkpt lat="45.63783" lon="6.99542">
        <ele>3040</ele>
        <time>2012-07-10T06:06:06Z</time>
      </trkpt>
      <trkpt lat="45.63783" lon="6.99545">
        <ele>3040</ele>
        <time>2012-07-10T06:06:11Z</time>
      </trkpt>
      <trkpt lat="45.63784" lon="6.99547">
        <ele>3041</ele>
        <time>2012-07-10T06:06:16Z</time>
      </trkpt>
      <trkpt lat="45.63784" lon="6.99549">
        <ele>3041</ele>
        <time>2012-07-10T06:06:21Z</time>
      </trkpt>
      <trkpt lat="45.63784" lon="6.99551">
        <ele>3042</ele>
        <time>2012-07-10T06:06:26Z</time>
      </trkpt>
      <trkpt lat="45.63784" lon="6.99554">
        <ele>3043</ele>
        <time>2012-07-10T06:06:31Z</time>
      </trkpt>
      <trkpt lat="45.63784" lon="6.99556">
        <ele>3043</ele>
        <time>2012-07-10T06:06:36Z</time>
      </trkpt>
      <trkpt lat="45.63784" lon="6.99558">
        <ele>3044</ele>
        <time>2012-07-10T06:06:41Z</time>
      </trkpt>
      <trkpt lat="45.63784" lon="6.9956">
        <ele>3044</ele>
        <time>2012-07-10T06:06:46Z</time>
      </trkpt>
      <trkpt lat="45.63785" lon="6.99562">
        <ele>3045</ele>
        <time>2012-07-10T06:06:51Z</time>
      </trkpt>
      <trkpt lat="45.63785" lon="6.99564">
        <ele>3045</ele>
        <time>2012-07-10T06:06:56Z</time>
      </trkpt>
      <trkpt lat="45.63785" lon="6.99566">
        <ele>3046</ele>
        <time>2012-07-10T06:07:01Z</time>
      </trkpt>
      <trkpt lat="45.63786" lon="6.99568">
        <ele>3046</ele>
        <time>2012-07-10T06:07:06Z</time>
      </trkpt>
      <trkpt lat="45.63786" lon="6.9957">
        <ele>3047</ele>
        <time>2012-07-10T06:07:11Z</time>
      </trkpt>
      <trkpt lat="45.63786" lon="6.99573">
        <ele>3047</ele>
        <time>2012-07-10T06:07:16Z</time>
      </trkpt>
      <trkpt lat="45.63786" lon="6.99575">
        <ele>3048</ele>
        <time>2012-07-10T06:07:21Z</time>
      </trkpt>
      <trkpt lat="45.63786" lon="6.99577">
        <ele>3049</ele>
        <time>2012-07-10T06:07:26Z</time>
      </trkpt>
      <trkpt lat="45.63787" lon="6.99578">
        <ele>3049</ele>
        <time>2012-07-10T06:07:31Z</time>
      </trkpt>
      <trkpt lat="45.63787" lon="6.9958">
        <ele>3050</ele>
        <time>2012-07-10T06:07:36Z</time>
      </trkpt>
      <trkpt lat="45.63787" lon="6.99583">
        <ele>3051</ele>
        <time>2012-07-10T06:07:41Z</time>
      </trkpt>
      <trkpt lat="45.63788" lon="6.99585">
        <ele>3051</ele>
        <time>2012-07-10T06:07:46Z</time>
      </trkpt>
      <trkpt lat="45.63788" lon="6.99587">
        <ele>3052</ele>
        <time>2012-07-10T06:07:51Z</time>
      </trkpt>
      <trkpt lat="45.63788" lon="6.99589">
        <ele>3052</ele>
        <time>2012-07-10T06:07:56Z</time>
      </trkpt>
      <trkpt lat="45.63788" lon="6.99591">
        <ele>3053</ele>
        <time>2012-07-10T06:08:01Z</time>
      </trkpt>
      <trkpt lat="45.63788" lon="6.99594">
        <ele>3054</ele>
        <time>2012-07-10T06:08:06Z</time>
      </trkpt>
      <trkpt lat="45.63788" lon="6.99596">
        <ele>3054</ele>
        <time>2012-07-10T06:08:11Z</time>
      </trkpt>
      <trkpt lat="45.63788" lon="6.99598">
        <ele>3055</ele>
        <time>2012-07-10T06:08:16Z</time>
      </trkpt>
      <trkpt lat="45.63789" lon="6.99599">
        <ele>3055</ele>
        <time>2012-07-10T06:08:21Z</time>
      </trkpt>
      <trkpt lat="45.63789" lon="6.99601">
        <ele>3056</ele>
        <time>2012-07-10T06:08:26Z</time>
      </trkpt>
      <trkpt lat="45.63789" lon="6.99603">
        <ele>3057</ele>
        <time>2012-07-10T06:08:31Z</time>
      </trkpt>
      <trkpt lat="45.63789" lon="6.99605">
        <ele>3057</ele>
        <time>2012-07-10T06:08:36Z</time>
      </trkpt>
      <trkpt lat="45.6379" lon="6.99607">
        <ele>3058</ele>
        <time>2012-07-10T06:08:41Z</time>
      </trkpt>
      <trkpt lat="45.63791" lon="6.99609">
        <ele>3058</ele>
        <time>2012-07-10T06:08:46Z</time>
      </trkpt>
      <trkpt lat="45.63791" lon="6.99611">
        <ele>3059</ele>
        <time>2012-07-10T06:08:51Z</time>
      </trkpt>
      <trkpt lat="45.63791" lon="6.99612">
        <ele>3060</ele>
        <time>2012-07-10T06:08:56Z</time>
      </trkpt>
      <trkpt lat="45.63791" lon="6.99614">
        <ele>3060</ele>
        <time>2012-07-10T06:09:01Z</time>
      </trkpt>
      <trkpt lat="45.63791" lon="6.99615">
        <ele>3061</ele>
        <time>2012-07-10T06:09:06Z</time>
      </trkpt>
      <trkpt lat="45.63793" lon="6.99617">
        <ele>3061</ele>
        <time>2012-07-10T06:09:11Z</time>
      </trkpt>
      <trkpt lat="45.63794" lon="6.99618">
        <ele>3061</ele>
        <time>2012-07-10T06:09:16Z</time>
      </trkpt>
      <trkpt lat="45.63795" lon="6.99619">
        <ele>3061</ele>
        <time>2012-07-10T06:09:21Z</time>
      </trkpt>
      <trkpt lat="45.63796" lon="6.9962">
        <ele>3062</ele>
        <time>2012-07-10T06:09:26Z</time>
      </trkpt>
      <trkpt lat="45.63796" lon="6.99622">
        <ele>3062</ele>
        <time>2012-07-10T06:09:31Z</time>
      </trkpt>
      <trkpt lat="45.63797" lon="6.99623">
        <ele>3062</ele>
        <time>2012-07-10T06:09:36Z</time>
      </trkpt>
      <trkpt lat="45.63797" lon="6.99624">
        <ele>3062</ele>
        <time>2012-07-10T06:09:41Z</time>
      </trkpt>
      <trkpt lat="45.63798" lon="6.99625">
        <ele>3063</ele>
        <time>2012-07-10T06:09:46Z</time>
      </trkpt>
      <trkpt lat="45.63798" lon="6.99627">
        <ele>3063</ele>
        <time>2012-07-10T06:09:51Z</time>
      </trkpt>
      <trkpt lat="45.63799" lon="6.99629">
        <ele>3064</ele>
        <time>2012-07-10T06:09:56Z</time>
      </trkpt>
      <trkpt lat="45.63801" lon="6.9963">
        <ele>3065</ele>
        <time>2012-07-10T06:10:01Z</time>
      </trkpt>
      <trkpt lat="45.63802" lon="6.99631">
        <ele>3065</ele>
        <time>2012-07-10T06:10:06Z</time>
      </trkpt>
      <trkpt lat="45.63802" lon="6.99633">
        <ele>3066</ele>
        <time>2012-07-10T06:10:11Z</time>
      </trkpt>
      <trkpt lat="45.63802" lon="6.99636">
        <ele>3066</ele>
        <time>2012-07-10T06:10:16Z</time>
      </trkpt>
      <trkpt lat="45.63802" lon="6.99637">
        <ele>3067</ele>
        <time>2012-07-10T06:10:21Z</time>
      </trkpt>
      <trkpt lat="45.63803" lon="6.99639">
        <ele>3067</ele>
        <time>2012-07-10T06:10:26Z</time>
      </trkpt>
      <trkpt lat="45.63803" lon="6.99641">
        <ele>3069</ele>
        <time>2012-07-10T06:10:31Z</time>
      </trkpt>
      <trkpt lat="45.63803" lon="6.99643">
        <ele>3070</ele>
        <time>2012-07-10T06:10:36Z</time>
      </trkpt>
      <trkpt lat="45.63803" lon="6.99645">
        <ele>3070</ele>
        <time>2012-07-10T06:10:41Z</time>
      </trkpt>
      <trkpt lat="45.63804" lon="6.99647">
        <ele>3071</ele>
        <time>2012-07-10T06:10:46Z</time>
      </trkpt>
      <trkpt lat="45.63804" lon="6.9965">
        <ele>3072</ele>
        <time>2012-07-10T06:10:51Z</time>
      </trkpt>
      <trkpt lat="45.63804" lon="6.99652">
        <ele>3072</ele>
        <time>2012-07-10T06:10:56Z</time>
      </trkpt>
      <trkpt lat="45.63804" lon="6.99654">
        <ele>3073</ele>
        <time>2012-07-10T06:11:01Z</time>
      </trkpt>
      <trkpt lat="45.63804" lon="6.99656">
        <ele>3074</ele>
        <time>2012-07-10T06:11:06Z</time>
      </trkpt>
      <trkpt lat="45.63804" lon="6.99658">
        <ele>3074</ele>
        <time>2012-07-10T06:11:11Z</time>
      </trkpt>
      <trkpt lat="45.63805" lon="6.9966">
        <ele>3075</ele>
        <time>2012-07-10T06:11:16Z</time>
      </trkpt>
      <trkpt lat="45.63806" lon="6.99661">
        <ele>3075</ele>
        <time>2012-07-10T06:11:21Z</time>
      </trkpt>
      <trkpt lat="45.63807" lon="6.99662">
        <ele>3075</ele>
        <time>2012-07-10T06:11:26Z</time>
      </trkpt>
      <trkpt lat="45.63809" lon="6.99664">
        <ele>3076</ele>
        <time>2012-07-10T06:11:31Z</time>
      </trkpt>
      <trkpt lat="45.63809" lon="6.99665">
        <ele>3076</ele>
        <time>2012-07-10T06:11:36Z</time>
      </trkpt>
      <trkpt lat="45.6381" lon="6.99666">
        <ele>3076</ele>
        <time>2012-07-10T06:11:41Z</time>
      </trkpt>
      <trkpt lat="45.63811" lon="6.99668">
        <ele>3077</ele>
        <time>2012-07-10T06:11:46Z</time>
      </trkpt>
      <trkpt lat="45.63812" lon="6.9967">
        <ele>3077</ele>
        <time>2012-07-10T06:11:51Z</time>
      </trkpt>
      <trkpt lat="45.63812" lon="6.99671">
        <ele>3078</ele>
        <time>2012-07-10T06:11:56Z</time>
      </trkpt>
      <trkpt lat="45.63811" lon="6.99673">
        <ele>3079</ele>
        <time>2012-07-10T06:12:01Z</time>
      </trkpt>
      <trkpt lat="45.63811" lon="6.99675">
        <ele>3079</ele>
        <time>2012-07-10T06:12:06Z</time>
      </trkpt>
      <trkpt lat="45.63812" lon="6.99676">
        <ele>3079</ele>
        <time>2012-07-10T06:12:11Z</time>
      </trkpt>
      <trkpt lat="45.63813" lon="6.99678">
        <ele>3080</ele>
        <time>2012-07-10T06:12:16Z</time>
      </trkpt>
      <trkpt lat="45.63813" lon="6.99679">
        <ele>3080</ele>
        <time>2012-07-10T06:12:21Z</time>
      </trkpt>
      <trkpt lat="45.63813" lon="6.9968">
        <ele>3080</ele>
        <time>2012-07-10T06:12:26Z</time>
      </trkpt>
      <trkpt lat="45.63814" lon="6.99681">
        <ele>3081</ele>
        <time>2012-07-10T06:12:31Z</time>
      </trkpt>
      <trkpt lat="45.63816" lon="6.99681">
        <ele>3081</ele>
        <time>2012-07-10T06:12:36Z</time>
      </trkpt>
      <trkpt lat="45.63816" lon="6.99683">
        <ele>3082</ele>
        <time>2012-07-10T06:12:41Z</time>
      </trkpt>
      <trkpt lat="45.63815" lon="6.99685">
        <ele>3084</ele>
        <time>2012-07-10T06:12:46Z</time>
      </trkpt>
      <trkpt lat="45.63815" lon="6.99686">
        <ele>3085</ele>
        <time>2012-07-10T06:12:51Z</time>
      </trkpt>
      <trkpt lat="45.63815" lon="6.99688">
        <ele>3087</ele>
        <time>2012-07-10T06:12:56Z</time>
      </trkpt>
      <trkpt lat="45.63815" lon="6.9969">
        <ele>3088</ele>
        <time>2012-07-10T06:13:01Z</time>
      </trkpt>
      <trkpt lat="45.63815" lon="6.99691">
        <ele>3089</ele>
        <time>2012-07-10T06:13:06Z</time>
      </trkpt>
      <trkpt lat="45.63814" lon="6.99693">
        <ele>3090</ele>
        <time>2012-07-10T06:13:11Z</time>
      </trkpt>
      <trkpt lat="45.63814" lon="6.99694">
        <ele>3092</ele>
        <time>2012-07-10T06:13:16Z</time>
      </trkpt>
      <trkpt lat="45.63814" lon="6.99696">
        <ele>3092</ele>
        <time>2012-07-10T06:13:21Z</time>
      </trkpt>
      <trkpt lat="45.63814" lon="6.99698">
        <ele>3092</ele>
        <time>2012-07-10T06:13:26Z</time>
      </trkpt>
      <trkpt lat="45.63813" lon="6.997">
        <ele>3093</ele>
        <time>2012-07-10T06:13:31Z</time>
      </trkpt>
      <trkpt lat="45.63813" lon="6.99702">
        <ele>3095</ele>
        <time>2012-07-10T06:13:36Z</time>
      </trkpt>
      <trkpt lat="45.63813" lon="6.99703">
        <ele>3096</ele>
        <time>2012-07-10T06:13:41Z</time>
      </trkpt>
      <trkpt lat="45.63813" lon="6.99705">
        <ele>3097</ele>
        <time>2012-07-10T06:13:46Z</time>
      </trkpt>
      <trkpt lat="45.63812" lon="6.99707">
        <ele>3098</ele>
        <time>2012-07-10T06:13:51Z</time>
      </trkpt>
      <trkpt lat="45.63812" lon="6.99708">
        <ele>3099</ele>
        <time>2012-07-10T06:13:56Z</time>
      </trkpt>
      <trkpt lat="45.63812" lon="6.9971">
        <ele>3099</ele>
        <time>2012-07-10T06:14:01Z</time>
      </trkpt>
      <trkpt lat="45.63812" lon="6.99712">
        <ele>3102</ele>
        <time>2012-07-10T06:14:06Z</time>
      </trkpt>
      <trkpt lat="45.63812" lon="6.99712">
        <ele>3103</ele>
        <time>2012-07-10T06:14:11Z</time>
      </trkpt>
      <trkpt lat="45.63812" lon="6.99714">
        <ele>3104</ele>
        <time>2012-07-10T06:14:16Z</time>
      </trkpt>
      <trkpt lat="45.63812" lon="6.99715">
        <ele>3105</ele>
        <time>2012-07-10T06:14:21Z</time>
      </trkpt>
      <trkpt lat="45.63812" lon="6.99717">
        <ele>3106</ele>
        <time>2012-07-10T06:14:26Z</time>
      </trkpt>
      <trkpt lat="45.63811" lon="6.99718">
        <ele>3106</ele>
        <time>2012-07-10T06:14:31Z</time>
      </trkpt>
      <trkpt lat="45.6381" lon="6.9972">
        <ele>3107</ele>
        <time>2012-07-10T06:14:36Z</time>
      </trkpt>
      <trkpt lat="45.6381" lon="6.99722">
        <ele>3107</ele>
        <time>2012-07-10T06:14:41Z</time>
      </trkpt>
      <trkpt lat="45.6381" lon="6.99723">
        <ele>3108</ele>
        <time>2012-07-10T06:14:46Z</time>
      </trkpt>
      <trkpt lat="45.6381" lon="6.99724">
        <ele>3111</ele>
        <time>2012-07-10T06:14:51Z</time>
      </trkpt>
      <trkpt lat="45.6381" lon="6.99726">
        <ele>3113</ele>
        <time>2012-07-10T06:14:56Z</time>
      </trkpt>
      <trkpt lat="45.6381" lon="6.99728">
        <ele>3114</ele>
        <time>2012-07-10T06:15:01Z</time>
      </trkpt>
      <trkpt lat="45.6381" lon="6.99728">
        <ele>3114</ele>
        <time>2012-07-10T06:15:06Z</time>
      </trkpt>
      <trkpt lat="45.6381" lon="6.99729">
        <ele>3114</ele>
        <time>2012-07-10T06:15:11Z</time>
      </trkpt>
      <trkpt lat="45.63809" lon="6.99731">
        <ele>3114</ele>
        <time>2012-07-10T06:15:16Z</time>
      </trkpt>
      <trkpt lat="45.63809" lon="6.99732">
        <ele>3114</ele>
        <time>2012-07-10T06:15:21Z</time>
      </trkpt>
      <trkpt lat="45.63809" lon="6.99734">
        <ele>3115</ele>
        <time>2012-07-10T06:15:26Z</time>
      </trkpt>
      <trkpt lat="45.63809" lon="6.99735">
        <ele>3117</ele>
        <time>2012-07-10T06:15:31Z</time>
      </trkpt>
      <trkpt lat="45.63808" lon="6.99737">
        <ele>3117</ele>
        <time>2012-07-10T06:15:36Z</time>
      </trkpt>
      <trkpt lat="45.63808" lon="6.99738">
        <ele>3118</ele>
        <time>2012-07-10T06:15:41Z</time>
      </trkpt>
      <trkpt lat="45.63807" lon="6.99739">
        <ele>3118</ele>
        <time>2012-07-10T06:15:46Z</time>
      </trkpt>
      <trkpt lat="45.63807" lon="6.9974">
        <ele>3117</ele>
        <time>2012-07-10T06:15:51Z</time>
      </trkpt>
      <trkpt lat="45.63806" lon="6.9974">
        <ele>3115</ele>
        <time>2012-07-10T06:15:56Z</time>
      </trkpt>
      <trkpt lat="45.63806" lon="6.99742">
        <ele>3114</ele>
        <time>2012-07-10T06:16:01Z</time>
      </trkpt>
      <trkpt lat="45.63806" lon="6.99742">
        <ele>3113</ele>
        <time>2012-07-10T06:16:06Z</time>
      </trkpt>
      <trkpt lat="45.63805" lon="6.99742">
        <ele>3111</ele>
        <time>2012-07-10T06:16:11Z</time>
      </trkpt>
      <trkpt lat="45.63805" lon="6.99742">
        <ele>3111</ele>
        <time>2012-07-10T06:16:16Z</time>
      </trkpt>
      <trkpt lat="45.63805" lon="6.99742">
        <ele>3110</ele>
        <time>2012-07-10T06:16:21Z</time>
      </trkpt>
      <trkpt lat="45.63805" lon="6.99743">
        <ele>3109</ele>
        <time>2012-07-10T06:16:26Z</time>
      </trkpt>
      <trkpt lat="45.63806" lon="6.99743">
        <ele>3110</ele>
        <time>2012-07-10T06:16:31Z</time>
      </trkpt>
      <trkpt lat="45.63806" lon="6.99744">
        <ele>3110</ele>
        <time>2012-07-10T06:16:36Z</time>
      </trkpt>
      <trkpt lat="45.63807" lon="6.99745">
        <ele>3110</ele>
        <time>2012-07-10T06:16:41Z</time>
      </trkpt>
      <trkpt lat="45.63807" lon="6.99746">
        <ele>3111</ele>
        <time>2012-07-10T06:16:46Z</time>
      </trkpt>
      <trkpt lat="45.63807" lon="6.99746">
        <ele>3111</ele>
        <time>2012-07-10T06:16:51Z</time>
      </trkpt>
      <trkpt lat="45.63807" lon="6.99745">
        <ele>3111</ele>
        <time>2012-07-10T06:16:56Z</time>
      </trkpt>
      <trkpt lat="45.63807" lon="6.99746">
        <ele>3112</ele>
        <time>2012-07-10T06:17:01Z</time>
      </trkpt>
      <trkpt lat="45.63807" lon="6.99747">
        <ele>3112</ele>
        <time>2012-07-10T06:17:06Z</time>
      </trkpt>
      <trkpt lat="45.63808" lon="6.99748">
        <ele>3113</ele>
        <time>2012-07-10T06:17:11Z</time>
      </trkpt>
      <trkpt lat="45.63808" lon="6.99748">
        <ele>3113</ele>
        <time>2012-07-10T06:17:16Z</time>
      </trkpt>
      <trkpt lat="45.63808" lon="6.99748">
        <ele>3113</ele>
        <time>2012-07-10T06:17:21Z</time>
      </trkpt>
      <trkpt lat="45.63809" lon="6.99749">
        <ele>3113</ele>
        <time>2012-07-10T06:17:26Z</time>
      </trkpt>
      <trkpt lat="45.63809" lon="6.9975">
        <ele>3114</ele>
        <time>2012-07-10T06:17:31Z</time>
      </trkpt>
      <trkpt lat="45.63809" lon="6.99751">
        <ele>3114</ele>
        <time>2012-07-10T06:17:36Z</time>
      </trkpt>
      <trkpt lat="45.63809" lon="6.99752">
        <ele>3115</ele>
        <time>2012-07-10T06:17:41Z</time>
      </trkpt>
      <trkpt lat="45.6381" lon="6.99753">
        <ele>3115</ele>
        <time>2012-07-10T06:17:46Z</time>
      </trkpt>
      <trkpt lat="45.6381" lon="6.99753">
        <ele>3115</ele>
        <time>2012-07-10T06:17:51Z</time>
      </trkpt>
      <trkpt lat="45.63809" lon="6.99754">
        <ele>3115</ele>
        <time>2012-07-10T06:17:56Z</time>
      </trkpt>
      <trkpt lat="45.6381" lon="6.99754">
        <ele>3115</ele>
        <time>2012-07-10T06:18:01Z</time>
      </trkpt>
      <trkpt lat="45.6381" lon="6.99754">
        <ele>3116</ele>
        <time>2012-07-10T06:18:06Z</time>
      </trkpt>
      <trkpt lat="45.6381" lon="6.99755">
        <ele>3116</ele>
        <time>2012-07-10T06:18:11Z</time>
      </trkpt>
      <trkpt lat="45.6381" lon="6.99755">
        <ele>3116</ele>
        <time>2012-07-10T06:18:16Z</time>
      </trkpt>
      <trkpt lat="45.63809" lon="6.99757">
        <ele>3116</ele>
        <time>2012-07-10T06:18:21Z</time>
      </trkpt>
      <trkpt lat="45.6381" lon="6.99758">
        <ele>3117</ele>
        <time>2012-07-10T06:18:26Z</time>
      </trkpt>
      <trkpt lat="45.6381" lon="6.99759">
        <ele>3117</ele>
        <time>2012-07-10T06:18:31Z</time>
      </trkpt>
      <trkpt lat="45.6381" lon="6.99759">
        <ele>3117</ele>
        <time>2012-07-10T06:18:36Z</time>
      </trkpt>
      <trkpt lat="45.6381" lon="6.9976">
        <ele>3118</ele>
        <time>2012-07-10T06:18:41Z</time>
      </trkpt>
      <trkpt lat="45.6381" lon="6.99761">
        <ele>3118</ele>
        <time>2012-07-10T06:18:46Z</time>
      </trkpt>
      <trkpt lat="45.6381" lon="6.99763">
        <ele>3119</ele>
        <time>2012-07-10T06:18:51Z</time>
      </trkpt>
      <trkpt lat="45.6381" lon="6.99764">
        <ele>3119</ele>
        <time>2012-07-10T06:18:56Z</time>
      </trkpt>
      <trkpt lat="45.6381" lon="6.99765">
        <ele>3120</ele>
        <time>2012-07-10T06:19:01Z</time>
      </trkpt>
      <trkpt lat="45.63811" lon="6.99766">
        <ele>3121</ele>
        <time>2012-07-10T06:19:06Z</time>
      </trkpt>
      <trkpt lat="45.63812" lon="6.99767">
        <ele>3121</ele>
        <time>2012-07-10T06:19:11Z</time>
      </trkpt>
      <trkpt lat="45.63812" lon="6.99769">
        <ele>3122</ele>
        <time>2012-07-10T06:19:16Z</time>
      </trkpt>
      <trkpt lat="45.63812" lon="6.9977">
        <ele>3123</ele>
        <time>2012-07-10T06:19:21Z</time>
      </trkpt>
      <trkpt lat="45.63812" lon="6.99771">
        <ele>3123</ele>
        <time>2012-07-10T06:19:26Z</time>
      </trkpt>
      <trkpt lat="45.63812" lon="6.99772">
        <ele>3124</ele>
        <time>2012-07-10T06:19:31Z</time>
      </trkpt>
      <trkpt lat="45.63812" lon="6.99773">
        <ele>3124</ele>
        <time>2012-07-10T06:19:36Z</time>
      </trkpt>
      <trkpt lat="45.63813" lon="6.99774">
        <ele>3125</ele>
        <time>2012-07-10T06:19:41Z</time>
      </trkpt>
      <trkpt lat="45.63813" lon="6.99775">
        <ele>3126</ele>
        <time>2012-07-10T06:19:46Z</time>
      </trkpt>
      <trkpt lat="45.63813" lon="6.99777">
        <ele>3126</ele>
        <time>2012-07-10T06:19:51Z</time>
      </trkpt>
      <trkpt lat="45.63813" lon="6.99778">
        <ele>3127</ele>
        <time>2012-07-10T06:19:56Z</time>
      </trkpt>
      <trkpt lat="45.63813" lon="6.99779">
        <ele>3127</ele>
        <time>2012-07-10T06:20:01Z</time>
      </trkpt>
      <trkpt lat="45.63813" lon="6.9978">
        <ele>3128</ele>
        <time>2012-07-10T06:20:06Z</time>
      </trkpt>
      <trkpt lat="45.63814" lon="6.99781">
        <ele>3128</ele>
        <time>2012-07-10T06:20:11Z</time>
      </trkpt>
      <trkpt lat="45.63814" lon="6.99782">
        <ele>3129</ele>
        <time>2012-07-10T06:20:16Z</time>
      </trkpt>
      <trkpt lat="45.63814" lon="6.99783">
        <ele>3130</ele>
        <time>2012-07-10T06:20:21Z</time>
      </trkpt>
      <trkpt lat="45.63815" lon="6.99783">
        <ele>3130</ele>
        <time>2012-07-10T06:20:26Z</time>
      </trkpt>
      <trkpt lat="45.63815" lon="6.99784">
        <ele>3131</ele>
        <time>2012-07-10T06:20:31Z</time>
      </trkpt>
      <trkpt lat="45.63815" lon="6.99785">
        <ele>3131</ele>
        <time>2012-07-10T06:20:36Z</time>
      </trkpt>
      <trkpt lat="45.63815" lon="6.99787">
        <ele>3132</ele>
        <time>2012-07-10T06:20:41Z</time>
      </trkpt>
      <trkpt lat="45.63815" lon="6.99787">
        <ele>3132</ele>
        <time>2012-07-10T06:20:46Z</time>
      </trkpt>
      <trkpt lat="45.63815" lon="6.99788">
        <ele>3133</ele>
        <time>2012-07-10T06:20:51Z</time>
      </trkpt>
      <trkpt lat="45.63815" lon="6.99789">
        <ele>3133</ele>
        <time>2012-07-10T06:20:56Z</time>
      </trkpt>
      <trkpt lat="45.63815" lon="6.9979">
        <ele>3134</ele>
        <time>2012-07-10T06:21:01Z</time>
      </trkpt>
      <trkpt lat="45.63815" lon="6.99791">
        <ele>3134</ele>
        <time>2012-07-10T06:21:06Z</time>
      </trkpt>
      <trkpt lat="45.63815" lon="6.99792">
        <ele>3135</ele>
        <time>2012-07-10T06:21:11Z</time>
      </trkpt>
      <trkpt lat="45.63815" lon="6.99794">
        <ele>3135</ele>
        <time>2012-07-10T06:21:16Z</time>
      </trkpt>
      <trkpt lat="45.63815" lon="6.99794">
        <ele>3136</ele>
        <time>2012-07-10T06:21:21Z</time>
      </trkpt>
      <trkpt lat="45.63816" lon="6.99795">
        <ele>3136</ele>
        <time>2012-07-10T06:21:26Z</time>
      </trkpt>
      <trkpt lat="45.63816" lon="6.99796">
        <ele>3137</ele>
        <time>2012-07-10T06:21:31Z</time>
      </trkpt>
      <trkpt lat="45.63816" lon="6.99797">
        <ele>3138</ele>
        <time>2012-07-10T06:21:36Z</time>
      </trkpt>
      <trkpt lat="45.63815" lon="6.99798">
        <ele>3138</ele>
        <time>2012-07-10T06:21:41Z</time>
      </trkpt>
      <trkpt lat="45.63816" lon="6.99799">
        <ele>3139</ele>
        <time>2012-07-10T06:21:46Z</time>
      </trkpt>
      <trkpt lat="45.63816" lon="6.998">
        <ele>3139</ele>
        <time>2012-07-10T06:21:51Z</time>
      </trkpt>
      <trkpt lat="45.63815" lon="6.99801">
        <ele>3140</ele>
        <time>2012-07-10T06:21:56Z</time>
      </trkpt>
      <trkpt lat="45.63815" lon="6.99802">
        <ele>3140</ele>
        <time>2012-07-10T06:22:01Z</time>
      </trkpt>
      <trkpt lat="45.63816" lon="6.99802">
        <ele>3141</ele>
        <time>2012-07-10T06:22:06Z</time>
      </trkpt>
      <trkpt lat="45.63816" lon="6.99803">
        <ele>3141</ele>
        <time>2012-07-10T06:22:11Z</time>
      </trkpt>
      <trkpt lat="45.63816" lon="6.99804">
        <ele>3142</ele>
        <time>2012-07-10T06:22:16Z</time>
      </trkpt>
      <trkpt lat="45.63816" lon="6.99805">
        <ele>3142</ele>
        <time>2012-07-10T06:22:21Z</time>
      </trkpt>
      <trkpt lat="45.63817" lon="6.99806">
        <ele>3143</ele>
        <time>2012-07-10T06:22:26Z</time>
      </trkpt>
      <trkpt lat="45.63817" lon="6.99807">
        <ele>3144</ele>
        <time>2012-07-10T06:22:31Z</time>
      </trkpt>
      <trkpt lat="45.63817" lon="6.99807">
        <ele>3144</ele>
        <time>2012-07-10T06:22:36Z</time>
      </trkpt>
      <trkpt lat="45.63817" lon="6.99808">
        <ele>3145</ele>
        <time>2012-07-10T06:22:41Z</time>
      </trkpt>
      <trkpt lat="45.63817" lon="6.99809">
        <ele>3145</ele>
        <time>2012-07-10T06:22:46Z</time>
      </trkpt>
      <trkpt lat="45.63817" lon="6.9981">
        <ele>3146</ele>
        <time>2012-07-10T06:22:51Z</time>
      </trkpt>
      <trkpt lat="45.63817" lon="6.99811">
        <ele>3146</ele>
        <time>2012-07-10T06:22:56Z</time>
      </trkpt>
      <trkpt lat="45.63818" lon="6.99811">
        <ele>3147</ele>
        <time>2012-07-10T06:23:01Z</time>
      </trkpt>
      <trkpt lat="45.63818" lon="6.99812">
        <ele>3147</ele>
        <time>2012-07-10T06:23:06Z</time>
      </trkpt>
      <trkpt lat="45.63818" lon="6.99813">
        <ele>3147</ele>
        <time>2012-07-10T06:23:11Z</time>
      </trkpt>
      <trkpt lat="45.63817" lon="6.99813">
        <ele>3148</ele>
        <time>2012-07-10T06:23:16Z</time>
      </trkpt>
      <trkpt lat="45.63817" lon="6.99813">
        <ele>3148</ele>
        <time>2012-07-10T06:23:21Z</time>
      </trkpt>
      <trkpt lat="45.63818" lon="6.99814">
        <ele>3148</ele>
        <time>2012-07-10T06:23:26Z</time>
      </trkpt>
      <trkpt lat="45.63818" lon="6.99815">
        <ele>3149</ele>
        <time>2012-07-10T06:23:31Z</time>
      </trkpt>
      <trkpt lat="45.63818" lon="6.99815">
        <ele>3149</ele>
        <time>2012-07-10T06:23:36Z</time>
      </trkpt>
      <trkpt lat="45.63818" lon="6.99816">
        <ele>3150</ele>
        <time>2012-07-10T06:23:41Z</time>
      </trkpt>
      <trkpt lat="45.63818" lon="6.99817">
        <ele>3151</ele>
        <time>2012-07-10T06:23:46Z</time>
      </trkpt>
      <trkpt lat="45.63818" lon="6.99818">
        <ele>3151</ele>
        <time>2012-07-10T06:23:51Z</time>
      </trkpt>
      <trkpt lat="45.63818" lon="6.99819">
        <ele>3152</ele>
        <time>2012-07-10T06:23:56Z</time>
      </trkpt>
      <trkpt lat="45.63818" lon="6.9982">
        <ele>3152</ele>
        <time>2012-07-10T06:24:01Z</time>
      </trkpt>
      <trkpt lat="45.63818" lon="6.9982">
        <ele>3153</ele>
        <time>2012-07-10T06:24:06Z</time>
      </trkpt>
      <trkpt lat="45.63818" lon="6.99821">
        <ele>3154</ele>
        <time>2012-07-10T06:24:11Z</time>
      </trkpt>
      <trkpt lat="45.63819" lon="6.99822">
        <ele>3154</ele>
        <time>2012-07-10T06:24:16Z</time>
      </trkpt>
      <trkpt lat="45.63819" lon="6.99822">
        <ele>3155</ele>
        <time>2012-07-10T06:24:21Z</time>
      </trkpt>
      <trkpt lat="45.63819" lon="6.99823">
        <ele>3155</ele>
        <time>2012-07-10T06:24:26Z</time>
      </trkpt>
      <trkpt lat="45.63819" lon="6.99824">
        <ele>3155</ele>
        <time>2012-07-10T06:24:31Z</time>
      </trkpt>
      <trkpt lat="45.63819" lon="6.99825">
        <ele>3156</ele>
        <time>2012-07-10T06:24:36Z</time>
      </trkpt>
      <trkpt lat="45.63819" lon="6.99826">
        <ele>3156</ele>
        <time>2012-07-10T06:24:41Z</time>
      </trkpt>
      <trkpt lat="45.6382" lon="6.99827">
        <ele>3157</ele>
        <time>2012-07-10T06:24:46Z</time>
      </trkpt>
      <trkpt lat="45.6382" lon="6.99828">
        <ele>3158</ele>
        <time>2012-07-10T06:24:51Z</time>
      </trkpt>
      <trkpt lat="45.6382" lon="6.99829">
        <ele>3158</ele>
        <time>2012-07-10T06:24:56Z</time>
      </trkpt>
      <trkpt lat="45.6382" lon="6.9983">
        <ele>3159</ele>
        <time>2012-07-10T06:25:01Z</time>
      </trkpt>
      <trkpt lat="45.6382" lon="6.99831">
        <ele>3159</ele>
        <time>2012-07-10T06:25:06Z</time>
      </trkpt>
      <trkpt lat="45.6382" lon="6.99832">
        <ele>3159</ele>
        <time>2012-07-10T06:25:11Z</time>
      </trkpt>
      <trkpt lat="45.6382" lon="6.99832">
        <ele>3160</ele>
        <time>2012-07-10T06:25:16Z</time>
      </trkpt>
      <trkpt lat="45.6382" lon="6.99833">
        <ele>3161</ele>
        <time>2012-07-10T06:25:21Z</time>
      </trkpt>
      <trkpt lat="45.6382" lon="6.99834">
        <ele>3161</ele>
        <time>2012-07-10T06:25:26Z</time>
      </trkpt>
      <trkpt lat="45.6382" lon="6.99835">
        <ele>3162</ele>
        <time>2012-07-10T06:25:31Z</time>
      </trkpt>
      <trkpt lat="45.6382" lon="6.99836">
        <ele>3162</ele>
        <time>2012-07-10T06:25:36Z</time>
      </trkpt>
      <trkpt lat="45.6382" lon="6.99836">
        <ele>3162</ele>
        <time>2012-07-10T06:25:41Z</time>
      </trkpt>
      <trkpt lat="45.6382" lon="6.99837">
        <ele>3162</ele>
        <time>2012-07-10T06:25:46Z</time>
      </trkpt>
      <trkpt lat="45.6382" lon="6.99838">
        <ele>3163</ele>
        <time>2012-07-10T06:25:51Z</time>
      </trkpt>
      <trkpt lat="45.6382" lon="6.99839">
        <ele>3164</ele>
        <time>2012-07-10T06:25:56Z</time>
      </trkpt>
      <trkpt lat="45.63819" lon="6.99839">
        <ele>3164</ele>
        <time>2012-07-10T06:26:01Z</time>
      </trkpt>
      <trkpt lat="45.63819" lon="6.99841">
        <ele>3165</ele>
        <time>2012-07-10T06:26:06Z</time>
      </trkpt>
      <trkpt lat="45.63819" lon="6.99842">
        <ele>3166</ele>
        <time>2012-07-10T06:26:11Z</time>
      </trkpt>
      <trkpt lat="45.6382" lon="6.99843">
        <ele>3167</ele>
        <time>2012-07-10T06:26:16Z</time>
      </trkpt>
      <trkpt lat="45.6382" lon="6.99844">
        <ele>3168</ele>
        <time>2012-07-10T06:26:21Z</time>
      </trkpt>
      <trkpt lat="45.63819" lon="6.99845">
        <ele>3169</ele>
        <time>2012-07-10T06:26:26Z</time>
      </trkpt>
      <trkpt lat="45.63819" lon="6.99847">
        <ele>3170</ele>
        <time>2012-07-10T06:26:31Z</time>
      </trkpt>
      <trkpt lat="45.63819" lon="6.99847">
        <ele>3171</ele>
        <time>2012-07-10T06:26:36Z</time>
      </trkpt>
      <trkpt lat="45.63819" lon="6.99848">
        <ele>3171</ele>
        <time>2012-07-10T06:26:41Z</time>
      </trkpt>
      <trkpt lat="45.63819" lon="6.99849">
        <ele>3171</ele>
        <time>2012-07-10T06:26:46Z</time>
      </trkpt>
      <trkpt lat="45.63819" lon="6.9985">
        <ele>3171</ele>
        <time>2012-07-10T06:26:51Z</time>
      </trkpt>
      <trkpt lat="45.63819" lon="6.99851">
        <ele>3171</ele>
        <time>2012-07-10T06:26:56Z</time>
      </trkpt>
      <trkpt lat="45.63819" lon="6.99852">
        <ele>3172</ele>
        <time>2012-07-10T06:27:01Z</time>
      </trkpt>
      <trkpt lat="45.63819" lon="6.99853">
        <ele>3172</ele>
        <time>2012-07-10T06:27:06Z</time>
      </trkpt>
      <trkpt lat="45.63818" lon="6.99854">
        <ele>3173</ele>
        <time>2012-07-10T06:27:11Z</time>
      </trkpt>
      <trkpt lat="45.63818" lon="6.99855">
        <ele>3173</ele>
        <time>2012-07-10T06:27:16Z</time>
      </trkpt>
      <trkpt lat="45.63818" lon="6.99856">
        <ele>3174</ele>
        <time>2012-07-10T06:27:21Z</time>
      </trkpt>
      <trkpt lat="45.63818" lon="6.99857">
        <ele>3174</ele>
        <time>2012-07-10T06:27:26Z</time>
      </trkpt>
      <trkpt lat="45.63818" lon="6.99857">
        <ele>3173</ele>
        <time>2012-07-10T06:27:31Z</time>
      </trkpt>
      <trkpt lat="45.63818" lon="6.99857">
        <ele>3174</ele>
        <time>2012-07-10T06:27:36Z</time>
      </trkpt>
      <trkpt lat="45.63818" lon="6.99859">
        <ele>3174</ele>
        <time>2012-07-10T06:27:41Z</time>
      </trkpt>
      <trkpt lat="45.63818" lon="6.99859">
        <ele>3175</ele>
        <time>2012-07-10T06:27:46Z</time>
      </trkpt>
      <trkpt lat="45.63818" lon="6.99861">
        <ele>3177</ele>
        <time>2012-07-10T06:27:51Z</time>
      </trkpt>
      <trkpt lat="45.63818" lon="6.99862">
        <ele>3178</ele>
        <time>2012-07-10T06:27:56Z</time>
      </trkpt>
      <trkpt lat="45.63819" lon="6.99863">
        <ele>3178</ele>
        <time>2012-07-10T06:28:01Z</time>
      </trkpt>
      <trkpt lat="45.63818" lon="6.99864">
        <ele>3179</ele>
        <time>2012-07-10T06:28:06Z</time>
      </trkpt>
      <trkpt lat="45.63819" lon="6.99864">
        <ele>3179</ele>
        <time>2012-07-10T06:28:11Z</time>
      </trkpt>
      <trkpt lat="45.63818" lon="6.99865">
        <ele>3179</ele>
        <time>2012-07-10T06:28:16Z</time>
      </trkpt>
      <trkpt lat="45.63818" lon="6.99866">
        <ele>3179</ele>
        <time>2012-07-10T06:28:21Z</time>
      </trkpt>
      <trkpt lat="45.63818" lon="6.99866">
        <ele>3180</ele>
        <time>2012-07-10T06:28:26Z</time>
      </trkpt>
      <trkpt lat="45.63818" lon="6.99867">
        <ele>3181</ele>
        <time>2012-07-10T06:28:31Z</time>
      </trkpt>
      <trkpt lat="45.63818" lon="6.99868">
        <ele>3182</ele>
        <time>2012-07-10T06:28:36Z</time>
      </trkpt>
      <trkpt lat="45.63818" lon="6.99869">
        <ele>3182</ele>
        <time>2012-07-10T06:28:41Z</time>
      </trkpt>
      <trkpt lat="45.63818" lon="6.9987">
        <ele>3183</ele>
        <time>2012-07-10T06:28:46Z</time>
      </trkpt>
      <trkpt lat="45.63818" lon="6.99871">
        <ele>3184</ele>
        <time>2012-07-10T06:28:51Z</time>
      </trkpt>
      <trkpt lat="45.63817" lon="6.99872">
        <ele>3184</ele>
        <time>2012-07-10T06:28:56Z</time>
      </trkpt>
      <trkpt lat="45.63817" lon="6.99873">
        <ele>3184</ele>
        <time>2012-07-10T06:29:01Z</time>
      </trkpt>
      <trkpt lat="45.63816" lon="6.99873">
        <ele>3184</ele>
        <time>2012-07-10T06:29:06Z</time>
      </trkpt>
      <trkpt lat="45.63815" lon="6.99875">
        <ele>3185</ele>
        <time>2012-07-10T06:29:11Z</time>
      </trkpt>
      <trkpt lat="45.63815" lon="6.99875">
        <ele>3185</ele>
        <time>2012-07-10T06:29:16Z</time>
      </trkpt>
      <trkpt lat="45.63815" lon="6.99875">
        <ele>3185</ele>
        <time>2012-07-10T06:29:21Z</time>
      </trkpt>
      <trkpt lat="45.63815" lon="6.99875">
        <ele>3185</ele>
        <time>2012-07-10T06:29:26Z</time>
      </trkpt>
      <trkpt lat="45.63815" lon="6.99875">
        <ele>3185</ele>
        <time>2012-07-10T06:29:31Z</time>
      </trkpt>
      <trkpt lat="45.63815" lon="6.99875">
        <ele>3184</ele>
        <time>2012-07-10T06:29:36Z</time>
      </trkpt>
      <trkpt lat="45.63815" lon="6.99875">
        <ele>3184</ele>
        <time>2012-07-10T06:29:41Z</time>
      </trkpt>
      <trkpt lat="45.63815" lon="6.99875">
        <ele>3184</ele>
        <time>2012-07-10T06:29:46Z</time>
      </trkpt>
      <trkpt lat="45.63815" lon="6.99874">
        <ele>3184</ele>
        <time>2012-07-10T06:29:51Z</time>
      </trkpt>
      <trkpt lat="45.63815" lon="6.99874">
        <ele>3184</ele>
        <time>2012-07-10T06:29:56Z</time>
      </trkpt>
      <trkpt lat="45.63815" lon="6.99874">
        <ele>3184</ele>
        <time>2012-07-10T06:30:01Z</time>
      </trkpt>
      <trkpt lat="45.63815" lon="6.99874">
        <ele>3184</ele>
        <time>2012-07-10T06:30:06Z</time>
      </trkpt>
      <trkpt lat="45.63815" lon="6.99875">
        <ele>3184</ele>
        <time>2012-07-10T06:30:11Z</time>
      </trkpt>
      <trkpt lat="45.63814" lon="6.99874">
        <ele>3184</ele>
        <time>2012-07-10T06:30:16Z</time>
      </trkpt>
      <trkpt lat="45.63814" lon="6.99874">
        <ele>3184</ele>
        <time>2012-07-10T06:30:21Z</time>
      </trkpt>
      <trkpt lat="45.63815" lon="6.99874">
        <ele>3184</ele>
        <time>2012-07-10T06:30:26Z</time>
      </trkpt>
      <trkpt lat="45.63815" lon="6.99876">
        <ele>3185</ele>
        <time>2012-07-10T06:30:31Z</time>
      </trkpt>
      <trkpt lat="45.63815" lon="6.99877">
        <ele>3186</ele>
        <time>2012-07-10T06:30:36Z</time>
      </trkpt>
      <trkpt lat="45.63816" lon="6.99878">
        <ele>3186</ele>
        <time>2012-07-10T06:30:41Z</time>
      </trkpt>
      <trkpt lat="45.63816" lon="6.99879">
        <ele>3187</ele>
        <time>2012-07-10T06:30:46Z</time>
      </trkpt>
      <trkpt lat="45.63816" lon="6.9988">
        <ele>3188</ele>
        <time>2012-07-10T06:30:51Z</time>
      </trkpt>
      <trkpt lat="45.63816" lon="6.99881">
        <ele>3188</ele>
        <time>2012-07-10T06:30:56Z</time>
      </trkpt>
      <trkpt lat="45.63817" lon="6.99882">
        <ele>3189</ele>
        <time>2012-07-10T06:31:01Z</time>
      </trkpt>
      <trkpt lat="45.63817" lon="6.99883">
        <ele>3190</ele>
        <time>2012-07-10T06:31:06Z</time>
      </trkpt>
      <trkpt lat="45.63817" lon="6.99884">
        <ele>3191</ele>
        <time>2012-07-10T06:31:11Z</time>
      </trkpt>
      <trkpt lat="45.63818" lon="6.99884">
        <ele>3191</ele>
        <time>2012-07-10T06:31:16Z</time>
      </trkpt>
      <trkpt lat="45.63819" lon="6.99885">
        <ele>3192</ele>
        <time>2012-07-10T06:31:21Z</time>
      </trkpt>
      <trkpt lat="45.63819" lon="6.99886">
        <ele>3193</ele>
        <time>2012-07-10T06:31:26Z</time>
      </trkpt>
      <trkpt lat="45.63819" lon="6.99887">
        <ele>3193</ele>
        <time>2012-07-10T06:31:31Z</time>
      </trkpt>
      <trkpt lat="45.6382" lon="6.99888">
        <ele>3194</ele>
        <time>2012-07-10T06:31:36Z</time>
      </trkpt>
      <trkpt lat="45.6382" lon="6.99889">
        <ele>3195</ele>
        <time>2012-07-10T06:31:41Z</time>
      </trkpt>
      <trkpt lat="45.6382" lon="6.9989">
        <ele>3196</ele>
        <time>2012-07-10T06:31:46Z</time>
      </trkpt>
      <trkpt lat="45.63821" lon="6.9989">
        <ele>3196</ele>
        <time>2012-07-10T06:31:51Z</time>
      </trkpt>
      <trkpt lat="45.63822" lon="6.99891">
        <ele>3197</ele>
        <time>2012-07-10T06:31:56Z</time>
      </trkpt>
      <trkpt lat="45.63822" lon="6.99892">
        <ele>3197</ele>
        <time>2012-07-10T06:32:01Z</time>
      </trkpt>
      <trkpt lat="45.63823" lon="6.99892">
        <ele>3198</ele>
        <time>2012-07-10T06:32:06Z</time>
      </trkpt>
      <trkpt lat="45.63824" lon="6.99893">
        <ele>3198</ele>
        <time>2012-07-10T06:32:11Z</time>
      </trkpt>
      <trkpt lat="45.63825" lon="6.99894">
        <ele>3199</ele>
        <time>2012-07-10T06:32:16Z</time>
      </trkpt>
      <trkpt lat="45.63825" lon="6.99895">
        <ele>3200</ele>
        <time>2012-07-10T06:32:21Z</time>
      </trkpt>
      <trkpt lat="45.63826" lon="6.99895">
        <ele>3200</ele>
        <time>2012-07-10T06:32:26Z</time>
      </trkpt>
      <trkpt lat="45.63827" lon="6.99896">
        <ele>3201</ele>
        <time>2012-07-10T06:32:31Z</time>
      </trkpt>
      <trkpt lat="45.63827" lon="6.99896">
        <ele>3201</ele>
        <time>2012-07-10T06:32:36Z</time>
      </trkpt>
      <trkpt lat="45.63828" lon="6.99897">
        <ele>3202</ele>
        <time>2012-07-10T06:32:41Z</time>
      </trkpt>
      <trkpt lat="45.63829" lon="6.99898">
        <ele>3203</ele>
        <time>2012-07-10T06:32:46Z</time>
      </trkpt>
      <trkpt lat="45.6383" lon="6.99899">
        <ele>3203</ele>
        <time>2012-07-10T06:32:51Z</time>
      </trkpt>
      <trkpt lat="45.6383" lon="6.99899">
        <ele>3204</ele>
        <time>2012-07-10T06:32:56Z</time>
      </trkpt>
      <trkpt lat="45.63831" lon="6.999">
        <ele>3204</ele>
        <time>2012-07-10T06:33:01Z</time>
      </trkpt>
      <trkpt lat="45.63833" lon="6.99901">
        <ele>3205</ele>
        <time>2012-07-10T06:33:06Z</time>
      </trkpt>
      <trkpt lat="45.63833" lon="6.99902">
        <ele>3206</ele>
        <time>2012-07-10T06:33:11Z</time>
      </trkpt>
      <trkpt lat="45.63834" lon="6.99902">
        <ele>3206</ele>
        <time>2012-07-10T06:33:16Z</time>
      </trkpt>
      <trkpt lat="45.63834" lon="6.99903">
        <ele>3207</ele>
        <time>2012-07-10T06:33:21Z</time>
      </trkpt>
      <trkpt lat="45.63836" lon="6.99904">
        <ele>3207</ele>
        <time>2012-07-10T06:33:26Z</time>
      </trkpt>
      <trkpt lat="45.63837" lon="6.99904">
        <ele>3208</ele>
        <time>2012-07-10T06:33:31Z</time>
      </trkpt>
      <trkpt lat="45.63838" lon="6.99905">
        <ele>3209</ele>
        <time>2012-07-10T06:33:36Z</time>
      </trkpt>
      <trkpt lat="45.63838" lon="6.99906">
        <ele>3209</ele>
        <time>2012-07-10T06:33:41Z</time>
      </trkpt>
      <trkpt lat="45.63839" lon="6.99907">
        <ele>3210</ele>
        <time>2012-07-10T06:33:46Z</time>
      </trkpt>
      <trkpt lat="45.6384" lon="6.99908">
        <ele>3210</ele>
        <time>2012-07-10T06:33:51Z</time>
      </trkpt>
      <trkpt lat="45.63841" lon="6.99909">
        <ele>3211</ele>
        <time>2012-07-10T06:33:56Z</time>
      </trkpt>
      <trkpt lat="45.63842" lon="6.9991">
        <ele>3211</ele>
        <time>2012-07-10T06:34:01Z</time>
      </trkpt>
      <trkpt lat="45.63843" lon="6.99911">
        <ele>3212</ele>
        <time>2012-07-10T06:34:06Z</time>
      </trkpt>
      <trkpt lat="45.63844" lon="6.99911">
        <ele>3213</ele>
        <time>2012-07-10T06:34:11Z</time>
      </trkpt>
      <trkpt lat="45.63845" lon="6.99912">
        <ele>3213</ele>
        <time>2012-07-10T06:34:16Z</time>
      </trkpt>
      <trkpt lat="45.63846" lon="6.99913">
        <ele>3214</ele>
        <time>2012-07-10T06:34:21Z</time>
      </trkpt>
      <trkpt lat="45.63847" lon="6.99914">
        <ele>3215</ele>
        <time>2012-07-10T06:34:26Z</time>
      </trkpt>
      <trkpt lat="45.63848" lon="6.99915">
        <ele>3215</ele>
        <time>2012-07-10T06:34:31Z</time>
      </trkpt>
      <trkpt lat="45.63848" lon="6.99915">
        <ele>3216</ele>
        <time>2012-07-10T06:34:36Z</time>
      </trkpt>
      <trkpt lat="45.63848" lon="6.99915">
        <ele>3216</ele>
        <time>2012-07-10T06:34:41Z</time>
      </trkpt>
      <trkpt lat="45.63848" lon="6.99915">
        <ele>3216</ele>
        <time>2012-07-10T06:34:46Z</time>
      </trkpt>
      <trkpt lat="45.63848" lon="6.99915">
        <ele>3216</ele>
        <time>2012-07-10T06:34:51Z</time>
      </trkpt>
      <trkpt lat="45.63848" lon="6.99916">
        <ele>3216</ele>
        <time>2012-07-10T06:34:56Z</time>
      </trkpt>
      <trkpt lat="45.6385" lon="6.99916">
        <ele>3216</ele>
        <time>2012-07-10T06:35:01Z</time>
      </trkpt>
      <trkpt lat="45.63852" lon="6.99917">
        <ele>3217</ele>
        <time>2012-07-10T06:35:06Z</time>
      </trkpt>
      <trkpt lat="45.63853" lon="6.99918">
        <ele>3218</ele>
        <time>2012-07-10T06:35:11Z</time>
      </trkpt>
      <trkpt lat="45.63855" lon="6.99919">
        <ele>3218</ele>
        <time>2012-07-10T06:35:16Z</time>
      </trkpt>
      <trkpt lat="45.63856" lon="6.9992">
        <ele>3219</ele>
        <time>2012-07-10T06:35:21Z</time>
      </trkpt>
      <trkpt lat="45.63858" lon="6.99921">
        <ele>3219</ele>
        <time>2012-07-10T06:35:26Z</time>
      </trkpt>
      <trkpt lat="45.63859" lon="6.99922">
        <ele>3220</ele>
        <time>2012-07-10T06:35:31Z</time>
      </trkpt>
      <trkpt lat="45.6386" lon="6.99923">
        <ele>3221</ele>
        <time>2012-07-10T06:35:36Z</time>
      </trkpt>
      <trkpt lat="45.63862" lon="6.99924">
        <ele>3222</ele>
        <time>2012-07-10T06:35:41Z</time>
      </trkpt>
      <trkpt lat="45.63863" lon="6.99925">
        <ele>3222</ele>
        <time>2012-07-10T06:35:46Z</time>
      </trkpt>
      <trkpt lat="45.63864" lon="6.99926">
        <ele>3223</ele>
        <time>2012-07-10T06:35:51Z</time>
      </trkpt>
      <trkpt lat="45.63864" lon="6.99927">
        <ele>3224</ele>
        <time>2012-07-10T06:35:56Z</time>
      </trkpt>
      <trkpt lat="45.63865" lon="6.99929">
        <ele>3224</ele>
        <time>2012-07-10T06:36:01Z</time>
      </trkpt>
      <trkpt lat="45.63866" lon="6.9993">
        <ele>3225</ele>
        <time>2012-07-10T06:36:06Z</time>
      </trkpt>
      <trkpt lat="45.63867" lon="6.99931">
        <ele>3226</ele>
        <time>2012-07-10T06:36:11Z</time>
      </trkpt>
      <trkpt lat="45.63869" lon="6.99932">
        <ele>3226</ele>
        <time>2012-07-10T06:36:16Z</time>
      </trkpt>
      <trkpt lat="45.6387" lon="6.99933">
        <ele>3227</ele>
        <time>2012-07-10T06:36:21Z</time>
      </trkpt>
      <trkpt lat="45.63871" lon="6.99934">
        <ele>3228</ele>
        <time>2012-07-10T06:36:26Z</time>
      </trkpt>
      <trkpt lat="45.63871" lon="6.99934">
        <ele>3228</ele>
        <time>2012-07-10T06:36:31Z</time>
      </trkpt>
      <trkpt lat="45.63871" lon="6.99935">
        <ele>3228</ele>
        <time>2012-07-10T06:36:36Z</time>
      </trkpt>
      <trkpt lat="45.63871" lon="6.99934">
        <ele>3228</ele>
        <time>2012-07-10T06:36:41Z</time>
      </trkpt>
      <trkpt lat="45.63871" lon="6.99934">
        <ele>3228</ele>
        <time>2012-07-10T06:36:46Z</time>
      </trkpt>
      <trkpt lat="45.63871" lon="6.99934">
        <ele>3228</ele>
        <time>2012-07-10T06:36:51Z</time>
      </trkpt>
      <trkpt lat="45.63871" lon="6.99934">
        <ele>3228</ele>
        <time>2012-07-10T06:36:56Z</time>
      </trkpt>
      <trkpt lat="45.63871" lon="6.99934">
        <ele>3229</ele>
        <time>2012-07-10T06:37:01Z</time>
      </trkpt>
      <trkpt lat="45.63871" lon="6.99934">
        <ele>3229</ele>
        <time>2012-07-10T06:37:06Z</time>
      </trkpt>
      <trkpt lat="45.63871" lon="6.99934">
        <ele>3229</ele>
        <time>2012-07-10T06:37:11Z</time>
      </trkpt>
      <trkpt lat="45.63871" lon="6.99934">
        <ele>3229</ele>
        <time>2012-07-10T06:37:16Z</time>
      </trkpt>
      <trkpt lat="45.63871" lon="6.99934">
        <ele>3229</ele>
        <time>2012-07-10T06:37:21Z</time>
      </trkpt>
      <trkpt lat="45.63871" lon="6.99935">
        <ele>3229</ele>
        <time>2012-07-10T06:37:26Z</time>
      </trkpt>
      <trkpt lat="45.63872" lon="6.99935">
        <ele>3229</ele>
        <time>2012-07-10T06:37:31Z</time>
      </trkpt>
      <trkpt lat="45.63873" lon="6.99936">
        <ele>3230</ele>
        <time>2012-07-10T06:37:36Z</time>
      </trkpt>
      <trkpt lat="45.63873" lon="6.99938">
        <ele>3231</ele>
        <time>2012-07-10T06:37:41Z</time>
      </trkpt>
      <trkpt lat="45.63874" lon="6.99939">
        <ele>3231</ele>
        <time>2012-07-10T06:37:46Z</time>
      </trkpt>
      <trkpt lat="45.63875" lon="6.99941">
        <ele>3232</ele>
        <time>2012-07-10T06:37:51Z</time>
      </trkpt>
      <trkpt lat="45.63876" lon="6.99942">
        <ele>3232</ele>
        <time>2012-07-10T06:37:56Z</time>
      </trkpt>
      <trkpt lat="45.63877" lon="6.99943">
        <ele>3233</ele>
        <time>2012-07-10T06:38:01Z</time>
      </trkpt>
      <trkpt lat="45.63878" lon="6.99944">
        <ele>3234</ele>
        <time>2012-07-10T06:38:06Z</time>
      </trkpt>
      <trkpt lat="45.63879" lon="6.99945">
        <ele>3234</ele>
        <time>2012-07-10T06:38:11Z</time>
      </trkpt>
      <trkpt lat="45.63879" lon="6.99946">
        <ele>3235</ele>
        <time>2012-07-10T06:38:16Z</time>
      </trkpt>
      <trkpt lat="45.6388" lon="6.99947">
        <ele>3236</ele>
        <time>2012-07-10T06:38:21Z</time>
      </trkpt>
      <trkpt lat="45.63881" lon="6.99948">
        <ele>3236</ele>
        <time>2012-07-10T06:38:26Z</time>
      </trkpt>
      <trkpt lat="45.63881" lon="6.9995">
        <ele>3237</ele>
        <time>2012-07-10T06:38:31Z</time>
      </trkpt>
      <trkpt lat="45.63882" lon="6.99951">
        <ele>3238</ele>
        <time>2012-07-10T06:38:36Z</time>
      </trkpt>
      <trkpt lat="45.63882" lon="6.99952">
        <ele>3238</ele>
        <time>2012-07-10T06:38:41Z</time>
      </trkpt>
      <trkpt lat="45.63883" lon="6.99953">
        <ele>3239</ele>
        <time>2012-07-10T06:38:46Z</time>
      </trkpt>
      <trkpt lat="45.63884" lon="6.99955">
        <ele>3240</ele>
        <time>2012-07-10T06:38:51Z</time>
      </trkpt>
      <trkpt lat="45.63885" lon="6.99956">
        <ele>3240</ele>
        <time>2012-07-10T06:38:56Z</time>
      </trkpt>
      <trkpt lat="45.63886" lon="6.99957">
        <ele>3241</ele>
        <time>2012-07-10T06:39:01Z</time>
      </trkpt>
      <trkpt lat="45.63886" lon="6.99958">
        <ele>3242</ele>
        <time>2012-07-10T06:39:06Z</time>
      </trkpt>
      <trkpt lat="45.63887" lon="6.99958">
        <ele>3242</ele>
        <time>2012-07-10T06:39:11Z</time>
      </trkpt>
      <trkpt lat="45.63889" lon="6.9996">
        <ele>3243</ele>
        <time>2012-07-10T06:39:16Z</time>
      </trkpt>
      <trkpt lat="45.63889" lon="6.9996">
        <ele>3243</ele>
        <time>2012-07-10T06:39:21Z</time>
      </trkpt>
      <trkpt lat="45.63891" lon="6.99961">
        <ele>3244</ele>
        <time>2012-07-10T06:39:26Z</time>
      </trkpt>
      <trkpt lat="45.63891" lon="6.99962">
        <ele>3244</ele>
        <time>2012-07-10T06:39:31Z</time>
      </trkpt>
      <trkpt lat="45.63892" lon="6.99962">
        <ele>3245</ele>
        <time>2012-07-10T06:39:36Z</time>
      </trkpt>
      <trkpt lat="45.63893" lon="6.99963">
        <ele>3246</ele>
        <time>2012-07-10T06:39:41Z</time>
      </trkpt>
      <trkpt lat="45.63894" lon="6.99964">
        <ele>3246</ele>
        <time>2012-07-10T06:39:46Z</time>
      </trkpt>
      <trkpt lat="45.63895" lon="6.99965">
        <ele>3247</ele>
        <time>2012-07-10T06:39:51Z</time>
      </trkpt>
      <trkpt lat="45.63895" lon="6.99966">
        <ele>3248</ele>
        <time>2012-07-10T06:39:56Z</time>
      </trkpt>
      <trkpt lat="45.63896" lon="6.99968">
        <ele>3248</ele>
        <time>2012-07-10T06:40:01Z</time>
      </trkpt>
      <trkpt lat="45.63897" lon="6.99968">
        <ele>3249</ele>
        <time>2012-07-10T06:40:06Z</time>
      </trkpt>
      <trkpt lat="45.63899" lon="6.99969">
        <ele>3249</ele>
        <time>2012-07-10T06:40:11Z</time>
      </trkpt>
      <trkpt lat="45.639" lon="6.9997">
        <ele>3250</ele>
        <time>2012-07-10T06:40:16Z</time>
      </trkpt>
      <trkpt lat="45.63901" lon="6.9997">
        <ele>3251</ele>
        <time>2012-07-10T06:40:21Z</time>
      </trkpt>
      <trkpt lat="45.63902" lon="6.99971">
        <ele>3251</ele>
        <time>2012-07-10T06:40:26Z</time>
      </trkpt>
      <trkpt lat="45.63903" lon="6.99972">
        <ele>3252</ele>
        <time>2012-07-10T06:40:31Z</time>
      </trkpt>
      <trkpt lat="45.63904" lon="6.99972">
        <ele>3252</ele>
        <time>2012-07-10T06:40:36Z</time>
      </trkpt>
      <trkpt lat="45.63905" lon="6.99973">
        <ele>3253</ele>
        <time>2012-07-10T06:40:41Z</time>
      </trkpt>
      <trkpt lat="45.63905" lon="6.99974">
        <ele>3254</ele>
        <time>2012-07-10T06:40:46Z</time>
      </trkpt>
      <trkpt lat="45.63907" lon="6.99975">
        <ele>3254</ele>
        <time>2012-07-10T06:40:51Z</time>
      </trkpt>
      <trkpt lat="45.63908" lon="6.99975">
        <ele>3255</ele>
        <time>2012-07-10T06:40:56Z</time>
      </trkpt>
      <trkpt lat="45.6391" lon="6.99976">
        <ele>3255</ele>
        <time>2012-07-10T06:41:01Z</time>
      </trkpt>
      <trkpt lat="45.63911" lon="6.99976">
        <ele>3256</ele>
        <time>2012-07-10T06:41:06Z</time>
      </trkpt>
      <trkpt lat="45.63912" lon="6.99977">
        <ele>3256</ele>
        <time>2012-07-10T06:41:11Z</time>
      </trkpt>
      <trkpt lat="45.63912" lon="6.99978">
        <ele>3257</ele>
        <time>2012-07-10T06:41:16Z</time>
      </trkpt>
      <trkpt lat="45.63912" lon="6.99978">
        <ele>3257</ele>
        <time>2012-07-10T06:41:21Z</time>
      </trkpt>
      <trkpt lat="45.63912" lon="6.99978">
        <ele>3257</ele>
        <time>2012-07-10T06:41:26Z</time>
      </trkpt>
      <trkpt lat="45.63912" lon="6.99978">
        <ele>3257</ele>
        <time>2012-07-10T06:41:31Z</time>
      </trkpt>
      <trkpt lat="45.63912" lon="6.99978">
        <ele>3257</ele>
        <time>2012-07-10T06:41:36Z</time>
      </trkpt>
      <trkpt lat="45.63912" lon="6.99978">
        <ele>3257</ele>
        <time>2012-07-10T06:41:41Z</time>
      </trkpt>
      <trkpt lat="45.63912" lon="6.99978">
        <ele>3257</ele>
        <time>2012-07-10T06:41:46Z</time>
      </trkpt>
      <trkpt lat="45.63913" lon="6.99978">
        <ele>3257</ele>
        <time>2012-07-10T06:41:51Z</time>
      </trkpt>
      <trkpt lat="45.63915" lon="6.99979">
        <ele>3258</ele>
        <time>2012-07-10T06:41:56Z</time>
      </trkpt>
      <trkpt lat="45.63916" lon="6.99979">
        <ele>3258</ele>
        <time>2012-07-10T06:42:01Z</time>
      </trkpt>
      <trkpt lat="45.63918" lon="6.9998">
        <ele>3259</ele>
        <time>2012-07-10T06:42:06Z</time>
      </trkpt>
      <trkpt lat="45.63919" lon="6.9998">
        <ele>3259</ele>
        <time>2012-07-10T06:42:11Z</time>
      </trkpt>
      <trkpt lat="45.6392" lon="6.99982">
        <ele>3260</ele>
        <time>2012-07-10T06:42:16Z</time>
      </trkpt>
      <trkpt lat="45.63921" lon="6.99982">
        <ele>3261</ele>
        <time>2012-07-10T06:42:21Z</time>
      </trkpt>
      <trkpt lat="45.63922" lon="6.99983">
        <ele>3261</ele>
        <time>2012-07-10T06:42:26Z</time>
      </trkpt>
      <trkpt lat="45.63923" lon="6.99984">
        <ele>3262</ele>
        <time>2012-07-10T06:42:31Z</time>
      </trkpt>
      <trkpt lat="45.63924" lon="6.99985">
        <ele>3262</ele>
        <time>2012-07-10T06:42:36Z</time>
      </trkpt>
      <trkpt lat="45.63926" lon="6.99986">
        <ele>3263</ele>
        <time>2012-07-10T06:42:41Z</time>
      </trkpt>
      <trkpt lat="45.63927" lon="6.99987">
        <ele>3264</ele>
        <time>2012-07-10T06:42:46Z</time>
      </trkpt>
      <trkpt lat="45.63928" lon="6.99987">
        <ele>3264</ele>
        <time>2012-07-10T06:42:51Z</time>
      </trkpt>
      <trkpt lat="45.63929" lon="6.99988">
        <ele>3265</ele>
        <time>2012-07-10T06:42:56Z</time>
      </trkpt>
      <trkpt lat="45.6393" lon="6.99989">
        <ele>3265</ele>
        <time>2012-07-10T06:43:01Z</time>
      </trkpt>
      <trkpt lat="45.63931" lon="6.99989">
        <ele>3266</ele>
        <time>2012-07-10T06:43:06Z</time>
      </trkpt>
      <trkpt lat="45.63932" lon="6.9999">
        <ele>3267</ele>
        <time>2012-07-10T06:43:11Z</time>
      </trkpt>
      <trkpt lat="45.63933" lon="6.99991">
        <ele>3267</ele>
        <time>2012-07-10T06:43:16Z</time>
      </trkpt>
      <trkpt lat="45.63934" lon="6.99992">
        <ele>3268</ele>
        <time>2012-07-10T06:43:21Z</time>
      </trkpt>
      <trkpt lat="45.63936" lon="6.99993">
        <ele>3268</ele>
        <time>2012-07-10T06:43:26Z</time>
      </trkpt>
      <trkpt lat="45.63937" lon="6.99994">
        <ele>3269</ele>
        <time>2012-07-10T06:43:31Z</time>
      </trkpt>
      <trkpt lat="45.63938" lon="6.99994">
        <ele>3270</ele>
        <time>2012-07-10T06:43:36Z</time>
      </trkpt>
      <trkpt lat="45.63939" lon="6.99996">
        <ele>3270</ele>
        <time>2012-07-10T06:43:41Z</time>
      </trkpt>
      <trkpt lat="45.6394" lon="6.99996">
        <ele>3271</ele>
        <time>2012-07-10T06:43:46Z</time>
      </trkpt>
      <trkpt lat="45.63941" lon="6.99997">
        <ele>3271</ele>
        <time>2012-07-10T06:43:51Z</time>
      </trkpt>
      <trkpt lat="45.63942" lon="6.99998">
        <ele>3272</ele>
        <time>2012-07-10T06:43:56Z</time>
      </trkpt>
      <trkpt lat="45.63944" lon="6.99999">
        <ele>3272</ele>
        <time>2012-07-10T06:44:01Z</time>
      </trkpt>
      <trkpt lat="45.63945" lon="6.99999">
        <ele>3273</ele>
        <time>2012-07-10T06:44:06Z</time>
      </trkpt>
      <trkpt lat="45.63946" lon="7">
        <ele>3273</ele>
        <time>2012-07-10T06:44:11Z</time>
      </trkpt>
      <trkpt lat="45.63948" lon="7.00001">
        <ele>3274</ele>
        <time>2012-07-10T06:44:16Z</time>
      </trkpt>
      <trkpt lat="45.63949" lon="7.00002">
        <ele>3274</ele>
        <time>2012-07-10T06:44:21Z</time>
      </trkpt>
      <trkpt lat="45.6395" lon="7.00004">
        <ele>3275</ele>
        <time>2012-07-10T06:44:26Z</time>
      </trkpt>
      <trkpt lat="45.63952" lon="7.00004">
        <ele>3276</ele>
        <time>2012-07-10T06:44:31Z</time>
      </trkpt>
      <trkpt lat="45.63953" lon="7.00006">
        <ele>3276</ele>
        <time>2012-07-10T06:44:36Z</time>
      </trkpt>
      <trkpt lat="45.63954" lon="7.00006">
        <ele>3277</ele>
        <time>2012-07-10T06:44:41Z</time>
      </trkpt>
      <trkpt lat="45.63956" lon="7.00008">
        <ele>3277</ele>
        <time>2012-07-10T06:44:46Z</time>
      </trkpt>
      <trkpt lat="45.63957" lon="7.00009">
        <ele>3278</ele>
        <time>2012-07-10T06:44:51Z</time>
      </trkpt>
      <trkpt lat="45.63958" lon="7.00011">
        <ele>3278</ele>
        <time>2012-07-10T06:44:56Z</time>
      </trkpt>
      <trkpt lat="45.63959" lon="7.00013">
        <ele>3279</ele>
        <time>2012-07-10T06:45:01Z</time>
      </trkpt>
      <trkpt lat="45.6396" lon="7.00015">
        <ele>3280</ele>
        <time>2012-07-10T06:45:06Z</time>
      </trkpt>
      <trkpt lat="45.63961" lon="7.00016">
        <ele>3280</ele>
        <time>2012-07-10T06:45:11Z</time>
      </trkpt>
      <trkpt lat="45.63962" lon="7.00017">
        <ele>3281</ele>
        <time>2012-07-10T06:45:16Z</time>
      </trkpt>
      <trkpt lat="45.63963" lon="7.00019">
        <ele>3281</ele>
        <time>2012-07-10T06:45:21Z</time>
      </trkpt>
      <trkpt lat="45.63964" lon="7.0002">
        <ele>3282</ele>
        <time>2012-07-10T06:45:26Z</time>
      </trkpt>
      <trkpt lat="45.63966" lon="7.00022">
        <ele>3282</ele>
        <time>2012-07-10T06:45:31Z</time>
      </trkpt>
      <trkpt lat="45.63966" lon="7.00024">
        <ele>3283</ele>
        <time>2012-07-10T06:45:36Z</time>
      </trkpt>
      <trkpt lat="45.63968" lon="7.00026">
        <ele>3283</ele>
        <time>2012-07-10T06:45:41Z</time>
      </trkpt>
      <trkpt lat="45.63969" lon="7.00028">
        <ele>3284</ele>
        <time>2012-07-10T06:45:46Z</time>
      </trkpt>
      <trkpt lat="45.6397" lon="7.0003">
        <ele>3284</ele>
        <time>2012-07-10T06:45:51Z</time>
      </trkpt>
      <trkpt lat="45.63959" lon="7.00042">
        <ele>3280</ele>
        <time>2012-07-10T06:53:46Z</time>
      </trkpt>
      <trkpt lat="45.63959" lon="7.00042">
        <ele>3280</ele>
        <time>2012-07-10T06:53:51Z</time>
      </trkpt>
      <trkpt lat="45.63958" lon="7.00042">
        <ele>3280</ele>
        <time>2012-07-10T06:53:56Z</time>
      </trkpt>
      <trkpt lat="45.63959" lon="7.00041">
        <ele>3281</ele>
        <time>2012-07-10T06:54:01Z</time>
      </trkpt>
      <trkpt lat="45.63959" lon="7.0004">
        <ele>3281</ele>
        <time>2012-07-10T06:54:06Z</time>
      </trkpt>
      <trkpt lat="45.63959" lon="7.00039">
        <ele>3281</ele>
        <time>2012-07-10T06:54:11Z</time>
      </trkpt>
      <trkpt lat="45.63959" lon="7.00039">
        <ele>3281</ele>
        <time>2012-07-10T06:54:16Z</time>
      </trkpt>
      <trkpt lat="45.6396" lon="7.00039">
        <ele>3281</ele>
        <time>2012-07-10T06:54:21Z</time>
      </trkpt>
      <trkpt lat="45.6396" lon="7.0004">
        <ele>3281</ele>
        <time>2012-07-10T06:54:26Z</time>
      </trkpt>
      <trkpt lat="45.63958" lon="7.00044">
        <ele>3281</ele>
        <time>2012-07-10T06:54:31Z</time>
      </trkpt>
      <trkpt lat="45.63956" lon="7.00048">
        <ele>3281</ele>
        <time>2012-07-10T06:54:36Z</time>
      </trkpt>
      <trkpt lat="45.63954" lon="7.00051">
        <ele>3281</ele>
        <time>2012-07-10T06:54:41Z</time>
      </trkpt>
      <trkpt lat="45.63952" lon="7.00055">
        <ele>3282</ele>
        <time>2012-07-10T06:54:46Z</time>
      </trkpt>
      <trkpt lat="45.6395" lon="7.00058">
        <ele>3282</ele>
        <time>2012-07-10T06:54:51Z</time>
      </trkpt>
      <trkpt lat="45.63949" lon="7.00061">
        <ele>3282</ele>
        <time>2012-07-10T06:54:56Z</time>
      </trkpt>
      <trkpt lat="45.63947" lon="7.00064">
        <ele>3283</ele>
        <time>2012-07-10T06:55:01Z</time>
      </trkpt>
      <trkpt lat="45.63945" lon="7.00067">
        <ele>3283</ele>
        <time>2012-07-10T06:55:06Z</time>
      </trkpt>
      <trkpt lat="45.63944" lon="7.00071">
        <ele>3284</ele>
        <time>2012-07-10T06:55:11Z</time>
      </trkpt>
      <trkpt lat="45.63942" lon="7.00074">
        <ele>3284</ele>
        <time>2012-07-10T06:55:16Z</time>
      </trkpt>
      <trkpt lat="45.63941" lon="7.00076">
        <ele>3285</ele>
        <time>2012-07-10T06:55:21Z</time>
      </trkpt>
      <trkpt lat="45.63941" lon="7.00078">
        <ele>3285</ele>
        <time>2012-07-10T06:55:26Z</time>
      </trkpt>
      <trkpt lat="45.63939" lon="7.00081">
        <ele>3285</ele>
        <time>2012-07-10T06:55:31Z</time>
      </trkpt>
      <trkpt lat="45.63938" lon="7.00083">
        <ele>3286</ele>
        <time>2012-07-10T06:55:36Z</time>
      </trkpt>
      <trkpt lat="45.63936" lon="7.00087">
        <ele>3286</ele>
        <time>2012-07-10T06:55:41Z</time>
      </trkpt>
      <trkpt lat="45.63934" lon="7.0009">
        <ele>3287</ele>
        <time>2012-07-10T06:55:46Z</time>
      </trkpt>
      <trkpt lat="45.63933" lon="7.00093">
        <ele>3287</ele>
        <time>2012-07-10T06:55:51Z</time>
      </trkpt>
      <trkpt lat="45.63932" lon="7.00097">
        <ele>3287</ele>
        <time>2012-07-10T06:55:56Z</time>
      </trkpt>
      <trkpt lat="45.63931" lon="7.001">
        <ele>3287</ele>
        <time>2012-07-10T06:56:01Z</time>
      </trkpt>
      <trkpt lat="45.63929" lon="7.00104">
        <ele>3287</ele>
        <time>2012-07-10T06:56:06Z</time>
      </trkpt>
      <trkpt lat="45.63928" lon="7.00107">
        <ele>3287</ele>
        <time>2012-07-10T06:56:11Z</time>
      </trkpt>
      <trkpt lat="45.63927" lon="7.00111">
        <ele>3287</ele>
        <time>2012-07-10T06:56:16Z</time>
      </trkpt>
      <trkpt lat="45.63925" lon="7.00115">
        <ele>3288</ele>
        <time>2012-07-10T06:56:21Z</time>
      </trkpt>
      <trkpt lat="45.63924" lon="7.00119">
        <ele>3288</ele>
        <time>2012-07-10T06:56:26Z</time>
      </trkpt>
      <trkpt lat="45.63923" lon="7.00123">
        <ele>3288</ele>
        <time>2012-07-10T06:56:31Z</time>
      </trkpt>
      <trkpt lat="45.63921" lon="7.00127">
        <ele>3288</ele>
        <time>2012-07-10T06:56:36Z</time>
      </trkpt>
      <trkpt lat="45.6392" lon="7.0013">
        <ele>3289</ele>
        <time>2012-07-10T06:56:41Z</time>
      </trkpt>
      <trkpt lat="45.63918" lon="7.00134">
        <ele>3289</ele>
        <time>2012-07-10T06:56:46Z</time>
      </trkpt>
      <trkpt lat="45.63917" lon="7.00138">
        <ele>3289</ele>
        <time>2012-07-10T06:56:51Z</time>
      </trkpt>
      <trkpt lat="45.63915" lon="7.00142">
        <ele>3289</ele>
        <time>2012-07-10T06:56:56Z</time>
      </trkpt>
      <trkpt lat="45.63914" lon="7.00146">
        <ele>3289</ele>
        <time>2012-07-10T06:57:01Z</time>
      </trkpt>
      <trkpt lat="45.63912" lon="7.0015">
        <ele>3289</ele>
        <time>2012-07-10T06:57:06Z</time>
      </trkpt>
      <trkpt lat="45.63911" lon="7.00154">
        <ele>3289</ele>
        <time>2012-07-10T06:57:11Z</time>
      </trkpt>
      <trkpt lat="45.63908" lon="7.00157">
        <ele>3289</ele>
        <time>2012-07-10T06:57:16Z</time>
      </trkpt>
      <trkpt lat="45.63906" lon="7.00159">
        <ele>3289</ele>
        <time>2012-07-10T06:57:21Z</time>
      </trkpt>
      <trkpt lat="45.63905" lon="7.00164">
        <ele>3289</ele>
        <time>2012-07-10T06:57:26Z</time>
      </trkpt>
      <trkpt lat="45.63903" lon="7.00166">
        <ele>3289</ele>
        <time>2012-07-10T06:57:31Z</time>
      </trkpt>
      <trkpt lat="45.639" lon="7.00169">
        <ele>3289</ele>
        <time>2012-07-10T06:57:36Z</time>
      </trkpt>
      <trkpt lat="45.63898" lon="7.00172">
        <ele>3288</ele>
        <time>2012-07-10T06:57:41Z</time>
      </trkpt>
      <trkpt lat="45.63895" lon="7.00175">
        <ele>3288</ele>
        <time>2012-07-10T06:57:46Z</time>
      </trkpt>
      <trkpt lat="45.63894" lon="7.00178">
        <ele>3289</ele>
        <time>2012-07-10T06:57:51Z</time>
      </trkpt>
      <trkpt lat="45.63892" lon="7.0018">
        <ele>3289</ele>
        <time>2012-07-10T06:57:56Z</time>
      </trkpt>
      <trkpt lat="45.63889" lon="7.00182">
        <ele>3289</ele>
        <time>2012-07-10T06:58:01Z</time>
      </trkpt>
      <trkpt lat="45.63887" lon="7.00184">
        <ele>3289</ele>
        <time>2012-07-10T06:58:06Z</time>
      </trkpt>
      <trkpt lat="45.63886" lon="7.00186">
        <ele>3289</ele>
        <time>2012-07-10T06:58:11Z</time>
      </trkpt>
      <trkpt lat="45.63884" lon="7.00188">
        <ele>3290</ele>
        <time>2012-07-10T06:58:16Z</time>
      </trkpt>
      <trkpt lat="45.63882" lon="7.0019">
        <ele>3290</ele>
        <time>2012-07-10T06:58:21Z</time>
      </trkpt>
      <trkpt lat="45.63879" lon="7.00192">
        <ele>3290</ele>
        <time>2012-07-10T06:58:26Z</time>
      </trkpt>
      <trkpt lat="45.63877" lon="7.00194">
        <ele>3290</ele>
        <time>2012-07-10T06:58:31Z</time>
      </trkpt>
      <trkpt lat="45.63875" lon="7.00195">
        <ele>3290</ele>
        <time>2012-07-10T06:58:36Z</time>
      </trkpt>
      <trkpt lat="45.63872" lon="7.00197">
        <ele>3290</ele>
        <time>2012-07-10T06:58:41Z</time>
      </trkpt>
      <trkpt lat="45.63869" lon="7.00198">
        <ele>3290</ele>
        <time>2012-07-10T06:58:46Z</time>
      </trkpt>
      <trkpt lat="45.63867" lon="7.002">
        <ele>3290</ele>
        <time>2012-07-10T06:58:51Z</time>
      </trkpt>
      <trkpt lat="45.63864" lon="7.00201">
        <ele>3290</ele>
        <time>2012-07-10T06:58:56Z</time>
      </trkpt>
      <trkpt lat="45.63862" lon="7.00202">
        <ele>3290</ele>
        <time>2012-07-10T06:59:01Z</time>
      </trkpt>
      <trkpt lat="45.6386" lon="7.00203">
        <ele>3291</ele>
        <time>2012-07-10T06:59:06Z</time>
      </trkpt>
      <trkpt lat="45.63857" lon="7.00205">
        <ele>3291</ele>
        <time>2012-07-10T06:59:11Z</time>
      </trkpt>
      <trkpt lat="45.63855" lon="7.00206">
        <ele>3291</ele>
        <time>2012-07-10T06:59:16Z</time>
      </trkpt>
      <trkpt lat="45.63853" lon="7.00207">
        <ele>3291</ele>
        <time>2012-07-10T06:59:21Z</time>
      </trkpt>
      <trkpt lat="45.63851" lon="7.00208">
        <ele>3291</ele>
        <time>2012-07-10T06:59:26Z</time>
      </trkpt>
      <trkpt lat="45.63849" lon="7.00209">
        <ele>3291</ele>
        <time>2012-07-10T06:59:31Z</time>
      </trkpt>
      <trkpt lat="45.63846" lon="7.00211">
        <ele>3291</ele>
        <time>2012-07-10T06:59:36Z</time>
      </trkpt>
      <trkpt lat="45.63844" lon="7.00212">
        <ele>3291</ele>
        <time>2012-07-10T06:59:41Z</time>
      </trkpt>
      <trkpt lat="45.63842" lon="7.00214">
        <ele>3292</ele>
        <time>2012-07-10T06:59:46Z</time>
      </trkpt>
      <trkpt lat="45.63839" lon="7.00216">
        <ele>3292</ele>
        <time>2012-07-10T06:59:51Z</time>
      </trkpt>
      <trkpt lat="45.63837" lon="7.00217">
        <ele>3292</ele>
        <time>2012-07-10T06:59:56Z</time>
      </trkpt>
      <trkpt lat="45.63834" lon="7.00219">
        <ele>3292</ele>
        <time>2012-07-10T07:00:01Z</time>
      </trkpt>
      <trkpt lat="45.63832" lon="7.00221">
        <ele>3292</ele>
        <time>2012-07-10T07:00:06Z</time>
      </trkpt>
      <trkpt lat="45.6383" lon="7.00222">
        <ele>3292</ele>
        <time>2012-07-10T07:00:11Z</time>
      </trkpt>
      <trkpt lat="45.63829" lon="7.00224">
        <ele>3292</ele>
        <time>2012-07-10T07:00:16Z</time>
      </trkpt>
      <trkpt lat="45.63829" lon="7.00224">
        <ele>3292</ele>
        <time>2012-07-10T07:00:21Z</time>
      </trkpt>
      <trkpt lat="45.63829" lon="7.00224">
        <ele>3293</ele>
        <time>2012-07-10T07:00:26Z</time>
      </trkpt>
      <trkpt lat="45.63822" lon="7.00219">
        <ele>3290</ele>
        <time>2012-07-10T07:08:36Z</time>
      </trkpt>
      <trkpt lat="45.63822" lon="7.00219">
        <ele>3290</ele>
        <time>2012-07-10T07:08:41Z</time>
      </trkpt>
      <trkpt lat="45.63819" lon="7.0022">
        <ele>3290</ele>
        <time>2012-07-10T07:08:46Z</time>
      </trkpt>
      <trkpt lat="45.63816" lon="7.00221">
        <ele>3290</ele>
        <time>2012-07-10T07:08:51Z</time>
      </trkpt>
      <trkpt lat="45.63813" lon="7.00222">
        <ele>3291</ele>
        <time>2012-07-10T07:08:56Z</time>
      </trkpt>
      <trkpt lat="45.6381" lon="7.00223">
        <ele>3291</ele>
        <time>2012-07-10T07:09:01Z</time>
      </trkpt>
      <trkpt lat="45.63807" lon="7.00224">
        <ele>3291</ele>
        <time>2012-07-10T07:09:06Z</time>
      </trkpt>
      <trkpt lat="45.63804" lon="7.00224">
        <ele>3291</ele>
        <time>2012-07-10T07:09:11Z</time>
      </trkpt>
      <trkpt lat="45.63801" lon="7.00223">
        <ele>3292</ele>
        <time>2012-07-10T07:09:16Z</time>
      </trkpt>
      <trkpt lat="45.63799" lon="7.00222">
        <ele>3292</ele>
        <time>2012-07-10T07:09:21Z</time>
      </trkpt>
      <trkpt lat="45.63796" lon="7.00221">
        <ele>3292</ele>
        <time>2012-07-10T07:09:26Z</time>
      </trkpt>
      <trkpt lat="45.63793" lon="7.00223">
        <ele>3292</ele>
        <time>2012-07-10T07:09:31Z</time>
      </trkpt>
      <trkpt lat="45.63792" lon="7.00223">
        <ele>3292</ele>
        <time>2012-07-10T07:09:36Z</time>
      </trkpt>
      <trkpt lat="45.63792" lon="7.00223">
        <ele>3292</ele>
        <time>2012-07-10T07:09:41Z</time>
      </trkpt>
      <trkpt lat="45.63792" lon="7.00223">
        <ele>3292</ele>
        <time>2012-07-10T07:09:46Z</time>
      </trkpt>
      <trkpt lat="45.63792" lon="7.00223">
        <ele>3292</ele>
        <time>2012-07-10T07:09:51Z</time>
      </trkpt>
      <trkpt lat="45.63792" lon="7.00223">
        <ele>3292</ele>
        <time>2012-07-10T07:09:56Z</time>
      </trkpt>
      <trkpt lat="45.63792" lon="7.00223">
        <ele>3292</ele>
        <time>2012-07-10T07:10:01Z</time>
      </trkpt>
      <trkpt lat="45.63792" lon="7.00223">
        <ele>3291</ele>
        <time>2012-07-10T07:10:06Z</time>
      </trkpt>
      <trkpt lat="45.63792" lon="7.00223">
        <ele>3291</ele>
        <time>2012-07-10T07:10:11Z</time>
      </trkpt>
      <trkpt lat="45.63792" lon="7.00223">
        <ele>3291</ele>
        <time>2012-07-10T07:10:16Z</time>
      </trkpt>
      <trkpt lat="45.63791" lon="7.00223">
        <ele>3291</ele>
        <time>2012-07-10T07:10:21Z</time>
      </trkpt>
      <trkpt lat="45.63791" lon="7.00223">
        <ele>3291</ele>
        <time>2012-07-10T07:10:26Z</time>
      </trkpt>
      <trkpt lat="45.63791" lon="7.00223">
        <ele>3292</ele>
        <time>2012-07-10T07:10:31Z</time>
      </trkpt>
      <trkpt lat="45.63791" lon="7.00223">
        <ele>3292</ele>
        <time>2012-07-10T07:10:36Z</time>
      </trkpt>
      <trkpt lat="45.63792" lon="7.00222">
        <ele>3292</ele>
        <time>2012-07-10T07:10:41Z</time>
      </trkpt>
      <trkpt lat="45.63792" lon="7.00222">
        <ele>3292</ele>
        <time>2012-07-10T07:10:46Z</time>
      </trkpt>
      <trkpt lat="45.63791" lon="7.00223">
        <ele>3292</ele>
        <time>2012-07-10T07:10:51Z</time>
      </trkpt>
      <trkpt lat="45.63788" lon="7.00224">
        <ele>3293</ele>
        <time>2012-07-10T07:10:56Z</time>
      </trkpt>
      <trkpt lat="45.63785" lon="7.00226">
        <ele>3293</ele>
        <time>2012-07-10T07:11:01Z</time>
      </trkpt>
      <trkpt lat="45.63782" lon="7.00227">
        <ele>3293</ele>
        <time>2012-07-10T07:11:06Z</time>
      </trkpt>
      <trkpt lat="45.6378" lon="7.00229">
        <ele>3293</ele>
        <time>2012-07-10T07:11:11Z</time>
      </trkpt>
      <trkpt lat="45.63776" lon="7.0023">
        <ele>3293</ele>
        <time>2012-07-10T07:11:16Z</time>
      </trkpt>
      <trkpt lat="45.63773" lon="7.00231">
        <ele>3294</ele>
        <time>2012-07-10T07:11:21Z</time>
      </trkpt>
      <trkpt lat="45.6377" lon="7.00233">
        <ele>3294</ele>
        <time>2012-07-10T07:11:26Z</time>
      </trkpt>
      <trkpt lat="45.63767" lon="7.00234">
        <ele>3294</ele>
        <time>2012-07-10T07:11:31Z</time>
      </trkpt>
      <trkpt lat="45.63765" lon="7.00236">
        <ele>3294</ele>
        <time>2012-07-10T07:11:36Z</time>
      </trkpt>
      <trkpt lat="45.63762" lon="7.00237">
        <ele>3294</ele>
        <time>2012-07-10T07:11:41Z</time>
      </trkpt>
      <trkpt lat="45.63759" lon="7.00236">
        <ele>3295</ele>
        <time>2012-07-10T07:11:46Z</time>
      </trkpt>
      <trkpt lat="45.63755" lon="7.00236">
        <ele>3295</ele>
        <time>2012-07-10T07:11:51Z</time>
      </trkpt>
      <trkpt lat="45.63753" lon="7.00236">
        <ele>3295</ele>
        <time>2012-07-10T07:11:56Z</time>
      </trkpt>
      <trkpt lat="45.6375" lon="7.00236">
        <ele>3295</ele>
        <time>2012-07-10T07:12:01Z</time>
      </trkpt>
      <trkpt lat="45.63747" lon="7.00235">
        <ele>3296</ele>
        <time>2012-07-10T07:12:06Z</time>
      </trkpt>
      <trkpt lat="45.63745" lon="7.00233">
        <ele>3296</ele>
        <time>2012-07-10T07:12:11Z</time>
      </trkpt>
      <trkpt lat="45.63743" lon="7.0023">
        <ele>3296</ele>
        <time>2012-07-10T07:12:16Z</time>
      </trkpt>
      <trkpt lat="45.63741" lon="7.00228">
        <ele>3296</ele>
        <time>2012-07-10T07:12:21Z</time>
      </trkpt>
      <trkpt lat="45.63739" lon="7.00226">
        <ele>3296</ele>
        <time>2012-07-10T07:12:26Z</time>
      </trkpt>
      <trkpt lat="45.63736" lon="7.00224">
        <ele>3296</ele>
        <time>2012-07-10T07:12:31Z</time>
      </trkpt>
      <trkpt lat="45.63735" lon="7.00221">
        <ele>3297</ele>
        <time>2012-07-10T07:12:36Z</time>
      </trkpt>
      <trkpt lat="45.63732" lon="7.00219">
        <ele>3297</ele>
        <time>2012-07-10T07:12:41Z</time>
      </trkpt>
      <trkpt lat="45.6373" lon="7.00218">
        <ele>3297</ele>
        <time>2012-07-10T07:12:46Z</time>
      </trkpt>
      <trkpt lat="45.63728" lon="7.00216">
        <ele>3297</ele>
        <time>2012-07-10T07:12:51Z</time>
      </trkpt>
      <trkpt lat="45.63725" lon="7.00214">
        <ele>3297</ele>
        <time>2012-07-10T07:12:56Z</time>
      </trkpt>
      <trkpt lat="45.63723" lon="7.00213">
        <ele>3298</ele>
        <time>2012-07-10T07:13:01Z</time>
      </trkpt>
      <trkpt lat="45.6372" lon="7.00212">
        <ele>3298</ele>
        <time>2012-07-10T07:13:06Z</time>
      </trkpt>
      <trkpt lat="45.63718" lon="7.00211">
        <ele>3298</ele>
        <time>2012-07-10T07:13:11Z</time>
      </trkpt>
      <trkpt lat="45.63716" lon="7.00209">
        <ele>3299</ele>
        <time>2012-07-10T07:13:16Z</time>
      </trkpt>
      <trkpt lat="45.63713" lon="7.00207">
        <ele>3299</ele>
        <time>2012-07-10T07:13:21Z</time>
      </trkpt>
      <trkpt lat="45.63711" lon="7.00206">
        <ele>3299</ele>
        <time>2012-07-10T07:13:26Z</time>
      </trkpt>
      <trkpt lat="45.63709" lon="7.00207">
        <ele>3299</ele>
        <time>2012-07-10T07:13:31Z</time>
      </trkpt>
      <trkpt lat="45.63706" lon="7.00207">
        <ele>3300</ele>
        <time>2012-07-10T07:13:36Z</time>
      </trkpt>
      <trkpt lat="45.63703" lon="7.00207">
        <ele>3300</ele>
        <time>2012-07-10T07:13:41Z</time>
      </trkpt>
      <trkpt lat="45.63701" lon="7.00207">
        <ele>3300</ele>
        <time>2012-07-10T07:13:46Z</time>
      </trkpt>
      <trkpt lat="45.63698" lon="7.00207">
        <ele>3301</ele>
        <time>2012-07-10T07:13:51Z</time>
      </trkpt>
      <trkpt lat="45.63696" lon="7.00207">
        <ele>3301</ele>
        <time>2012-07-10T07:13:56Z</time>
      </trkpt>
      <trkpt lat="45.63695" lon="7.00207">
        <ele>3301</ele>
        <time>2012-07-10T07:14:01Z</time>
      </trkpt>
      <trkpt lat="45.63694" lon="7.00207">
        <ele>3301</ele>
        <time>2012-07-10T07:14:06Z</time>
      </trkpt>
      <trkpt lat="45.63691" lon="7.00207">
        <ele>3301</ele>
        <time>2012-07-10T07:14:11Z</time>
      </trkpt>
      <trkpt lat="45.63688" lon="7.00208">
        <ele>3302</ele>
        <time>2012-07-10T07:14:16Z</time>
      </trkpt>
      <trkpt lat="45.63685" lon="7.00208">
        <ele>3302</ele>
        <time>2012-07-10T07:14:21Z</time>
      </trkpt>
      <trkpt lat="45.63682" lon="7.00207">
        <ele>3302</ele>
        <time>2012-07-10T07:14:26Z</time>
      </trkpt>
      <trkpt lat="45.6368" lon="7.00207">
        <ele>3302</ele>
        <time>2012-07-10T07:14:31Z</time>
      </trkpt>
      <trkpt lat="45.63677" lon="7.00207">
        <ele>3303</ele>
        <time>2012-07-10T07:14:36Z</time>
      </trkpt>
      <trkpt lat="45.63673" lon="7.00207">
        <ele>3303</ele>
        <time>2012-07-10T07:14:41Z</time>
      </trkpt>
      <trkpt lat="45.6367" lon="7.00208">
        <ele>3303</ele>
        <time>2012-07-10T07:14:46Z</time>
      </trkpt>
      <trkpt lat="45.63667" lon="7.00209">
        <ele>3303</ele>
        <time>2012-07-10T07:14:51Z</time>
      </trkpt>
      <trkpt lat="45.63664" lon="7.00211">
        <ele>3304</ele>
        <time>2012-07-10T07:14:56Z</time>
      </trkpt>
      <trkpt lat="45.63661" lon="7.00211">
        <ele>3304</ele>
        <time>2012-07-10T07:15:01Z</time>
      </trkpt>
      <trkpt lat="45.63659" lon="7.00211">
        <ele>3304</ele>
        <time>2012-07-10T07:15:06Z</time>
      </trkpt>
      <trkpt lat="45.63656" lon="7.00211">
        <ele>3304</ele>
        <time>2012-07-10T07:15:11Z</time>
      </trkpt>
      <trkpt lat="45.63653" lon="7.00211">
        <ele>3305</ele>
        <time>2012-07-10T07:15:16Z</time>
      </trkpt>
      <trkpt lat="45.63651" lon="7.00211">
        <ele>3305</ele>
        <time>2012-07-10T07:15:21Z</time>
      </trkpt>
      <trkpt lat="45.63648" lon="7.0021">
        <ele>3305</ele>
        <time>2012-07-10T07:15:26Z</time>
      </trkpt>
      <trkpt lat="45.63645" lon="7.00208">
        <ele>3306</ele>
        <time>2012-07-10T07:15:31Z</time>
      </trkpt>
      <trkpt lat="45.63643" lon="7.00208">
        <ele>3306</ele>
        <time>2012-07-10T07:15:36Z</time>
      </trkpt>
      <trkpt lat="45.63641" lon="7.00208">
        <ele>3306</ele>
        <time>2012-07-10T07:15:41Z</time>
      </trkpt>
      <trkpt lat="45.63638" lon="7.00207">
        <ele>3307</ele>
        <time>2012-07-10T07:15:46Z</time>
      </trkpt>
      <trkpt lat="45.63637" lon="7.00206">
        <ele>3307</ele>
        <time>2012-07-10T07:15:51Z</time>
      </trkpt>
      <trkpt lat="45.63636" lon="7.00205">
        <ele>3307</ele>
        <time>2012-07-10T07:15:56Z</time>
      </trkpt>
      <trkpt lat="45.63636" lon="7.00205">
        <ele>3307</ele>
        <time>2012-07-10T07:16:01Z</time>
      </trkpt>
      <trkpt lat="45.63636" lon="7.00202">
        <ele>3307</ele>
        <time>2012-07-10T07:16:06Z</time>
      </trkpt>
      <trkpt lat="45.63636" lon="7.00202">
        <ele>3307</ele>
        <time>2012-07-10T07:16:11Z</time>
      </trkpt>
      <trkpt lat="45.63636" lon="7.00203">
        <ele>3307</ele>
        <time>2012-07-10T07:16:16Z</time>
      </trkpt>
      <trkpt lat="45.63635" lon="7.00203">
        <ele>3307</ele>
        <time>2012-07-10T07:16:21Z</time>
      </trkpt>
      <trkpt lat="45.63636" lon="7.00206">
        <ele>3307</ele>
        <time>2012-07-10T07:16:26Z</time>
      </trkpt>
      <trkpt lat="45.63637" lon="7.0021">
        <ele>3307</ele>
        <time>2012-07-10T07:16:31Z</time>
      </trkpt>
      <trkpt lat="45.63636" lon="7.00209">
        <ele>3307</ele>
        <time>2012-07-10T07:16:36Z</time>
      </trkpt>
      <trkpt lat="45.63635" lon="7.00207">
        <ele>3307</ele>
        <time>2012-07-10T07:16:41Z</time>
      </trkpt>
      <trkpt lat="45.63635" lon="7.00208">
        <ele>3307</ele>
        <time>2012-07-10T07:16:46Z</time>
      </trkpt>
      <trkpt lat="45.63635" lon="7.00208">
        <ele>3307</ele>
        <time>2012-07-10T07:16:51Z</time>
      </trkpt>
      <trkpt lat="45.63632" lon="7.00208">
        <ele>3307</ele>
        <time>2012-07-10T07:16:56Z</time>
      </trkpt>
      <trkpt lat="45.63632" lon="7.00208">
        <ele>3307</ele>
        <time>2012-07-10T07:17:01Z</time>
      </trkpt>
      <trkpt lat="45.63632" lon="7.00208">
        <ele>3307</ele>
        <time>2012-07-10T07:17:06Z</time>
      </trkpt>
      <trkpt lat="45.63632" lon="7.00207">
        <ele>3307</ele>
        <time>2012-07-10T07:17:11Z</time>
      </trkpt>
      <trkpt lat="45.6363" lon="7.00206">
        <ele>3307</ele>
        <time>2012-07-10T07:17:16Z</time>
      </trkpt>
      <trkpt lat="45.63628" lon="7.00204">
        <ele>3307</ele>
        <time>2012-07-10T07:17:21Z</time>
      </trkpt>
      <trkpt lat="45.63625" lon="7.00202">
        <ele>3307</ele>
        <time>2012-07-10T07:17:26Z</time>
      </trkpt>
      <trkpt lat="45.63623" lon="7.00198">
        <ele>3307</ele>
        <time>2012-07-10T07:17:31Z</time>
      </trkpt>
      <trkpt lat="45.6362" lon="7.00196">
        <ele>3307</ele>
        <time>2012-07-10T07:17:36Z</time>
      </trkpt>
      <trkpt lat="45.63616" lon="7.00193">
        <ele>3307</ele>
        <time>2012-07-10T07:17:41Z</time>
      </trkpt>
      <trkpt lat="45.63612" lon="7.0019">
        <ele>3307</ele>
        <time>2012-07-10T07:17:46Z</time>
      </trkpt>
      <trkpt lat="45.63609" lon="7.00187">
        <ele>3306</ele>
        <time>2012-07-10T07:17:51Z</time>
      </trkpt>
      <trkpt lat="45.63605" lon="7.00184">
        <ele>3306</ele>
        <time>2012-07-10T07:17:56Z</time>
      </trkpt>
      <trkpt lat="45.63601" lon="7.00181">
        <ele>3306</ele>
        <time>2012-07-10T07:18:01Z</time>
      </trkpt>
      <trkpt lat="45.63597" lon="7.00178">
        <ele>3306</ele>
        <time>2012-07-10T07:18:06Z</time>
      </trkpt>
      <trkpt lat="45.63594" lon="7.00175">
        <ele>3306</ele>
        <time>2012-07-10T07:18:11Z</time>
      </trkpt>
      <trkpt lat="45.6359" lon="7.00173">
        <ele>3306</ele>
        <time>2012-07-10T07:18:16Z</time>
      </trkpt>
      <trkpt lat="45.63588" lon="7.00172">
        <ele>3306</ele>
        <time>2012-07-10T07:18:21Z</time>
      </trkpt>
      <trkpt lat="45.63585" lon="7.00169">
        <ele>3306</ele>
        <time>2012-07-10T07:18:26Z</time>
      </trkpt>
      <trkpt lat="45.63583" lon="7.00167">
        <ele>3307</ele>
        <time>2012-07-10T07:18:31Z</time>
      </trkpt>
      <trkpt lat="45.63581" lon="7.00166">
        <ele>3307</ele>
        <time>2012-07-10T07:18:36Z</time>
      </trkpt>
      <trkpt lat="45.63579" lon="7.00162">
        <ele>3307</ele>
        <time>2012-07-10T07:18:41Z</time>
      </trkpt>
      <trkpt lat="45.63577" lon="7.00161">
        <ele>3308</ele>
        <time>2012-07-10T07:18:46Z</time>
      </trkpt>
      <trkpt lat="45.63575" lon="7.00159">
        <ele>3308</ele>
        <time>2012-07-10T07:18:51Z</time>
      </trkpt>
      <trkpt lat="45.63573" lon="7.00157">
        <ele>3309</ele>
        <time>2012-07-10T07:18:56Z</time>
      </trkpt>
      <trkpt lat="45.63571" lon="7.00155">
        <ele>3309</ele>
        <time>2012-07-10T07:19:01Z</time>
      </trkpt>
      <trkpt lat="45.63569" lon="7.00153">
        <ele>3309</ele>
        <time>2012-07-10T07:19:06Z</time>
      </trkpt>
      <trkpt lat="45.63567" lon="7.00152">
        <ele>3310</ele>
        <time>2012-07-10T07:19:11Z</time>
      </trkpt>
      <trkpt lat="45.63566" lon="7.0015">
        <ele>3311</ele>
        <time>2012-07-10T07:19:16Z</time>
      </trkpt>
      <trkpt lat="45.63564" lon="7.00149">
        <ele>3311</ele>
        <time>2012-07-10T07:19:21Z</time>
      </trkpt>
      <trkpt lat="45.63562" lon="7.00149">
        <ele>3311</ele>
        <time>2012-07-10T07:19:26Z</time>
      </trkpt>
      <trkpt lat="45.63561" lon="7.00148">
        <ele>3312</ele>
        <time>2012-07-10T07:19:31Z</time>
      </trkpt>
      <trkpt lat="45.63559" lon="7.00146">
        <ele>3312</ele>
        <time>2012-07-10T07:19:36Z</time>
      </trkpt>
      <trkpt lat="45.63557" lon="7.00144">
        <ele>3313</ele>
        <time>2012-07-10T07:19:41Z</time>
      </trkpt>
      <trkpt lat="45.63556" lon="7.00142">
        <ele>3313</ele>
        <time>2012-07-10T07:19:46Z</time>
      </trkpt>
      <trkpt lat="45.63554" lon="7.0014">
        <ele>3314</ele>
        <time>2012-07-10T07:19:51Z</time>
      </trkpt>
      <trkpt lat="45.63552" lon="7.00139">
        <ele>3314</ele>
        <time>2012-07-10T07:19:56Z</time>
      </trkpt>
      <trkpt lat="45.6355" lon="7.00137">
        <ele>3315</ele>
        <time>2012-07-10T07:20:01Z</time>
      </trkpt>
      <trkpt lat="45.63548" lon="7.00135">
        <ele>3315</ele>
        <time>2012-07-10T07:20:06Z</time>
      </trkpt>
      <trkpt lat="45.63546" lon="7.00134">
        <ele>3315</ele>
        <time>2012-07-10T07:20:11Z</time>
      </trkpt>
      <trkpt lat="45.63543" lon="7.00133">
        <ele>3316</ele>
        <time>2012-07-10T07:20:16Z</time>
      </trkpt>
      <trkpt lat="45.63541" lon="7.00131">
        <ele>3316</ele>
        <time>2012-07-10T07:20:21Z</time>
      </trkpt>
      <trkpt lat="45.63539" lon="7.0013">
        <ele>3316</ele>
        <time>2012-07-10T07:20:26Z</time>
      </trkpt>
      <trkpt lat="45.63537" lon="7.00128">
        <ele>3316</ele>
        <time>2012-07-10T07:20:31Z</time>
      </trkpt>
      <trkpt lat="45.63534" lon="7.00127">
        <ele>3317</ele>
        <time>2012-07-10T07:20:36Z</time>
      </trkpt>
      <trkpt lat="45.63532" lon="7.00126">
        <ele>3317</ele>
        <time>2012-07-10T07:20:41Z</time>
      </trkpt>
      <trkpt lat="45.63529" lon="7.00124">
        <ele>3317</ele>
        <time>2012-07-10T07:20:46Z</time>
      </trkpt>
      <trkpt lat="45.63526" lon="7.00123">
        <ele>3317</ele>
        <time>2012-07-10T07:20:51Z</time>
      </trkpt>
      <trkpt lat="45.63523" lon="7.00123">
        <ele>3317</ele>
        <time>2012-07-10T07:20:56Z</time>
      </trkpt>
      <trkpt lat="45.6352" lon="7.00122">
        <ele>3317</ele>
        <time>2012-07-10T07:21:01Z</time>
      </trkpt>
      <trkpt lat="45.63517" lon="7.0012">
        <ele>3318</ele>
        <time>2012-07-10T07:21:06Z</time>
      </trkpt>
      <trkpt lat="45.63514" lon="7.00119">
        <ele>3318</ele>
        <time>2012-07-10T07:21:11Z</time>
      </trkpt>
      <trkpt lat="45.63511" lon="7.00118">
        <ele>3318</ele>
        <time>2012-07-10T07:21:16Z</time>
      </trkpt>
      <trkpt lat="45.63508" lon="7.00117">
        <ele>3318</ele>
        <time>2012-07-10T07:21:21Z</time>
      </trkpt>
      <trkpt lat="45.63504" lon="7.00116">
        <ele>3319</ele>
        <time>2012-07-10T07:21:26Z</time>
      </trkpt>
      <trkpt lat="45.63501" lon="7.00115">
        <ele>3319</ele>
        <time>2012-07-10T07:21:31Z</time>
      </trkpt>
      <trkpt lat="45.63499" lon="7.00115">
        <ele>3319</ele>
        <time>2012-07-10T07:21:36Z</time>
      </trkpt>
      <trkpt lat="45.63496" lon="7.00115">
        <ele>3319</ele>
        <time>2012-07-10T07:21:41Z</time>
      </trkpt>
      <trkpt lat="45.63494" lon="7.00114">
        <ele>3320</ele>
        <time>2012-07-10T07:21:46Z</time>
      </trkpt>
      <trkpt lat="45.63491" lon="7.00113">
        <ele>3320</ele>
        <time>2012-07-10T07:21:51Z</time>
      </trkpt>
      <trkpt lat="45.63489" lon="7.00113">
        <ele>3320</ele>
        <time>2012-07-10T07:21:56Z</time>
      </trkpt>
      <trkpt lat="45.63487" lon="7.00112">
        <ele>3321</ele>
        <time>2012-07-10T07:22:01Z</time>
      </trkpt>
      <trkpt lat="45.63484" lon="7.00111">
        <ele>3321</ele>
        <time>2012-07-10T07:22:06Z</time>
      </trkpt>
      <trkpt lat="45.63482" lon="7.00109">
        <ele>3321</ele>
        <time>2012-07-10T07:22:11Z</time>
      </trkpt>
      <trkpt lat="45.6348" lon="7.00107">
        <ele>3322</ele>
        <time>2012-07-10T07:22:16Z</time>
      </trkpt>
      <trkpt lat="45.63477" lon="7.00107">
        <ele>3322</ele>
        <time>2012-07-10T07:22:21Z</time>
      </trkpt>
      <trkpt lat="45.63475" lon="7.00106">
        <ele>3322</ele>
        <time>2012-07-10T07:22:26Z</time>
      </trkpt>
      <trkpt lat="45.63472" lon="7.00105">
        <ele>3323</ele>
        <time>2012-07-10T07:22:31Z</time>
      </trkpt>
      <trkpt lat="45.6347" lon="7.00104">
        <ele>3323</ele>
        <time>2012-07-10T07:22:36Z</time>
      </trkpt>
      <trkpt lat="45.63468" lon="7.00102">
        <ele>3323</ele>
        <time>2012-07-10T07:22:41Z</time>
      </trkpt>
      <trkpt lat="45.63466" lon="7.001">
        <ele>3323</ele>
        <time>2012-07-10T07:22:46Z</time>
      </trkpt>
      <trkpt lat="45.63464" lon="7.00098">
        <ele>3323</ele>
        <time>2012-07-10T07:22:51Z</time>
      </trkpt>
      <trkpt lat="45.63462" lon="7.00096">
        <ele>3324</ele>
        <time>2012-07-10T07:22:56Z</time>
      </trkpt>
      <trkpt lat="45.63461" lon="7.00094">
        <ele>3324</ele>
        <time>2012-07-10T07:23:01Z</time>
      </trkpt>
      <trkpt lat="45.63458" lon="7.00091">
        <ele>3324</ele>
        <time>2012-07-10T07:23:06Z</time>
      </trkpt>
      <trkpt lat="45.63456" lon="7.00089">
        <ele>3324</ele>
        <time>2012-07-10T07:23:11Z</time>
      </trkpt>
      <trkpt lat="45.63455" lon="7.00086">
        <ele>3325</ele>
        <time>2012-07-10T07:23:16Z</time>
      </trkpt>
      <trkpt lat="45.63452" lon="7.00083">
        <ele>3325</ele>
        <time>2012-07-10T07:23:21Z</time>
      </trkpt>
      <trkpt lat="45.6345" lon="7.00081">
        <ele>3325</ele>
        <time>2012-07-10T07:23:26Z</time>
      </trkpt>
      <trkpt lat="45.63448" lon="7.00079">
        <ele>3325</ele>
        <time>2012-07-10T07:23:31Z</time>
      </trkpt>
      <trkpt lat="45.63445" lon="7.00076">
        <ele>3325</ele>
        <time>2012-07-10T07:23:36Z</time>
      </trkpt>
      <trkpt lat="45.63443" lon="7.00073">
        <ele>3325</ele>
        <time>2012-07-10T07:23:41Z</time>
      </trkpt>
      <trkpt lat="45.6344" lon="7.00071">
        <ele>3325</ele>
        <time>2012-07-10T07:23:46Z</time>
      </trkpt>
      <trkpt lat="45.63437" lon="7.00068">
        <ele>3325</ele>
        <time>2012-07-10T07:23:51Z</time>
      </trkpt>
      <trkpt lat="45.63435" lon="7.00066">
        <ele>3325</ele>
        <time>2012-07-10T07:23:56Z</time>
      </trkpt>
      <trkpt lat="45.63432" lon="7.00063">
        <ele>3325</ele>
        <time>2012-07-10T07:24:01Z</time>
      </trkpt>
      <trkpt lat="45.63429" lon="7.00061">
        <ele>3325</ele>
        <time>2012-07-10T07:24:06Z</time>
      </trkpt>
      <trkpt lat="45.63429" lon="7.00061">
        <ele>3326</ele>
        <time>2012-07-10T07:24:11Z</time>
      </trkpt>
      <trkpt lat="45.63429" lon="7.00061">
        <ele>3326</ele>
        <time>2012-07-10T07:24:16Z</time>
      </trkpt>
      <trkpt lat="45.63429" lon="7.00061">
        <ele>3326</ele>
        <time>2012-07-10T07:24:21Z</time>
      </trkpt>
      <trkpt lat="45.63429" lon="7.00061">
        <ele>3326</ele>
        <time>2012-07-10T07:24:26Z</time>
      </trkpt>
      <trkpt lat="45.63429" lon="7.0006">
        <ele>3326</ele>
        <time>2012-07-10T07:24:31Z</time>
      </trkpt>
      <trkpt lat="45.63428" lon="7.00059">
        <ele>3326</ele>
        <time>2012-07-10T07:24:36Z</time>
      </trkpt>
      <trkpt lat="45.63425" lon="7.00057">
        <ele>3325</ele>
        <time>2012-07-10T07:24:41Z</time>
      </trkpt>
      <trkpt lat="45.63422" lon="7.00056">
        <ele>3325</ele>
        <time>2012-07-10T07:24:46Z</time>
      </trkpt>
      <trkpt lat="45.63419" lon="7.00054">
        <ele>3325</ele>
        <time>2012-07-10T07:24:51Z</time>
      </trkpt>
      <trkpt lat="45.63417" lon="7.00052">
        <ele>3326</ele>
        <time>2012-07-10T07:24:56Z</time>
      </trkpt>
      <trkpt lat="45.63415" lon="7.00051">
        <ele>3326</ele>
        <time>2012-07-10T07:25:01Z</time>
      </trkpt>
      <trkpt lat="45.63412" lon="7.00049">
        <ele>3326</ele>
        <time>2012-07-10T07:25:06Z</time>
      </trkpt>
      <trkpt lat="45.6341" lon="7.00047">
        <ele>3327</ele>
        <time>2012-07-10T07:25:11Z</time>
      </trkpt>
      <trkpt lat="45.63408" lon="7.00046">
        <ele>3327</ele>
        <time>2012-07-10T07:25:16Z</time>
      </trkpt>
      <trkpt lat="45.63406" lon="7.00044">
        <ele>3327</ele>
        <time>2012-07-10T07:25:21Z</time>
      </trkpt>
      <trkpt lat="45.63405" lon="7.00042">
        <ele>3327</ele>
        <time>2012-07-10T07:25:26Z</time>
      </trkpt>
      <trkpt lat="45.63403" lon="7.0004">
        <ele>3328</ele>
        <time>2012-07-10T07:25:31Z</time>
      </trkpt>
      <trkpt lat="45.63402" lon="7.00038">
        <ele>3328</ele>
        <time>2012-07-10T07:25:36Z</time>
      </trkpt>
      <trkpt lat="45.63401" lon="7.00038">
        <ele>3328</ele>
        <time>2012-07-10T07:25:41Z</time>
      </trkpt>
      <trkpt lat="45.63399" lon="7.00037">
        <ele>3328</ele>
        <time>2012-07-10T07:25:46Z</time>
      </trkpt>
      <trkpt lat="45.63397" lon="7.00035">
        <ele>3329</ele>
        <time>2012-07-10T07:25:51Z</time>
      </trkpt>
      <trkpt lat="45.63395" lon="7.00034">
        <ele>3329</ele>
        <time>2012-07-10T07:25:56Z</time>
      </trkpt>
      <trkpt lat="45.63393" lon="7.00033">
        <ele>3330</ele>
        <time>2012-07-10T07:26:01Z</time>
      </trkpt>
      <trkpt lat="45.63391" lon="7.00033">
        <ele>3330</ele>
        <time>2012-07-10T07:26:06Z</time>
      </trkpt>
      <trkpt lat="45.63389" lon="7.00033">
        <ele>3331</ele>
        <time>2012-07-10T07:26:11Z</time>
      </trkpt>
      <trkpt lat="45.63387" lon="7.00033">
        <ele>3332</ele>
        <time>2012-07-10T07:26:16Z</time>
      </trkpt>
      <trkpt lat="45.63385" lon="7.00033">
        <ele>3332</ele>
        <time>2012-07-10T07:26:21Z</time>
      </trkpt>
      <trkpt lat="45.63384" lon="7.00032">
        <ele>3333</ele>
        <time>2012-07-10T07:26:26Z</time>
      </trkpt>
      <trkpt lat="45.63382" lon="7.00032">
        <ele>3333</ele>
        <time>2012-07-10T07:26:31Z</time>
      </trkpt>
      <trkpt lat="45.6338" lon="7.00032">
        <ele>3334</ele>
        <time>2012-07-10T07:26:36Z</time>
      </trkpt>
      <trkpt lat="45.63379" lon="7.00031">
        <ele>3334</ele>
        <time>2012-07-10T07:26:41Z</time>
      </trkpt>
      <trkpt lat="45.63377" lon="7.00029">
        <ele>3335</ele>
        <time>2012-07-10T07:26:46Z</time>
      </trkpt>
      <trkpt lat="45.63374" lon="7.00028">
        <ele>3335</ele>
        <time>2012-07-10T07:26:51Z</time>
      </trkpt>
      <trkpt lat="45.63373" lon="7.00027">
        <ele>3336</ele>
        <time>2012-07-10T07:26:56Z</time>
      </trkpt>
      <trkpt lat="45.63371" lon="7.00025">
        <ele>3336</ele>
        <time>2012-07-10T07:27:01Z</time>
      </trkpt>
      <trkpt lat="45.63368" lon="7.00024">
        <ele>3337</ele>
        <time>2012-07-10T07:27:06Z</time>
      </trkpt>
      <trkpt lat="45.63367" lon="7.00023">
        <ele>3337</ele>
        <time>2012-07-10T07:27:11Z</time>
      </trkpt>
      <trkpt lat="45.63365" lon="7.00021">
        <ele>3337</ele>
        <time>2012-07-10T07:27:16Z</time>
      </trkpt>
      <trkpt lat="45.63363" lon="7.00019">
        <ele>3337</ele>
        <time>2012-07-10T07:27:21Z</time>
      </trkpt>
      <trkpt lat="45.63361" lon="7.00016">
        <ele>3337</ele>
        <time>2012-07-10T07:27:26Z</time>
      </trkpt>
      <trkpt lat="45.63359" lon="7.00014">
        <ele>3337</ele>
        <time>2012-07-10T07:27:31Z</time>
      </trkpt>
      <trkpt lat="45.63357" lon="7.00012">
        <ele>3338</ele>
        <time>2012-07-10T07:27:36Z</time>
      </trkpt>
      <trkpt lat="45.63355" lon="7.00009">
        <ele>3338</ele>
        <time>2012-07-10T07:27:41Z</time>
      </trkpt>
      <trkpt lat="45.63353" lon="7.00007">
        <ele>3338</ele>
        <time>2012-07-10T07:27:46Z</time>
      </trkpt>
      <trkpt lat="45.6335" lon="7.00005">
        <ele>3338</ele>
        <time>2012-07-10T07:27:51Z</time>
      </trkpt>
      <trkpt lat="45.63348" lon="7.00002">
        <ele>3338</ele>
        <time>2012-07-10T07:27:56Z</time>
      </trkpt>
      <trkpt lat="45.63346" lon="7">
        <ele>3338</ele>
        <time>2012-07-10T07:28:01Z</time>
      </trkpt>
      <trkpt lat="45.63344" lon="6.99997">
        <ele>3337</ele>
        <time>2012-07-10T07:28:06Z</time>
      </trkpt>
      <trkpt lat="45.63341" lon="6.99995">
        <ele>3337</ele>
        <time>2012-07-10T07:28:11Z</time>
      </trkpt>
      <trkpt lat="45.6334" lon="6.99993">
        <ele>3337</ele>
        <time>2012-07-10T07:28:16Z</time>
      </trkpt>
      <trkpt lat="45.63338" lon="6.9999">
        <ele>3337</ele>
        <time>2012-07-10T07:28:21Z</time>
      </trkpt>
      <trkpt lat="45.63336" lon="6.99988">
        <ele>3337</ele>
        <time>2012-07-10T07:28:26Z</time>
      </trkpt>
      <trkpt lat="45.63334" lon="6.99985">
        <ele>3337</ele>
        <time>2012-07-10T07:28:31Z</time>
      </trkpt>
      <trkpt lat="45.63332" lon="6.99982">
        <ele>3337</ele>
        <time>2012-07-10T07:28:36Z</time>
      </trkpt>
      <trkpt lat="45.63331" lon="6.9998">
        <ele>3337</ele>
        <time>2012-07-10T07:28:41Z</time>
      </trkpt>
      <trkpt lat="45.63331" lon="6.9998">
        <ele>3336</ele>
        <time>2012-07-10T07:28:46Z</time>
      </trkpt>
      <trkpt lat="45.63331" lon="6.9998">
        <ele>3336</ele>
        <time>2012-07-10T07:28:51Z</time>
      </trkpt>
      <trkpt lat="45.63329" lon="6.99978">
        <ele>3336</ele>
        <time>2012-07-10T07:28:56Z</time>
      </trkpt>
      <trkpt lat="45.63326" lon="6.99976">
        <ele>3336</ele>
        <time>2012-07-10T07:29:01Z</time>
      </trkpt>
      <trkpt lat="45.63324" lon="6.99973">
        <ele>3336</ele>
        <time>2012-07-10T07:29:06Z</time>
      </trkpt>
      <trkpt lat="45.63321" lon="6.99971">
        <ele>3335</ele>
        <time>2012-07-10T07:29:11Z</time>
      </trkpt>
      <trkpt lat="45.63319" lon="6.99968">
        <ele>3335</ele>
        <time>2012-07-10T07:29:16Z</time>
      </trkpt>
      <trkpt lat="45.63316" lon="6.99965">
        <ele>3334</ele>
        <time>2012-07-10T07:29:21Z</time>
      </trkpt>
      <trkpt lat="45.63314" lon="6.99962">
        <ele>3334</ele>
        <time>2012-07-10T07:29:26Z</time>
      </trkpt>
      <trkpt lat="45.63312" lon="6.9996">
        <ele>3334</ele>
        <time>2012-07-10T07:29:31Z</time>
      </trkpt>
      <trkpt lat="45.63309" lon="6.99957">
        <ele>3333</ele>
        <time>2012-07-10T07:29:36Z</time>
      </trkpt>
      <trkpt lat="45.63307" lon="6.99954">
        <ele>3333</ele>
        <time>2012-07-10T07:29:41Z</time>
      </trkpt>
      <trkpt lat="45.63304" lon="6.99951">
        <ele>3332</ele>
        <time>2012-07-10T07:29:46Z</time>
      </trkpt>
      <trkpt lat="45.63302" lon="6.99948">
        <ele>3332</ele>
        <time>2012-07-10T07:29:51Z</time>
      </trkpt>
      <trkpt lat="45.63299" lon="6.99946">
        <ele>3332</ele>
        <time>2012-07-10T07:29:56Z</time>
      </trkpt>
      <trkpt lat="45.63297" lon="6.99943">
        <ele>3332</ele>
        <time>2012-07-10T07:30:01Z</time>
      </trkpt>
      <trkpt lat="45.63294" lon="6.99941">
        <ele>3332</ele>
        <time>2012-07-10T07:30:06Z</time>
      </trkpt>
      <trkpt lat="45.63292" lon="6.99938">
        <ele>3332</ele>
        <time>2012-07-10T07:30:11Z</time>
      </trkpt>
      <trkpt lat="45.6329" lon="6.99935">
        <ele>3332</ele>
        <time>2012-07-10T07:30:16Z</time>
      </trkpt>
      <trkpt lat="45.63288" lon="6.99932">
        <ele>3332</ele>
        <time>2012-07-10T07:30:21Z</time>
      </trkpt>
      <trkpt lat="45.63286" lon="6.9993">
        <ele>3331</ele>
        <time>2012-07-10T07:30:26Z</time>
      </trkpt>
      <trkpt lat="45.63283" lon="6.99927">
        <ele>3331</ele>
        <time>2012-07-10T07:30:31Z</time>
      </trkpt>
      <trkpt lat="45.63281" lon="6.99925">
        <ele>3331</ele>
        <time>2012-07-10T07:30:36Z</time>
      </trkpt>
      <trkpt lat="45.63279" lon="6.99922">
        <ele>3331</ele>
        <time>2012-07-10T07:30:41Z</time>
      </trkpt>
      <trkpt lat="45.63277" lon="6.99919">
        <ele>3331</ele>
        <time>2012-07-10T07:30:46Z</time>
      </trkpt>
      <trkpt lat="45.63275" lon="6.99916">
        <ele>3331</ele>
        <time>2012-07-10T07:30:51Z</time>
      </trkpt>
      <trkpt lat="45.63272" lon="6.99914">
        <ele>3330</ele>
        <time>2012-07-10T07:30:56Z</time>
      </trkpt>
      <trkpt lat="45.6327" lon="6.99912">
        <ele>3331</ele>
        <time>2012-07-10T07:31:01Z</time>
      </trkpt>
      <trkpt lat="45.63267" lon="6.9991">
        <ele>3331</ele>
        <time>2012-07-10T07:31:06Z</time>
      </trkpt>
      <trkpt lat="45.63265" lon="6.99908">
        <ele>3331</ele>
        <time>2012-07-10T07:31:11Z</time>
      </trkpt>
      <trkpt lat="45.63261" lon="6.99906">
        <ele>3331</ele>
        <time>2012-07-10T07:31:16Z</time>
      </trkpt>
      <trkpt lat="45.63259" lon="6.99903">
        <ele>3331</ele>
        <time>2012-07-10T07:31:21Z</time>
      </trkpt>
      <trkpt lat="45.63257" lon="6.99901">
        <ele>3331</ele>
        <time>2012-07-10T07:31:26Z</time>
      </trkpt>
      <trkpt lat="45.63253" lon="6.99899">
        <ele>3331</ele>
        <time>2012-07-10T07:31:31Z</time>
      </trkpt>
      <trkpt lat="45.63251" lon="6.99896">
        <ele>3332</ele>
        <time>2012-07-10T07:31:36Z</time>
      </trkpt>
      <trkpt lat="45.6325" lon="6.99892">
        <ele>3332</ele>
        <time>2012-07-10T07:31:41Z</time>
      </trkpt>
      <trkpt lat="45.63248" lon="6.99889">
        <ele>3332</ele>
        <time>2012-07-10T07:31:46Z</time>
      </trkpt>
      <trkpt lat="45.63246" lon="6.99887">
        <ele>3333</ele>
        <time>2012-07-10T07:31:51Z</time>
      </trkpt>
      <trkpt lat="45.63243" lon="6.99884">
        <ele>3333</ele>
        <time>2012-07-10T07:31:56Z</time>
      </trkpt>
      <trkpt lat="45.63241" lon="6.99882">
        <ele>3333</ele>
        <time>2012-07-10T07:32:01Z</time>
      </trkpt>
      <trkpt lat="45.63239" lon="6.99879">
        <ele>3333</ele>
        <time>2012-07-10T07:32:06Z</time>
      </trkpt>
      <trkpt lat="45.63237" lon="6.99876">
        <ele>3334</ele>
        <time>2012-07-10T07:32:11Z</time>
      </trkpt>
      <trkpt lat="45.63234" lon="6.99873">
        <ele>3334</ele>
        <time>2012-07-10T07:32:16Z</time>
      </trkpt>
      <trkpt lat="45.63233" lon="6.9987">
        <ele>3334</ele>
        <time>2012-07-10T07:32:21Z</time>
      </trkpt>
      <trkpt lat="45.63231" lon="6.99867">
        <ele>3334</ele>
        <time>2012-07-10T07:32:26Z</time>
      </trkpt>
      <trkpt lat="45.63229" lon="6.99864">
        <ele>3334</ele>
        <time>2012-07-10T07:32:31Z</time>
      </trkpt>
      <trkpt lat="45.63226" lon="6.99862">
        <ele>3334</ele>
        <time>2012-07-10T07:32:36Z</time>
      </trkpt>
      <trkpt lat="45.63224" lon="6.99859">
        <ele>3334</ele>
        <time>2012-07-10T07:32:41Z</time>
      </trkpt>
      <trkpt lat="45.63222" lon="6.99857">
        <ele>3335</ele>
        <time>2012-07-10T07:32:46Z</time>
      </trkpt>
      <trkpt lat="45.6322" lon="6.99854">
        <ele>3335</ele>
        <time>2012-07-10T07:32:51Z</time>
      </trkpt>
      <trkpt lat="45.63219" lon="6.99851">
        <ele>3335</ele>
        <time>2012-07-10T07:32:56Z</time>
      </trkpt>
      <trkpt lat="45.63217" lon="6.99848">
        <ele>3336</ele>
        <time>2012-07-10T07:33:01Z</time>
      </trkpt>
      <trkpt lat="45.63215" lon="6.99846">
        <ele>3336</ele>
        <time>2012-07-10T07:33:06Z</time>
      </trkpt>
      <trkpt lat="45.63213" lon="6.99843">
        <ele>3336</ele>
        <time>2012-07-10T07:33:11Z</time>
      </trkpt>
      <trkpt lat="45.63211" lon="6.99841">
        <ele>3336</ele>
        <time>2012-07-10T07:33:16Z</time>
      </trkpt>
      <trkpt lat="45.63208" lon="6.9984">
        <ele>3336</ele>
        <time>2012-07-10T07:33:21Z</time>
      </trkpt>
      <trkpt lat="45.63206" lon="6.99837">
        <ele>3337</ele>
        <time>2012-07-10T07:33:26Z</time>
      </trkpt>
      <trkpt lat="45.63204" lon="6.99835">
        <ele>3337</ele>
        <time>2012-07-10T07:33:31Z</time>
      </trkpt>
      <trkpt lat="45.63201" lon="6.99833">
        <ele>3337</ele>
        <time>2012-07-10T07:33:36Z</time>
      </trkpt>
      <trkpt lat="45.63199" lon="6.99831">
        <ele>3337</ele>
        <time>2012-07-10T07:33:41Z</time>
      </trkpt>
      <trkpt lat="45.63197" lon="6.99829">
        <ele>3337</ele>
        <time>2012-07-10T07:33:46Z</time>
      </trkpt>
      <trkpt lat="45.63196" lon="6.99827">
        <ele>3337</ele>
        <time>2012-07-10T07:33:51Z</time>
      </trkpt>
      <trkpt lat="45.63194" lon="6.99825">
        <ele>3338</ele>
        <time>2012-07-10T07:33:56Z</time>
      </trkpt>
      <trkpt lat="45.63192" lon="6.99823">
        <ele>3338</ele>
        <time>2012-07-10T07:34:01Z</time>
      </trkpt>
      <trkpt lat="45.6319" lon="6.99822">
        <ele>3339</ele>
        <time>2012-07-10T07:34:06Z</time>
      </trkpt>
      <trkpt lat="45.63188" lon="6.9982">
        <ele>3339</ele>
        <time>2012-07-10T07:34:11Z</time>
      </trkpt>
      <trkpt lat="45.63187" lon="6.9982">
        <ele>3340</ele>
        <time>2012-07-10T07:34:16Z</time>
      </trkpt>
      <trkpt lat="45.63185" lon="6.99819">
        <ele>3340</ele>
        <time>2012-07-10T07:34:21Z</time>
      </trkpt>
      <trkpt lat="45.63183" lon="6.99818">
        <ele>3341</ele>
        <time>2012-07-10T07:34:26Z</time>
      </trkpt>
      <trkpt lat="45.63181" lon="6.99817">
        <ele>3342</ele>
        <time>2012-07-10T07:34:31Z</time>
      </trkpt>
      <trkpt lat="45.63181" lon="6.99818">
        <ele>3342</ele>
        <time>2012-07-10T07:34:36Z</time>
      </trkpt>
      <trkpt lat="45.63181" lon="6.99818">
        <ele>3342</ele>
        <time>2012-07-10T07:34:41Z</time>
      </trkpt>
      <trkpt lat="45.63181" lon="6.99819">
        <ele>3343</ele>
        <time>2012-07-10T07:34:46Z</time>
      </trkpt>
      <trkpt lat="45.6318" lon="6.99822">
        <ele>3344</ele>
        <time>2012-07-10T07:34:51Z</time>
      </trkpt>
      <trkpt lat="45.6318" lon="6.99823">
        <ele>3344</ele>
        <time>2012-07-10T07:34:56Z</time>
      </trkpt>
      <trkpt lat="45.6318" lon="6.99824">
        <ele>3344</ele>
        <time>2012-07-10T07:35:01Z</time>
      </trkpt>
      <trkpt lat="45.6318" lon="6.99824">
        <ele>3344</ele>
        <time>2012-07-10T07:35:06Z</time>
      </trkpt>
      <trkpt lat="45.6318" lon="6.99826">
        <ele>3345</ele>
        <time>2012-07-10T07:35:11Z</time>
      </trkpt>
      <trkpt lat="45.63179" lon="6.99827">
        <ele>3345</ele>
        <time>2012-07-10T07:35:16Z</time>
      </trkpt>
      <trkpt lat="45.63179" lon="6.99829">
        <ele>3346</ele>
        <time>2012-07-10T07:35:21Z</time>
      </trkpt>
      <trkpt lat="45.63178" lon="6.9983">
        <ele>3346</ele>
        <time>2012-07-10T07:35:26Z</time>
      </trkpt>
      <trkpt lat="45.63178" lon="6.99831">
        <ele>3346</ele>
        <time>2012-07-10T07:35:31Z</time>
      </trkpt>
      <trkpt lat="45.63178" lon="6.99831">
        <ele>3347</ele>
        <time>2012-07-10T07:35:36Z</time>
      </trkpt>
      <trkpt lat="45.63178" lon="6.99832">
        <ele>3347</ele>
        <time>2012-07-10T07:35:41Z</time>
      </trkpt>
      <trkpt lat="45.63177" lon="6.99833">
        <ele>3347</ele>
        <time>2012-07-10T07:35:46Z</time>
      </trkpt>
      <trkpt lat="45.63176" lon="6.99835">
        <ele>3348</ele>
        <time>2012-07-10T07:35:51Z</time>
      </trkpt>
      <trkpt lat="45.63176" lon="6.99837">
        <ele>3349</ele>
        <time>2012-07-10T07:35:56Z</time>
      </trkpt>
      <trkpt lat="45.63175" lon="6.99839">
        <ele>3349</ele>
        <time>2012-07-10T07:36:01Z</time>
      </trkpt>
      <trkpt lat="45.63173" lon="6.9984">
        <ele>3350</ele>
        <time>2012-07-10T07:36:06Z</time>
      </trkpt>
      <trkpt lat="45.63172" lon="6.99843">
        <ele>3351</ele>
        <time>2012-07-10T07:36:11Z</time>
      </trkpt>
      <trkpt lat="45.63171" lon="6.99844">
        <ele>3351</ele>
        <time>2012-07-10T07:36:16Z</time>
      </trkpt>
      <trkpt lat="45.63171" lon="6.99846">
        <ele>3351</ele>
        <time>2012-07-10T07:36:21Z</time>
      </trkpt>
      <trkpt lat="45.6317" lon="6.99847">
        <ele>3351</ele>
        <time>2012-07-10T07:36:26Z</time>
      </trkpt>
      <trkpt lat="45.63168" lon="6.99846">
        <ele>3351</ele>
        <time>2012-07-10T07:36:31Z</time>
      </trkpt>
      <trkpt lat="45.63167" lon="6.99847">
        <ele>3352</ele>
        <time>2012-07-10T07:36:36Z</time>
      </trkpt>
      <trkpt lat="45.63165" lon="6.99846">
        <ele>3352</ele>
        <time>2012-07-10T07:36:41Z</time>
      </trkpt>
      <trkpt lat="45.63162" lon="6.99844">
        <ele>3352</ele>
        <time>2012-07-10T07:36:46Z</time>
      </trkpt>
      <trkpt lat="45.63162" lon="6.99844">
        <ele>3352</ele>
        <time>2012-07-10T07:36:51Z</time>
      </trkpt>
      <trkpt lat="45.63162" lon="6.99844">
        <ele>3352</ele>
        <time>2012-07-10T07:36:56Z</time>
      </trkpt>
      <trkpt lat="45.63162" lon="6.99843">
        <ele>3352</ele>
        <time>2012-07-10T07:37:01Z</time>
      </trkpt>
      <trkpt lat="45.6316" lon="6.9984">
        <ele>3352</ele>
        <time>2012-07-10T07:37:06Z</time>
      </trkpt>
      <trkpt lat="45.6316" lon="6.99837">
        <ele>3352</ele>
        <time>2012-07-10T07:37:11Z</time>
      </trkpt>
      <trkpt lat="45.63159" lon="6.99835">
        <ele>3352</ele>
        <time>2012-07-10T07:37:16Z</time>
      </trkpt>
      <trkpt lat="45.63159" lon="6.99832">
        <ele>3353</ele>
        <time>2012-07-10T07:37:21Z</time>
      </trkpt>
      <trkpt lat="45.63158" lon="6.9983">
        <ele>3353</ele>
        <time>2012-07-10T07:37:26Z</time>
      </trkpt>
      <trkpt lat="45.63157" lon="6.99826">
        <ele>3353</ele>
        <time>2012-07-10T07:37:31Z</time>
      </trkpt>
      <trkpt lat="45.63156" lon="6.99823">
        <ele>3354</ele>
        <time>2012-07-10T07:37:36Z</time>
      </trkpt>
      <trkpt lat="45.63155" lon="6.99821">
        <ele>3354</ele>
        <time>2012-07-10T07:37:41Z</time>
      </trkpt>
      <trkpt lat="45.63154" lon="6.99818">
        <ele>3355</ele>
        <time>2012-07-10T07:37:46Z</time>
      </trkpt>
      <trkpt lat="45.63154" lon="6.99816">
        <ele>3355</ele>
        <time>2012-07-10T07:37:51Z</time>
      </trkpt>
      <trkpt lat="45.63153" lon="6.99813">
        <ele>3355</ele>
        <time>2012-07-10T07:37:56Z</time>
      </trkpt>
      <trkpt lat="45.63152" lon="6.99811">
        <ele>3355</ele>
        <time>2012-07-10T07:38:01Z</time>
      </trkpt>
      <trkpt lat="45.63151" lon="6.99808">
        <ele>3356</ele>
        <time>2012-07-10T07:38:06Z</time>
      </trkpt>
      <trkpt lat="45.6315" lon="6.99806">
        <ele>3356</ele>
        <time>2012-07-10T07:38:11Z</time>
      </trkpt>
      <trkpt lat="45.63149" lon="6.99804">
        <ele>3356</ele>
        <time>2012-07-10T07:38:16Z</time>
      </trkpt>
      <trkpt lat="45.63147" lon="6.99802">
        <ele>3357</ele>
        <time>2012-07-10T07:38:21Z</time>
      </trkpt>
      <trkpt lat="45.63146" lon="6.99801">
        <ele>3357</ele>
        <time>2012-07-10T07:38:26Z</time>
      </trkpt>
      <trkpt lat="45.63144" lon="6.99798">
        <ele>3358</ele>
        <time>2012-07-10T07:38:31Z</time>
      </trkpt>
      <trkpt lat="45.63142" lon="6.99796">
        <ele>3358</ele>
        <time>2012-07-10T07:38:36Z</time>
      </trkpt>
      <trkpt lat="45.63141" lon="6.99795">
        <ele>3359</ele>
        <time>2012-07-10T07:38:41Z</time>
      </trkpt>
      <trkpt lat="45.63139" lon="6.99792">
        <ele>3359</ele>
        <time>2012-07-10T07:38:46Z</time>
      </trkpt>
      <trkpt lat="45.6314" lon="6.9979">
        <ele>3360</ele>
        <time>2012-07-10T07:38:51Z</time>
      </trkpt>
      <trkpt lat="45.63141" lon="6.99788">
        <ele>3360</ele>
        <time>2012-07-10T07:38:56Z</time>
      </trkpt>
      <trkpt lat="45.63142" lon="6.99786">
        <ele>3361</ele>
        <time>2012-07-10T07:39:01Z</time>
      </trkpt>
      <trkpt lat="45.63143" lon="6.99784">
        <ele>3361</ele>
        <time>2012-07-10T07:39:06Z</time>
      </trkpt>
      <trkpt lat="45.63144" lon="6.99783">
        <ele>3362</ele>
        <time>2012-07-10T07:39:11Z</time>
      </trkpt>
      <trkpt lat="45.63146" lon="6.99781">
        <ele>3362</ele>
        <time>2012-07-10T07:39:16Z</time>
      </trkpt>
      <trkpt lat="45.63147" lon="6.9978">
        <ele>3362</ele>
        <time>2012-07-10T07:39:21Z</time>
      </trkpt>
      <trkpt lat="45.63147" lon="6.9978">
        <ele>3362</ele>
        <time>2012-07-10T07:39:26Z</time>
      </trkpt>
      <trkpt lat="45.63148" lon="6.99779">
        <ele>3363</ele>
        <time>2012-07-10T07:39:31Z</time>
      </trkpt>
      <trkpt lat="45.63149" lon="6.99778">
        <ele>3363</ele>
        <time>2012-07-10T07:39:36Z</time>
      </trkpt>
      <trkpt lat="45.6315" lon="6.99777">
        <ele>3364</ele>
        <time>2012-07-10T07:39:41Z</time>
      </trkpt>
      <trkpt lat="45.6315" lon="6.99777">
        <ele>3364</ele>
        <time>2012-07-10T07:39:46Z</time>
      </trkpt>
      <trkpt lat="45.63151" lon="6.99777">
        <ele>3364</ele>
        <time>2012-07-10T07:39:51Z</time>
      </trkpt>
      <trkpt lat="45.63152" lon="6.99777">
        <ele>3365</ele>
        <time>2012-07-10T07:39:56Z</time>
      </trkpt>
      <trkpt lat="45.63152" lon="6.99777">
        <ele>3365</ele>
        <time>2012-07-10T07:40:01Z</time>
      </trkpt>
      <trkpt lat="45.63152" lon="6.99776">
        <ele>3365</ele>
        <time>2012-07-10T07:40:06Z</time>
      </trkpt>
      <trkpt lat="45.63152" lon="6.99776">
        <ele>3365</ele>
        <time>2012-07-10T07:40:11Z</time>
      </trkpt>
      <trkpt lat="45.63153" lon="6.99776">
        <ele>3366</ele>
        <time>2012-07-10T07:40:16Z</time>
      </trkpt>
      <trkpt lat="45.63153" lon="6.99775">
        <ele>3366</ele>
        <time>2012-07-10T07:40:21Z</time>
      </trkpt>
      <trkpt lat="45.63154" lon="6.99774">
        <ele>3366</ele>
        <time>2012-07-10T07:40:26Z</time>
      </trkpt>
      <trkpt lat="45.63154" lon="6.99773">
        <ele>3366</ele>
        <time>2012-07-10T07:40:31Z</time>
      </trkpt>
      <trkpt lat="45.63154" lon="6.99773">
        <ele>3367</ele>
        <time>2012-07-10T07:40:36Z</time>
      </trkpt>
      <trkpt lat="45.63152" lon="6.99773">
        <ele>3367</ele>
        <time>2012-07-10T07:40:41Z</time>
      </trkpt>
      <trkpt lat="45.63151" lon="6.99772">
        <ele>3368</ele>
        <time>2012-07-10T07:40:46Z</time>
      </trkpt>
      <trkpt lat="45.63149" lon="6.99771">
        <ele>3368</ele>
        <time>2012-07-10T07:40:51Z</time>
      </trkpt>
      <trkpt lat="45.63148" lon="6.9977">
        <ele>3369</ele>
        <time>2012-07-10T07:40:56Z</time>
      </trkpt>
      <trkpt lat="45.63147" lon="6.99769">
        <ele>3370</ele>
        <time>2012-07-10T07:41:01Z</time>
      </trkpt>
      <trkpt lat="45.63146" lon="6.99768">
        <ele>3370</ele>
        <time>2012-07-10T07:41:06Z</time>
      </trkpt>
      <trkpt lat="45.63144" lon="6.99766">
        <ele>3370</ele>
        <time>2012-07-10T07:41:11Z</time>
      </trkpt>
      <trkpt lat="45.63143" lon="6.99765">
        <ele>3371</ele>
        <time>2012-07-10T07:41:16Z</time>
      </trkpt>
      <trkpt lat="45.63142" lon="6.99765">
        <ele>3371</ele>
        <time>2012-07-10T07:41:21Z</time>
      </trkpt>
      <trkpt lat="45.63142" lon="6.99765">
        <ele>3371</ele>
        <time>2012-07-10T07:41:26Z</time>
      </trkpt>
      <trkpt lat="45.63142" lon="6.99764">
        <ele>3371</ele>
        <time>2012-07-10T07:41:31Z</time>
      </trkpt>
      <trkpt lat="45.63142" lon="6.99764">
        <ele>3372</ele>
        <time>2012-07-10T07:41:36Z</time>
      </trkpt>
      <trkpt lat="45.63142" lon="6.99764">
        <ele>3372</ele>
        <time>2012-07-10T07:41:41Z</time>
      </trkpt>
      <trkpt lat="45.63142" lon="6.99764">
        <ele>3372</ele>
        <time>2012-07-10T07:41:46Z</time>
      </trkpt>
      <trkpt lat="45.63142" lon="6.99764">
        <ele>3372</ele>
        <time>2012-07-10T07:41:51Z</time>
      </trkpt>
      <trkpt lat="45.63142" lon="6.99764">
        <ele>3372</ele>
        <time>2012-07-10T07:41:56Z</time>
      </trkpt>
      <trkpt lat="45.63142" lon="6.99764">
        <ele>3372</ele>
        <time>2012-07-10T07:42:01Z</time>
      </trkpt>
      <trkpt lat="45.6314" lon="6.99763">
        <ele>3373</ele>
        <time>2012-07-10T07:42:06Z</time>
      </trkpt>
      <trkpt lat="45.63139" lon="6.99761">
        <ele>3373</ele>
        <time>2012-07-10T07:42:11Z</time>
      </trkpt>
      <trkpt lat="45.63138" lon="6.9976">
        <ele>3374</ele>
        <time>2012-07-10T07:42:16Z</time>
      </trkpt>
      <trkpt lat="45.63136" lon="6.99759">
        <ele>3374</ele>
        <time>2012-07-10T07:42:21Z</time>
      </trkpt>
      <trkpt lat="45.63136" lon="6.99758">
        <ele>3375</ele>
        <time>2012-07-10T07:42:26Z</time>
      </trkpt>
      <trkpt lat="45.63134" lon="6.99757">
        <ele>3376</ele>
        <time>2012-07-10T07:42:31Z</time>
      </trkpt>
      <trkpt lat="45.63133" lon="6.99756">
        <ele>3376</ele>
        <time>2012-07-10T07:42:36Z</time>
      </trkpt>
      <trkpt lat="45.63132" lon="6.99756">
        <ele>3377</ele>
        <time>2012-07-10T07:42:41Z</time>
      </trkpt>
      <trkpt lat="45.63131" lon="6.99755">
        <ele>3377</ele>
        <time>2012-07-10T07:42:46Z</time>
      </trkpt>
      <trkpt lat="45.63131" lon="6.99754">
        <ele>3378</ele>
        <time>2012-07-10T07:42:51Z</time>
      </trkpt>
      <trkpt lat="45.6313" lon="6.99753">
        <ele>3378</ele>
        <time>2012-07-10T07:42:56Z</time>
      </trkpt>
      <trkpt lat="45.63129" lon="6.99752">
        <ele>3378</ele>
        <time>2012-07-10T07:43:01Z</time>
      </trkpt>
      <trkpt lat="45.63128" lon="6.99752">
        <ele>3379</ele>
        <time>2012-07-10T07:43:06Z</time>
      </trkpt>
      <trkpt lat="45.63127" lon="6.99751">
        <ele>3379</ele>
        <time>2012-07-10T07:43:11Z</time>
      </trkpt>
      <trkpt lat="45.63126" lon="6.9975">
        <ele>3380</ele>
        <time>2012-07-10T07:43:16Z</time>
      </trkpt>
      <trkpt lat="45.63125" lon="6.99749">
        <ele>3380</ele>
        <time>2012-07-10T07:43:21Z</time>
      </trkpt>
      <trkpt lat="45.63124" lon="6.99749">
        <ele>3381</ele>
        <time>2012-07-10T07:43:26Z</time>
      </trkpt>
      <trkpt lat="45.63123" lon="6.99748">
        <ele>3381</ele>
        <time>2012-07-10T07:43:31Z</time>
      </trkpt>
      <trkpt lat="45.63122" lon="6.99747">
        <ele>3382</ele>
        <time>2012-07-10T07:43:36Z</time>
      </trkpt>
      <trkpt lat="45.63121" lon="6.99746">
        <ele>3382</ele>
        <time>2012-07-10T07:43:41Z</time>
      </trkpt>
      <trkpt lat="45.6312" lon="6.99745">
        <ele>3383</ele>
        <time>2012-07-10T07:43:46Z</time>
      </trkpt>
      <trkpt lat="45.6312" lon="6.99745">
        <ele>3383</ele>
        <time>2012-07-10T07:43:51Z</time>
      </trkpt>
      <trkpt lat="45.63119" lon="6.99744">
        <ele>3383</ele>
        <time>2012-07-10T07:43:56Z</time>
      </trkpt>
      <trkpt lat="45.63118" lon="6.99743">
        <ele>3384</ele>
        <time>2012-07-10T07:44:01Z</time>
      </trkpt>
      <trkpt lat="45.63118" lon="6.99743">
        <ele>3384</ele>
        <time>2012-07-10T07:44:06Z</time>
      </trkpt>
      <trkpt lat="45.63117" lon="6.99742">
        <ele>3384</ele>
        <time>2012-07-10T07:44:11Z</time>
      </trkpt>
      <trkpt lat="45.63116" lon="6.99742">
        <ele>3385</ele>
        <time>2012-07-10T07:44:16Z</time>
      </trkpt>
      <trkpt lat="45.63115" lon="6.99741">
        <ele>3385</ele>
        <time>2012-07-10T07:44:21Z</time>
      </trkpt>
      <trkpt lat="45.63114" lon="6.9974">
        <ele>3386</ele>
        <time>2012-07-10T07:44:26Z</time>
      </trkpt>
      <trkpt lat="45.63113" lon="6.99739">
        <ele>3386</ele>
        <time>2012-07-10T07:44:31Z</time>
      </trkpt>
      <trkpt lat="45.63112" lon="6.99738">
        <ele>3386</ele>
        <time>2012-07-10T07:44:36Z</time>
      </trkpt>
      <trkpt lat="45.63111" lon="6.99737">
        <ele>3387</ele>
        <time>2012-07-10T07:44:41Z</time>
      </trkpt>
      <trkpt lat="45.6311" lon="6.99737">
        <ele>3387</ele>
        <time>2012-07-10T07:44:46Z</time>
      </trkpt>
      <trkpt lat="45.63108" lon="6.99736">
        <ele>3388</ele>
        <time>2012-07-10T07:44:51Z</time>
      </trkpt>
      <trkpt lat="45.63107" lon="6.99735">
        <ele>3388</ele>
        <time>2012-07-10T07:44:56Z</time>
      </trkpt>
      <trkpt lat="45.63105" lon="6.99736">
        <ele>3389</ele>
        <time>2012-07-10T07:45:01Z</time>
      </trkpt>
      <trkpt lat="45.63104" lon="6.99735">
        <ele>3389</ele>
        <time>2012-07-10T07:45:06Z</time>
      </trkpt>
      <trkpt lat="45.63102" lon="6.99734">
        <ele>3389</ele>
        <time>2012-07-10T07:45:11Z</time>
      </trkpt>
      <trkpt lat="45.63101" lon="6.99734">
        <ele>3390</ele>
        <time>2012-07-10T07:45:16Z</time>
      </trkpt>
      <trkpt lat="45.63099" lon="6.99734">
        <ele>3390</ele>
        <time>2012-07-10T07:45:21Z</time>
      </trkpt>
      <trkpt lat="45.63099" lon="6.99734">
        <ele>3390</ele>
        <time>2012-07-10T07:45:26Z</time>
      </trkpt>
      <trkpt lat="45.63099" lon="6.99734">
        <ele>3390</ele>
        <time>2012-07-10T07:45:31Z</time>
      </trkpt>
      <trkpt lat="45.63099" lon="6.99734">
        <ele>3390</ele>
        <time>2012-07-10T07:45:36Z</time>
      </trkpt>
      <trkpt lat="45.63097" lon="6.99734">
        <ele>3390</ele>
        <time>2012-07-10T07:45:41Z</time>
      </trkpt>
      <trkpt lat="45.63096" lon="6.99734">
        <ele>3391</ele>
        <time>2012-07-10T07:45:46Z</time>
      </trkpt>
      <trkpt lat="45.63095" lon="6.99733">
        <ele>3391</ele>
        <time>2012-07-10T07:45:51Z</time>
      </trkpt>
      <trkpt lat="45.63094" lon="6.99733">
        <ele>3391</ele>
        <time>2012-07-10T07:45:56Z</time>
      </trkpt>
      <trkpt lat="45.63093" lon="6.99733">
        <ele>3391</ele>
        <time>2012-07-10T07:46:01Z</time>
      </trkpt>
      <trkpt lat="45.63091" lon="6.99732">
        <ele>3392</ele>
        <time>2012-07-10T07:46:06Z</time>
      </trkpt>
      <trkpt lat="45.6309" lon="6.99732">
        <ele>3392</ele>
        <time>2012-07-10T07:46:11Z</time>
      </trkpt>
      <trkpt lat="45.63088" lon="6.99732">
        <ele>3393</ele>
        <time>2012-07-10T07:46:16Z</time>
      </trkpt>
      <trkpt lat="45.63087" lon="6.99731">
        <ele>3393</ele>
        <time>2012-07-10T07:46:21Z</time>
      </trkpt>
      <trkpt lat="45.63084" lon="6.9973">
        <ele>3393</ele>
        <time>2012-07-10T07:46:26Z</time>
      </trkpt>
      <trkpt lat="45.63083" lon="6.99728">
        <ele>3393</ele>
        <time>2012-07-10T07:46:31Z</time>
      </trkpt>
      <trkpt lat="45.63081" lon="6.99727">
        <ele>3394</ele>
        <time>2012-07-10T07:46:36Z</time>
      </trkpt>
      <trkpt lat="45.6308" lon="6.99724">
        <ele>3393</ele>
        <time>2012-07-10T07:46:41Z</time>
      </trkpt>
      <trkpt lat="45.63078" lon="6.99722">
        <ele>3393</ele>
        <time>2012-07-10T07:46:46Z</time>
      </trkpt>
      <trkpt lat="45.63075" lon="6.9972">
        <ele>3393</ele>
        <time>2012-07-10T07:46:51Z</time>
      </trkpt>
      <trkpt lat="45.63075" lon="6.9972">
        <ele>3393</ele>
        <time>2012-07-10T07:46:56Z</time>
      </trkpt>
      <trkpt lat="45.63075" lon="6.99718">
        <ele>3393</ele>
        <time>2012-07-10T07:47:01Z</time>
      </trkpt>
      <trkpt lat="45.63073" lon="6.99716">
        <ele>3393</ele>
        <time>2012-07-10T07:47:06Z</time>
      </trkpt>
      <trkpt lat="45.6307" lon="6.99714">
        <ele>3393</ele>
        <time>2012-07-10T07:47:11Z</time>
      </trkpt>
      <trkpt lat="45.63068" lon="6.99712">
        <ele>3394</ele>
        <time>2012-07-10T07:47:16Z</time>
      </trkpt>
      <trkpt lat="45.63067" lon="6.9971">
        <ele>3394</ele>
        <time>2012-07-10T07:47:21Z</time>
      </trkpt>
      <trkpt lat="45.63065" lon="6.99708">
        <ele>3394</ele>
        <time>2012-07-10T07:47:26Z</time>
      </trkpt>
      <trkpt lat="45.63064" lon="6.99706">
        <ele>3395</ele>
        <time>2012-07-10T07:47:31Z</time>
      </trkpt>
      <trkpt lat="45.63062" lon="6.99704">
        <ele>3395</ele>
        <time>2012-07-10T07:47:36Z</time>
      </trkpt>
      <trkpt lat="45.63061" lon="6.99703">
        <ele>3395</ele>
        <time>2012-07-10T07:47:41Z</time>
      </trkpt>
      <trkpt lat="45.63059" lon="6.99701">
        <ele>3396</ele>
        <time>2012-07-10T07:47:46Z</time>
      </trkpt>
      <trkpt lat="45.63057" lon="6.997">
        <ele>3396</ele>
        <time>2012-07-10T07:47:51Z</time>
      </trkpt>
      <trkpt lat="45.63056" lon="6.99699">
        <ele>3397</ele>
        <time>2012-07-10T07:47:56Z</time>
      </trkpt>
      <trkpt lat="45.63055" lon="6.99698">
        <ele>3397</ele>
        <time>2012-07-10T07:48:01Z</time>
      </trkpt>
      <trkpt lat="45.63054" lon="6.99697">
        <ele>3398</ele>
        <time>2012-07-10T07:48:06Z</time>
      </trkpt>
      <trkpt lat="45.63052" lon="6.99695">
        <ele>3398</ele>
        <time>2012-07-10T07:48:11Z</time>
      </trkpt>
      <trkpt lat="45.63051" lon="6.99694">
        <ele>3399</ele>
        <time>2012-07-10T07:48:16Z</time>
      </trkpt>
      <trkpt lat="45.6305" lon="6.99693">
        <ele>3399</ele>
        <time>2012-07-10T07:48:21Z</time>
      </trkpt>
      <trkpt lat="45.63048" lon="6.99692">
        <ele>3400</ele>
        <time>2012-07-10T07:48:26Z</time>
      </trkpt>
      <trkpt lat="45.63047" lon="6.9969">
        <ele>3400</ele>
        <time>2012-07-10T07:48:31Z</time>
      </trkpt>
      <trkpt lat="45.63046" lon="6.99689">
        <ele>3401</ele>
        <time>2012-07-10T07:48:36Z</time>
      </trkpt>
      <trkpt lat="45.63045" lon="6.99688">
        <ele>3401</ele>
        <time>2012-07-10T07:48:41Z</time>
      </trkpt>
      <trkpt lat="45.63044" lon="6.99687">
        <ele>3402</ele>
        <time>2012-07-10T07:48:46Z</time>
      </trkpt>
      <trkpt lat="45.63042" lon="6.99686">
        <ele>3402</ele>
        <time>2012-07-10T07:48:51Z</time>
      </trkpt>
      <trkpt lat="45.63041" lon="6.99684">
        <ele>3402</ele>
        <time>2012-07-10T07:48:56Z</time>
      </trkpt>
      <trkpt lat="45.63039" lon="6.99683">
        <ele>3402</ele>
        <time>2012-07-10T07:49:01Z</time>
      </trkpt>
      <trkpt lat="45.63038" lon="6.99682">
        <ele>3403</ele>
        <time>2012-07-10T07:49:06Z</time>
      </trkpt>
      <trkpt lat="45.63036" lon="6.9968">
        <ele>3403</ele>
        <time>2012-07-10T07:49:11Z</time>
      </trkpt>
      <trkpt lat="45.63035" lon="6.99678">
        <ele>3403</ele>
        <time>2012-07-10T07:49:16Z</time>
      </trkpt>
      <trkpt lat="45.63032" lon="6.99676">
        <ele>3403</ele>
        <time>2012-07-10T07:49:21Z</time>
      </trkpt>
      <trkpt lat="45.63031" lon="6.99675">
        <ele>3403</ele>
        <time>2012-07-10T07:49:26Z</time>
      </trkpt>
      <trkpt lat="45.63029" lon="6.99674">
        <ele>3404</ele>
        <time>2012-07-10T07:49:31Z</time>
      </trkpt>
      <trkpt lat="45.63027" lon="6.99672">
        <ele>3404</ele>
        <time>2012-07-10T07:49:36Z</time>
      </trkpt>
      <trkpt lat="45.63025" lon="6.99669">
        <ele>3404</ele>
        <time>2012-07-10T07:49:41Z</time>
      </trkpt>
      <trkpt lat="45.63023" lon="6.99668">
        <ele>3404</ele>
        <time>2012-07-10T07:49:46Z</time>
      </trkpt>
      <trkpt lat="45.63022" lon="6.99668">
        <ele>3405</ele>
        <time>2012-07-10T07:49:51Z</time>
      </trkpt>
      <trkpt lat="45.63019" lon="6.99667">
        <ele>3405</ele>
        <time>2012-07-10T07:49:56Z</time>
      </trkpt>
      <trkpt lat="45.63019" lon="6.99666">
        <ele>3405</ele>
        <time>2012-07-10T07:50:01Z</time>
      </trkpt>
      <trkpt lat="45.63018" lon="6.99665">
        <ele>3405</ele>
        <time>2012-07-10T07:50:06Z</time>
      </trkpt>
      <trkpt lat="45.63017" lon="6.99665">
        <ele>3405</ele>
        <time>2012-07-10T07:50:11Z</time>
      </trkpt>
      <trkpt lat="45.63015" lon="6.99665">
        <ele>3406</ele>
        <time>2012-07-10T07:50:16Z</time>
      </trkpt>
      <trkpt lat="45.63015" lon="6.99665">
        <ele>3406</ele>
        <time>2012-07-10T07:50:21Z</time>
      </trkpt>
      <trkpt lat="45.63013" lon="6.99665">
        <ele>3406</ele>
        <time>2012-07-10T07:50:26Z</time>
      </trkpt>
      <trkpt lat="45.63012" lon="6.99664">
        <ele>3407</ele>
        <time>2012-07-10T07:50:31Z</time>
      </trkpt>
      <trkpt lat="45.6301" lon="6.99665">
        <ele>3407</ele>
        <time>2012-07-10T07:50:36Z</time>
      </trkpt>
      <trkpt lat="45.6301" lon="6.99665">
        <ele>3407</ele>
        <time>2012-07-10T07:50:41Z</time>
      </trkpt>
      <trkpt lat="45.63009" lon="6.99665">
        <ele>3407</ele>
        <time>2012-07-10T07:50:46Z</time>
      </trkpt>
      <trkpt lat="45.63009" lon="6.99664">
        <ele>3407</ele>
        <time>2012-07-10T07:50:51Z</time>
      </trkpt>
      <trkpt lat="45.63007" lon="6.99665">
        <ele>3408</ele>
        <time>2012-07-10T07:50:56Z</time>
      </trkpt>
      <trkpt lat="45.63006" lon="6.99665">
        <ele>3408</ele>
        <time>2012-07-10T07:51:01Z</time>
      </trkpt>
      <trkpt lat="45.63005" lon="6.99666">
        <ele>3408</ele>
        <time>2012-07-10T07:51:06Z</time>
      </trkpt>
      <trkpt lat="45.63004" lon="6.99667">
        <ele>3409</ele>
        <time>2012-07-10T07:51:11Z</time>
      </trkpt>
      <trkpt lat="45.63002" lon="6.99665">
        <ele>3409</ele>
        <time>2012-07-10T07:51:16Z</time>
      </trkpt>
      <trkpt lat="45.63002" lon="6.99665">
        <ele>3410</ele>
        <time>2012-07-10T07:51:21Z</time>
      </trkpt>
      <trkpt lat="45.63001" lon="6.99666">
        <ele>3410</ele>
        <time>2012-07-10T07:51:26Z</time>
      </trkpt>
      <trkpt lat="45.63" lon="6.99666">
        <ele>3410</ele>
        <time>2012-07-10T07:51:31Z</time>
      </trkpt>
      <trkpt lat="45.62999" lon="6.99667">
        <ele>3411</ele>
        <time>2012-07-10T07:51:36Z</time>
      </trkpt>
      <trkpt lat="45.62998" lon="6.99667">
        <ele>3411</ele>
        <time>2012-07-10T07:51:41Z</time>
      </trkpt>
      <trkpt lat="45.62996" lon="6.99667">
        <ele>3412</ele>
        <time>2012-07-10T07:51:46Z</time>
      </trkpt>
      <trkpt lat="45.62994" lon="6.99666">
        <ele>3412</ele>
        <time>2012-07-10T07:51:51Z</time>
      </trkpt>
      <trkpt lat="45.62994" lon="6.99666">
        <ele>3412</ele>
        <time>2012-07-10T07:51:56Z</time>
      </trkpt>
      <trkpt lat="45.62992" lon="6.99665">
        <ele>3412</ele>
        <time>2012-07-10T07:52:01Z</time>
      </trkpt>
      <trkpt lat="45.62991" lon="6.99665">
        <ele>3412</ele>
        <time>2012-07-10T07:52:06Z</time>
      </trkpt>
      <trkpt lat="45.62991" lon="6.99664">
        <ele>3412</ele>
        <time>2012-07-10T07:52:11Z</time>
      </trkpt>
      <trkpt lat="45.6299" lon="6.99664">
        <ele>3412</ele>
        <time>2012-07-10T07:52:16Z</time>
      </trkpt>
      <trkpt lat="45.62988" lon="6.99662">
        <ele>3412</ele>
        <time>2012-07-10T07:52:21Z</time>
      </trkpt>
      <trkpt lat="45.62987" lon="6.99661">
        <ele>3412</ele>
        <time>2012-07-10T07:52:26Z</time>
      </trkpt>
      <trkpt lat="45.62986" lon="6.9966">
        <ele>3412</ele>
        <time>2012-07-10T07:52:31Z</time>
      </trkpt>
      <trkpt lat="45.62984" lon="6.99659">
        <ele>3413</ele>
        <time>2012-07-10T07:56:36Z</time>
      </trkpt>
      <trkpt lat="45.62984" lon="6.99657">
        <ele>3413</ele>
        <time>2012-07-10T07:56:41Z</time>
      </trkpt>
      <trkpt lat="45.62983" lon="6.99655">
        <ele>3412</ele>
        <time>2012-07-10T07:56:46Z</time>
      </trkpt>
      <trkpt lat="45.62983" lon="6.99653">
        <ele>3411</ele>
        <time>2012-07-10T07:56:51Z</time>
      </trkpt>
      <trkpt lat="45.62982" lon="6.99651">
        <ele>3411</ele>
        <time>2012-07-10T07:56:56Z</time>
      </trkpt>
      <trkpt lat="45.62981" lon="6.99648">
        <ele>3411</ele>
        <time>2012-07-10T07:57:01Z</time>
      </trkpt>
      <trkpt lat="45.62979" lon="6.99646">
        <ele>3411</ele>
        <time>2012-07-10T07:57:06Z</time>
      </trkpt>
      <trkpt lat="45.62978" lon="6.99644">
        <ele>3411</ele>
        <time>2012-07-10T07:57:11Z</time>
      </trkpt>
      <trkpt lat="45.62978" lon="6.99642">
        <ele>3411</ele>
        <time>2012-07-10T07:57:16Z</time>
      </trkpt>
      <trkpt lat="45.62977" lon="6.99639">
        <ele>3411</ele>
        <time>2012-07-10T07:57:21Z</time>
      </trkpt>
      <trkpt lat="45.62976" lon="6.99638">
        <ele>3411</ele>
        <time>2012-07-10T07:57:26Z</time>
      </trkpt>
      <trkpt lat="45.62975" lon="6.99636">
        <ele>3410</ele>
        <time>2012-07-10T07:57:31Z</time>
      </trkpt>
      <trkpt lat="45.62974" lon="6.99633">
        <ele>3411</ele>
        <time>2012-07-10T07:57:36Z</time>
      </trkpt>
      <trkpt lat="45.62973" lon="6.99632">
        <ele>3410</ele>
        <time>2012-07-10T07:57:41Z</time>
      </trkpt>
      <trkpt lat="45.62972" lon="6.9963">
        <ele>3411</ele>
        <time>2012-07-10T07:57:46Z</time>
      </trkpt>
      <trkpt lat="45.62971" lon="6.99629">
        <ele>3410</ele>
        <time>2012-07-10T07:57:51Z</time>
      </trkpt>
      <trkpt lat="45.62971" lon="6.99628">
        <ele>3411</ele>
        <time>2012-07-10T07:57:56Z</time>
      </trkpt>
      <trkpt lat="45.6297" lon="6.99625">
        <ele>3411</ele>
        <time>2012-07-10T07:58:01Z</time>
      </trkpt>
      <trkpt lat="45.62969" lon="6.99622">
        <ele>3411</ele>
        <time>2012-07-10T07:58:06Z</time>
      </trkpt>
      <trkpt lat="45.62968" lon="6.99619">
        <ele>3411</ele>
        <time>2012-07-10T07:58:11Z</time>
      </trkpt>
      <trkpt lat="45.62966" lon="6.99616">
        <ele>3411</ele>
        <time>2012-07-10T07:58:16Z</time>
      </trkpt>
      <trkpt lat="45.62965" lon="6.99614">
        <ele>3411</ele>
        <time>2012-07-10T07:58:21Z</time>
      </trkpt>
      <trkpt lat="45.62964" lon="6.99611">
        <ele>3411</ele>
        <time>2012-07-10T07:58:26Z</time>
      </trkpt>
      <trkpt lat="45.62963" lon="6.9961">
        <ele>3411</ele>
        <time>2012-07-10T07:58:31Z</time>
      </trkpt>
      <trkpt lat="45.62963" lon="6.99608">
        <ele>3411</ele>
        <time>2012-07-10T07:58:36Z</time>
      </trkpt>
      <trkpt lat="45.62964" lon="6.99606">
        <ele>3411</ele>
        <time>2012-07-10T07:58:41Z</time>
      </trkpt>
      <trkpt lat="45.62964" lon="6.99605">
        <ele>3410</ele>
        <time>2012-07-10T07:58:46Z</time>
      </trkpt>
      <trkpt lat="45.62962" lon="6.99602">
        <ele>3411</ele>
        <time>2012-07-10T07:58:51Z</time>
      </trkpt>
      <trkpt lat="45.6296" lon="6.99601">
        <ele>3411</ele>
        <time>2012-07-10T07:58:56Z</time>
      </trkpt>
      <trkpt lat="45.62961" lon="6.996">
        <ele>3410</ele>
        <time>2012-07-10T07:59:01Z</time>
      </trkpt>
      <trkpt lat="45.62959" lon="6.996">
        <ele>3410</ele>
        <time>2012-07-10T07:59:06Z</time>
      </trkpt>
      <trkpt lat="45.62959" lon="6.99599">
        <ele>3411</ele>
        <time>2012-07-10T07:59:11Z</time>
      </trkpt>
      <trkpt lat="45.62958" lon="6.99599">
        <ele>3411</ele>
        <time>2012-07-10T07:59:16Z</time>
      </trkpt>
      <trkpt lat="45.62956" lon="6.99598">
        <ele>3411</ele>
        <time>2012-07-10T07:59:21Z</time>
      </trkpt>
      <trkpt lat="45.62956" lon="6.99597">
        <ele>3411</ele>
        <time>2012-07-10T07:59:26Z</time>
      </trkpt>
      <trkpt lat="45.62956" lon="6.99596">
        <ele>3411</ele>
        <time>2012-07-10T07:59:31Z</time>
      </trkpt>
      <trkpt lat="45.62954" lon="6.99595">
        <ele>3411</ele>
        <time>2012-07-10T07:59:36Z</time>
      </trkpt>
      <trkpt lat="45.62954" lon="6.99595">
        <ele>3411</ele>
        <time>2012-07-10T07:59:41Z</time>
      </trkpt>
      <trkpt lat="45.62954" lon="6.99595">
        <ele>3411</ele>
        <time>2012-07-10T07:59:46Z</time>
      </trkpt>
      <trkpt lat="45.62953" lon="6.99593">
        <ele>3411</ele>
        <time>2012-07-10T07:59:51Z</time>
      </trkpt>
      <trkpt lat="45.62953" lon="6.99592">
        <ele>3412</ele>
        <time>2012-07-10T07:59:56Z</time>
      </trkpt>
      <trkpt lat="45.62953" lon="6.99592">
        <ele>3412</ele>
        <time>2012-07-10T08:00:01Z</time>
      </trkpt>
      <trkpt lat="45.62951" lon="6.9959">
        <ele>3412</ele>
        <time>2012-07-10T08:00:06Z</time>
      </trkpt>
      <trkpt lat="45.62951" lon="6.99588">
        <ele>3412</ele>
        <time>2012-07-10T08:00:11Z</time>
      </trkpt>
      <trkpt lat="45.6295" lon="6.99587">
        <ele>3413</ele>
        <time>2012-07-10T08:00:16Z</time>
      </trkpt>
      <trkpt lat="45.62948" lon="6.99585">
        <ele>3413</ele>
        <time>2012-07-10T08:00:21Z</time>
      </trkpt>
      <trkpt lat="45.62946" lon="6.99584">
        <ele>3413</ele>
        <time>2012-07-10T08:00:26Z</time>
      </trkpt>
      <trkpt lat="45.62946" lon="6.99581">
        <ele>3413</ele>
        <time>2012-07-10T08:00:31Z</time>
      </trkpt>
      <trkpt lat="45.62944" lon="6.99579">
        <ele>3412</ele>
        <time>2012-07-10T08:00:36Z</time>
      </trkpt>
      <trkpt lat="45.62943" lon="6.99577">
        <ele>3412</ele>
        <time>2012-07-10T08:00:41Z</time>
      </trkpt>
      <trkpt lat="45.62942" lon="6.99575">
        <ele>3412</ele>
        <time>2012-07-10T08:00:46Z</time>
      </trkpt>
      <trkpt lat="45.62941" lon="6.99574">
        <ele>3412</ele>
        <time>2012-07-10T08:00:51Z</time>
      </trkpt>
      <trkpt lat="45.6294" lon="6.99574">
        <ele>3412</ele>
        <time>2012-07-10T08:00:56Z</time>
      </trkpt>
      <trkpt lat="45.62938" lon="6.99573">
        <ele>3412</ele>
        <time>2012-07-10T08:01:01Z</time>
      </trkpt>
      <trkpt lat="45.62938" lon="6.99571">
        <ele>3412</ele>
        <time>2012-07-10T08:01:06Z</time>
      </trkpt>
      <trkpt lat="45.62937" lon="6.99568">
        <ele>3412</ele>
        <time>2012-07-10T08:01:11Z</time>
      </trkpt>
      <trkpt lat="45.62936" lon="6.99567">
        <ele>3412</ele>
        <time>2012-07-10T08:01:16Z</time>
      </trkpt>
      <trkpt lat="45.62936" lon="6.99566">
        <ele>3413</ele>
        <time>2012-07-10T08:01:21Z</time>
      </trkpt>
      <trkpt lat="45.62935" lon="6.99565">
        <ele>3414</ele>
        <time>2012-07-10T08:01:26Z</time>
      </trkpt>
      <trkpt lat="45.62934" lon="6.99565">
        <ele>3414</ele>
        <time>2012-07-10T08:01:31Z</time>
      </trkpt>
      <trkpt lat="45.62933" lon="6.99565">
        <ele>3411</ele>
        <time>2012-07-10T08:09:51Z</time>
      </trkpt>
      <trkpt lat="45.62933" lon="6.99565">
        <ele>3411</ele>
        <time>2012-07-10T08:09:56Z</time>
      </trkpt>
      <trkpt lat="45.62934" lon="6.99565">
        <ele>3411</ele>
        <time>2012-07-10T08:10:01Z</time>
      </trkpt>
      <trkpt lat="45.62935" lon="6.99565">
        <ele>3410</ele>
        <time>2012-07-10T08:10:06Z</time>
      </trkpt>
      <trkpt lat="45.62935" lon="6.99565">
        <ele>3410</ele>
        <time>2012-07-10T08:10:11Z</time>
      </trkpt>
      <trkpt lat="45.62935" lon="6.99566">
        <ele>3410</ele>
        <time>2012-07-10T08:10:16Z</time>
      </trkpt>
      <trkpt lat="45.62936" lon="6.99567">
        <ele>3409</ele>
        <time>2012-07-10T08:10:21Z</time>
      </trkpt>
      <trkpt lat="45.62937" lon="6.99569">
        <ele>3408</ele>
        <time>2012-07-10T08:10:26Z</time>
      </trkpt>
      <trkpt lat="45.62938" lon="6.99569">
        <ele>3408</ele>
        <time>2012-07-10T08:10:31Z</time>
      </trkpt>
      <trkpt lat="45.62938" lon="6.9957">
        <ele>3408</ele>
        <time>2012-07-10T08:10:36Z</time>
      </trkpt>
      <trkpt lat="45.62938" lon="6.99573">
        <ele>3409</ele>
        <time>2012-07-10T08:10:41Z</time>
      </trkpt>
      <trkpt lat="45.62939" lon="6.99574">
        <ele>3409</ele>
        <time>2012-07-10T08:10:46Z</time>
      </trkpt>
      <trkpt lat="45.6294" lon="6.99575">
        <ele>3408</ele>
        <time>2012-07-10T08:10:51Z</time>
      </trkpt>
      <trkpt lat="45.62941" lon="6.99576">
        <ele>3408</ele>
        <time>2012-07-10T08:10:56Z</time>
      </trkpt>
      <trkpt lat="45.62943" lon="6.99577">
        <ele>3408</ele>
        <time>2012-07-10T08:11:01Z</time>
      </trkpt>
      <trkpt lat="45.62944" lon="6.99578">
        <ele>3409</ele>
        <time>2012-07-10T08:11:06Z</time>
      </trkpt>
      <trkpt lat="45.62944" lon="6.9958">
        <ele>3409</ele>
        <time>2012-07-10T08:11:11Z</time>
      </trkpt>
      <trkpt lat="45.62944" lon="6.9958">
        <ele>3409</ele>
        <time>2012-07-10T08:11:16Z</time>
      </trkpt>
      <trkpt lat="45.62945" lon="6.99581">
        <ele>3409</ele>
        <time>2012-07-10T08:11:21Z</time>
      </trkpt>
      <trkpt lat="45.62946" lon="6.99583">
        <ele>3410</ele>
        <time>2012-07-10T08:11:26Z</time>
      </trkpt>
      <trkpt lat="45.62947" lon="6.99585">
        <ele>3410</ele>
        <time>2012-07-10T08:11:31Z</time>
      </trkpt>
      <trkpt lat="45.62947" lon="6.99586">
        <ele>3411</ele>
        <time>2012-07-10T08:11:36Z</time>
      </trkpt>
      <trkpt lat="45.62947" lon="6.99586">
        <ele>3411</ele>
        <time>2012-07-10T08:11:41Z</time>
      </trkpt>
      <trkpt lat="45.62947" lon="6.99586">
        <ele>3411</ele>
        <time>2012-07-10T08:11:46Z</time>
      </trkpt>
      <trkpt lat="45.62947" lon="6.99586">
        <ele>3411</ele>
        <time>2012-07-10T08:11:51Z</time>
      </trkpt>
      <trkpt lat="45.62947" lon="6.99586">
        <ele>3411</ele>
        <time>2012-07-10T08:11:56Z</time>
      </trkpt>
      <trkpt lat="45.62947" lon="6.99587">
        <ele>3411</ele>
        <time>2012-07-10T08:12:01Z</time>
      </trkpt>
      <trkpt lat="45.62947" lon="6.99587">
        <ele>3412</ele>
        <time>2012-07-10T08:12:06Z</time>
      </trkpt>
      <trkpt lat="45.62948" lon="6.99587">
        <ele>3412</ele>
        <time>2012-07-10T08:12:11Z</time>
      </trkpt>
      <trkpt lat="45.62949" lon="6.99588">
        <ele>3412</ele>
        <time>2012-07-10T08:12:16Z</time>
      </trkpt>
      <trkpt lat="45.6295" lon="6.9959">
        <ele>3411</ele>
        <time>2012-07-10T08:12:21Z</time>
      </trkpt>
      <trkpt lat="45.62951" lon="6.99591">
        <ele>3411</ele>
        <time>2012-07-10T08:12:26Z</time>
      </trkpt>
      <trkpt lat="45.62951" lon="6.99593">
        <ele>3411</ele>
        <time>2012-07-10T08:12:31Z</time>
      </trkpt>
      <trkpt lat="45.62953" lon="6.99594">
        <ele>3411</ele>
        <time>2012-07-10T08:12:36Z</time>
      </trkpt>
      <trkpt lat="45.62953" lon="6.99595">
        <ele>3411</ele>
        <time>2012-07-10T08:12:41Z</time>
      </trkpt>
      <trkpt lat="45.62953" lon="6.99596">
        <ele>3411</ele>
        <time>2012-07-10T08:12:46Z</time>
      </trkpt>
      <trkpt lat="45.62954" lon="6.99597">
        <ele>3411</ele>
        <time>2012-07-10T08:12:51Z</time>
      </trkpt>
      <trkpt lat="45.62956" lon="6.99599">
        <ele>3411</ele>
        <time>2012-07-10T08:12:56Z</time>
      </trkpt>
      <trkpt lat="45.62956" lon="6.99599">
        <ele>3410</ele>
        <time>2012-07-10T08:13:01Z</time>
      </trkpt>
      <trkpt lat="45.62957" lon="6.996">
        <ele>3410</ele>
        <time>2012-07-10T08:13:06Z</time>
      </trkpt>
      <trkpt lat="45.62959" lon="6.99601">
        <ele>3410</ele>
        <time>2012-07-10T08:13:11Z</time>
      </trkpt>
      <trkpt lat="45.62961" lon="6.99602">
        <ele>3410</ele>
        <time>2012-07-10T08:13:16Z</time>
      </trkpt>
      <trkpt lat="45.62962" lon="6.99603">
        <ele>3410</ele>
        <time>2012-07-10T08:13:21Z</time>
      </trkpt>
      <trkpt lat="45.62964" lon="6.99606">
        <ele>3410</ele>
        <time>2012-07-10T08:13:26Z</time>
      </trkpt>
      <trkpt lat="45.62964" lon="6.99607">
        <ele>3410</ele>
        <time>2012-07-10T08:13:31Z</time>
      </trkpt>
      <trkpt lat="45.62963" lon="6.99609">
        <ele>3410</ele>
        <time>2012-07-10T08:13:36Z</time>
      </trkpt>
      <trkpt lat="45.62965" lon="6.99613">
        <ele>3410</ele>
        <time>2012-07-10T08:13:41Z</time>
      </trkpt>
      <trkpt lat="45.62965" lon="6.99616">
        <ele>3411</ele>
        <time>2012-07-10T08:13:46Z</time>
      </trkpt>
      <trkpt lat="45.62967" lon="6.99619">
        <ele>3410</ele>
        <time>2012-07-10T08:13:51Z</time>
      </trkpt>
      <trkpt lat="45.62969" lon="6.99621">
        <ele>3410</ele>
        <time>2012-07-10T08:13:56Z</time>
      </trkpt>
      <trkpt lat="45.62969" lon="6.99621">
        <ele>3410</ele>
        <time>2012-07-10T08:14:01Z</time>
      </trkpt>
      <trkpt lat="45.62969" lon="6.99621">
        <ele>3410</ele>
        <time>2012-07-10T08:14:06Z</time>
      </trkpt>
      <trkpt lat="45.62969" lon="6.99623">
        <ele>3410</ele>
        <time>2012-07-10T08:14:11Z</time>
      </trkpt>
      <trkpt lat="45.6297" lon="6.99624">
        <ele>3410</ele>
        <time>2012-07-10T08:14:16Z</time>
      </trkpt>
      <trkpt lat="45.62972" lon="6.99625">
        <ele>3409</ele>
        <time>2012-07-10T08:14:21Z</time>
      </trkpt>
      <trkpt lat="45.62973" lon="6.99625">
        <ele>3409</ele>
        <time>2012-07-10T08:14:26Z</time>
      </trkpt>
      <trkpt lat="45.62973" lon="6.99625">
        <ele>3409</ele>
        <time>2012-07-10T08:14:31Z</time>
      </trkpt>
      <trkpt lat="45.62975" lon="6.99627">
        <ele>3408</ele>
        <time>2012-07-10T08:14:36Z</time>
      </trkpt>
      <trkpt lat="45.62977" lon="6.99628">
        <ele>3408</ele>
        <time>2012-07-10T08:14:41Z</time>
      </trkpt>
      <trkpt lat="45.62976" lon="6.99628">
        <ele>3408</ele>
        <time>2012-07-10T08:14:46Z</time>
      </trkpt>
      <trkpt lat="45.62977" lon="6.99628">
        <ele>3408</ele>
        <time>2012-07-10T08:14:51Z</time>
      </trkpt>
      <trkpt lat="45.62978" lon="6.99628">
        <ele>3407</ele>
        <time>2012-07-10T08:14:56Z</time>
      </trkpt>
      <trkpt lat="45.62978" lon="6.99628">
        <ele>3407</ele>
        <time>2012-07-10T08:15:01Z</time>
      </trkpt>
      <trkpt lat="45.62979" lon="6.99628">
        <ele>3407</ele>
        <time>2012-07-10T08:15:06Z</time>
      </trkpt>
      <trkpt lat="45.6298" lon="6.99628">
        <ele>3407</ele>
        <time>2012-07-10T08:15:11Z</time>
      </trkpt>
      <trkpt lat="45.62981" lon="6.99629">
        <ele>3407</ele>
        <time>2012-07-10T08:15:16Z</time>
      </trkpt>
      <trkpt lat="45.62982" lon="6.99631">
        <ele>3407</ele>
        <time>2012-07-10T08:15:21Z</time>
      </trkpt>
      <trkpt lat="45.62983" lon="6.99635">
        <ele>3407</ele>
        <time>2012-07-10T08:15:26Z</time>
      </trkpt>
      <trkpt lat="45.62985" lon="6.99638">
        <ele>3407</ele>
        <time>2012-07-10T08:15:31Z</time>
      </trkpt>
      <trkpt lat="45.62985" lon="6.99638">
        <ele>3407</ele>
        <time>2012-07-10T08:15:36Z</time>
      </trkpt>
      <trkpt lat="45.62986" lon="6.9964">
        <ele>3407</ele>
        <time>2012-07-10T08:15:41Z</time>
      </trkpt>
      <trkpt lat="45.62987" lon="6.99641">
        <ele>3407</ele>
        <time>2012-07-10T08:15:46Z</time>
      </trkpt>
      <trkpt lat="45.62988" lon="6.99641">
        <ele>3406</ele>
        <time>2012-07-10T08:15:51Z</time>
      </trkpt>
      <trkpt lat="45.62989" lon="6.99643">
        <ele>3406</ele>
        <time>2012-07-10T08:15:56Z</time>
      </trkpt>
      <trkpt lat="45.6299" lon="6.99644">
        <ele>3406</ele>
        <time>2012-07-10T08:16:01Z</time>
      </trkpt>
      <trkpt lat="45.62991" lon="6.99646">
        <ele>3407</ele>
        <time>2012-07-10T08:16:06Z</time>
      </trkpt>
      <trkpt lat="45.62993" lon="6.99648">
        <ele>3406</ele>
        <time>2012-07-10T08:16:11Z</time>
      </trkpt>
      <trkpt lat="45.62994" lon="6.9965">
        <ele>3406</ele>
        <time>2012-07-10T08:16:16Z</time>
      </trkpt>
      <trkpt lat="45.62995" lon="6.99651">
        <ele>3406</ele>
        <time>2012-07-10T08:16:21Z</time>
      </trkpt>
      <trkpt lat="45.62996" lon="6.99652">
        <ele>3406</ele>
        <time>2012-07-10T08:16:26Z</time>
      </trkpt>
      <trkpt lat="45.62996" lon="6.99653">
        <ele>3406</ele>
        <time>2012-07-10T08:16:31Z</time>
      </trkpt>
      <trkpt lat="45.62997" lon="6.99654">
        <ele>3407</ele>
        <time>2012-07-10T08:16:36Z</time>
      </trkpt>
      <trkpt lat="45.62998" lon="6.99656">
        <ele>3407</ele>
        <time>2012-07-10T08:16:41Z</time>
      </trkpt>
      <trkpt lat="45.62999" lon="6.99657">
        <ele>3407</ele>
        <time>2012-07-10T08:16:46Z</time>
      </trkpt>
      <trkpt lat="45.63001" lon="6.99659">
        <ele>3407</ele>
        <time>2012-07-10T08:16:51Z</time>
      </trkpt>
      <trkpt lat="45.63002" lon="6.99661">
        <ele>3407</ele>
        <time>2012-07-10T08:16:56Z</time>
      </trkpt>
      <trkpt lat="45.63002" lon="6.99661">
        <ele>3407</ele>
        <time>2012-07-10T08:17:01Z</time>
      </trkpt>
      <trkpt lat="45.63004" lon="6.99662">
        <ele>3407</ele>
        <time>2012-07-10T08:17:06Z</time>
      </trkpt>
      <trkpt lat="45.63005" lon="6.99663">
        <ele>3407</ele>
        <time>2012-07-10T08:17:11Z</time>
      </trkpt>
      <trkpt lat="45.63005" lon="6.99663">
        <ele>3407</ele>
        <time>2012-07-10T08:17:16Z</time>
      </trkpt>
      <trkpt lat="45.63005" lon="6.99663">
        <ele>3407</ele>
        <time>2012-07-10T08:17:21Z</time>
      </trkpt>
      <trkpt lat="45.63005" lon="6.99663">
        <ele>3407</ele>
        <time>2012-07-10T08:17:26Z</time>
      </trkpt>
      <trkpt lat="45.63006" lon="6.99664">
        <ele>3407</ele>
        <time>2012-07-10T08:17:31Z</time>
      </trkpt>
      <trkpt lat="45.63007" lon="6.99664">
        <ele>3407</ele>
        <time>2012-07-10T08:17:36Z</time>
      </trkpt>
      <trkpt lat="45.63008" lon="6.99665">
        <ele>3407</ele>
        <time>2012-07-10T08:17:41Z</time>
      </trkpt>
      <trkpt lat="45.63009" lon="6.99666">
        <ele>3407</ele>
        <time>2012-07-10T08:17:46Z</time>
      </trkpt>
      <trkpt lat="45.6301" lon="6.99668">
        <ele>3407</ele>
        <time>2012-07-10T08:17:51Z</time>
      </trkpt>
      <trkpt lat="45.63012" lon="6.99666">
        <ele>3407</ele>
        <time>2012-07-10T08:17:56Z</time>
      </trkpt>
      <trkpt lat="45.63014" lon="6.99666">
        <ele>3406</ele>
        <time>2012-07-10T08:18:01Z</time>
      </trkpt>
      <trkpt lat="45.63015" lon="6.99666">
        <ele>3406</ele>
        <time>2012-07-10T08:18:06Z</time>
      </trkpt>
      <trkpt lat="45.63016" lon="6.99666">
        <ele>3406</ele>
        <time>2012-07-10T08:18:11Z</time>
      </trkpt>
      <trkpt lat="45.63019" lon="6.99667">
        <ele>3405</ele>
        <time>2012-07-10T08:18:16Z</time>
      </trkpt>
      <trkpt lat="45.63019" lon="6.99667">
        <ele>3405</ele>
        <time>2012-07-10T08:18:21Z</time>
      </trkpt>
      <trkpt lat="45.63021" lon="6.99669">
        <ele>3405</ele>
        <time>2012-07-10T08:18:26Z</time>
      </trkpt>
      <trkpt lat="45.63022" lon="6.99669">
        <ele>3404</ele>
        <time>2012-07-10T08:18:31Z</time>
      </trkpt>
      <trkpt lat="45.63025" lon="6.9967">
        <ele>3404</ele>
        <time>2012-07-10T08:18:36Z</time>
      </trkpt>
      <trkpt lat="45.63027" lon="6.99672">
        <ele>3403</ele>
        <time>2012-07-10T08:18:41Z</time>
      </trkpt>
      <trkpt lat="45.63028" lon="6.99674">
        <ele>3403</ele>
        <time>2012-07-10T08:18:46Z</time>
      </trkpt>
      <trkpt lat="45.63031" lon="6.99676">
        <ele>3402</ele>
        <time>2012-07-10T08:18:51Z</time>
      </trkpt>
      <trkpt lat="45.63034" lon="6.99679">
        <ele>3402</ele>
        <time>2012-07-10T08:18:56Z</time>
      </trkpt>
      <trkpt lat="45.63036" lon="6.9968">
        <ele>3402</ele>
        <time>2012-07-10T08:19:01Z</time>
      </trkpt>
      <trkpt lat="45.63038" lon="6.99683">
        <ele>3402</ele>
        <time>2012-07-10T08:19:06Z</time>
      </trkpt>
      <trkpt lat="45.6304" lon="6.99685">
        <ele>3401</ele>
        <time>2012-07-10T08:19:11Z</time>
      </trkpt>
      <trkpt lat="45.63042" lon="6.99687">
        <ele>3401</ele>
        <time>2012-07-10T08:19:16Z</time>
      </trkpt>
      <trkpt lat="45.63043" lon="6.99687">
        <ele>3400</ele>
        <time>2012-07-10T08:19:21Z</time>
      </trkpt>
      <trkpt lat="45.63044" lon="6.99688">
        <ele>3400</ele>
        <time>2012-07-10T08:19:26Z</time>
      </trkpt>
      <trkpt lat="45.63046" lon="6.9969">
        <ele>3399</ele>
        <time>2012-07-10T08:19:31Z</time>
      </trkpt>
      <trkpt lat="45.63048" lon="6.99692">
        <ele>3399</ele>
        <time>2012-07-10T08:19:36Z</time>
      </trkpt>
      <trkpt lat="45.63049" lon="6.99694">
        <ele>3398</ele>
        <time>2012-07-10T08:19:41Z</time>
      </trkpt>
      <trkpt lat="45.63052" lon="6.99696">
        <ele>3397</ele>
        <time>2012-07-10T08:19:46Z</time>
      </trkpt>
      <trkpt lat="45.63053" lon="6.99697">
        <ele>3396</ele>
        <time>2012-07-10T08:19:51Z</time>
      </trkpt>
      <trkpt lat="45.63055" lon="6.99699">
        <ele>3396</ele>
        <time>2012-07-10T08:19:56Z</time>
      </trkpt>
      <trkpt lat="45.63057" lon="6.99701">
        <ele>3395</ele>
        <time>2012-07-10T08:20:01Z</time>
      </trkpt>
      <trkpt lat="45.6306" lon="6.99703">
        <ele>3394</ele>
        <time>2012-07-10T08:20:06Z</time>
      </trkpt>
      <trkpt lat="45.63061" lon="6.99704">
        <ele>3394</ele>
        <time>2012-07-10T08:20:11Z</time>
      </trkpt>
      <trkpt lat="45.63064" lon="6.99707">
        <ele>3394</ele>
        <time>2012-07-10T08:20:16Z</time>
      </trkpt>
      <trkpt lat="45.63065" lon="6.99709">
        <ele>3394</ele>
        <time>2012-07-10T08:20:21Z</time>
      </trkpt>
      <trkpt lat="45.63067" lon="6.99712">
        <ele>3393</ele>
        <time>2012-07-10T08:20:26Z</time>
      </trkpt>
      <trkpt lat="45.6307" lon="6.99715">
        <ele>3393</ele>
        <time>2012-07-10T08:20:31Z</time>
      </trkpt>
      <trkpt lat="45.63072" lon="6.99717">
        <ele>3393</ele>
        <time>2012-07-10T08:20:36Z</time>
      </trkpt>
      <trkpt lat="45.63074" lon="6.9972">
        <ele>3393</ele>
        <time>2012-07-10T08:20:41Z</time>
      </trkpt>
      <trkpt lat="45.63076" lon="6.99723">
        <ele>3393</ele>
        <time>2012-07-10T08:20:46Z</time>
      </trkpt>
      <trkpt lat="45.63077" lon="6.99724">
        <ele>3393</ele>
        <time>2012-07-10T08:20:51Z</time>
      </trkpt>
      <trkpt lat="45.63079" lon="6.99726">
        <ele>3393</ele>
        <time>2012-07-10T08:20:56Z</time>
      </trkpt>
      <trkpt lat="45.6308" lon="6.99728">
        <ele>3393</ele>
        <time>2012-07-10T08:21:01Z</time>
      </trkpt>
      <trkpt lat="45.63082" lon="6.99731">
        <ele>3393</ele>
        <time>2012-07-10T08:21:06Z</time>
      </trkpt>
      <trkpt lat="45.63084" lon="6.99733">
        <ele>3393</ele>
        <time>2012-07-10T08:21:11Z</time>
      </trkpt>
      <trkpt lat="45.63087" lon="6.99735">
        <ele>3393</ele>
        <time>2012-07-10T08:21:16Z</time>
      </trkpt>
      <trkpt lat="45.63088" lon="6.99734">
        <ele>3393</ele>
        <time>2012-07-10T08:21:21Z</time>
      </trkpt>
      <trkpt lat="45.63092" lon="6.99736">
        <ele>3392</ele>
        <time>2012-07-10T08:21:26Z</time>
      </trkpt>
      <trkpt lat="45.63093" lon="6.99736">
        <ele>3392</ele>
        <time>2012-07-10T08:21:31Z</time>
      </trkpt>
      <trkpt lat="45.63093" lon="6.99736">
        <ele>3392</ele>
        <time>2012-07-10T08:21:36Z</time>
      </trkpt>
      <trkpt lat="45.63093" lon="6.99736">
        <ele>3392</ele>
        <time>2012-07-10T08:21:41Z</time>
      </trkpt>
      <trkpt lat="45.63094" lon="6.99735">
        <ele>3391</ele>
        <time>2012-07-10T08:21:46Z</time>
      </trkpt>
      <trkpt lat="45.63094" lon="6.99735">
        <ele>3391</ele>
        <time>2012-07-10T08:21:51Z</time>
      </trkpt>
      <trkpt lat="45.63097" lon="6.99736">
        <ele>3391</ele>
        <time>2012-07-10T08:21:56Z</time>
      </trkpt>
      <trkpt lat="45.63097" lon="6.99736">
        <ele>3390</ele>
        <time>2012-07-10T08:22:01Z</time>
      </trkpt>
      <trkpt lat="45.63098" lon="6.99736">
        <ele>3390</ele>
        <time>2012-07-10T08:22:06Z</time>
      </trkpt>
      <trkpt lat="45.631" lon="6.99736">
        <ele>3390</ele>
        <time>2012-07-10T08:22:11Z</time>
      </trkpt>
      <trkpt lat="45.63103" lon="6.99736">
        <ele>3389</ele>
        <time>2012-07-10T08:22:16Z</time>
      </trkpt>
      <trkpt lat="45.63105" lon="6.99737">
        <ele>3388</ele>
        <time>2012-07-10T08:22:21Z</time>
      </trkpt>
      <trkpt lat="45.63108" lon="6.99737">
        <ele>3387</ele>
        <time>2012-07-10T08:22:26Z</time>
      </trkpt>
      <trkpt lat="45.6311" lon="6.99739">
        <ele>3386</ele>
        <time>2012-07-10T08:22:31Z</time>
      </trkpt>
      <trkpt lat="45.63112" lon="6.9974">
        <ele>3385</ele>
        <time>2012-07-10T08:22:36Z</time>
      </trkpt>
      <trkpt lat="45.63113" lon="6.99741">
        <ele>3385</ele>
        <time>2012-07-10T08:22:41Z</time>
      </trkpt>
      <trkpt lat="45.63115" lon="6.99742">
        <ele>3384</ele>
        <time>2012-07-10T08:22:46Z</time>
      </trkpt>
      <trkpt lat="45.63117" lon="6.99744">
        <ele>3383</ele>
        <time>2012-07-10T08:22:51Z</time>
      </trkpt>
      <trkpt lat="45.63118" lon="6.99745">
        <ele>3383</ele>
        <time>2012-07-10T08:22:56Z</time>
      </trkpt>
      <trkpt lat="45.6312" lon="6.99746">
        <ele>3382</ele>
        <time>2012-07-10T08:23:01Z</time>
      </trkpt>
      <trkpt lat="45.63122" lon="6.99748">
        <ele>3381</ele>
        <time>2012-07-10T08:23:06Z</time>
      </trkpt>
      <trkpt lat="45.63123" lon="6.99749">
        <ele>3380</ele>
        <time>2012-07-10T08:23:11Z</time>
      </trkpt>
      <trkpt lat="45.63125" lon="6.99751">
        <ele>3379</ele>
        <time>2012-07-10T08:23:16Z</time>
      </trkpt>
      <trkpt lat="45.63127" lon="6.99752">
        <ele>3378</ele>
        <time>2012-07-10T08:23:21Z</time>
      </trkpt>
      <trkpt lat="45.63128" lon="6.99753">
        <ele>3377</ele>
        <time>2012-07-10T08:23:26Z</time>
      </trkpt>
      <trkpt lat="45.6313" lon="6.99754">
        <ele>3377</ele>
        <time>2012-07-10T08:23:31Z</time>
      </trkpt>
      <trkpt lat="45.63131" lon="6.99756">
        <ele>3376</ele>
        <time>2012-07-10T08:23:36Z</time>
      </trkpt>
      <trkpt lat="45.63133" lon="6.99757">
        <ele>3375</ele>
        <time>2012-07-10T08:23:41Z</time>
      </trkpt>
      <trkpt lat="45.63135" lon="6.99759">
        <ele>3374</ele>
        <time>2012-07-10T08:23:46Z</time>
      </trkpt>
      <trkpt lat="45.63136" lon="6.9976">
        <ele>3373</ele>
        <time>2012-07-10T08:23:51Z</time>
      </trkpt>
      <trkpt lat="45.63139" lon="6.99762">
        <ele>3372</ele>
        <time>2012-07-10T08:23:56Z</time>
      </trkpt>
      <trkpt lat="45.63141" lon="6.99765">
        <ele>3372</ele>
        <time>2012-07-10T08:24:01Z</time>
      </trkpt>
      <trkpt lat="45.63142" lon="6.99766">
        <ele>3371</ele>
        <time>2012-07-10T08:24:06Z</time>
      </trkpt>
      <trkpt lat="45.63145" lon="6.99768">
        <ele>3370</ele>
        <time>2012-07-10T08:24:11Z</time>
      </trkpt>
      <trkpt lat="45.63147" lon="6.99771">
        <ele>3369</ele>
        <time>2012-07-10T08:24:16Z</time>
      </trkpt>
      <trkpt lat="45.63149" lon="6.99773">
        <ele>3368</ele>
        <time>2012-07-10T08:24:21Z</time>
      </trkpt>
      <trkpt lat="45.6315" lon="6.99774">
        <ele>3368</ele>
        <time>2012-07-10T08:24:26Z</time>
      </trkpt>
      <trkpt lat="45.63152" lon="6.99775">
        <ele>3367</ele>
        <time>2012-07-10T08:24:31Z</time>
      </trkpt>
      <trkpt lat="45.63154" lon="6.99777">
        <ele>3367</ele>
        <time>2012-07-10T08:24:36Z</time>
      </trkpt>
      <trkpt lat="45.63153" lon="6.99778">
        <ele>3366</ele>
        <time>2012-07-10T08:24:41Z</time>
      </trkpt>
      <trkpt lat="45.63152" lon="6.99779">
        <ele>3365</ele>
        <time>2012-07-10T08:24:46Z</time>
      </trkpt>
      <trkpt lat="45.6315" lon="6.9978">
        <ele>3364</ele>
        <time>2012-07-10T08:24:51Z</time>
      </trkpt>
      <trkpt lat="45.63149" lon="6.99782">
        <ele>3363</ele>
        <time>2012-07-10T08:24:56Z</time>
      </trkpt>
      <trkpt lat="45.63147" lon="6.99786">
        <ele>3362</ele>
        <time>2012-07-10T08:25:01Z</time>
      </trkpt>
      <trkpt lat="45.63146" lon="6.9979">
        <ele>3360</ele>
        <time>2012-07-10T08:25:06Z</time>
      </trkpt>
      <trkpt lat="45.63147" lon="6.99794">
        <ele>3359</ele>
        <time>2012-07-10T08:25:11Z</time>
      </trkpt>
      <trkpt lat="45.63149" lon="6.99799">
        <ele>3358</ele>
        <time>2012-07-10T08:25:16Z</time>
      </trkpt>
      <trkpt lat="45.6315" lon="6.99803">
        <ele>3358</ele>
        <time>2012-07-10T08:25:21Z</time>
      </trkpt>
      <trkpt lat="45.63152" lon="6.99808">
        <ele>3357</ele>
        <time>2012-07-10T08:25:26Z</time>
      </trkpt>
      <trkpt lat="45.63154" lon="6.99811">
        <ele>3356</ele>
        <time>2012-07-10T08:25:31Z</time>
      </trkpt>
      <trkpt lat="45.63156" lon="6.99814">
        <ele>3355</ele>
        <time>2012-07-10T08:25:36Z</time>
      </trkpt>
      <trkpt lat="45.63159" lon="6.99818">
        <ele>3355</ele>
        <time>2012-07-10T08:25:41Z</time>
      </trkpt>
      <trkpt lat="45.6316" lon="6.99822">
        <ele>3354</ele>
        <time>2012-07-10T08:25:46Z</time>
      </trkpt>
      <trkpt lat="45.63162" lon="6.99827">
        <ele>3353</ele>
        <time>2012-07-10T08:25:51Z</time>
      </trkpt>
      <trkpt lat="45.63163" lon="6.99832">
        <ele>3353</ele>
        <time>2012-07-10T08:25:56Z</time>
      </trkpt>
      <trkpt lat="45.63164" lon="6.99832">
        <ele>3353</ele>
        <time>2012-07-10T08:26:01Z</time>
      </trkpt>
      <trkpt lat="45.63165" lon="6.99834">
        <ele>3353</ele>
        <time>2012-07-10T08:26:06Z</time>
      </trkpt>
      <trkpt lat="45.63165" lon="6.99834">
        <ele>3353</ele>
        <time>2012-07-10T08:26:11Z</time>
      </trkpt>
      <trkpt lat="45.63167" lon="6.99835">
        <ele>3353</ele>
        <time>2012-07-10T08:26:16Z</time>
      </trkpt>
      <trkpt lat="45.63167" lon="6.99835">
        <ele>3353</ele>
        <time>2012-07-10T08:26:21Z</time>
      </trkpt>
      <trkpt lat="45.63167" lon="6.99835">
        <ele>3353</ele>
        <time>2012-07-10T08:26:26Z</time>
      </trkpt>
      <trkpt lat="45.63167" lon="6.99836">
        <ele>3353</ele>
        <time>2012-07-10T08:26:31Z</time>
      </trkpt>
      <trkpt lat="45.63167" lon="6.99836">
        <ele>3353</ele>
        <time>2012-07-10T08:26:36Z</time>
      </trkpt>
      <trkpt lat="45.63167" lon="6.99836">
        <ele>3353</ele>
        <time>2012-07-10T08:26:41Z</time>
      </trkpt>
      <trkpt lat="45.63167" lon="6.99836">
        <ele>3353</ele>
        <time>2012-07-10T08:26:46Z</time>
      </trkpt>
      <trkpt lat="45.63169" lon="6.99838">
        <ele>3353</ele>
        <time>2012-07-10T08:26:51Z</time>
      </trkpt>
      <trkpt lat="45.63171" lon="6.99841">
        <ele>3353</ele>
        <time>2012-07-10T08:26:56Z</time>
      </trkpt>
      <trkpt lat="45.63173" lon="6.99843">
        <ele>3352</ele>
        <time>2012-07-10T08:27:01Z</time>
      </trkpt>
      <trkpt lat="45.63175" lon="6.99842">
        <ele>3352</ele>
        <time>2012-07-10T08:27:06Z</time>
      </trkpt>
      <trkpt lat="45.63177" lon="6.99839">
        <ele>3350</ele>
        <time>2012-07-10T08:27:11Z</time>
      </trkpt>
      <trkpt lat="45.6318" lon="6.99838">
        <ele>3348</ele>
        <time>2012-07-10T08:27:16Z</time>
      </trkpt>
      <trkpt lat="45.63183" lon="6.99837">
        <ele>3345</ele>
        <time>2012-07-10T08:27:21Z</time>
      </trkpt>
      <trkpt lat="45.63187" lon="6.99834">
        <ele>3342</ele>
        <time>2012-07-10T08:27:26Z</time>
      </trkpt>
      <trkpt lat="45.63191" lon="6.99833">
        <ele>3340</ele>
        <time>2012-07-10T08:27:31Z</time>
      </trkpt>
      <trkpt lat="45.63195" lon="6.99832">
        <ele>3338</ele>
        <time>2012-07-10T08:27:36Z</time>
      </trkpt>
      <trkpt lat="45.63196" lon="6.99833">
        <ele>3338</ele>
        <time>2012-07-10T08:27:41Z</time>
      </trkpt>
      <trkpt lat="45.63199" lon="6.99833">
        <ele>3338</ele>
        <time>2012-07-10T08:27:46Z</time>
      </trkpt>
      <trkpt lat="45.632" lon="6.99833">
        <ele>3338</ele>
        <time>2012-07-10T08:27:51Z</time>
      </trkpt>
      <trkpt lat="45.632" lon="6.99834">
        <ele>3338</ele>
        <time>2012-07-10T08:27:56Z</time>
      </trkpt>
      <trkpt lat="45.63199" lon="6.99834">
        <ele>3338</ele>
        <time>2012-07-10T08:28:01Z</time>
      </trkpt>
      <trkpt lat="45.63199" lon="6.99834">
        <ele>3338</ele>
        <time>2012-07-10T08:28:06Z</time>
      </trkpt>
      <trkpt lat="45.63198" lon="6.99834">
        <ele>3337</ele>
        <time>2012-07-10T08:28:11Z</time>
      </trkpt>
      <trkpt lat="45.63198" lon="6.99835">
        <ele>3337</ele>
        <time>2012-07-10T08:28:16Z</time>
      </trkpt>
      <trkpt lat="45.63198" lon="6.99835">
        <ele>3337</ele>
        <time>2012-07-10T08:28:21Z</time>
      </trkpt>
      <trkpt lat="45.63199" lon="6.99835">
        <ele>3337</ele>
        <time>2012-07-10T08:28:26Z</time>
      </trkpt>
      <trkpt lat="45.63199" lon="6.99835">
        <ele>3337</ele>
        <time>2012-07-10T08:28:31Z</time>
      </trkpt>
      <trkpt lat="45.63198" lon="6.99835">
        <ele>3337</ele>
        <time>2012-07-10T08:28:36Z</time>
      </trkpt>
      <trkpt lat="45.63198" lon="6.99835">
        <ele>3336</ele>
        <time>2012-07-10T08:28:41Z</time>
      </trkpt>
      <trkpt lat="45.63198" lon="6.99835">
        <ele>3336</ele>
        <time>2012-07-10T08:28:46Z</time>
      </trkpt>
      <trkpt lat="45.63198" lon="6.99835">
        <ele>3336</ele>
        <time>2012-07-10T08:28:51Z</time>
      </trkpt>
      <trkpt lat="45.63198" lon="6.99835">
        <ele>3336</ele>
        <time>2012-07-10T08:28:56Z</time>
      </trkpt>
      <trkpt lat="45.63198" lon="6.99834">
        <ele>3336</ele>
        <time>2012-07-10T08:29:01Z</time>
      </trkpt>
      <trkpt lat="45.63198" lon="6.99835">
        <ele>3336</ele>
        <time>2012-07-10T08:29:06Z</time>
      </trkpt>
      <trkpt lat="45.63198" lon="6.99834">
        <ele>3335</ele>
        <time>2012-07-10T08:29:11Z</time>
      </trkpt>
      <trkpt lat="45.63198" lon="6.99835">
        <ele>3335</ele>
        <time>2012-07-10T08:29:16Z</time>
      </trkpt>
      <trkpt lat="45.632" lon="6.99836">
        <ele>3335</ele>
        <time>2012-07-10T08:29:21Z</time>
      </trkpt>
      <trkpt lat="45.63203" lon="6.99839">
        <ele>3334</ele>
        <time>2012-07-10T08:29:26Z</time>
      </trkpt>
      <trkpt lat="45.63207" lon="6.99843">
        <ele>3334</ele>
        <time>2012-07-10T08:29:31Z</time>
      </trkpt>
      <trkpt lat="45.63211" lon="6.99847">
        <ele>3333</ele>
        <time>2012-07-10T08:29:36Z</time>
      </trkpt>
      <trkpt lat="45.63214" lon="6.99849">
        <ele>3333</ele>
        <time>2012-07-10T08:29:41Z</time>
      </trkpt>
      <trkpt lat="45.63217" lon="6.99854">
        <ele>3333</ele>
        <time>2012-07-10T08:29:46Z</time>
      </trkpt>
      <trkpt lat="45.63221" lon="6.99858">
        <ele>3333</ele>
        <time>2012-07-10T08:29:51Z</time>
      </trkpt>
      <trkpt lat="45.63223" lon="6.99862">
        <ele>3333</ele>
        <time>2012-07-10T08:29:56Z</time>
      </trkpt>
      <trkpt lat="45.63226" lon="6.99866">
        <ele>3332</ele>
        <time>2012-07-10T08:30:01Z</time>
      </trkpt>
      <trkpt lat="45.6323" lon="6.99871">
        <ele>3332</ele>
        <time>2012-07-10T08:30:06Z</time>
      </trkpt>
      <trkpt lat="45.63234" lon="6.99875">
        <ele>3332</ele>
        <time>2012-07-10T08:30:11Z</time>
      </trkpt>
      <trkpt lat="45.63237" lon="6.99879">
        <ele>3331</ele>
        <time>2012-07-10T08:30:16Z</time>
      </trkpt>
      <trkpt lat="45.63241" lon="6.99884">
        <ele>3331</ele>
        <time>2012-07-10T08:30:21Z</time>
      </trkpt>
      <trkpt lat="45.63244" lon="6.99887">
        <ele>3331</ele>
        <time>2012-07-10T08:30:26Z</time>
      </trkpt>
      <trkpt lat="45.63249" lon="6.99891">
        <ele>3331</ele>
        <time>2012-07-10T08:30:31Z</time>
      </trkpt>
      <trkpt lat="45.63253" lon="6.99896">
        <ele>3331</ele>
        <time>2012-07-10T08:30:36Z</time>
      </trkpt>
      <trkpt lat="45.63257" lon="6.99901">
        <ele>3331</ele>
        <time>2012-07-10T08:30:41Z</time>
      </trkpt>
      <trkpt lat="45.6326" lon="6.99905">
        <ele>3330</ele>
        <time>2012-07-10T08:30:46Z</time>
      </trkpt>
      <trkpt lat="45.63264" lon="6.99909">
        <ele>3330</ele>
        <time>2012-07-10T08:30:51Z</time>
      </trkpt>
      <trkpt lat="45.63268" lon="6.99912">
        <ele>3330</ele>
        <time>2012-07-10T08:30:56Z</time>
      </trkpt>
      <trkpt lat="45.63271" lon="6.99915">
        <ele>3331</ele>
        <time>2012-07-10T08:31:01Z</time>
      </trkpt>
      <trkpt lat="45.63274" lon="6.99918">
        <ele>3331</ele>
        <time>2012-07-10T08:31:06Z</time>
      </trkpt>
      <trkpt lat="45.63277" lon="6.9992">
        <ele>3331</ele>
        <time>2012-07-10T08:31:11Z</time>
      </trkpt>
      <trkpt lat="45.63281" lon="6.99923">
        <ele>3331</ele>
        <time>2012-07-10T08:31:16Z</time>
      </trkpt>
      <trkpt lat="45.63284" lon="6.99925">
        <ele>3331</ele>
        <time>2012-07-10T08:31:21Z</time>
      </trkpt>
      <trkpt lat="45.63287" lon="6.99928">
        <ele>3331</ele>
        <time>2012-07-10T08:31:26Z</time>
      </trkpt>
      <trkpt lat="45.6329" lon="6.99932">
        <ele>3331</ele>
        <time>2012-07-10T08:31:31Z</time>
      </trkpt>
      <trkpt lat="45.63292" lon="6.99935">
        <ele>3331</ele>
        <time>2012-07-10T08:31:36Z</time>
      </trkpt>
      <trkpt lat="45.63295" lon="6.99939">
        <ele>3331</ele>
        <time>2012-07-10T08:31:41Z</time>
      </trkpt>
      <trkpt lat="45.63298" lon="6.99942">
        <ele>3332</ele>
        <time>2012-07-10T08:31:46Z</time>
      </trkpt>
      <trkpt lat="45.63301" lon="6.99945">
        <ele>3332</ele>
        <time>2012-07-10T08:31:51Z</time>
      </trkpt>
      <trkpt lat="45.63303" lon="6.99948">
        <ele>3332</ele>
        <time>2012-07-10T08:31:56Z</time>
      </trkpt>
      <trkpt lat="45.63305" lon="6.9995">
        <ele>3332</ele>
        <time>2012-07-10T08:32:01Z</time>
      </trkpt>
      <trkpt lat="45.63307" lon="6.99952">
        <ele>3333</ele>
        <time>2012-07-10T08:32:06Z</time>
      </trkpt>
      <trkpt lat="45.6331" lon="6.99955">
        <ele>3333</ele>
        <time>2012-07-10T08:32:11Z</time>
      </trkpt>
      <trkpt lat="45.63312" lon="6.99957">
        <ele>3333</ele>
        <time>2012-07-10T08:32:16Z</time>
      </trkpt>
      <trkpt lat="45.63314" lon="6.9996">
        <ele>3333</ele>
        <time>2012-07-10T08:32:21Z</time>
      </trkpt>
      <trkpt lat="45.63316" lon="6.99962">
        <ele>3334</ele>
        <time>2012-07-10T08:32:26Z</time>
      </trkpt>
      <trkpt lat="45.63318" lon="6.99965">
        <ele>3334</ele>
        <time>2012-07-10T08:32:31Z</time>
      </trkpt>
      <trkpt lat="45.63321" lon="6.99967">
        <ele>3335</ele>
        <time>2012-07-10T08:32:36Z</time>
      </trkpt>
      <trkpt lat="45.63322" lon="6.99969">
        <ele>3335</ele>
        <time>2012-07-10T08:32:41Z</time>
      </trkpt>
      <trkpt lat="45.63324" lon="6.99972">
        <ele>3335</ele>
        <time>2012-07-10T08:32:46Z</time>
      </trkpt>
      <trkpt lat="45.63326" lon="6.99973">
        <ele>3335</ele>
        <time>2012-07-10T08:32:51Z</time>
      </trkpt>
      <trkpt lat="45.63328" lon="6.99976">
        <ele>3336</ele>
        <time>2012-07-10T08:32:56Z</time>
      </trkpt>
      <trkpt lat="45.6333" lon="6.99978">
        <ele>3336</ele>
        <time>2012-07-10T08:33:01Z</time>
      </trkpt>
      <trkpt lat="45.63332" lon="6.9998">
        <ele>3336</ele>
        <time>2012-07-10T08:33:06Z</time>
      </trkpt>
      <trkpt lat="45.63334" lon="6.99981">
        <ele>3336</ele>
        <time>2012-07-10T08:33:11Z</time>
      </trkpt>
      <trkpt lat="45.63335" lon="6.99983">
        <ele>3337</ele>
        <time>2012-07-10T08:33:16Z</time>
      </trkpt>
      <trkpt lat="45.63337" lon="6.99985">
        <ele>3337</ele>
        <time>2012-07-10T08:33:21Z</time>
      </trkpt>
      <trkpt lat="45.63338" lon="6.99988">
        <ele>3337</ele>
        <time>2012-07-10T08:33:26Z</time>
      </trkpt>
      <trkpt lat="45.6334" lon="6.99991">
        <ele>3337</ele>
        <time>2012-07-10T08:33:31Z</time>
      </trkpt>
      <trkpt lat="45.63342" lon="6.99993">
        <ele>3337</ele>
        <time>2012-07-10T08:33:36Z</time>
      </trkpt>
      <trkpt lat="45.63344" lon="6.99996">
        <ele>3337</ele>
        <time>2012-07-10T08:33:41Z</time>
      </trkpt>
      <trkpt lat="45.63346" lon="6.99998">
        <ele>3337</ele>
        <time>2012-07-10T08:33:46Z</time>
      </trkpt>
      <trkpt lat="45.63347" lon="6.99999">
        <ele>3337</ele>
        <time>2012-07-10T08:33:51Z</time>
      </trkpt>
      <trkpt lat="45.63349" lon="7.00001">
        <ele>3338</ele>
        <time>2012-07-10T08:33:56Z</time>
      </trkpt>
      <trkpt lat="45.63351" lon="7.00003">
        <ele>3338</ele>
        <time>2012-07-10T08:34:01Z</time>
      </trkpt>
      <trkpt lat="45.63352" lon="7.00005">
        <ele>3338</ele>
        <time>2012-07-10T08:34:06Z</time>
      </trkpt>
      <trkpt lat="45.63354" lon="7.00007">
        <ele>3339</ele>
        <time>2012-07-10T08:34:11Z</time>
      </trkpt>
      <trkpt lat="45.63356" lon="7.0001">
        <ele>3339</ele>
        <time>2012-07-10T08:34:16Z</time>
      </trkpt>
      <trkpt lat="45.63358" lon="7.00012">
        <ele>3339</ele>
        <time>2012-07-10T08:34:21Z</time>
      </trkpt>
      <trkpt lat="45.6336" lon="7.00014">
        <ele>3339</ele>
        <time>2012-07-10T08:34:26Z</time>
      </trkpt>
      <trkpt lat="45.63363" lon="7.00017">
        <ele>3339</ele>
        <time>2012-07-10T08:34:31Z</time>
      </trkpt>
      <trkpt lat="45.63365" lon="7.00019">
        <ele>3339</ele>
        <time>2012-07-10T08:34:36Z</time>
      </trkpt>
      <trkpt lat="45.63368" lon="7.00023">
        <ele>3339</ele>
        <time>2012-07-10T08:34:41Z</time>
      </trkpt>
      <trkpt lat="45.63371" lon="7.00026">
        <ele>3339</ele>
        <time>2012-07-10T08:34:46Z</time>
      </trkpt>
      <trkpt lat="45.63374" lon="7.00029">
        <ele>3338</ele>
        <time>2012-07-10T08:34:51Z</time>
      </trkpt>
      <trkpt lat="45.63379" lon="7.00031">
        <ele>3337</ele>
        <time>2012-07-10T08:34:56Z</time>
      </trkpt>
      <trkpt lat="45.63383" lon="7.00032">
        <ele>3336</ele>
        <time>2012-07-10T08:35:01Z</time>
      </trkpt>
      <trkpt lat="45.63387" lon="7.00035">
        <ele>3335</ele>
        <time>2012-07-10T08:35:06Z</time>
      </trkpt>
      <trkpt lat="45.63391" lon="7.00038">
        <ele>3333</ele>
        <time>2012-07-10T08:35:11Z</time>
      </trkpt>
      <trkpt lat="45.63396" lon="7.00039">
        <ele>3332</ele>
        <time>2012-07-10T08:35:16Z</time>
      </trkpt>
      <trkpt lat="45.634" lon="7.00042">
        <ele>3331</ele>
        <time>2012-07-10T08:35:21Z</time>
      </trkpt>
      <trkpt lat="45.63403" lon="7.00044">
        <ele>3330</ele>
        <time>2012-07-10T08:35:26Z</time>
      </trkpt>
      <trkpt lat="45.63408" lon="7.00047">
        <ele>3329</ele>
        <time>2012-07-10T08:35:31Z</time>
      </trkpt>
      <trkpt lat="45.63413" lon="7.00051">
        <ele>3328</ele>
        <time>2012-07-10T08:35:36Z</time>
      </trkpt>
      <trkpt lat="45.63416" lon="7.00054">
        <ele>3327</ele>
        <time>2012-07-10T08:35:41Z</time>
      </trkpt>
      <trkpt lat="45.6342" lon="7.00055">
        <ele>3326</ele>
        <time>2012-07-10T08:35:46Z</time>
      </trkpt>
      <trkpt lat="45.63423" lon="7.00057">
        <ele>3326</ele>
        <time>2012-07-10T08:35:51Z</time>
      </trkpt>
      <trkpt lat="45.63426" lon="7.00059">
        <ele>3326</ele>
        <time>2012-07-10T08:35:56Z</time>
      </trkpt>
      <trkpt lat="45.6343" lon="7.00062">
        <ele>3326</ele>
        <time>2012-07-10T08:36:01Z</time>
      </trkpt>
      <trkpt lat="45.63433" lon="7.00066">
        <ele>3326</ele>
        <time>2012-07-10T08:36:06Z</time>
      </trkpt>
      <trkpt lat="45.63436" lon="7.00068">
        <ele>3326</ele>
        <time>2012-07-10T08:36:11Z</time>
      </trkpt>
      <trkpt lat="45.6344" lon="7.00072">
        <ele>3325</ele>
        <time>2012-07-10T08:36:16Z</time>
      </trkpt>
      <trkpt lat="45.63443" lon="7.00075">
        <ele>3325</ele>
        <time>2012-07-10T08:36:21Z</time>
      </trkpt>
      <trkpt lat="45.63447" lon="7.00078">
        <ele>3324</ele>
        <time>2012-07-10T08:36:26Z</time>
      </trkpt>
      <trkpt lat="45.6345" lon="7.00083">
        <ele>3324</ele>
        <time>2012-07-10T08:36:31Z</time>
      </trkpt>
      <trkpt lat="45.63453" lon="7.00086">
        <ele>3324</ele>
        <time>2012-07-10T08:36:36Z</time>
      </trkpt>
      <trkpt lat="45.63457" lon="7.0009">
        <ele>3324</ele>
        <time>2012-07-10T08:36:41Z</time>
      </trkpt>
      <trkpt lat="45.6346" lon="7.00095">
        <ele>3323</ele>
        <time>2012-07-10T08:36:46Z</time>
      </trkpt>
      <trkpt lat="45.63464" lon="7.00099">
        <ele>3323</ele>
        <time>2012-07-10T08:36:51Z</time>
      </trkpt>
      <trkpt lat="45.63467" lon="7.00102">
        <ele>3322</ele>
        <time>2012-07-10T08:36:56Z</time>
      </trkpt>
      <trkpt lat="45.63471" lon="7.00105">
        <ele>3322</ele>
        <time>2012-07-10T08:37:01Z</time>
      </trkpt>
      <trkpt lat="45.63475" lon="7.00108">
        <ele>3321</ele>
        <time>2012-07-10T08:37:06Z</time>
      </trkpt>
      <trkpt lat="45.63477" lon="7.0011">
        <ele>3321</ele>
        <time>2012-07-10T08:37:11Z</time>
      </trkpt>
      <trkpt lat="45.63477" lon="7.0011">
        <ele>3321</ele>
        <time>2012-07-10T08:37:16Z</time>
      </trkpt>
      <trkpt lat="45.63477" lon="7.0011">
        <ele>3321</ele>
        <time>2012-07-10T08:37:21Z</time>
      </trkpt>
      <trkpt lat="45.63477" lon="7.0011">
        <ele>3321</ele>
        <time>2012-07-10T08:37:26Z</time>
      </trkpt>
      <trkpt lat="45.63477" lon="7.0011">
        <ele>3321</ele>
        <time>2012-07-10T08:37:31Z</time>
      </trkpt>
      <trkpt lat="45.63477" lon="7.0011">
        <ele>3321</ele>
        <time>2012-07-10T08:37:36Z</time>
      </trkpt>
      <trkpt lat="45.63477" lon="7.00109">
        <ele>3321</ele>
        <time>2012-07-10T08:37:41Z</time>
      </trkpt>
      <trkpt lat="45.63481" lon="7.00111">
        <ele>3321</ele>
        <time>2012-07-10T08:37:46Z</time>
      </trkpt>
      <trkpt lat="45.63485" lon="7.00113">
        <ele>3320</ele>
        <time>2012-07-10T08:37:51Z</time>
      </trkpt>
      <trkpt lat="45.6349" lon="7.00114">
        <ele>3319</ele>
        <time>2012-07-10T08:37:56Z</time>
      </trkpt>
      <trkpt lat="45.63495" lon="7.00115">
        <ele>3319</ele>
        <time>2012-07-10T08:38:01Z</time>
      </trkpt>
      <trkpt lat="45.63499" lon="7.00117">
        <ele>3318</ele>
        <time>2012-07-10T08:38:06Z</time>
      </trkpt>
      <trkpt lat="45.63503" lon="7.00117">
        <ele>3318</ele>
        <time>2012-07-10T08:38:11Z</time>
      </trkpt>
      <trkpt lat="45.63508" lon="7.00118">
        <ele>3317</ele>
        <time>2012-07-10T08:38:16Z</time>
      </trkpt>
      <trkpt lat="45.63511" lon="7.00119">
        <ele>3317</ele>
        <time>2012-07-10T08:38:21Z</time>
      </trkpt>
      <trkpt lat="45.63515" lon="7.00121">
        <ele>3316</ele>
        <time>2012-07-10T08:38:26Z</time>
      </trkpt>
      <trkpt lat="45.63518" lon="7.00122">
        <ele>3316</ele>
        <time>2012-07-10T08:38:31Z</time>
      </trkpt>
      <trkpt lat="45.6352" lon="7.00123">
        <ele>3316</ele>
        <time>2012-07-10T08:38:36Z</time>
      </trkpt>
      <trkpt lat="45.63524" lon="7.00125">
        <ele>3316</ele>
        <time>2012-07-10T08:38:41Z</time>
      </trkpt>
      <trkpt lat="45.63527" lon="7.00125">
        <ele>3315</ele>
        <time>2012-07-10T08:38:46Z</time>
      </trkpt>
      <trkpt lat="45.63532" lon="7.00126">
        <ele>3315</ele>
        <time>2012-07-10T08:38:51Z</time>
      </trkpt>
      <trkpt lat="45.63535" lon="7.00128">
        <ele>3314</ele>
        <time>2012-07-10T08:38:56Z</time>
      </trkpt>
      <trkpt lat="45.63537" lon="7.00129">
        <ele>3314</ele>
        <time>2012-07-10T08:39:01Z</time>
      </trkpt>
      <trkpt lat="45.63537" lon="7.00129">
        <ele>3314</ele>
        <time>2012-07-10T08:39:06Z</time>
      </trkpt>
      <trkpt lat="45.63537" lon="7.00129">
        <ele>3314</ele>
        <time>2012-07-10T08:39:11Z</time>
      </trkpt>
      <trkpt lat="45.63537" lon="7.00129">
        <ele>3314</ele>
        <time>2012-07-10T08:39:16Z</time>
      </trkpt>
      <trkpt lat="45.63537" lon="7.00129">
        <ele>3314</ele>
        <time>2012-07-10T08:39:21Z</time>
      </trkpt>
      <trkpt lat="45.63537" lon="7.00129">
        <ele>3314</ele>
        <time>2012-07-10T08:39:26Z</time>
      </trkpt>
      <trkpt lat="45.63537" lon="7.00129">
        <ele>3314</ele>
        <time>2012-07-10T08:39:31Z</time>
      </trkpt>
      <trkpt lat="45.63537" lon="7.00129">
        <ele>3314</ele>
        <time>2012-07-10T08:39:36Z</time>
      </trkpt>
      <trkpt lat="45.63537" lon="7.00129">
        <ele>3314</ele>
        <time>2012-07-10T08:39:41Z</time>
      </trkpt>
      <trkpt lat="45.63537" lon="7.00129">
        <ele>3313</ele>
        <time>2012-07-10T08:39:46Z</time>
      </trkpt>
      <trkpt lat="45.63537" lon="7.00129">
        <ele>3313</ele>
        <time>2012-07-10T08:39:51Z</time>
      </trkpt>
      <trkpt lat="45.63537" lon="7.00129">
        <ele>3313</ele>
        <time>2012-07-10T08:39:56Z</time>
      </trkpt>
      <trkpt lat="45.63537" lon="7.00129">
        <ele>3313</ele>
        <time>2012-07-10T08:40:01Z</time>
      </trkpt>
      <trkpt lat="45.63537" lon="7.00129">
        <ele>3313</ele>
        <time>2012-07-10T08:40:06Z</time>
      </trkpt>
      <trkpt lat="45.63537" lon="7.00129">
        <ele>3313</ele>
        <time>2012-07-10T08:40:11Z</time>
      </trkpt>
      <trkpt lat="45.63537" lon="7.00129">
        <ele>3313</ele>
        <time>2012-07-10T08:40:16Z</time>
      </trkpt>
      <trkpt lat="45.63537" lon="7.00129">
        <ele>3313</ele>
        <time>2012-07-10T08:40:21Z</time>
      </trkpt>
      <trkpt lat="45.63537" lon="7.00129">
        <ele>3313</ele>
        <time>2012-07-10T08:40:26Z</time>
      </trkpt>
      <trkpt lat="45.63537" lon="7.00129">
        <ele>3313</ele>
        <time>2012-07-10T08:40:31Z</time>
      </trkpt>
      <trkpt lat="45.63537" lon="7.0013">
        <ele>3313</ele>
        <time>2012-07-10T08:40:36Z</time>
      </trkpt>
      <trkpt lat="45.63537" lon="7.0013">
        <ele>3313</ele>
        <time>2012-07-10T08:40:41Z</time>
      </trkpt>
      <trkpt lat="45.63537" lon="7.0013">
        <ele>3313</ele>
        <time>2012-07-10T08:40:46Z</time>
      </trkpt>
      <trkpt lat="45.63538" lon="7.00131">
        <ele>3313</ele>
        <time>2012-07-10T08:40:51Z</time>
      </trkpt>
      <trkpt lat="45.63541" lon="7.00134">
        <ele>3313</ele>
        <time>2012-07-10T08:40:56Z</time>
      </trkpt>
      <trkpt lat="45.63546" lon="7.00136">
        <ele>3312</ele>
        <time>2012-07-10T08:41:01Z</time>
      </trkpt>
      <trkpt lat="45.6355" lon="7.0014">
        <ele>3311</ele>
        <time>2012-07-10T08:41:06Z</time>
      </trkpt>
      <trkpt lat="45.63554" lon="7.00143">
        <ele>3310</ele>
        <time>2012-07-10T08:41:11Z</time>
      </trkpt>
      <trkpt lat="45.63558" lon="7.00148">
        <ele>3309</ele>
        <time>2012-07-10T08:41:16Z</time>
      </trkpt>
      <trkpt lat="45.63562" lon="7.00152">
        <ele>3308</ele>
        <time>2012-07-10T08:41:21Z</time>
      </trkpt>
      <trkpt lat="45.63567" lon="7.00156">
        <ele>3307</ele>
        <time>2012-07-10T08:41:26Z</time>
      </trkpt>
      <trkpt lat="45.63571" lon="7.0016">
        <ele>3306</ele>
        <time>2012-07-10T08:41:31Z</time>
      </trkpt>
      <trkpt lat="45.63575" lon="7.00165">
        <ele>3305</ele>
        <time>2012-07-10T08:41:36Z</time>
      </trkpt>
      <trkpt lat="45.63579" lon="7.00169">
        <ele>3304</ele>
        <time>2012-07-10T08:41:41Z</time>
      </trkpt>
      <trkpt lat="45.63583" lon="7.00171">
        <ele>3303</ele>
        <time>2012-07-10T08:41:46Z</time>
      </trkpt>
      <trkpt lat="45.63588" lon="7.00174">
        <ele>3303</ele>
        <time>2012-07-10T08:41:51Z</time>
      </trkpt>
      <trkpt lat="45.6359" lon="7.00175">
        <ele>3303</ele>
        <time>2012-07-10T08:41:56Z</time>
      </trkpt>
      <trkpt lat="45.6359" lon="7.00175">
        <ele>3303</ele>
        <time>2012-07-10T08:42:01Z</time>
      </trkpt>
      <trkpt lat="45.63593" lon="7.00177">
        <ele>3303</ele>
        <time>2012-07-10T08:42:06Z</time>
      </trkpt>
      <trkpt lat="45.63597" lon="7.00179">
        <ele>3302</ele>
        <time>2012-07-10T08:42:11Z</time>
      </trkpt>
      <trkpt lat="45.63599" lon="7.0018">
        <ele>3302</ele>
        <time>2012-07-10T08:42:16Z</time>
      </trkpt>
      <trkpt lat="45.63599" lon="7.0018">
        <ele>3303</ele>
        <time>2012-07-10T08:42:21Z</time>
      </trkpt>
      <trkpt lat="45.63601" lon="7.00181">
        <ele>3303</ele>
        <time>2012-07-10T08:42:26Z</time>
      </trkpt>
      <trkpt lat="45.63604" lon="7.00181">
        <ele>3303</ele>
        <time>2012-07-10T08:42:31Z</time>
      </trkpt>
      <trkpt lat="45.63604" lon="7.00181">
        <ele>3303</ele>
        <time>2012-07-10T08:42:36Z</time>
      </trkpt>
      <trkpt lat="45.63603" lon="7.00181">
        <ele>3303</ele>
        <time>2012-07-10T08:42:41Z</time>
      </trkpt>
      <trkpt lat="45.63603" lon="7.00182">
        <ele>3303</ele>
        <time>2012-07-10T08:42:46Z</time>
      </trkpt>
      <trkpt lat="45.63605" lon="7.00185">
        <ele>3303</ele>
        <time>2012-07-10T08:42:51Z</time>
      </trkpt>
      <trkpt lat="45.63608" lon="7.00188">
        <ele>3303</ele>
        <time>2012-07-10T08:42:56Z</time>
      </trkpt>
      <trkpt lat="45.63611" lon="7.00191">
        <ele>3303</ele>
        <time>2012-07-10T08:43:01Z</time>
      </trkpt>
      <trkpt lat="45.63614" lon="7.00194">
        <ele>3303</ele>
        <time>2012-07-10T08:43:06Z</time>
      </trkpt>
      <trkpt lat="45.63615" lon="7.00195">
        <ele>3303</ele>
        <time>2012-07-10T08:43:11Z</time>
      </trkpt>
      <trkpt lat="45.63615" lon="7.00195">
        <ele>3303</ele>
        <time>2012-07-10T08:43:16Z</time>
      </trkpt>
      <trkpt lat="45.63615" lon="7.00195">
        <ele>3302</ele>
        <time>2012-07-10T08:43:21Z</time>
      </trkpt>
      <trkpt lat="45.63617" lon="7.00198">
        <ele>3303</ele>
        <time>2012-07-10T08:43:26Z</time>
      </trkpt>
      <trkpt lat="45.63619" lon="7.002">
        <ele>3303</ele>
        <time>2012-07-10T08:43:31Z</time>
      </trkpt>
      <trkpt lat="45.63622" lon="7.00203">
        <ele>3303</ele>
        <time>2012-07-10T08:43:36Z</time>
      </trkpt>
      <trkpt lat="45.63626" lon="7.00205">
        <ele>3303</ele>
        <time>2012-07-10T08:43:41Z</time>
      </trkpt>
      <trkpt lat="45.6363" lon="7.00207">
        <ele>3303</ele>
        <time>2012-07-10T08:43:46Z</time>
      </trkpt>
      <trkpt lat="45.63632" lon="7.00209">
        <ele>3303</ele>
        <time>2012-07-10T08:43:51Z</time>
      </trkpt>
      <trkpt lat="45.63636" lon="7.00209">
        <ele>3303</ele>
        <time>2012-07-10T08:43:56Z</time>
      </trkpt>
      <trkpt lat="45.63641" lon="7.0021">
        <ele>3302</ele>
        <time>2012-07-10T08:44:01Z</time>
      </trkpt>
      <trkpt lat="45.63644" lon="7.00214">
        <ele>3302</ele>
        <time>2012-07-10T08:44:06Z</time>
      </trkpt>
      <trkpt lat="45.63649" lon="7.00217">
        <ele>3301</ele>
        <time>2012-07-10T08:44:11Z</time>
      </trkpt>
      <trkpt lat="45.63653" lon="7.00216">
        <ele>3301</ele>
        <time>2012-07-10T08:44:16Z</time>
      </trkpt>
      <trkpt lat="45.63658" lon="7.00216">
        <ele>3301</ele>
        <time>2012-07-10T08:44:21Z</time>
      </trkpt>
      <trkpt lat="45.63662" lon="7.00215">
        <ele>3300</ele>
        <time>2012-07-10T08:44:26Z</time>
      </trkpt>
      <trkpt lat="45.63667" lon="7.00216">
        <ele>3300</ele>
        <time>2012-07-10T08:44:31Z</time>
      </trkpt>
      <trkpt lat="45.63671" lon="7.00215">
        <ele>3300</ele>
        <time>2012-07-10T08:44:36Z</time>
      </trkpt>
      <trkpt lat="45.63676" lon="7.00214">
        <ele>3300</ele>
        <time>2012-07-10T08:44:41Z</time>
      </trkpt>
      <trkpt lat="45.6368" lon="7.00213">
        <ele>3299</ele>
        <time>2012-07-10T08:44:46Z</time>
      </trkpt>
      <trkpt lat="45.63684" lon="7.00211">
        <ele>3299</ele>
        <time>2012-07-10T08:44:51Z</time>
      </trkpt>
      <trkpt lat="45.63689" lon="7.00212">
        <ele>3299</ele>
        <time>2012-07-10T08:44:56Z</time>
      </trkpt>
      <trkpt lat="45.63693" lon="7.00213">
        <ele>3298</ele>
        <time>2012-07-10T08:45:01Z</time>
      </trkpt>
      <trkpt lat="45.63697" lon="7.00212">
        <ele>3298</ele>
        <time>2012-07-10T08:45:06Z</time>
      </trkpt>
      <trkpt lat="45.63702" lon="7.00212">
        <ele>3297</ele>
        <time>2012-07-10T08:45:11Z</time>
      </trkpt>
      <trkpt lat="45.63707" lon="7.00212">
        <ele>3296</ele>
        <time>2012-07-10T08:45:16Z</time>
      </trkpt>
      <trkpt lat="45.63711" lon="7.0021">
        <ele>3295</ele>
        <time>2012-07-10T08:45:21Z</time>
      </trkpt>
      <trkpt lat="45.63716" lon="7.0021">
        <ele>3295</ele>
        <time>2012-07-10T08:45:26Z</time>
      </trkpt>
      <trkpt lat="45.63721" lon="7.00211">
        <ele>3294</ele>
        <time>2012-07-10T08:45:31Z</time>
      </trkpt>
      <trkpt lat="45.63726" lon="7.00212">
        <ele>3293</ele>
        <time>2012-07-10T08:45:36Z</time>
      </trkpt>
      <trkpt lat="45.63731" lon="7.00213">
        <ele>3292</ele>
        <time>2012-07-10T08:45:41Z</time>
      </trkpt>
      <trkpt lat="45.63736" lon="7.00214">
        <ele>3292</ele>
        <time>2012-07-10T08:45:46Z</time>
      </trkpt>
      <trkpt lat="45.63741" lon="7.00214">
        <ele>3291</ele>
        <time>2012-07-10T08:45:51Z</time>
      </trkpt>
      <trkpt lat="45.63746" lon="7.00216">
        <ele>3291</ele>
        <time>2012-07-10T08:45:56Z</time>
      </trkpt>
      <trkpt lat="45.6375" lon="7.00218">
        <ele>3290</ele>
        <time>2012-07-10T08:46:01Z</time>
      </trkpt>
      <trkpt lat="45.63754" lon="7.00218">
        <ele>3290</ele>
        <time>2012-07-10T08:46:06Z</time>
      </trkpt>
      <trkpt lat="45.63759" lon="7.00217">
        <ele>3290</ele>
        <time>2012-07-10T08:46:11Z</time>
      </trkpt>
      <trkpt lat="45.63762" lon="7.00217">
        <ele>3290</ele>
        <time>2012-07-10T08:46:16Z</time>
      </trkpt>
      <trkpt lat="45.63762" lon="7.00217">
        <ele>3290</ele>
        <time>2012-07-10T08:46:21Z</time>
      </trkpt>
      <trkpt lat="45.63767" lon="7.00217">
        <ele>3290</ele>
        <time>2012-07-10T08:46:26Z</time>
      </trkpt>
      <trkpt lat="45.6377" lon="7.00216">
        <ele>3290</ele>
        <time>2012-07-10T08:46:31Z</time>
      </trkpt>
      <trkpt lat="45.63775" lon="7.00215">
        <ele>3289</ele>
        <time>2012-07-10T08:46:36Z</time>
      </trkpt>
      <trkpt lat="45.6378" lon="7.00214">
        <ele>3289</ele>
        <time>2012-07-10T08:46:41Z</time>
      </trkpt>
      <trkpt lat="45.63784" lon="7.00212">
        <ele>3289</ele>
        <time>2012-07-10T08:46:46Z</time>
      </trkpt>
      <trkpt lat="45.63789" lon="7.00212">
        <ele>3288</ele>
        <time>2012-07-10T08:46:51Z</time>
      </trkpt>
      <trkpt lat="45.63794" lon="7.0021">
        <ele>3288</ele>
        <time>2012-07-10T08:46:56Z</time>
      </trkpt>
      <trkpt lat="45.63798" lon="7.00209">
        <ele>3288</ele>
        <time>2012-07-10T08:47:01Z</time>
      </trkpt>
      <trkpt lat="45.63803" lon="7.00208">
        <ele>3287</ele>
        <time>2012-07-10T08:47:06Z</time>
      </trkpt>
      <trkpt lat="45.63807" lon="7.00207">
        <ele>3287</ele>
        <time>2012-07-10T08:47:11Z</time>
      </trkpt>
      <trkpt lat="45.63813" lon="7.00206">
        <ele>3287</ele>
        <time>2012-07-10T08:47:16Z</time>
      </trkpt>
      <trkpt lat="45.63817" lon="7.00205">
        <ele>3286</ele>
        <time>2012-07-10T08:47:21Z</time>
      </trkpt>
      <trkpt lat="45.63821" lon="7.00204">
        <ele>3286</ele>
        <time>2012-07-10T08:47:26Z</time>
      </trkpt>
      <trkpt lat="45.63826" lon="7.00203">
        <ele>3286</ele>
        <time>2012-07-10T08:47:31Z</time>
      </trkpt>
      <trkpt lat="45.6383" lon="7.00201">
        <ele>3285</ele>
        <time>2012-07-10T08:47:36Z</time>
      </trkpt>
      <trkpt lat="45.63834" lon="7.00199">
        <ele>3285</ele>
        <time>2012-07-10T08:47:41Z</time>
      </trkpt>
      <trkpt lat="45.63839" lon="7.00197">
        <ele>3285</ele>
        <time>2012-07-10T08:47:46Z</time>
      </trkpt>
      <trkpt lat="45.63843" lon="7.00195">
        <ele>3285</ele>
        <time>2012-07-10T08:47:51Z</time>
      </trkpt>
      <trkpt lat="45.63847" lon="7.00192">
        <ele>3284</ele>
        <time>2012-07-10T08:47:56Z</time>
      </trkpt>
      <trkpt lat="45.63851" lon="7.00191">
        <ele>3284</ele>
        <time>2012-07-10T08:48:01Z</time>
      </trkpt>
      <trkpt lat="45.63855" lon="7.00189">
        <ele>3284</ele>
        <time>2012-07-10T08:48:06Z</time>
      </trkpt>
      <trkpt lat="45.6386" lon="7.00188">
        <ele>3283</ele>
        <time>2012-07-10T08:48:11Z</time>
      </trkpt>
      <trkpt lat="45.63865" lon="7.00187">
        <ele>3283</ele>
        <time>2012-07-10T08:48:16Z</time>
      </trkpt>
      <trkpt lat="45.63868" lon="7.00185">
        <ele>3282</ele>
        <time>2012-07-10T08:48:21Z</time>
      </trkpt>
      <trkpt lat="45.63872" lon="7.00184">
        <ele>3282</ele>
        <time>2012-07-10T08:48:26Z</time>
      </trkpt>
      <trkpt lat="45.63876" lon="7.00183">
        <ele>3282</ele>
        <time>2012-07-10T08:48:31Z</time>
      </trkpt>
      <trkpt lat="45.6388" lon="7.00181">
        <ele>3281</ele>
        <time>2012-07-10T08:48:36Z</time>
      </trkpt>
      <trkpt lat="45.63884" lon="7.00179">
        <ele>3280</ele>
        <time>2012-07-10T08:48:41Z</time>
      </trkpt>
      <trkpt lat="45.63889" lon="7.00176">
        <ele>3279</ele>
        <time>2012-07-10T08:48:46Z</time>
      </trkpt>
      <trkpt lat="45.63891" lon="7.00174">
        <ele>3279</ele>
        <time>2012-07-10T08:48:51Z</time>
      </trkpt>
      <trkpt lat="45.63894" lon="7.0017">
        <ele>3279</ele>
        <time>2012-07-10T08:48:56Z</time>
      </trkpt>
      <trkpt lat="45.63897" lon="7.00168">
        <ele>3279</ele>
        <time>2012-07-10T08:49:01Z</time>
      </trkpt>
      <trkpt lat="45.63899" lon="7.00166">
        <ele>3279</ele>
        <time>2012-07-10T08:49:06Z</time>
      </trkpt>
      <trkpt lat="45.63902" lon="7.00163">
        <ele>3279</ele>
        <time>2012-07-10T08:49:11Z</time>
      </trkpt>
      <trkpt lat="45.63905" lon="7.00159">
        <ele>3279</ele>
        <time>2012-07-10T08:49:16Z</time>
      </trkpt>
      <trkpt lat="45.63908" lon="7.00156">
        <ele>3279</ele>
        <time>2012-07-10T08:49:21Z</time>
      </trkpt>
      <trkpt lat="45.63908" lon="7.00156">
        <ele>3279</ele>
        <time>2012-07-10T08:49:26Z</time>
      </trkpt>
      <trkpt lat="45.6391" lon="7.00154">
        <ele>3279</ele>
        <time>2012-07-10T08:49:31Z</time>
      </trkpt>
      <trkpt lat="45.63912" lon="7.00151">
        <ele>3279</ele>
        <time>2012-07-10T08:49:36Z</time>
      </trkpt>
      <trkpt lat="45.63915" lon="7.00146">
        <ele>3279</ele>
        <time>2012-07-10T08:49:41Z</time>
      </trkpt>
      <trkpt lat="45.63915" lon="7.00142">
        <ele>3280</ele>
        <time>2012-07-10T08:49:46Z</time>
      </trkpt>
      <trkpt lat="45.63916" lon="7.00137">
        <ele>3280</ele>
        <time>2012-07-10T08:49:51Z</time>
      </trkpt>
      <trkpt lat="45.63918" lon="7.00132">
        <ele>3280</ele>
        <time>2012-07-10T08:49:56Z</time>
      </trkpt>
      <trkpt lat="45.63918" lon="7.00128">
        <ele>3280</ele>
        <time>2012-07-10T08:50:01Z</time>
      </trkpt>
      <trkpt lat="45.63921" lon="7.00122">
        <ele>3280</ele>
        <time>2012-07-10T08:50:06Z</time>
      </trkpt>
      <trkpt lat="45.63923" lon="7.00117">
        <ele>3280</ele>
        <time>2012-07-10T08:50:11Z</time>
      </trkpt>
      <trkpt lat="45.63925" lon="7.00112">
        <ele>3280</ele>
        <time>2012-07-10T08:50:16Z</time>
      </trkpt>
      <trkpt lat="45.63927" lon="7.00106">
        <ele>3279</ele>
        <time>2012-07-10T08:50:21Z</time>
      </trkpt>
      <trkpt lat="45.63928" lon="7.00101">
        <ele>3279</ele>
        <time>2012-07-10T08:50:26Z</time>
      </trkpt>
      <trkpt lat="45.6393" lon="7.00096">
        <ele>3279</ele>
        <time>2012-07-10T08:50:31Z</time>
      </trkpt>
      <trkpt lat="45.63932" lon="7.0009">
        <ele>3279</ele>
        <time>2012-07-10T08:50:36Z</time>
      </trkpt>
      <trkpt lat="45.63934" lon="7.00085">
        <ele>3278</ele>
        <time>2012-07-10T08:50:41Z</time>
      </trkpt>
      <trkpt lat="45.63937" lon="7.0008">
        <ele>3277</ele>
        <time>2012-07-10T08:50:46Z</time>
      </trkpt>
      <trkpt lat="45.6394" lon="7.00075">
        <ele>3277</ele>
        <time>2012-07-10T08:50:51Z</time>
      </trkpt>
      <trkpt lat="45.63942" lon="7.00069">
        <ele>3276</ele>
        <time>2012-07-10T08:50:56Z</time>
      </trkpt>
      <trkpt lat="45.63945" lon="7.00064">
        <ele>3275</ele>
        <time>2012-07-10T08:51:01Z</time>
      </trkpt>
      <trkpt lat="45.63947" lon="7.00061">
        <ele>3275</ele>
        <time>2012-07-10T08:51:06Z</time>
      </trkpt>
      <trkpt lat="45.6395" lon="7.00056">
        <ele>3274</ele>
        <time>2012-07-10T08:51:11Z</time>
      </trkpt>
      <trkpt lat="45.63953" lon="7.00052">
        <ele>3273</ele>
        <time>2012-07-10T08:51:16Z</time>
      </trkpt>
      <trkpt lat="45.63956" lon="7.00048">
        <ele>3273</ele>
        <time>2012-07-10T08:51:21Z</time>
      </trkpt>
      <trkpt lat="45.63958" lon="7.00044">
        <ele>3273</ele>
        <time>2012-07-10T08:51:26Z</time>
      </trkpt>
      <trkpt lat="45.63961" lon="7.00039">
        <ele>3272</ele>
        <time>2012-07-10T08:51:31Z</time>
      </trkpt>
      <trkpt lat="45.63965" lon="7.00033">
        <ele>3272</ele>
        <time>2012-07-10T08:51:36Z</time>
      </trkpt>
      <trkpt lat="45.63968" lon="7.00028">
        <ele>3271</ele>
        <time>2012-07-10T08:51:41Z</time>
      </trkpt>
      <trkpt lat="45.63971" lon="7.00024">
        <ele>3270</ele>
        <time>2012-07-10T08:51:46Z</time>
      </trkpt>
      <trkpt lat="45.63974" lon="7.00019">
        <ele>3270</ele>
        <time>2012-07-10T08:51:51Z</time>
      </trkpt>
      <trkpt lat="45.63977" lon="7.00014">
        <ele>3269</ele>
        <time>2012-07-10T08:51:56Z</time>
      </trkpt>
      <trkpt lat="45.63979" lon="7.00008">
        <ele>3267</ele>
        <time>2012-07-10T08:52:01Z</time>
      </trkpt>
      <trkpt lat="45.63982" lon="7.00004">
        <ele>3267</ele>
        <time>2012-07-10T08:52:06Z</time>
      </trkpt>
      <trkpt lat="45.63986" lon="6.99998">
        <ele>3265</ele>
        <time>2012-07-10T08:52:11Z</time>
      </trkpt>
      <trkpt lat="45.63989" lon="6.99993">
        <ele>3264</ele>
        <time>2012-07-10T08:52:16Z</time>
      </trkpt>
      <trkpt lat="45.63991" lon="6.99987">
        <ele>3263</ele>
        <time>2012-07-10T08:52:21Z</time>
      </trkpt>
      <trkpt lat="45.63994" lon="6.99982">
        <ele>3262</ele>
        <time>2012-07-10T08:52:26Z</time>
      </trkpt>
      <trkpt lat="45.63997" lon="6.99976">
        <ele>3261</ele>
        <time>2012-07-10T08:52:31Z</time>
      </trkpt>
      <trkpt lat="45.64" lon="6.9997">
        <ele>3260</ele>
        <time>2012-07-10T08:52:36Z</time>
      </trkpt>
      <trkpt lat="45.64002" lon="6.99964">
        <ele>3259</ele>
        <time>2012-07-10T08:52:41Z</time>
      </trkpt>
      <trkpt lat="45.64005" lon="6.99957">
        <ele>3258</ele>
        <time>2012-07-10T08:52:46Z</time>
      </trkpt>
      <trkpt lat="45.64006" lon="6.99951">
        <ele>3258</ele>
        <time>2012-07-10T08:52:51Z</time>
      </trkpt>
      <trkpt lat="45.64009" lon="6.99944">
        <ele>3256</ele>
        <time>2012-07-10T08:52:56Z</time>
      </trkpt>
      <trkpt lat="45.6401" lon="6.99937">
        <ele>3255</ele>
        <time>2012-07-10T08:53:01Z</time>
      </trkpt>
      <trkpt lat="45.64012" lon="6.9993">
        <ele>3254</ele>
        <time>2012-07-10T08:53:06Z</time>
      </trkpt>
      <trkpt lat="45.64015" lon="6.99923">
        <ele>3253</ele>
        <time>2012-07-10T08:53:11Z</time>
      </trkpt>
      <trkpt lat="45.64016" lon="6.99917">
        <ele>3252</ele>
        <time>2012-07-10T08:53:16Z</time>
      </trkpt>
      <trkpt lat="45.64018" lon="6.9991">
        <ele>3252</ele>
        <time>2012-07-10T08:53:21Z</time>
      </trkpt>
      <trkpt lat="45.6402" lon="6.99903">
        <ele>3251</ele>
        <time>2012-07-10T08:53:26Z</time>
      </trkpt>
      <trkpt lat="45.64021" lon="6.99895">
        <ele>3249</ele>
        <time>2012-07-10T08:53:31Z</time>
      </trkpt>
      <trkpt lat="45.64023" lon="6.99888">
        <ele>3248</ele>
        <time>2012-07-10T08:53:36Z</time>
      </trkpt>
      <trkpt lat="45.64024" lon="6.99881">
        <ele>3247</ele>
        <time>2012-07-10T08:53:41Z</time>
      </trkpt>
      <trkpt lat="45.64026" lon="6.99874">
        <ele>3246</ele>
        <time>2012-07-10T08:53:46Z</time>
      </trkpt>
      <trkpt lat="45.64026" lon="6.99866">
        <ele>3245</ele>
        <time>2012-07-10T08:53:51Z</time>
      </trkpt>
      <trkpt lat="45.64026" lon="6.99858">
        <ele>3243</ele>
        <time>2012-07-10T08:53:56Z</time>
      </trkpt>
      <trkpt lat="45.64026" lon="6.9985">
        <ele>3242</ele>
        <time>2012-07-10T08:54:01Z</time>
      </trkpt>
      <trkpt lat="45.64026" lon="6.99843">
        <ele>3241</ele>
        <time>2012-07-10T08:54:06Z</time>
      </trkpt>
      <trkpt lat="45.64026" lon="6.99835">
        <ele>3240</ele>
        <time>2012-07-10T08:54:11Z</time>
      </trkpt>
      <trkpt lat="45.64026" lon="6.99828">
        <ele>3238</ele>
        <time>2012-07-10T08:54:16Z</time>
      </trkpt>
      <trkpt lat="45.64026" lon="6.9982">
        <ele>3237</ele>
        <time>2012-07-10T08:54:21Z</time>
      </trkpt>
      <trkpt lat="45.64026" lon="6.99813">
        <ele>3235</ele>
        <time>2012-07-10T08:54:26Z</time>
      </trkpt>
      <trkpt lat="45.64026" lon="6.99806">
        <ele>3234</ele>
        <time>2012-07-10T08:54:31Z</time>
      </trkpt>
      <trkpt lat="45.64026" lon="6.99798">
        <ele>3233</ele>
        <time>2012-07-10T08:54:36Z</time>
      </trkpt>
      <trkpt lat="45.64026" lon="6.9979">
        <ele>3231</ele>
        <time>2012-07-10T08:54:41Z</time>
      </trkpt>
      <trkpt lat="45.64026" lon="6.99781">
        <ele>3230</ele>
        <time>2012-07-10T08:54:46Z</time>
      </trkpt>
      <trkpt lat="45.64026" lon="6.99773">
        <ele>3228</ele>
        <time>2012-07-10T08:54:51Z</time>
      </trkpt>
      <trkpt lat="45.64026" lon="6.99764">
        <ele>3227</ele>
        <time>2012-07-10T08:54:56Z</time>
      </trkpt>
      <trkpt lat="45.64026" lon="6.99756">
        <ele>3226</ele>
        <time>2012-07-10T08:55:01Z</time>
      </trkpt>
      <trkpt lat="45.64026" lon="6.99748">
        <ele>3225</ele>
        <time>2012-07-10T08:55:06Z</time>
      </trkpt>
      <trkpt lat="45.64024" lon="6.9974">
        <ele>3224</ele>
        <time>2012-07-10T08:55:11Z</time>
      </trkpt>
      <trkpt lat="45.64023" lon="6.99733">
        <ele>3223</ele>
        <time>2012-07-10T08:55:16Z</time>
      </trkpt>
      <trkpt lat="45.64023" lon="6.99726">
        <ele>3222</ele>
        <time>2012-07-10T08:55:21Z</time>
      </trkpt>
      <trkpt lat="45.64023" lon="6.99719">
        <ele>3221</ele>
        <time>2012-07-10T08:55:26Z</time>
      </trkpt>
      <trkpt lat="45.64023" lon="6.99711">
        <ele>3220</ele>
        <time>2012-07-10T08:55:31Z</time>
      </trkpt>
      <trkpt lat="45.64023" lon="6.99703">
        <ele>3219</ele>
        <time>2012-07-10T08:55:36Z</time>
      </trkpt>
      <trkpt lat="45.64023" lon="6.99696">
        <ele>3219</ele>
        <time>2012-07-10T08:55:41Z</time>
      </trkpt>
      <trkpt lat="45.64023" lon="6.99691">
        <ele>3218</ele>
        <time>2012-07-10T08:55:46Z</time>
      </trkpt>
      <trkpt lat="45.64023" lon="6.99685">
        <ele>3218</ele>
        <time>2012-07-10T08:55:51Z</time>
      </trkpt>
      <trkpt lat="45.64023" lon="6.99678">
        <ele>3217</ele>
        <time>2012-07-10T08:55:56Z</time>
      </trkpt>
      <trkpt lat="45.64023" lon="6.99671">
        <ele>3217</ele>
        <time>2012-07-10T08:56:01Z</time>
      </trkpt>
      <trkpt lat="45.64024" lon="6.99664">
        <ele>3216</ele>
        <time>2012-07-10T08:56:06Z</time>
      </trkpt>
      <trkpt lat="45.64025" lon="6.99658">
        <ele>3216</ele>
        <time>2012-07-10T08:56:11Z</time>
      </trkpt>
      <trkpt lat="45.64026" lon="6.99652">
        <ele>3215</ele>
        <time>2012-07-10T08:56:16Z</time>
      </trkpt>
      <trkpt lat="45.64026" lon="6.99646">
        <ele>3215</ele>
        <time>2012-07-10T08:56:21Z</time>
      </trkpt>
      <trkpt lat="45.64027" lon="6.99642">
        <ele>3215</ele>
        <time>2012-07-10T08:56:26Z</time>
      </trkpt>
      <trkpt lat="45.64029" lon="6.99637">
        <ele>3214</ele>
        <time>2012-07-10T08:56:31Z</time>
      </trkpt>
      <trkpt lat="45.64029" lon="6.99631">
        <ele>3214</ele>
        <time>2012-07-10T08:56:36Z</time>
      </trkpt>
      <trkpt lat="45.6403" lon="6.99624">
        <ele>3214</ele>
        <time>2012-07-10T08:56:41Z</time>
      </trkpt>
      <trkpt lat="45.64031" lon="6.99619">
        <ele>3213</ele>
        <time>2012-07-10T08:56:46Z</time>
      </trkpt>
      <trkpt lat="45.64033" lon="6.99613">
        <ele>3213</ele>
        <time>2012-07-10T08:56:51Z</time>
      </trkpt>
      <trkpt lat="45.64033" lon="6.99608">
        <ele>3213</ele>
        <time>2012-07-10T08:56:56Z</time>
      </trkpt>
      <trkpt lat="45.64034" lon="6.99602">
        <ele>3213</ele>
        <time>2012-07-10T08:57:01Z</time>
      </trkpt>
      <trkpt lat="45.64035" lon="6.99597">
        <ele>3213</ele>
        <time>2012-07-10T08:57:06Z</time>
      </trkpt>
      <trkpt lat="45.64036" lon="6.99591">
        <ele>3213</ele>
        <time>2012-07-10T08:57:11Z</time>
      </trkpt>
      <trkpt lat="45.64037" lon="6.99586">
        <ele>3212</ele>
        <time>2012-07-10T08:57:16Z</time>
      </trkpt>
      <trkpt lat="45.64038" lon="6.99581">
        <ele>3212</ele>
        <time>2012-07-10T08:57:21Z</time>
      </trkpt>
      <trkpt lat="45.64039" lon="6.99575">
        <ele>3212</ele>
        <time>2012-07-10T08:57:26Z</time>
      </trkpt>
      <trkpt lat="45.64039" lon="6.9957">
        <ele>3212</ele>
        <time>2012-07-10T08:57:31Z</time>
      </trkpt>
      <trkpt lat="45.6404" lon="6.99564">
        <ele>3212</ele>
        <time>2012-07-10T08:57:36Z</time>
      </trkpt>
      <trkpt lat="45.64042" lon="6.99559">
        <ele>3212</ele>
        <time>2012-07-10T08:57:41Z</time>
      </trkpt>
      <trkpt lat="45.64043" lon="6.99554">
        <ele>3212</ele>
        <time>2012-07-10T08:57:46Z</time>
      </trkpt>
      <trkpt lat="45.64044" lon="6.99549">
        <ele>3212</ele>
        <time>2012-07-10T08:57:51Z</time>
      </trkpt>
      <trkpt lat="45.64045" lon="6.99543">
        <ele>3212</ele>
        <time>2012-07-10T08:57:56Z</time>
      </trkpt>
      <trkpt lat="45.64046" lon="6.99538">
        <ele>3212</ele>
        <time>2012-07-10T08:58:01Z</time>
      </trkpt>
      <trkpt lat="45.64047" lon="6.99532">
        <ele>3212</ele>
        <time>2012-07-10T08:58:06Z</time>
      </trkpt>
      <trkpt lat="45.64048" lon="6.99526">
        <ele>3212</ele>
        <time>2012-07-10T08:58:11Z</time>
      </trkpt>
      <trkpt lat="45.64048" lon="6.9952">
        <ele>3212</ele>
        <time>2012-07-10T08:58:16Z</time>
      </trkpt>
      <trkpt lat="45.64049" lon="6.99515">
        <ele>3212</ele>
        <time>2012-07-10T08:58:21Z</time>
      </trkpt>
      <trkpt lat="45.64049" lon="6.99509">
        <ele>3212</ele>
        <time>2012-07-10T08:58:26Z</time>
      </trkpt>
      <trkpt lat="45.64049" lon="6.99504">
        <ele>3212</ele>
        <time>2012-07-10T08:58:31Z</time>
      </trkpt>
      <trkpt lat="45.64049" lon="6.99498">
        <ele>3212</ele>
        <time>2012-07-10T08:58:36Z</time>
      </trkpt>
      <trkpt lat="45.64048" lon="6.99492">
        <ele>3212</ele>
        <time>2012-07-10T08:58:41Z</time>
      </trkpt>
      <trkpt lat="45.64048" lon="6.99487">
        <ele>3213</ele>
        <time>2012-07-10T08:58:46Z</time>
      </trkpt>
      <trkpt lat="45.64048" lon="6.99481">
        <ele>3213</ele>
        <time>2012-07-10T08:58:51Z</time>
      </trkpt>
      <trkpt lat="45.64047" lon="6.99476">
        <ele>3213</ele>
        <time>2012-07-10T08:58:56Z</time>
      </trkpt>
      <trkpt lat="45.64047" lon="6.99469">
        <ele>3213</ele>
        <time>2012-07-10T08:59:01Z</time>
      </trkpt>
      <trkpt lat="45.64046" lon="6.99463">
        <ele>3213</ele>
        <time>2012-07-10T08:59:06Z</time>
      </trkpt>
      <trkpt lat="45.64046" lon="6.99457">
        <ele>3212</ele>
        <time>2012-07-10T08:59:11Z</time>
      </trkpt>
      <trkpt lat="45.64045" lon="6.99452">
        <ele>3212</ele>
        <time>2012-07-10T08:59:16Z</time>
      </trkpt>
      <trkpt lat="45.64045" lon="6.99447">
        <ele>3212</ele>
        <time>2012-07-10T08:59:21Z</time>
      </trkpt>
      <trkpt lat="45.64044" lon="6.9944">
        <ele>3212</ele>
        <time>2012-07-10T08:59:26Z</time>
      </trkpt>
      <trkpt lat="45.64043" lon="6.99435">
        <ele>3212</ele>
        <time>2012-07-10T08:59:31Z</time>
      </trkpt>
      <trkpt lat="45.64042" lon="6.9943">
        <ele>3212</ele>
        <time>2012-07-10T08:59:36Z</time>
      </trkpt>
      <trkpt lat="45.6404" lon="6.99424">
        <ele>3212</ele>
        <time>2012-07-10T08:59:41Z</time>
      </trkpt>
      <trkpt lat="45.64039" lon="6.99419">
        <ele>3212</ele>
        <time>2012-07-10T08:59:46Z</time>
      </trkpt>
      <trkpt lat="45.64039" lon="6.99413">
        <ele>3211</ele>
        <time>2012-07-10T08:59:51Z</time>
      </trkpt>
      <trkpt lat="45.64037" lon="6.99407">
        <ele>3211</ele>
        <time>2012-07-10T08:59:56Z</time>
      </trkpt>
      <trkpt lat="45.64035" lon="6.99401">
        <ele>3211</ele>
        <time>2012-07-10T09:00:01Z</time>
      </trkpt>
      <trkpt lat="45.64035" lon="6.99395">
        <ele>3211</ele>
        <time>2012-07-10T09:00:06Z</time>
      </trkpt>
      <trkpt lat="45.64034" lon="6.99389">
        <ele>3211</ele>
        <time>2012-07-10T09:00:11Z</time>
      </trkpt>
      <trkpt lat="45.64033" lon="6.99383">
        <ele>3211</ele>
        <time>2012-07-10T09:00:16Z</time>
      </trkpt>
      <trkpt lat="45.64032" lon="6.99377">
        <ele>3210</ele>
        <time>2012-07-10T09:00:21Z</time>
      </trkpt>
      <trkpt lat="45.64032" lon="6.9937">
        <ele>3210</ele>
        <time>2012-07-10T09:00:26Z</time>
      </trkpt>
      <trkpt lat="45.6403" lon="6.99365">
        <ele>3209</ele>
        <time>2012-07-10T09:00:31Z</time>
      </trkpt>
      <trkpt lat="45.64029" lon="6.9936">
        <ele>3209</ele>
        <time>2012-07-10T09:00:36Z</time>
      </trkpt>
      <trkpt lat="45.64027" lon="6.99354">
        <ele>3209</ele>
        <time>2012-07-10T09:00:41Z</time>
      </trkpt>
      <trkpt lat="45.64026" lon="6.99348">
        <ele>3209</ele>
        <time>2012-07-10T09:00:46Z</time>
      </trkpt>
      <trkpt lat="45.64026" lon="6.99342">
        <ele>3209</ele>
        <time>2012-07-10T09:00:51Z</time>
      </trkpt>
      <trkpt lat="45.64025" lon="6.99335">
        <ele>3209</ele>
        <time>2012-07-10T09:00:56Z</time>
      </trkpt>
      <trkpt lat="45.64024" lon="6.9933">
        <ele>3209</ele>
        <time>2012-07-10T09:01:01Z</time>
      </trkpt>
      <trkpt lat="45.64023" lon="6.99324">
        <ele>3209</ele>
        <time>2012-07-10T09:01:06Z</time>
      </trkpt>
      <trkpt lat="45.64023" lon="6.99317">
        <ele>3209</ele>
        <time>2012-07-10T09:01:11Z</time>
      </trkpt>
      <trkpt lat="45.64023" lon="6.99312">
        <ele>3209</ele>
        <time>2012-07-10T09:01:16Z</time>
      </trkpt>
      <trkpt lat="45.64022" lon="6.99307">
        <ele>3209</ele>
        <time>2012-07-10T09:01:21Z</time>
      </trkpt>
      <trkpt lat="45.64021" lon="6.99301">
        <ele>3209</ele>
        <time>2012-07-10T09:01:26Z</time>
      </trkpt>
      <trkpt lat="45.64021" lon="6.99295">
        <ele>3209</ele>
        <time>2012-07-10T09:01:31Z</time>
      </trkpt>
      <trkpt lat="45.6402" lon="6.99289">
        <ele>3209</ele>
        <time>2012-07-10T09:01:36Z</time>
      </trkpt>
      <trkpt lat="45.6402" lon="6.99283">
        <ele>3209</ele>
        <time>2012-07-10T09:01:41Z</time>
      </trkpt>
      <trkpt lat="45.64019" lon="6.99277">
        <ele>3209</ele>
        <time>2012-07-10T09:01:46Z</time>
      </trkpt>
      <trkpt lat="45.64019" lon="6.99271">
        <ele>3209</ele>
        <time>2012-07-10T09:01:51Z</time>
      </trkpt>
      <trkpt lat="45.64019" lon="6.99265">
        <ele>3209</ele>
        <time>2012-07-10T09:01:56Z</time>
      </trkpt>
      <trkpt lat="45.64019" lon="6.99259">
        <ele>3209</ele>
        <time>2012-07-10T09:02:01Z</time>
      </trkpt>
      <trkpt lat="45.64019" lon="6.99253">
        <ele>3209</ele>
        <time>2012-07-10T09:02:06Z</time>
      </trkpt>
      <trkpt lat="45.64019" lon="6.99247">
        <ele>3209</ele>
        <time>2012-07-10T09:02:11Z</time>
      </trkpt>
      <trkpt lat="45.64018" lon="6.99241">
        <ele>3209</ele>
        <time>2012-07-10T09:02:16Z</time>
      </trkpt>
      <trkpt lat="45.64018" lon="6.99235">
        <ele>3209</ele>
        <time>2012-07-10T09:02:21Z</time>
      </trkpt>
      <trkpt lat="45.64018" lon="6.99229">
        <ele>3209</ele>
        <time>2012-07-10T09:02:26Z</time>
      </trkpt>
      <trkpt lat="45.64017" lon="6.99224">
        <ele>3208</ele>
        <time>2012-07-10T09:02:31Z</time>
      </trkpt>
      <trkpt lat="45.64016" lon="6.99217">
        <ele>3208</ele>
        <time>2012-07-10T09:02:36Z</time>
      </trkpt>
      <trkpt lat="45.64016" lon="6.99211">
        <ele>3208</ele>
        <time>2012-07-10T09:02:41Z</time>
      </trkpt>
      <trkpt lat="45.64016" lon="6.99204">
        <ele>3208</ele>
        <time>2012-07-10T09:02:46Z</time>
      </trkpt>
      <trkpt lat="45.64015" lon="6.99198">
        <ele>3207</ele>
        <time>2012-07-10T09:02:51Z</time>
      </trkpt>
      <trkpt lat="45.64015" lon="6.99192">
        <ele>3207</ele>
        <time>2012-07-10T09:02:56Z</time>
      </trkpt>
      <trkpt lat="45.64015" lon="6.99185">
        <ele>3207</ele>
        <time>2012-07-10T09:03:01Z</time>
      </trkpt>
      <trkpt lat="45.64015" lon="6.99177">
        <ele>3206</ele>
        <time>2012-07-10T09:03:06Z</time>
      </trkpt>
      <trkpt lat="45.64015" lon="6.9917">
        <ele>3206</ele>
        <time>2012-07-10T09:03:11Z</time>
      </trkpt>
      <trkpt lat="45.64015" lon="6.99163">
        <ele>3205</ele>
        <time>2012-07-10T09:03:16Z</time>
      </trkpt>
      <trkpt lat="45.64015" lon="6.99157">
        <ele>3205</ele>
        <time>2012-07-10T09:03:21Z</time>
      </trkpt>
      <trkpt lat="45.64015" lon="6.9915">
        <ele>3204</ele>
        <time>2012-07-10T09:03:26Z</time>
      </trkpt>
      <trkpt lat="45.64013" lon="6.99143">
        <ele>3203</ele>
        <time>2012-07-10T09:03:31Z</time>
      </trkpt>
      <trkpt lat="45.64014" lon="6.99136">
        <ele>3203</ele>
        <time>2012-07-10T09:03:36Z</time>
      </trkpt>
      <trkpt lat="45.64016" lon="6.99129">
        <ele>3202</ele>
        <time>2012-07-10T09:03:41Z</time>
      </trkpt>
      <trkpt lat="45.64016" lon="6.99122">
        <ele>3202</ele>
        <time>2012-07-10T09:03:46Z</time>
      </trkpt>
      <trkpt lat="45.64016" lon="6.99115">
        <ele>3201</ele>
        <time>2012-07-10T09:03:51Z</time>
      </trkpt>
      <trkpt lat="45.64017" lon="6.99108">
        <ele>3200</ele>
        <time>2012-07-10T09:03:56Z</time>
      </trkpt>
      <trkpt lat="45.64017" lon="6.991">
        <ele>3199</ele>
        <time>2012-07-10T09:04:01Z</time>
      </trkpt>
      <trkpt lat="45.64018" lon="6.99094">
        <ele>3199</ele>
        <time>2012-07-10T09:04:06Z</time>
      </trkpt>
      <trkpt lat="45.64018" lon="6.99086">
        <ele>3198</ele>
        <time>2012-07-10T09:04:11Z</time>
      </trkpt>
      <trkpt lat="45.64018" lon="6.99079">
        <ele>3198</ele>
        <time>2012-07-10T09:04:16Z</time>
      </trkpt>
      <trkpt lat="45.64019" lon="6.99072">
        <ele>3197</ele>
        <time>2012-07-10T09:04:21Z</time>
      </trkpt>
      <trkpt lat="45.6402" lon="6.99064">
        <ele>3196</ele>
        <time>2012-07-10T09:04:26Z</time>
      </trkpt>
      <trkpt lat="45.6402" lon="6.99056">
        <ele>3196</ele>
        <time>2012-07-10T09:04:31Z</time>
      </trkpt>
      <trkpt lat="45.6402" lon="6.9905">
        <ele>3195</ele>
        <time>2012-07-10T09:04:36Z</time>
      </trkpt>
      <trkpt lat="45.6402" lon="6.99043">
        <ele>3195</ele>
        <time>2012-07-10T09:04:41Z</time>
      </trkpt>
      <trkpt lat="45.64022" lon="6.99036">
        <ele>3194</ele>
        <time>2012-07-10T09:04:46Z</time>
      </trkpt>
      <trkpt lat="45.64023" lon="6.99029">
        <ele>3193</ele>
        <time>2012-07-10T09:04:51Z</time>
      </trkpt>
      <trkpt lat="45.64023" lon="6.99022">
        <ele>3192</ele>
        <time>2012-07-10T09:04:56Z</time>
      </trkpt>
      <trkpt lat="45.64024" lon="6.99014">
        <ele>3191</ele>
        <time>2012-07-10T09:05:01Z</time>
      </trkpt>
      <trkpt lat="45.64025" lon="6.99007">
        <ele>3190</ele>
        <time>2012-07-10T09:05:06Z</time>
      </trkpt>
      <trkpt lat="45.64025" lon="6.99">
        <ele>3189</ele>
        <time>2012-07-10T09:05:11Z</time>
      </trkpt>
      <trkpt lat="45.64025" lon="6.98993">
        <ele>3188</ele>
        <time>2012-07-10T09:05:16Z</time>
      </trkpt>
      <trkpt lat="45.64026" lon="6.98986">
        <ele>3187</ele>
        <time>2012-07-10T09:05:21Z</time>
      </trkpt>
      <trkpt lat="45.64026" lon="6.9898">
        <ele>3185</ele>
        <time>2012-07-10T09:05:26Z</time>
      </trkpt>
      <trkpt lat="45.64026" lon="6.98972">
        <ele>3184</ele>
        <time>2012-07-10T09:05:31Z</time>
      </trkpt>
      <trkpt lat="45.64026" lon="6.98965">
        <ele>3184</ele>
        <time>2012-07-10T09:05:36Z</time>
      </trkpt>
      <trkpt lat="45.64026" lon="6.98959">
        <ele>3182</ele>
        <time>2012-07-10T09:05:41Z</time>
      </trkpt>
      <trkpt lat="45.64026" lon="6.98952">
        <ele>3181</ele>
        <time>2012-07-10T09:05:46Z</time>
      </trkpt>
      <trkpt lat="45.64026" lon="6.98945">
        <ele>3180</ele>
        <time>2012-07-10T09:05:51Z</time>
      </trkpt>
      <trkpt lat="45.64026" lon="6.98938">
        <ele>3178</ele>
        <time>2012-07-10T09:05:56Z</time>
      </trkpt>
      <trkpt lat="45.64027" lon="6.98931">
        <ele>3177</ele>
        <time>2012-07-10T09:06:01Z</time>
      </trkpt>
      <trkpt lat="45.64026" lon="6.98925">
        <ele>3175</ele>
        <time>2012-07-10T09:06:06Z</time>
      </trkpt>
      <trkpt lat="45.64026" lon="6.98917">
        <ele>3174</ele>
        <time>2012-07-10T09:06:11Z</time>
      </trkpt>
      <trkpt lat="45.64026" lon="6.9891">
        <ele>3172</ele>
        <time>2012-07-10T09:06:16Z</time>
      </trkpt>
      <trkpt lat="45.64026" lon="6.98903">
        <ele>3170</ele>
        <time>2012-07-10T09:06:21Z</time>
      </trkpt>
      <trkpt lat="45.64029" lon="6.98897">
        <ele>3169</ele>
        <time>2012-07-10T09:06:26Z</time>
      </trkpt>
      <trkpt lat="45.6403" lon="6.9889">
        <ele>3167</ele>
        <time>2012-07-10T09:06:31Z</time>
      </trkpt>
      <trkpt lat="45.64031" lon="6.98885">
        <ele>3166</ele>
        <time>2012-07-10T09:06:36Z</time>
      </trkpt>
      <trkpt lat="45.64032" lon="6.9888">
        <ele>3165</ele>
        <time>2012-07-10T09:06:41Z</time>
      </trkpt>
      <trkpt lat="45.64033" lon="6.98873">
        <ele>3163</ele>
        <time>2012-07-10T09:06:46Z</time>
      </trkpt>
      <trkpt lat="45.64033" lon="6.98866">
        <ele>3161</ele>
        <time>2012-07-10T09:06:51Z</time>
      </trkpt>
      <trkpt lat="45.64035" lon="6.9886">
        <ele>3160</ele>
        <time>2012-07-10T09:06:56Z</time>
      </trkpt>
      <trkpt lat="45.64037" lon="6.98855">
        <ele>3158</ele>
        <time>2012-07-10T09:07:01Z</time>
      </trkpt>
      <trkpt lat="45.6404" lon="6.98849">
        <ele>3156</ele>
        <time>2012-07-10T09:07:06Z</time>
      </trkpt>
      <trkpt lat="45.64041" lon="6.98843">
        <ele>3154</ele>
        <time>2012-07-10T09:07:11Z</time>
      </trkpt>
      <trkpt lat="45.64042" lon="6.98837">
        <ele>3152</ele>
        <time>2012-07-10T09:07:16Z</time>
      </trkpt>
      <trkpt lat="45.64044" lon="6.98831">
        <ele>3150</ele>
        <time>2012-07-10T09:07:21Z</time>
      </trkpt>
      <trkpt lat="45.64044" lon="6.98825">
        <ele>3148</ele>
        <time>2012-07-10T09:07:26Z</time>
      </trkpt>
      <trkpt lat="45.64045" lon="6.98818">
        <ele>3146</ele>
        <time>2012-07-10T09:07:31Z</time>
      </trkpt>
      <trkpt lat="45.64045" lon="6.98812">
        <ele>3145</ele>
        <time>2012-07-10T09:07:36Z</time>
      </trkpt>
      <trkpt lat="45.64045" lon="6.98806">
        <ele>3143</ele>
        <time>2012-07-10T09:07:41Z</time>
      </trkpt>
      <trkpt lat="45.64047" lon="6.988">
        <ele>3141</ele>
        <time>2012-07-10T09:07:46Z</time>
      </trkpt>
      <trkpt lat="45.64048" lon="6.98794">
        <ele>3139</ele>
        <time>2012-07-10T09:07:51Z</time>
      </trkpt>
      <trkpt lat="45.64049" lon="6.98787">
        <ele>3136</ele>
        <time>2012-07-10T09:07:56Z</time>
      </trkpt>
      <trkpt lat="45.64051" lon="6.98783">
        <ele>3135</ele>
        <time>2012-07-10T09:08:01Z</time>
      </trkpt>
      <trkpt lat="45.64052" lon="6.98777">
        <ele>3132</ele>
        <time>2012-07-10T09:08:06Z</time>
      </trkpt>
      <trkpt lat="45.64055" lon="6.98772">
        <ele>3130</ele>
        <time>2012-07-10T09:08:11Z</time>
      </trkpt>
      <trkpt lat="45.64058" lon="6.98768">
        <ele>3128</ele>
        <time>2012-07-10T09:08:16Z</time>
      </trkpt>
      <trkpt lat="45.64061" lon="6.98764">
        <ele>3126</ele>
        <time>2012-07-10T09:08:21Z</time>
      </trkpt>
      <trkpt lat="45.64065" lon="6.9876">
        <ele>3124</ele>
        <time>2012-07-10T09:08:26Z</time>
      </trkpt>
      <trkpt lat="45.64068" lon="6.98756">
        <ele>3121</ele>
        <time>2012-07-10T09:08:31Z</time>
      </trkpt>
      <trkpt lat="45.64072" lon="6.98752">
        <ele>3119</ele>
        <time>2012-07-10T09:08:36Z</time>
      </trkpt>
      <trkpt lat="45.64077" lon="6.98751">
        <ele>3117</ele>
        <time>2012-07-10T09:08:41Z</time>
      </trkpt>
      <trkpt lat="45.64082" lon="6.9875">
        <ele>3115</ele>
        <time>2012-07-10T09:08:46Z</time>
      </trkpt>
      <trkpt lat="45.64087" lon="6.9875">
        <ele>3113</ele>
        <time>2012-07-10T09:08:51Z</time>
      </trkpt>
      <trkpt lat="45.64091" lon="6.98749">
        <ele>3111</ele>
        <time>2012-07-10T09:08:56Z</time>
      </trkpt>
      <trkpt lat="45.64096" lon="6.98749">
        <ele>3109</ele>
        <time>2012-07-10T09:09:01Z</time>
      </trkpt>
      <trkpt lat="45.641" lon="6.98748">
        <ele>3107</ele>
        <time>2012-07-10T09:09:06Z</time>
      </trkpt>
      <trkpt lat="45.64104" lon="6.98746">
        <ele>3105</ele>
        <time>2012-07-10T09:09:11Z</time>
      </trkpt>
      <trkpt lat="45.64108" lon="6.98745">
        <ele>3103</ele>
        <time>2012-07-10T09:09:16Z</time>
      </trkpt>
      <trkpt lat="45.64112" lon="6.98745">
        <ele>3101</ele>
        <time>2012-07-10T09:09:21Z</time>
      </trkpt>
      <trkpt lat="45.64115" lon="6.98742">
        <ele>3099</ele>
        <time>2012-07-10T09:09:26Z</time>
      </trkpt>
      <trkpt lat="45.64119" lon="6.98741">
        <ele>3097</ele>
        <time>2012-07-10T09:09:31Z</time>
      </trkpt>
      <trkpt lat="45.64123" lon="6.98739">
        <ele>3094</ele>
        <time>2012-07-10T09:09:36Z</time>
      </trkpt>
      <trkpt lat="45.64126" lon="6.98736">
        <ele>3092</ele>
        <time>2012-07-10T09:09:41Z</time>
      </trkpt>
      <trkpt lat="45.64128" lon="6.98731">
        <ele>3090</ele>
        <time>2012-07-10T09:09:46Z</time>
      </trkpt>
      <trkpt lat="45.6413" lon="6.98726">
        <ele>3087</ele>
        <time>2012-07-10T09:09:51Z</time>
      </trkpt>
      <trkpt lat="45.64132" lon="6.98721">
        <ele>3084</ele>
        <time>2012-07-10T09:09:56Z</time>
      </trkpt>
      <trkpt lat="45.64136" lon="6.98718">
        <ele>3082</ele>
        <time>2012-07-10T09:10:01Z</time>
      </trkpt>
      <trkpt lat="45.64138" lon="6.98714">
        <ele>3080</ele>
        <time>2012-07-10T09:10:06Z</time>
      </trkpt>
      <trkpt lat="45.6414" lon="6.98709">
        <ele>3077</ele>
        <time>2012-07-10T09:10:11Z</time>
      </trkpt>
      <trkpt lat="45.64142" lon="6.98705">
        <ele>3075</ele>
        <time>2012-07-10T09:10:16Z</time>
      </trkpt>
      <trkpt lat="45.64144" lon="6.98701">
        <ele>3073</ele>
        <time>2012-07-10T09:10:21Z</time>
      </trkpt>
      <trkpt lat="45.64146" lon="6.98696">
        <ele>3071</ele>
        <time>2012-07-10T09:10:26Z</time>
      </trkpt>
      <trkpt lat="45.64149" lon="6.98691">
        <ele>3069</ele>
        <time>2012-07-10T09:10:31Z</time>
      </trkpt>
      <trkpt lat="45.64152" lon="6.98687">
        <ele>3067</ele>
        <time>2012-07-10T09:10:36Z</time>
      </trkpt>
      <trkpt lat="45.64154" lon="6.98682">
        <ele>3064</ele>
        <time>2012-07-10T09:10:41Z</time>
      </trkpt>
      <trkpt lat="45.64156" lon="6.98677">
        <ele>3061</ele>
        <time>2012-07-10T09:10:46Z</time>
      </trkpt>
      <trkpt lat="45.64159" lon="6.98671">
        <ele>3059</ele>
        <time>2012-07-10T09:10:51Z</time>
      </trkpt>
      <trkpt lat="45.64161" lon="6.98666">
        <ele>3056</ele>
        <time>2012-07-10T09:10:56Z</time>
      </trkpt>
      <trkpt lat="45.64163" lon="6.9866">
        <ele>3053</ele>
        <time>2012-07-10T09:11:01Z</time>
      </trkpt>
      <trkpt lat="45.64165" lon="6.98655">
        <ele>3051</ele>
        <time>2012-07-10T09:11:06Z</time>
      </trkpt>
      <trkpt lat="45.64166" lon="6.98651">
        <ele>3050</ele>
        <time>2012-07-10T09:11:11Z</time>
      </trkpt>
      <trkpt lat="45.64167" lon="6.98646">
        <ele>3047</ele>
        <time>2012-07-10T09:11:16Z</time>
      </trkpt>
      <trkpt lat="45.64169" lon="6.9864">
        <ele>3045</ele>
        <time>2012-07-10T09:11:21Z</time>
      </trkpt>
      <trkpt lat="45.64171" lon="6.98634">
        <ele>3043</ele>
        <time>2012-07-10T09:11:26Z</time>
      </trkpt>
      <trkpt lat="45.64174" lon="6.98628">
        <ele>3040</ele>
        <time>2012-07-10T09:11:31Z</time>
      </trkpt>
      <trkpt lat="45.64177" lon="6.98622">
        <ele>3037</ele>
        <time>2012-07-10T09:11:36Z</time>
      </trkpt>
      <trkpt lat="45.64177" lon="6.98616">
        <ele>3035</ele>
        <time>2012-07-10T09:11:41Z</time>
      </trkpt>
      <trkpt lat="45.64179" lon="6.9861">
        <ele>3033</ele>
        <time>2012-07-10T09:11:46Z</time>
      </trkpt>
      <trkpt lat="45.64181" lon="6.98603">
        <ele>3031</ele>
        <time>2012-07-10T09:11:51Z</time>
      </trkpt>
      <trkpt lat="45.64182" lon="6.98597">
        <ele>3029</ele>
        <time>2012-07-10T09:11:56Z</time>
      </trkpt>
      <trkpt lat="45.64185" lon="6.98593">
        <ele>3028</ele>
        <time>2012-07-10T09:12:01Z</time>
      </trkpt>
      <trkpt lat="45.64187" lon="6.98589">
        <ele>3026</ele>
        <time>2012-07-10T09:12:06Z</time>
      </trkpt>
      <trkpt lat="45.64187" lon="6.98582">
        <ele>3025</ele>
        <time>2012-07-10T09:12:11Z</time>
      </trkpt>
      <trkpt lat="45.64187" lon="6.98577">
        <ele>3023</ele>
        <time>2012-07-10T09:12:16Z</time>
      </trkpt>
      <trkpt lat="45.64188" lon="6.98575">
        <ele>3022</ele>
        <time>2012-07-10T09:12:21Z</time>
      </trkpt>
      <trkpt lat="45.64188" lon="6.98572">
        <ele>3021</ele>
        <time>2012-07-10T09:12:26Z</time>
      </trkpt>
      <trkpt lat="45.64188" lon="6.98572">
        <ele>3021</ele>
        <time>2012-07-10T09:12:31Z</time>
      </trkpt>
      <trkpt lat="45.64188" lon="6.98572">
        <ele>3021</ele>
        <time>2012-07-10T09:12:36Z</time>
      </trkpt>
      <trkpt lat="45.64188" lon="6.98572">
        <ele>3021</ele>
        <time>2012-07-10T09:12:41Z</time>
      </trkpt>
      <trkpt lat="45.64188" lon="6.98572">
        <ele>3021</ele>
        <time>2012-07-10T09:12:46Z</time>
      </trkpt>
      <trkpt lat="45.64188" lon="6.98572">
        <ele>3020</ele>
        <time>2012-07-10T09:12:51Z</time>
      </trkpt>
      <trkpt lat="45.64187" lon="6.98572">
        <ele>3020</ele>
        <time>2012-07-10T09:12:56Z</time>
      </trkpt>
      <trkpt lat="45.64187" lon="6.98572">
        <ele>3020</ele>
        <time>2012-07-10T09:13:01Z</time>
      </trkpt>
      <trkpt lat="45.64187" lon="6.98572">
        <ele>3019</ele>
        <time>2012-07-10T09:13:06Z</time>
      </trkpt>
      <trkpt lat="45.64186" lon="6.98572">
        <ele>3019</ele>
        <time>2012-07-10T09:13:11Z</time>
      </trkpt>
      <trkpt lat="45.64187" lon="6.98572">
        <ele>3019</ele>
        <time>2012-07-10T09:13:16Z</time>
      </trkpt>
      <trkpt lat="45.64186" lon="6.98572">
        <ele>3019</ele>
        <time>2012-07-10T09:13:21Z</time>
      </trkpt>
      <trkpt lat="45.64186" lon="6.98572">
        <ele>3019</ele>
        <time>2012-07-10T09:13:26Z</time>
      </trkpt>
      <trkpt lat="45.64186" lon="6.98572">
        <ele>3019</ele>
        <time>2012-07-10T09:13:31Z</time>
      </trkpt>
      <trkpt lat="45.64186" lon="6.98572">
        <ele>3018</ele>
        <time>2012-07-10T09:13:36Z</time>
      </trkpt>
      <trkpt lat="45.64186" lon="6.98572">
        <ele>3018</ele>
        <time>2012-07-10T09:13:41Z</time>
      </trkpt>
      <trkpt lat="45.64188" lon="6.98566">
        <ele>3016</ele>
        <time>2012-07-10T09:13:46Z</time>
      </trkpt>
      <trkpt lat="45.64192" lon="6.9856">
        <ele>3014</ele>
        <time>2012-07-10T09:13:51Z</time>
      </trkpt>
      <trkpt lat="45.64194" lon="6.98555">
        <ele>3012</ele>
        <time>2012-07-10T09:13:56Z</time>
      </trkpt>
      <trkpt lat="45.64196" lon="6.98549">
        <ele>3010</ele>
        <time>2012-07-10T09:14:01Z</time>
      </trkpt>
      <trkpt lat="45.64198" lon="6.98543">
        <ele>3008</ele>
        <time>2012-07-10T09:14:06Z</time>
      </trkpt>
      <trkpt lat="45.64201" lon="6.98536">
        <ele>3006</ele>
        <time>2012-07-10T09:14:11Z</time>
      </trkpt>
      <trkpt lat="45.64204" lon="6.9853">
        <ele>3003</ele>
        <time>2012-07-10T09:14:16Z</time>
      </trkpt>
      <trkpt lat="45.64205" lon="6.98524">
        <ele>3000</ele>
        <time>2012-07-10T09:14:21Z</time>
      </trkpt>
      <trkpt lat="45.64206" lon="6.98518">
        <ele>2999</ele>
        <time>2012-07-10T09:14:26Z</time>
      </trkpt>
      <trkpt lat="45.64208" lon="6.98512">
        <ele>2997</ele>
        <time>2012-07-10T09:14:31Z</time>
      </trkpt>
      <trkpt lat="45.64211" lon="6.98506">
        <ele>2994</ele>
        <time>2012-07-10T09:14:36Z</time>
      </trkpt>
      <trkpt lat="45.64213" lon="6.985">
        <ele>2992</ele>
        <time>2012-07-10T09:14:41Z</time>
      </trkpt>
      <trkpt lat="45.64217" lon="6.98495">
        <ele>2990</ele>
        <time>2012-07-10T09:14:46Z</time>
      </trkpt>
      <trkpt lat="45.64219" lon="6.98489">
        <ele>2988</ele>
        <time>2012-07-10T09:14:51Z</time>
      </trkpt>
      <trkpt lat="45.64222" lon="6.98483">
        <ele>2986</ele>
        <time>2012-07-10T09:14:56Z</time>
      </trkpt>
      <trkpt lat="45.64225" lon="6.98477">
        <ele>2984</ele>
        <time>2012-07-10T09:15:01Z</time>
      </trkpt>
      <trkpt lat="45.64229" lon="6.98472">
        <ele>2982</ele>
        <time>2012-07-10T09:15:06Z</time>
      </trkpt>
      <trkpt lat="45.64233" lon="6.98466">
        <ele>2980</ele>
        <time>2012-07-10T09:15:11Z</time>
      </trkpt>
      <trkpt lat="45.64235" lon="6.9846">
        <ele>2979</ele>
        <time>2012-07-10T09:15:16Z</time>
      </trkpt>
      <trkpt lat="45.64238" lon="6.98453">
        <ele>2977</ele>
        <time>2012-07-10T09:15:21Z</time>
      </trkpt>
      <trkpt lat="45.64241" lon="6.98447">
        <ele>2975</ele>
        <time>2012-07-10T09:15:26Z</time>
      </trkpt>
      <trkpt lat="45.64245" lon="6.98443">
        <ele>2974</ele>
        <time>2012-07-10T09:15:31Z</time>
      </trkpt>
      <trkpt lat="45.64248" lon="6.98436">
        <ele>2972</ele>
        <time>2012-07-10T09:15:36Z</time>
      </trkpt>
      <trkpt lat="45.64251" lon="6.98431">
        <ele>2970</ele>
        <time>2012-07-10T09:15:41Z</time>
      </trkpt>
      <trkpt lat="45.64255" lon="6.98426">
        <ele>2969</ele>
        <time>2012-07-10T09:15:46Z</time>
      </trkpt>
      <trkpt lat="45.64259" lon="6.98421">
        <ele>2967</ele>
        <time>2012-07-10T09:15:51Z</time>
      </trkpt>
      <trkpt lat="45.64263" lon="6.98416">
        <ele>2965</ele>
        <time>2012-07-10T09:15:56Z</time>
      </trkpt>
      <trkpt lat="45.64266" lon="6.98411">
        <ele>2963</ele>
        <time>2012-07-10T09:16:01Z</time>
      </trkpt>
      <trkpt lat="45.64269" lon="6.98405">
        <ele>2961</ele>
        <time>2012-07-10T09:16:06Z</time>
      </trkpt>
      <trkpt lat="45.64272" lon="6.98399">
        <ele>2959</ele>
        <time>2012-07-10T09:16:11Z</time>
      </trkpt>
      <trkpt lat="45.64276" lon="6.98394">
        <ele>2957</ele>
        <time>2012-07-10T09:16:16Z</time>
      </trkpt>
      <trkpt lat="45.64278" lon="6.98387">
        <ele>2955</ele>
        <time>2012-07-10T09:16:21Z</time>
      </trkpt>
      <trkpt lat="45.6428" lon="6.98382">
        <ele>2953</ele>
        <time>2012-07-10T09:16:26Z</time>
      </trkpt>
      <trkpt lat="45.64283" lon="6.98377">
        <ele>2951</ele>
        <time>2012-07-10T09:16:31Z</time>
      </trkpt>
      <trkpt lat="45.64286" lon="6.98372">
        <ele>2949</ele>
        <time>2012-07-10T09:16:36Z</time>
      </trkpt>
      <trkpt lat="45.64288" lon="6.98366">
        <ele>2947</ele>
        <time>2012-07-10T09:16:41Z</time>
      </trkpt>
      <trkpt lat="45.6429" lon="6.9836">
        <ele>2945</ele>
        <time>2012-07-10T09:16:46Z</time>
      </trkpt>
      <trkpt lat="45.64295" lon="6.98356">
        <ele>2943</ele>
        <time>2012-07-10T09:16:51Z</time>
      </trkpt>
      <trkpt lat="45.64296" lon="6.98349">
        <ele>2941</ele>
        <time>2012-07-10T09:16:56Z</time>
      </trkpt>
      <trkpt lat="45.64296" lon="6.98341">
        <ele>2939</ele>
        <time>2012-07-10T09:17:01Z</time>
      </trkpt>
      <trkpt lat="45.64296" lon="6.98336">
        <ele>2937</ele>
        <time>2012-07-10T09:17:06Z</time>
      </trkpt>
      <trkpt lat="45.64297" lon="6.98329">
        <ele>2936</ele>
        <time>2012-07-10T09:17:11Z</time>
      </trkpt>
      <trkpt lat="45.64298" lon="6.98322">
        <ele>2934</ele>
        <time>2012-07-10T09:17:16Z</time>
      </trkpt>
      <trkpt lat="45.64299" lon="6.98316">
        <ele>2932</ele>
        <time>2012-07-10T09:17:21Z</time>
      </trkpt>
      <trkpt lat="45.64302" lon="6.98311">
        <ele>2930</ele>
        <time>2012-07-10T09:17:26Z</time>
      </trkpt>
      <trkpt lat="45.64303" lon="6.98305">
        <ele>2928</ele>
        <time>2012-07-10T09:17:31Z</time>
      </trkpt>
      <trkpt lat="45.64306" lon="6.983">
        <ele>2927</ele>
        <time>2012-07-10T09:17:36Z</time>
      </trkpt>
      <trkpt lat="45.64307" lon="6.98294">
        <ele>2925</ele>
        <time>2012-07-10T09:17:41Z</time>
      </trkpt>
      <trkpt lat="45.64308" lon="6.98293">
        <ele>2925</ele>
        <time>2012-07-10T09:17:46Z</time>
      </trkpt>
      <trkpt lat="45.64307" lon="6.98293">
        <ele>2925</ele>
        <time>2012-07-10T09:17:51Z</time>
      </trkpt>
      <trkpt lat="45.64308" lon="6.98293">
        <ele>2925</ele>
        <time>2012-07-10T09:17:56Z</time>
      </trkpt>
      <trkpt lat="45.64307" lon="6.98292">
        <ele>2925</ele>
        <time>2012-07-10T09:18:01Z</time>
      </trkpt>
      <trkpt lat="45.64308" lon="6.98293">
        <ele>2925</ele>
        <time>2012-07-10T09:18:06Z</time>
      </trkpt>
      <trkpt lat="45.64308" lon="6.98292">
        <ele>2925</ele>
        <time>2012-07-10T09:18:11Z</time>
      </trkpt>
      <trkpt lat="45.64311" lon="6.98288">
        <ele>2923</ele>
        <time>2012-07-10T09:18:16Z</time>
      </trkpt>
      <trkpt lat="45.64313" lon="6.98283">
        <ele>2921</ele>
        <time>2012-07-10T09:18:21Z</time>
      </trkpt>
      <trkpt lat="45.64314" lon="6.98278">
        <ele>2919</ele>
        <time>2012-07-10T09:18:26Z</time>
      </trkpt>
      <trkpt lat="45.64316" lon="6.98271">
        <ele>2917</ele>
        <time>2012-07-10T09:18:31Z</time>
      </trkpt>
      <trkpt lat="45.64317" lon="6.98265">
        <ele>2915</ele>
        <time>2012-07-10T09:18:36Z</time>
      </trkpt>
      <trkpt lat="45.64318" lon="6.98258">
        <ele>2913</ele>
        <time>2012-07-10T09:18:41Z</time>
      </trkpt>
      <trkpt lat="45.6432" lon="6.98252">
        <ele>2910</ele>
        <time>2012-07-10T09:18:46Z</time>
      </trkpt>
      <trkpt lat="45.64321" lon="6.98245">
        <ele>2908</ele>
        <time>2012-07-10T09:18:51Z</time>
      </trkpt>
      <trkpt lat="45.64322" lon="6.98238">
        <ele>2906</ele>
        <time>2012-07-10T09:18:56Z</time>
      </trkpt>
      <trkpt lat="45.64324" lon="6.98232">
        <ele>2904</ele>
        <time>2012-07-10T09:19:01Z</time>
      </trkpt>
      <trkpt lat="45.64326" lon="6.98226">
        <ele>2901</ele>
        <time>2012-07-10T09:19:06Z</time>
      </trkpt>
      <trkpt lat="45.64327" lon="6.98219">
        <ele>2899</ele>
        <time>2012-07-10T09:19:11Z</time>
      </trkpt>
      <trkpt lat="45.64327" lon="6.98211">
        <ele>2896</ele>
        <time>2012-07-10T09:19:16Z</time>
      </trkpt>
      <trkpt lat="45.64327" lon="6.98203">
        <ele>2894</ele>
        <time>2012-07-10T09:19:21Z</time>
      </trkpt>
      <trkpt lat="45.64327" lon="6.98196">
        <ele>2891</ele>
        <time>2012-07-10T09:19:26Z</time>
      </trkpt>
      <trkpt lat="45.64326" lon="6.98189">
        <ele>2889</ele>
        <time>2012-07-10T09:19:31Z</time>
      </trkpt>
      <trkpt lat="45.64325" lon="6.98181">
        <ele>2887</ele>
        <time>2012-07-10T09:19:36Z</time>
      </trkpt>
      <trkpt lat="45.64325" lon="6.98174">
        <ele>2885</ele>
        <time>2012-07-10T09:19:41Z</time>
      </trkpt>
      <trkpt lat="45.64323" lon="6.98166">
        <ele>2882</ele>
        <time>2012-07-10T09:19:46Z</time>
      </trkpt>
      <trkpt lat="45.64322" lon="6.9816">
        <ele>2880</ele>
        <time>2012-07-10T09:19:51Z</time>
      </trkpt>
      <trkpt lat="45.64322" lon="6.98152">
        <ele>2878</ele>
        <time>2012-07-10T09:19:56Z</time>
      </trkpt>
      <trkpt lat="45.64322" lon="6.98145">
        <ele>2876</ele>
        <time>2012-07-10T09:20:01Z</time>
      </trkpt>
      <trkpt lat="45.6432" lon="6.98139">
        <ele>2874</ele>
        <time>2012-07-10T09:20:06Z</time>
      </trkpt>
      <trkpt lat="45.64319" lon="6.98132">
        <ele>2872</ele>
        <time>2012-07-10T09:20:11Z</time>
      </trkpt>
      <trkpt lat="45.64318" lon="6.98124">
        <ele>2870</ele>
        <time>2012-07-10T09:20:16Z</time>
      </trkpt>
      <trkpt lat="45.64317" lon="6.98118">
        <ele>2868</ele>
        <time>2012-07-10T09:20:21Z</time>
      </trkpt>
      <trkpt lat="45.64316" lon="6.98111">
        <ele>2866</ele>
        <time>2012-07-10T09:20:26Z</time>
      </trkpt>
      <trkpt lat="45.64315" lon="6.98105">
        <ele>2864</ele>
        <time>2012-07-10T09:20:31Z</time>
      </trkpt>
      <trkpt lat="45.64313" lon="6.98098">
        <ele>2863</ele>
        <time>2012-07-10T09:20:36Z</time>
      </trkpt>
      <trkpt lat="45.64311" lon="6.98091">
        <ele>2860</ele>
        <time>2012-07-10T09:20:41Z</time>
      </trkpt>
      <trkpt lat="45.64309" lon="6.98085">
        <ele>2858</ele>
        <time>2012-07-10T09:20:46Z</time>
      </trkpt>
      <trkpt lat="45.64307" lon="6.98077">
        <ele>2856</ele>
        <time>2012-07-10T09:20:51Z</time>
      </trkpt>
      <trkpt lat="45.64306" lon="6.98072">
        <ele>2854</ele>
        <time>2012-07-10T09:20:56Z</time>
      </trkpt>
      <trkpt lat="45.64305" lon="6.98065">
        <ele>2852</ele>
        <time>2012-07-10T09:21:01Z</time>
      </trkpt>
      <trkpt lat="45.64304" lon="6.98059">
        <ele>2850</ele>
        <time>2012-07-10T09:21:06Z</time>
      </trkpt>
      <trkpt lat="45.64303" lon="6.98054">
        <ele>2848</ele>
        <time>2012-07-10T09:21:11Z</time>
      </trkpt>
      <trkpt lat="45.64302" lon="6.98048">
        <ele>2846</ele>
        <time>2012-07-10T09:21:16Z</time>
      </trkpt>
      <trkpt lat="45.643" lon="6.98041">
        <ele>2844</ele>
        <time>2012-07-10T09:21:21Z</time>
      </trkpt>
      <trkpt lat="45.64299" lon="6.98035">
        <ele>2842</ele>
        <time>2012-07-10T09:21:26Z</time>
      </trkpt>
      <trkpt lat="45.64299" lon="6.98028">
        <ele>2840</ele>
        <time>2012-07-10T09:21:31Z</time>
      </trkpt>
      <trkpt lat="45.64297" lon="6.98022">
        <ele>2838</ele>
        <time>2012-07-10T09:21:36Z</time>
      </trkpt>
      <trkpt lat="45.64296" lon="6.98018">
        <ele>2836</ele>
        <time>2012-07-10T09:21:41Z</time>
      </trkpt>
      <trkpt lat="45.64294" lon="6.98012">
        <ele>2835</ele>
        <time>2012-07-10T09:21:46Z</time>
      </trkpt>
      <trkpt lat="45.64293" lon="6.98005">
        <ele>2832</ele>
        <time>2012-07-10T09:21:51Z</time>
      </trkpt>
      <trkpt lat="45.64291" lon="6.97997">
        <ele>2830</ele>
        <time>2012-07-10T09:21:56Z</time>
      </trkpt>
      <trkpt lat="45.6429" lon="6.9799">
        <ele>2828</ele>
        <time>2012-07-10T09:22:01Z</time>
      </trkpt>
      <trkpt lat="45.6429" lon="6.97983">
        <ele>2827</ele>
        <time>2012-07-10T09:22:06Z</time>
      </trkpt>
      <trkpt lat="45.64289" lon="6.97975">
        <ele>2826</ele>
        <time>2012-07-10T09:22:11Z</time>
      </trkpt>
      <trkpt lat="45.64289" lon="6.9797">
        <ele>2825</ele>
        <time>2012-07-10T09:22:16Z</time>
      </trkpt>
      <trkpt lat="45.64289" lon="6.97962">
        <ele>2824</ele>
        <time>2012-07-10T09:22:21Z</time>
      </trkpt>
      <trkpt lat="45.64289" lon="6.97955">
        <ele>2823</ele>
        <time>2012-07-10T09:22:26Z</time>
      </trkpt>
      <trkpt lat="45.6429" lon="6.97948">
        <ele>2822</ele>
        <time>2012-07-10T09:22:31Z</time>
      </trkpt>
      <trkpt lat="45.64289" lon="6.97942">
        <ele>2821</ele>
        <time>2012-07-10T09:22:36Z</time>
      </trkpt>
      <trkpt lat="45.6429" lon="6.97934">
        <ele>2820</ele>
        <time>2012-07-10T09:22:41Z</time>
      </trkpt>
      <trkpt lat="45.6429" lon="6.97928">
        <ele>2819</ele>
        <time>2012-07-10T09:22:46Z</time>
      </trkpt>
      <trkpt lat="45.6429" lon="6.9792">
        <ele>2818</ele>
        <time>2012-07-10T09:22:51Z</time>
      </trkpt>
      <trkpt lat="45.64288" lon="6.97914">
        <ele>2816</ele>
        <time>2012-07-10T09:22:56Z</time>
      </trkpt>
      <trkpt lat="45.64288" lon="6.97907">
        <ele>2814</ele>
        <time>2012-07-10T09:23:01Z</time>
      </trkpt>
      <trkpt lat="45.64288" lon="6.979">
        <ele>2812</ele>
        <time>2012-07-10T09:23:06Z</time>
      </trkpt>
      <trkpt lat="45.64288" lon="6.97893">
        <ele>2810</ele>
        <time>2012-07-10T09:23:11Z</time>
      </trkpt>
      <trkpt lat="45.64288" lon="6.97886">
        <ele>2808</ele>
        <time>2012-07-10T09:23:16Z</time>
      </trkpt>
      <trkpt lat="45.64287" lon="6.97879">
        <ele>2806</ele>
        <time>2012-07-10T09:23:21Z</time>
      </trkpt>
      <trkpt lat="45.64286" lon="6.97873">
        <ele>2804</ele>
        <time>2012-07-10T09:23:26Z</time>
      </trkpt>
      <trkpt lat="45.64284" lon="6.97869">
        <ele>2803</ele>
        <time>2012-07-10T09:23:31Z</time>
      </trkpt>
      <trkpt lat="45.64283" lon="6.97863">
        <ele>2801</ele>
        <time>2012-07-10T09:23:36Z</time>
      </trkpt>
      <trkpt lat="45.64282" lon="6.97856">
        <ele>2799</ele>
        <time>2012-07-10T09:23:41Z</time>
      </trkpt>
      <trkpt lat="45.6428" lon="6.9785">
        <ele>2798</ele>
        <time>2012-07-10T09:23:46Z</time>
      </trkpt>
      <trkpt lat="45.64278" lon="6.97845">
        <ele>2797</ele>
        <time>2012-07-10T09:23:51Z</time>
      </trkpt>
      <trkpt lat="45.64276" lon="6.97839">
        <ele>2795</ele>
        <time>2012-07-10T09:23:56Z</time>
      </trkpt>
      <trkpt lat="45.64274" lon="6.97833">
        <ele>2793</ele>
        <time>2012-07-10T09:24:01Z</time>
      </trkpt>
      <trkpt lat="45.64272" lon="6.97829">
        <ele>2792</ele>
        <time>2012-07-10T09:24:06Z</time>
      </trkpt>
      <trkpt lat="45.6427" lon="6.97822">
        <ele>2790</ele>
        <time>2012-07-10T09:24:11Z</time>
      </trkpt>
      <trkpt lat="45.64268" lon="6.97819">
        <ele>2789</ele>
        <time>2012-07-10T09:24:16Z</time>
      </trkpt>
      <trkpt lat="45.64266" lon="6.97814">
        <ele>2788</ele>
        <time>2012-07-10T09:24:21Z</time>
      </trkpt>
      <trkpt lat="45.64264" lon="6.97808">
        <ele>2786</ele>
        <time>2012-07-10T09:24:26Z</time>
      </trkpt>
      <trkpt lat="45.64262" lon="6.97804">
        <ele>2785</ele>
        <time>2012-07-10T09:24:31Z</time>
      </trkpt>
      <trkpt lat="45.64261" lon="6.97799">
        <ele>2783</ele>
        <time>2012-07-10T09:24:36Z</time>
      </trkpt>
      <trkpt lat="45.64259" lon="6.97794">
        <ele>2782</ele>
        <time>2012-07-10T09:24:41Z</time>
      </trkpt>
      <trkpt lat="45.64256" lon="6.97788">
        <ele>2781</ele>
        <time>2012-07-10T09:24:46Z</time>
      </trkpt>
      <trkpt lat="45.64254" lon="6.97782">
        <ele>2780</ele>
        <time>2012-07-10T09:24:51Z</time>
      </trkpt>
      <trkpt lat="45.64252" lon="6.97777">
        <ele>2778</ele>
        <time>2012-07-10T09:24:56Z</time>
      </trkpt>
      <trkpt lat="45.64251" lon="6.97772">
        <ele>2777</ele>
        <time>2012-07-10T09:25:01Z</time>
      </trkpt>
      <trkpt lat="45.6425" lon="6.97766">
        <ele>2776</ele>
        <time>2012-07-10T09:25:06Z</time>
      </trkpt>
      <trkpt lat="45.64247" lon="6.9776">
        <ele>2774</ele>
        <time>2012-07-10T09:25:11Z</time>
      </trkpt>
      <trkpt lat="45.64244" lon="6.97755">
        <ele>2772</ele>
        <time>2012-07-10T09:25:16Z</time>
      </trkpt>
      <trkpt lat="45.64242" lon="6.97749">
        <ele>2770</ele>
        <time>2012-07-10T09:25:21Z</time>
      </trkpt>
      <trkpt lat="45.64239" lon="6.97742">
        <ele>2767</ele>
        <time>2012-07-10T09:25:26Z</time>
      </trkpt>
      <trkpt lat="45.64237" lon="6.97736">
        <ele>2764</ele>
        <time>2012-07-10T09:25:31Z</time>
      </trkpt>
      <trkpt lat="45.64235" lon="6.9773">
        <ele>2762</ele>
        <time>2012-07-10T09:25:36Z</time>
      </trkpt>
      <trkpt lat="45.64232" lon="6.97723">
        <ele>2760</ele>
        <time>2012-07-10T09:25:41Z</time>
      </trkpt>
      <trkpt lat="45.64229" lon="6.97716">
        <ele>2758</ele>
        <time>2012-07-10T09:25:46Z</time>
      </trkpt>
      <trkpt lat="45.64227" lon="6.97711">
        <ele>2756</ele>
        <time>2012-07-10T09:25:51Z</time>
      </trkpt>
      <trkpt lat="45.64225" lon="6.97704">
        <ele>2754</ele>
        <time>2012-07-10T09:25:56Z</time>
      </trkpt>
      <trkpt lat="45.64222" lon="6.97698">
        <ele>2753</ele>
        <time>2012-07-10T09:26:01Z</time>
      </trkpt>
      <trkpt lat="45.6422" lon="6.97692">
        <ele>2752</ele>
        <time>2012-07-10T09:26:06Z</time>
      </trkpt>
      <trkpt lat="45.64218" lon="6.97686">
        <ele>2751</ele>
        <time>2012-07-10T09:26:11Z</time>
      </trkpt>
      <trkpt lat="45.64216" lon="6.9768">
        <ele>2749</ele>
        <time>2012-07-10T09:26:16Z</time>
      </trkpt>
      <trkpt lat="45.64214" lon="6.97673">
        <ele>2747</ele>
        <time>2012-07-10T09:26:21Z</time>
      </trkpt>
      <trkpt lat="45.64211" lon="6.97668">
        <ele>2745</ele>
        <time>2012-07-10T09:26:26Z</time>
      </trkpt>
      <trkpt lat="45.64208" lon="6.9766">
        <ele>2742</ele>
        <time>2012-07-10T09:26:31Z</time>
      </trkpt>
      <trkpt lat="45.64202" lon="6.97654">
        <ele>2740</ele>
        <time>2012-07-10T09:26:36Z</time>
      </trkpt>
      <trkpt lat="45.642" lon="6.97647">
        <ele>2737</ele>
        <time>2012-07-10T09:26:41Z</time>
      </trkpt>
      <trkpt lat="45.64198" lon="6.97639">
        <ele>2735</ele>
        <time>2012-07-10T09:26:46Z</time>
      </trkpt>
      <trkpt lat="45.64196" lon="6.97631">
        <ele>2733</ele>
        <time>2012-07-10T09:26:51Z</time>
      </trkpt>
      <trkpt lat="45.64194" lon="6.97624">
        <ele>2731</ele>
        <time>2012-07-10T09:26:56Z</time>
      </trkpt>
      <trkpt lat="45.64192" lon="6.97616">
        <ele>2729</ele>
        <time>2012-07-10T09:27:01Z</time>
      </trkpt>
      <trkpt lat="45.6419" lon="6.97609">
        <ele>2727</ele>
        <time>2012-07-10T09:27:06Z</time>
      </trkpt>
      <trkpt lat="45.64188" lon="6.97601">
        <ele>2724</ele>
        <time>2012-07-10T09:27:11Z</time>
      </trkpt>
      <trkpt lat="45.64187" lon="6.97592">
        <ele>2722</ele>
        <time>2012-07-10T09:27:16Z</time>
      </trkpt>
      <trkpt lat="45.64185" lon="6.97585">
        <ele>2721</ele>
        <time>2012-07-10T09:27:21Z</time>
      </trkpt>
      <trkpt lat="45.64185" lon="6.97578">
        <ele>2719</ele>
        <time>2012-07-10T09:27:26Z</time>
      </trkpt>
      <trkpt lat="45.64182" lon="6.9757">
        <ele>2718</ele>
        <time>2012-07-10T09:27:31Z</time>
      </trkpt>
      <trkpt lat="45.64181" lon="6.97563">
        <ele>2716</ele>
        <time>2012-07-10T09:27:36Z</time>
      </trkpt>
      <trkpt lat="45.6418" lon="6.97556">
        <ele>2714</ele>
        <time>2012-07-10T09:27:41Z</time>
      </trkpt>
      <trkpt lat="45.64179" lon="6.9755">
        <ele>2713</ele>
        <time>2012-07-10T09:27:46Z</time>
      </trkpt>
      <trkpt lat="45.64177" lon="6.97543">
        <ele>2711</ele>
        <time>2012-07-10T09:27:51Z</time>
      </trkpt>
      <trkpt lat="45.64177" lon="6.97537">
        <ele>2709</ele>
        <time>2012-07-10T09:27:56Z</time>
      </trkpt>
      <trkpt lat="45.64176" lon="6.97531">
        <ele>2707</ele>
        <time>2012-07-10T09:28:01Z</time>
      </trkpt>
      <trkpt lat="45.64173" lon="6.97525">
        <ele>2706</ele>
        <time>2012-07-10T09:28:06Z</time>
      </trkpt>
      <trkpt lat="45.64169" lon="6.97518">
        <ele>2704</ele>
        <time>2012-07-10T09:28:11Z</time>
      </trkpt>
      <trkpt lat="45.64167" lon="6.97511">
        <ele>2702</ele>
        <time>2012-07-10T09:28:16Z</time>
      </trkpt>
      <trkpt lat="45.64165" lon="6.97504">
        <ele>2700</ele>
        <time>2012-07-10T09:28:21Z</time>
      </trkpt>
      <trkpt lat="45.64163" lon="6.97497">
        <ele>2698</ele>
        <time>2012-07-10T09:28:26Z</time>
      </trkpt>
      <trkpt lat="45.64162" lon="6.97489">
        <ele>2696</ele>
        <time>2012-07-10T09:28:31Z</time>
      </trkpt>
      <trkpt lat="45.6416" lon="6.97482">
        <ele>2693</ele>
        <time>2012-07-10T09:28:36Z</time>
      </trkpt>
      <trkpt lat="45.64156" lon="6.97476">
        <ele>2691</ele>
        <time>2012-07-10T09:28:41Z</time>
      </trkpt>
      <trkpt lat="45.64154" lon="6.97469">
        <ele>2689</ele>
        <time>2012-07-10T09:28:46Z</time>
      </trkpt>
      <trkpt lat="45.6415" lon="6.97463">
        <ele>2687</ele>
        <time>2012-07-10T09:28:51Z</time>
      </trkpt>
      <trkpt lat="45.6415" lon="6.97456">
        <ele>2685</ele>
        <time>2012-07-10T09:28:56Z</time>
      </trkpt>
      <trkpt lat="45.6415" lon="6.97451">
        <ele>2683</ele>
        <time>2012-07-10T09:29:01Z</time>
      </trkpt>
      <trkpt lat="45.64147" lon="6.97448">
        <ele>2682</ele>
        <time>2012-07-10T09:29:06Z</time>
      </trkpt>
      <trkpt lat="45.64147" lon="6.97443">
        <ele>2680</ele>
        <time>2012-07-10T09:29:11Z</time>
      </trkpt>
      <trkpt lat="45.64147" lon="6.97438">
        <ele>2678</ele>
        <time>2012-07-10T09:29:16Z</time>
      </trkpt>
      <trkpt lat="45.64145" lon="6.97435">
        <ele>2676</ele>
        <time>2012-07-10T09:29:21Z</time>
      </trkpt>
      <trkpt lat="45.64141" lon="6.97432">
        <ele>2674</ele>
        <time>2012-07-10T09:29:26Z</time>
      </trkpt>
      <trkpt lat="45.64138" lon="6.97427">
        <ele>2672</ele>
        <time>2012-07-10T09:29:31Z</time>
      </trkpt>
      <trkpt lat="45.64136" lon="6.97424">
        <ele>2671</ele>
        <time>2012-07-10T09:29:36Z</time>
      </trkpt>
      <trkpt lat="45.64134" lon="6.97414">
        <ele>2667</ele>
        <time>2012-07-10T09:52:36Z</time>
      </trkpt>
      <trkpt lat="45.64134" lon="6.97414">
        <ele>2667</ele>
        <time>2012-07-10T09:52:41Z</time>
      </trkpt>
      <trkpt lat="45.64134" lon="6.97414">
        <ele>2667</ele>
        <time>2012-07-10T09:52:46Z</time>
      </trkpt>
      <trkpt lat="45.64134" lon="6.97414">
        <ele>2667</ele>
        <time>2012-07-10T09:52:51Z</time>
      </trkpt>
      <trkpt lat="45.64132" lon="6.97414">
        <ele>2667</ele>
        <time>2012-07-10T09:52:56Z</time>
      </trkpt>
      <trkpt lat="45.64127" lon="6.97414">
        <ele>2666</ele>
        <time>2012-07-10T09:53:01Z</time>
      </trkpt>
      <trkpt lat="45.64124" lon="6.97413">
        <ele>2664</ele>
        <time>2012-07-10T09:53:06Z</time>
      </trkpt>
      <trkpt lat="45.64118" lon="6.97414">
        <ele>2661</ele>
        <time>2012-07-10T09:53:11Z</time>
      </trkpt>
      <trkpt lat="45.64114" lon="6.97415">
        <ele>2659</ele>
        <time>2012-07-10T09:53:16Z</time>
      </trkpt>
      <trkpt lat="45.64113" lon="6.97412">
        <ele>2658</ele>
        <time>2012-07-10T09:53:21Z</time>
      </trkpt>
      <trkpt lat="45.6411" lon="6.9741">
        <ele>2656</ele>
        <time>2012-07-10T09:53:26Z</time>
      </trkpt>
      <trkpt lat="45.64106" lon="6.97409">
        <ele>2655</ele>
        <time>2012-07-10T09:53:31Z</time>
      </trkpt>
      <trkpt lat="45.64102" lon="6.97409">
        <ele>2654</ele>
        <time>2012-07-10T09:53:36Z</time>
      </trkpt>
      <trkpt lat="45.64099" lon="6.97408">
        <ele>2653</ele>
        <time>2012-07-10T09:53:41Z</time>
      </trkpt>
      <trkpt lat="45.64097" lon="6.97408">
        <ele>2652</ele>
        <time>2012-07-10T09:53:46Z</time>
      </trkpt>
      <trkpt lat="45.64097" lon="6.97408">
        <ele>2652</ele>
        <time>2012-07-10T09:53:51Z</time>
      </trkpt>
      <trkpt lat="45.64094" lon="6.97408">
        <ele>2651</ele>
        <time>2012-07-10T09:53:56Z</time>
      </trkpt>
      <trkpt lat="45.6409" lon="6.97408">
        <ele>2649</ele>
        <time>2012-07-10T09:54:01Z</time>
      </trkpt>
      <trkpt lat="45.64086" lon="6.97405">
        <ele>2647</ele>
        <time>2012-07-10T09:54:06Z</time>
      </trkpt>
      <trkpt lat="45.64083" lon="6.97398">
        <ele>2645</ele>
        <time>2012-07-10T09:54:11Z</time>
      </trkpt>
      <trkpt lat="45.64081" lon="6.9739">
        <ele>2643</ele>
        <time>2012-07-10T09:54:16Z</time>
      </trkpt>
      <trkpt lat="45.64081" lon="6.9738">
        <ele>2641</ele>
        <time>2012-07-10T09:54:21Z</time>
      </trkpt>
      <trkpt lat="45.64081" lon="6.97371">
        <ele>2639</ele>
        <time>2012-07-10T09:54:26Z</time>
      </trkpt>
      <trkpt lat="45.64081" lon="6.97362">
        <ele>2637</ele>
        <time>2012-07-10T09:54:31Z</time>
      </trkpt>
      <trkpt lat="45.64079" lon="6.97354">
        <ele>2634</ele>
        <time>2012-07-10T09:54:36Z</time>
      </trkpt>
      <trkpt lat="45.64079" lon="6.97344">
        <ele>2632</ele>
        <time>2012-07-10T09:54:41Z</time>
      </trkpt>
      <trkpt lat="45.64078" lon="6.97335">
        <ele>2629</ele>
        <time>2012-07-10T09:54:46Z</time>
      </trkpt>
      <trkpt lat="45.64078" lon="6.9733">
        <ele>2627</ele>
        <time>2012-07-10T09:54:51Z</time>
      </trkpt>
      <trkpt lat="45.64078" lon="6.97327">
        <ele>2626</ele>
        <time>2012-07-10T09:54:56Z</time>
      </trkpt>
      <trkpt lat="45.64079" lon="6.97327">
        <ele>2626</ele>
        <time>2012-07-10T09:55:01Z</time>
      </trkpt>
      <trkpt lat="45.64078" lon="6.97327">
        <ele>2626</ele>
        <time>2012-07-10T09:55:06Z</time>
      </trkpt>
      <trkpt lat="45.64079" lon="6.97327">
        <ele>2626</ele>
        <time>2012-07-10T09:55:11Z</time>
      </trkpt>
      <trkpt lat="45.64079" lon="6.97327">
        <ele>2626</ele>
        <time>2012-07-10T09:55:16Z</time>
      </trkpt>
      <trkpt lat="45.64079" lon="6.97327">
        <ele>2625</ele>
        <time>2012-07-10T09:55:21Z</time>
      </trkpt>
      <trkpt lat="45.64079" lon="6.97327">
        <ele>2625</ele>
        <time>2012-07-10T09:55:26Z</time>
      </trkpt>
      <trkpt lat="45.64078" lon="6.97321">
        <ele>2623</ele>
        <time>2012-07-10T09:55:31Z</time>
      </trkpt>
      <trkpt lat="45.64077" lon="6.97309">
        <ele>2619</ele>
        <time>2012-07-10T09:55:36Z</time>
      </trkpt>
      <trkpt lat="45.64076" lon="6.973">
        <ele>2616</ele>
        <time>2012-07-10T09:55:41Z</time>
      </trkpt>
      <trkpt lat="45.64077" lon="6.97291">
        <ele>2612</ele>
        <time>2012-07-10T09:55:46Z</time>
      </trkpt>
      <trkpt lat="45.64075" lon="6.97283">
        <ele>2610</ele>
        <time>2012-07-10T09:55:51Z</time>
      </trkpt>
      <trkpt lat="45.64077" lon="6.97281">
        <ele>2609</ele>
        <time>2012-07-10T09:55:56Z</time>
      </trkpt>
      <trkpt lat="45.64077" lon="6.97277">
        <ele>2608</ele>
        <time>2012-07-10T09:56:01Z</time>
      </trkpt>
      <trkpt lat="45.64075" lon="6.97272">
        <ele>2606</ele>
        <time>2012-07-10T09:56:06Z</time>
      </trkpt>
      <trkpt lat="45.64075" lon="6.97266">
        <ele>2604</ele>
        <time>2012-07-10T09:56:11Z</time>
      </trkpt>
      <trkpt lat="45.64075" lon="6.97261">
        <ele>2603</ele>
        <time>2012-07-10T09:56:16Z</time>
      </trkpt>
      <trkpt lat="45.64075" lon="6.97255">
        <ele>2601</ele>
        <time>2012-07-10T09:56:21Z</time>
      </trkpt>
      <trkpt lat="45.64076" lon="6.97249">
        <ele>2598</ele>
        <time>2012-07-10T09:56:26Z</time>
      </trkpt>
      <trkpt lat="45.64077" lon="6.97244">
        <ele>2597</ele>
        <time>2012-07-10T09:56:31Z</time>
      </trkpt>
      <trkpt lat="45.64077" lon="6.97238">
        <ele>2595</ele>
        <time>2012-07-10T09:56:36Z</time>
      </trkpt>
      <trkpt lat="45.6408" lon="6.97235">
        <ele>2594</ele>
        <time>2012-07-10T09:56:41Z</time>
      </trkpt>
      <trkpt lat="45.64081" lon="6.97227">
        <ele>2591</ele>
        <time>2012-07-10T09:56:46Z</time>
      </trkpt>
      <trkpt lat="45.6408" lon="6.97219">
        <ele>2588</ele>
        <time>2012-07-10T09:56:51Z</time>
      </trkpt>
      <trkpt lat="45.64077" lon="6.97211">
        <ele>2586</ele>
        <time>2012-07-10T09:56:56Z</time>
      </trkpt>
      <trkpt lat="45.64074" lon="6.97205">
        <ele>2584</ele>
        <time>2012-07-10T09:57:01Z</time>
      </trkpt>
      <trkpt lat="45.64073" lon="6.97196">
        <ele>2582</ele>
        <time>2012-07-10T09:57:06Z</time>
      </trkpt>
      <trkpt lat="45.64072" lon="6.97187">
        <ele>2579</ele>
        <time>2012-07-10T09:57:11Z</time>
      </trkpt>
      <trkpt lat="45.64071" lon="6.97178">
        <ele>2576</ele>
        <time>2012-07-10T09:57:16Z</time>
      </trkpt>
      <trkpt lat="45.64071" lon="6.97169">
        <ele>2573</ele>
        <time>2012-07-10T09:57:21Z</time>
      </trkpt>
      <trkpt lat="45.6407" lon="6.9716">
        <ele>2570</ele>
        <time>2012-07-10T09:57:26Z</time>
      </trkpt>
      <trkpt lat="45.64071" lon="6.97152">
        <ele>2567</ele>
        <time>2012-07-10T09:57:31Z</time>
      </trkpt>
      <trkpt lat="45.64071" lon="6.97145">
        <ele>2566</ele>
        <time>2012-07-10T09:57:36Z</time>
      </trkpt>
      <trkpt lat="45.64071" lon="6.97137">
        <ele>2563</ele>
        <time>2012-07-10T09:57:41Z</time>
      </trkpt>
      <trkpt lat="45.64071" lon="6.97128">
        <ele>2561</ele>
        <time>2012-07-10T09:57:46Z</time>
      </trkpt>
      <trkpt lat="45.64068" lon="6.97119">
        <ele>2558</ele>
        <time>2012-07-10T09:57:51Z</time>
      </trkpt>
      <trkpt lat="45.64066" lon="6.9711">
        <ele>2556</ele>
        <time>2012-07-10T09:57:56Z</time>
      </trkpt>
      <trkpt lat="45.64066" lon="6.97101">
        <ele>2554</ele>
        <time>2012-07-10T09:58:01Z</time>
      </trkpt>
      <trkpt lat="45.64067" lon="6.97092">
        <ele>2552</ele>
        <time>2012-07-10T09:58:06Z</time>
      </trkpt>
      <trkpt lat="45.64068" lon="6.97083">
        <ele>2550</ele>
        <time>2012-07-10T09:58:11Z</time>
      </trkpt>
      <trkpt lat="45.64067" lon="6.97075">
        <ele>2548</ele>
        <time>2012-07-10T09:58:16Z</time>
      </trkpt>
      <trkpt lat="45.64068" lon="6.97067">
        <ele>2546</ele>
        <time>2012-07-10T09:58:21Z</time>
      </trkpt>
      <trkpt lat="45.64069" lon="6.97058">
        <ele>2544</ele>
        <time>2012-07-10T09:58:26Z</time>
      </trkpt>
      <trkpt lat="45.64069" lon="6.97049">
        <ele>2543</ele>
        <time>2012-07-10T09:58:31Z</time>
      </trkpt>
      <trkpt lat="45.64069" lon="6.9704">
        <ele>2541</ele>
        <time>2012-07-10T09:58:36Z</time>
      </trkpt>
      <trkpt lat="45.64069" lon="6.97031">
        <ele>2539</ele>
        <time>2012-07-10T09:58:41Z</time>
      </trkpt>
      <trkpt lat="45.64068" lon="6.97023">
        <ele>2538</ele>
        <time>2012-07-10T09:58:46Z</time>
      </trkpt>
      <trkpt lat="45.64068" lon="6.97016">
        <ele>2537</ele>
        <time>2012-07-10T09:58:51Z</time>
      </trkpt>
      <trkpt lat="45.64065" lon="6.97009">
        <ele>2536</ele>
        <time>2012-07-10T09:58:56Z</time>
      </trkpt>
      <trkpt lat="45.64064" lon="6.97001">
        <ele>2534</ele>
        <time>2012-07-10T09:59:01Z</time>
      </trkpt>
      <trkpt lat="45.64065" lon="6.96993">
        <ele>2532</ele>
        <time>2012-07-10T09:59:06Z</time>
      </trkpt>
      <trkpt lat="45.64066" lon="6.96986">
        <ele>2531</ele>
        <time>2012-07-10T09:59:11Z</time>
      </trkpt>
      <trkpt lat="45.64064" lon="6.96979">
        <ele>2530</ele>
        <time>2012-07-10T09:59:16Z</time>
      </trkpt>
      <trkpt lat="45.64063" lon="6.96972">
        <ele>2529</ele>
        <time>2012-07-10T09:59:21Z</time>
      </trkpt>
      <trkpt lat="45.64061" lon="6.96965">
        <ele>2528</ele>
        <time>2012-07-10T09:59:26Z</time>
      </trkpt>
      <trkpt lat="45.64059" lon="6.96959">
        <ele>2527</ele>
        <time>2012-07-10T09:59:31Z</time>
      </trkpt>
      <trkpt lat="45.64059" lon="6.96958">
        <ele>2527</ele>
        <time>2012-07-10T09:59:36Z</time>
      </trkpt>
      <trkpt lat="45.64058" lon="6.96956">
        <ele>2526</ele>
        <time>2012-07-10T09:59:41Z</time>
      </trkpt>
      <trkpt lat="45.64056" lon="6.96952">
        <ele>2525</ele>
        <time>2012-07-10T09:59:46Z</time>
      </trkpt>
      <trkpt lat="45.64057" lon="6.96947">
        <ele>2525</ele>
        <time>2012-07-10T09:59:51Z</time>
      </trkpt>
      <trkpt lat="45.64058" lon="6.96946">
        <ele>2525</ele>
        <time>2012-07-10T09:59:56Z</time>
      </trkpt>
      <trkpt lat="45.64058" lon="6.96946">
        <ele>2525</ele>
        <time>2012-07-10T10:00:01Z</time>
      </trkpt>
      <trkpt lat="45.64058" lon="6.96946">
        <ele>2525</ele>
        <time>2012-07-10T10:00:06Z</time>
      </trkpt>
      <trkpt lat="45.64058" lon="6.96946">
        <ele>2525</ele>
        <time>2012-07-10T10:00:11Z</time>
      </trkpt>
      <trkpt lat="45.64057" lon="6.96946">
        <ele>2525</ele>
        <time>2012-07-10T10:00:16Z</time>
      </trkpt>
      <trkpt lat="45.64058" lon="6.96942">
        <ele>2524</ele>
        <time>2012-07-10T10:00:21Z</time>
      </trkpt>
      <trkpt lat="45.64056" lon="6.96938">
        <ele>2524</ele>
        <time>2012-07-10T10:00:26Z</time>
      </trkpt>
      <trkpt lat="45.64056" lon="6.96938">
        <ele>2524</ele>
        <time>2012-07-10T10:00:31Z</time>
      </trkpt>
      <trkpt lat="45.64056" lon="6.96938">
        <ele>2524</ele>
        <time>2012-07-10T10:00:36Z</time>
      </trkpt>
      <trkpt lat="45.64056" lon="6.96938">
        <ele>2524</ele>
        <time>2012-07-10T10:00:41Z</time>
      </trkpt>
      <trkpt lat="45.64056" lon="6.96939">
        <ele>2524</ele>
        <time>2012-07-10T10:00:46Z</time>
      </trkpt>
      <trkpt lat="45.64056" lon="6.96939">
        <ele>2524</ele>
        <time>2012-07-10T10:00:51Z</time>
      </trkpt>
      <trkpt lat="45.64056" lon="6.96937">
        <ele>2524</ele>
        <time>2012-07-10T10:00:56Z</time>
      </trkpt>
      <trkpt lat="45.64056" lon="6.96938">
        <ele>2524</ele>
        <time>2012-07-10T10:01:01Z</time>
      </trkpt>
      <trkpt lat="45.64056" lon="6.96938">
        <ele>2524</ele>
        <time>2012-07-10T10:01:06Z</time>
      </trkpt>
      <trkpt lat="45.64056" lon="6.96938">
        <ele>2524</ele>
        <time>2012-07-10T10:01:11Z</time>
      </trkpt>
      <trkpt lat="45.64058" lon="6.96934">
        <ele>2523</ele>
        <time>2012-07-10T10:01:16Z</time>
      </trkpt>
      <trkpt lat="45.6406" lon="6.96926">
        <ele>2522</ele>
        <time>2012-07-10T10:01:21Z</time>
      </trkpt>
      <trkpt lat="45.64062" lon="6.9692">
        <ele>2521</ele>
        <time>2012-07-10T10:01:26Z</time>
      </trkpt>
      <trkpt lat="45.64064" lon="6.96916">
        <ele>2521</ele>
        <time>2012-07-10T10:01:31Z</time>
      </trkpt>
      <trkpt lat="45.64064" lon="6.96915">
        <ele>2521</ele>
        <time>2012-07-10T10:01:36Z</time>
      </trkpt>
      <trkpt lat="45.64064" lon="6.96911">
        <ele>2520</ele>
        <time>2012-07-10T10:01:41Z</time>
      </trkpt>
      <trkpt lat="45.64063" lon="6.96905">
        <ele>2518</ele>
        <time>2012-07-10T10:01:46Z</time>
      </trkpt>
      <trkpt lat="45.64066" lon="6.96901">
        <ele>2518</ele>
        <time>2012-07-10T10:01:51Z</time>
      </trkpt>
      <trkpt lat="45.64071" lon="6.96899">
        <ele>2518</ele>
        <time>2012-07-10T10:01:56Z</time>
      </trkpt>
      <trkpt lat="45.64073" lon="6.96897">
        <ele>2518</ele>
        <time>2012-07-10T10:02:01Z</time>
      </trkpt>
      <trkpt lat="45.64073" lon="6.96897">
        <ele>2518</ele>
        <time>2012-07-10T10:02:06Z</time>
      </trkpt>
      <trkpt lat="45.64073" lon="6.96897">
        <ele>2517</ele>
        <time>2012-07-10T10:02:11Z</time>
      </trkpt>
      <trkpt lat="45.64073" lon="6.96897">
        <ele>2517</ele>
        <time>2012-07-10T10:02:16Z</time>
      </trkpt>
      <trkpt lat="45.64073" lon="6.96897">
        <ele>2517</ele>
        <time>2012-07-10T10:02:21Z</time>
      </trkpt>
      <trkpt lat="45.64073" lon="6.96897">
        <ele>2517</ele>
        <time>2012-07-10T10:02:26Z</time>
      </trkpt>
      <trkpt lat="45.64074" lon="6.96897">
        <ele>2517</ele>
        <time>2012-07-10T10:02:31Z</time>
      </trkpt>
      <trkpt lat="45.64073" lon="6.96898">
        <ele>2516</ele>
        <time>2012-07-10T10:02:36Z</time>
      </trkpt>
      <trkpt lat="45.64072" lon="6.96897">
        <ele>2516</ele>
        <time>2012-07-10T10:02:41Z</time>
      </trkpt>
      <trkpt lat="45.64072" lon="6.96897">
        <ele>2515</ele>
        <time>2012-07-10T10:02:46Z</time>
      </trkpt>
      <trkpt lat="45.64072" lon="6.96897">
        <ele>2515</ele>
        <time>2012-07-10T10:02:51Z</time>
      </trkpt>
      <trkpt lat="45.64073" lon="6.96897">
        <ele>2514</ele>
        <time>2012-07-10T10:02:56Z</time>
      </trkpt>
      <trkpt lat="45.64073" lon="6.96897">
        <ele>2514</ele>
        <time>2012-07-10T10:03:01Z</time>
      </trkpt>
      <trkpt lat="45.64073" lon="6.96897">
        <ele>2514</ele>
        <time>2012-07-10T10:03:06Z</time>
      </trkpt>
      <trkpt lat="45.64073" lon="6.96897">
        <ele>2515</ele>
        <time>2012-07-10T10:03:11Z</time>
      </trkpt>
      <trkpt lat="45.64073" lon="6.96897">
        <ele>2516</ele>
        <time>2012-07-10T10:03:16Z</time>
      </trkpt>
      <trkpt lat="45.64074" lon="6.96896">
        <ele>2516</ele>
        <time>2012-07-10T10:03:21Z</time>
      </trkpt>
      <trkpt lat="45.64075" lon="6.96896">
        <ele>2516</ele>
        <time>2012-07-10T10:03:26Z</time>
      </trkpt>
      <trkpt lat="45.64076" lon="6.96895">
        <ele>2516</ele>
        <time>2012-07-10T10:03:31Z</time>
      </trkpt>
      <trkpt lat="45.64076" lon="6.96895">
        <ele>2515</ele>
        <time>2012-07-10T10:03:36Z</time>
      </trkpt>
      <trkpt lat="45.64076" lon="6.96895">
        <ele>2515</ele>
        <time>2012-07-10T10:03:41Z</time>
      </trkpt>
      <trkpt lat="45.64077" lon="6.96895">
        <ele>2515</ele>
        <time>2012-07-10T10:03:46Z</time>
      </trkpt>
      <trkpt lat="45.64076" lon="6.96895">
        <ele>2515</ele>
        <time>2012-07-10T10:03:51Z</time>
      </trkpt>
      <trkpt lat="45.64077" lon="6.96895">
        <ele>2515</ele>
        <time>2012-07-10T10:03:56Z</time>
      </trkpt>
      <trkpt lat="45.64077" lon="6.96895">
        <ele>2515</ele>
        <time>2012-07-10T10:04:01Z</time>
      </trkpt>
      <trkpt lat="45.64077" lon="6.96895">
        <ele>2515</ele>
        <time>2012-07-10T10:04:06Z</time>
      </trkpt>
      <trkpt lat="45.64077" lon="6.96896">
        <ele>2515</ele>
        <time>2012-07-10T10:04:11Z</time>
      </trkpt>
      <trkpt lat="45.64077" lon="6.96896">
        <ele>2515</ele>
        <time>2012-07-10T10:04:16Z</time>
      </trkpt>
      <trkpt lat="45.64077" lon="6.96896">
        <ele>2515</ele>
        <time>2012-07-10T10:04:21Z</time>
      </trkpt>
      <trkpt lat="45.64076" lon="6.96896">
        <ele>2516</ele>
        <time>2012-07-10T10:04:26Z</time>
      </trkpt>
      <trkpt lat="45.64076" lon="6.96896">
        <ele>2516</ele>
        <time>2012-07-10T10:04:31Z</time>
      </trkpt>
      <trkpt lat="45.64076" lon="6.96896">
        <ele>2516</ele>
        <time>2012-07-10T10:04:36Z</time>
      </trkpt>
      <trkpt lat="45.64076" lon="6.96896">
        <ele>2517</ele>
        <time>2012-07-10T10:04:41Z</time>
      </trkpt>
      <trkpt lat="45.64075" lon="6.96896">
        <ele>2517</ele>
        <time>2012-07-10T10:04:46Z</time>
      </trkpt>
      <trkpt lat="45.64075" lon="6.96896">
        <ele>2517</ele>
        <time>2012-07-10T10:04:51Z</time>
      </trkpt>
      <trkpt lat="45.64074" lon="6.96897">
        <ele>2518</ele>
        <time>2012-07-10T10:04:56Z</time>
      </trkpt>
      <trkpt lat="45.64074" lon="6.96897">
        <ele>2518</ele>
        <time>2012-07-10T10:05:01Z</time>
      </trkpt>
      <trkpt lat="45.64074" lon="6.96897">
        <ele>2518</ele>
        <time>2012-07-10T10:05:06Z</time>
      </trkpt>
      <trkpt lat="45.64073" lon="6.96897">
        <ele>2518</ele>
        <time>2012-07-10T10:05:11Z</time>
      </trkpt>
      <trkpt lat="45.64073" lon="6.96898">
        <ele>2518</ele>
        <time>2012-07-10T10:05:16Z</time>
      </trkpt>
      <trkpt lat="45.64072" lon="6.96898">
        <ele>2517</ele>
        <time>2012-07-10T10:05:21Z</time>
      </trkpt>
      <trkpt lat="45.64072" lon="6.96898">
        <ele>2517</ele>
        <time>2012-07-10T10:05:26Z</time>
      </trkpt>
      <trkpt lat="45.64073" lon="6.96897">
        <ele>2517</ele>
        <time>2012-07-10T10:05:31Z</time>
      </trkpt>
      <trkpt lat="45.64077" lon="6.96895">
        <ele>2517</ele>
        <time>2012-07-10T10:05:36Z</time>
      </trkpt>
      <trkpt lat="45.64079" lon="6.96893">
        <ele>2516</ele>
        <time>2012-07-10T10:05:41Z</time>
      </trkpt>
      <trkpt lat="45.64079" lon="6.96893">
        <ele>2516</ele>
        <time>2012-07-10T10:05:46Z</time>
      </trkpt>
      <trkpt lat="45.64081" lon="6.96893">
        <ele>2518</ele>
        <time>2012-07-10T10:05:51Z</time>
      </trkpt>
      <trkpt lat="45.64084" lon="6.96892">
        <ele>2519</ele>
        <time>2012-07-10T10:05:56Z</time>
      </trkpt>
      <trkpt lat="45.64089" lon="6.96886">
        <ele>2520</ele>
        <time>2012-07-10T10:06:01Z</time>
      </trkpt>
      <trkpt lat="45.64093" lon="6.9688">
        <ele>2519</ele>
        <time>2012-07-10T10:06:06Z</time>
      </trkpt>
      <trkpt lat="45.64098" lon="6.96873">
        <ele>2518</ele>
        <time>2012-07-10T10:06:11Z</time>
      </trkpt>
      <trkpt lat="45.641" lon="6.96866">
        <ele>2518</ele>
        <time>2012-07-10T10:06:16Z</time>
      </trkpt>
      <trkpt lat="45.64102" lon="6.9686">
        <ele>2517</ele>
        <time>2012-07-10T10:06:21Z</time>
      </trkpt>
      <trkpt lat="45.64105" lon="6.96854">
        <ele>2517</ele>
        <time>2012-07-10T10:06:26Z</time>
      </trkpt>
      <trkpt lat="45.64107" lon="6.96847">
        <ele>2516</ele>
        <time>2012-07-10T10:06:31Z</time>
      </trkpt>
      <trkpt lat="45.6411" lon="6.96841">
        <ele>2516</ele>
        <time>2012-07-10T10:06:36Z</time>
      </trkpt>
      <trkpt lat="45.64113" lon="6.96834">
        <ele>2515</ele>
        <time>2012-07-10T10:06:41Z</time>
      </trkpt>
      <trkpt lat="45.64116" lon="6.96828">
        <ele>2514</ele>
        <time>2012-07-10T10:06:46Z</time>
      </trkpt>
      <trkpt lat="45.64119" lon="6.96821">
        <ele>2513</ele>
        <time>2012-07-10T10:06:51Z</time>
      </trkpt>
      <trkpt lat="45.64122" lon="6.96815">
        <ele>2513</ele>
        <time>2012-07-10T10:06:56Z</time>
      </trkpt>
      <trkpt lat="45.64126" lon="6.9681">
        <ele>2513</ele>
        <time>2012-07-10T10:07:01Z</time>
      </trkpt>
      <trkpt lat="45.6413" lon="6.96805">
        <ele>2512</ele>
        <time>2012-07-10T10:07:06Z</time>
      </trkpt>
      <trkpt lat="45.64134" lon="6.96799">
        <ele>2512</ele>
        <time>2012-07-10T10:07:11Z</time>
      </trkpt>
      <trkpt lat="45.64137" lon="6.96793">
        <ele>2512</ele>
        <time>2012-07-10T10:07:16Z</time>
      </trkpt>
      <trkpt lat="45.6414" lon="6.96784">
        <ele>2511</ele>
        <time>2012-07-10T10:07:21Z</time>
      </trkpt>
      <trkpt lat="45.64138" lon="6.96775">
        <ele>2511</ele>
        <time>2012-07-10T10:07:26Z</time>
      </trkpt>
      <trkpt lat="45.6414" lon="6.96768">
        <ele>2511</ele>
        <time>2012-07-10T10:07:31Z</time>
      </trkpt>
      <trkpt lat="45.6414" lon="6.96761">
        <ele>2510</ele>
        <time>2012-07-10T10:07:36Z</time>
      </trkpt>
      <trkpt lat="45.6414" lon="6.96755">
        <ele>2510</ele>
        <time>2012-07-10T10:07:41Z</time>
      </trkpt>
      <trkpt lat="45.64142" lon="6.96747">
        <ele>2509</ele>
        <time>2012-07-10T10:07:46Z</time>
      </trkpt>
      <trkpt lat="45.64143" lon="6.96739">
        <ele>2509</ele>
        <time>2012-07-10T10:07:51Z</time>
      </trkpt>
      <trkpt lat="45.64145" lon="6.96733">
        <ele>2508</ele>
        <time>2012-07-10T10:07:56Z</time>
      </trkpt>
      <trkpt lat="45.64147" lon="6.96726">
        <ele>2508</ele>
        <time>2012-07-10T10:08:01Z</time>
      </trkpt>
      <trkpt lat="45.64148" lon="6.96719">
        <ele>2508</ele>
        <time>2012-07-10T10:08:06Z</time>
      </trkpt>
      <trkpt lat="45.64148" lon="6.96719">
        <ele>2508</ele>
        <time>2012-07-10T10:08:11Z</time>
      </trkpt>
      <trkpt lat="45.64148" lon="6.96719">
        <ele>2508</ele>
        <time>2012-07-10T10:08:16Z</time>
      </trkpt>
      <trkpt lat="45.64148" lon="6.96719">
        <ele>2507</ele>
        <time>2012-07-10T10:08:21Z</time>
      </trkpt>
      <trkpt lat="45.64148" lon="6.96718">
        <ele>2507</ele>
        <time>2012-07-10T10:08:26Z</time>
      </trkpt>
      <trkpt lat="45.64148" lon="6.96713">
        <ele>2507</ele>
        <time>2012-07-10T10:08:31Z</time>
      </trkpt>
      <trkpt lat="45.64149" lon="6.96709">
        <ele>2507</ele>
        <time>2012-07-10T10:08:36Z</time>
      </trkpt>
      <trkpt lat="45.64148" lon="6.96704">
        <ele>2507</ele>
        <time>2012-07-10T10:08:41Z</time>
      </trkpt>
      <trkpt lat="45.64147" lon="6.96695">
        <ele>2506</ele>
        <time>2012-07-10T10:08:46Z</time>
      </trkpt>
      <trkpt lat="45.64148" lon="6.96688">
        <ele>2506</ele>
        <time>2012-07-10T10:08:51Z</time>
      </trkpt>
      <trkpt lat="45.64149" lon="6.9668">
        <ele>2506</ele>
        <time>2012-07-10T10:08:56Z</time>
      </trkpt>
      <trkpt lat="45.64149" lon="6.96672">
        <ele>2506</ele>
        <time>2012-07-10T10:09:01Z</time>
      </trkpt>
      <trkpt lat="45.6415" lon="6.96664">
        <ele>2505</ele>
        <time>2012-07-10T10:09:06Z</time>
      </trkpt>
      <trkpt lat="45.6415" lon="6.96655">
        <ele>2505</ele>
        <time>2012-07-10T10:09:11Z</time>
      </trkpt>
      <trkpt lat="45.64151" lon="6.96648">
        <ele>2504</ele>
        <time>2012-07-10T10:09:16Z</time>
      </trkpt>
      <trkpt lat="45.64154" lon="6.96641">
        <ele>2503</ele>
        <time>2012-07-10T10:09:21Z</time>
      </trkpt>
      <trkpt lat="45.64155" lon="6.96633">
        <ele>2503</ele>
        <time>2012-07-10T10:09:26Z</time>
      </trkpt>
      <trkpt lat="45.64153" lon="6.96627">
        <ele>2503</ele>
        <time>2012-07-10T10:09:31Z</time>
      </trkpt>
      <trkpt lat="45.64153" lon="6.96624">
        <ele>2502</ele>
        <time>2012-07-10T10:09:36Z</time>
      </trkpt>
      <trkpt lat="45.6415" lon="6.96622">
        <ele>2502</ele>
        <time>2012-07-10T10:09:41Z</time>
      </trkpt>
      <trkpt lat="45.64147" lon="6.96616">
        <ele>2501</ele>
        <time>2012-07-10T10:09:46Z</time>
      </trkpt>
      <trkpt lat="45.64143" lon="6.96613">
        <ele>2501</ele>
        <time>2012-07-10T10:09:51Z</time>
      </trkpt>
      <trkpt lat="45.64142" lon="6.96608">
        <ele>2501</ele>
        <time>2012-07-10T10:09:56Z</time>
      </trkpt>
      <trkpt lat="45.64142" lon="6.96601">
        <ele>2501</ele>
        <time>2012-07-10T10:10:01Z</time>
      </trkpt>
      <trkpt lat="45.64144" lon="6.96594">
        <ele>2500</ele>
        <time>2012-07-10T10:10:06Z</time>
      </trkpt>
      <trkpt lat="45.64146" lon="6.96587">
        <ele>2499</ele>
        <time>2012-07-10T10:10:11Z</time>
      </trkpt>
      <trkpt lat="45.64147" lon="6.9658">
        <ele>2498</ele>
        <time>2012-07-10T10:10:16Z</time>
      </trkpt>
      <trkpt lat="45.64149" lon="6.96574">
        <ele>2498</ele>
        <time>2012-07-10T10:10:21Z</time>
      </trkpt>
      <trkpt lat="45.6415" lon="6.96572">
        <ele>2497</ele>
        <time>2012-07-10T10:10:26Z</time>
      </trkpt>
      <trkpt lat="45.6415" lon="6.96566">
        <ele>2496</ele>
        <time>2012-07-10T10:10:31Z</time>
      </trkpt>
      <trkpt lat="45.64152" lon="6.96559">
        <ele>2495</ele>
        <time>2012-07-10T10:10:36Z</time>
      </trkpt>
      <trkpt lat="45.64153" lon="6.96552">
        <ele>2494</ele>
        <time>2012-07-10T10:10:41Z</time>
      </trkpt>
      <trkpt lat="45.64153" lon="6.96545">
        <ele>2493</ele>
        <time>2012-07-10T10:10:46Z</time>
      </trkpt>
      <trkpt lat="45.64153" lon="6.96538">
        <ele>2492</ele>
        <time>2012-07-10T10:10:51Z</time>
      </trkpt>
      <trkpt lat="45.64153" lon="6.96532">
        <ele>2492</ele>
        <time>2012-07-10T10:10:56Z</time>
      </trkpt>
      <trkpt lat="45.64153" lon="6.96528">
        <ele>2491</ele>
        <time>2012-07-10T10:11:01Z</time>
      </trkpt>
      <trkpt lat="45.64153" lon="6.96523">
        <ele>2491</ele>
        <time>2012-07-10T10:11:06Z</time>
      </trkpt>
      <trkpt lat="45.64153" lon="6.96517">
        <ele>2490</ele>
        <time>2012-07-10T10:11:11Z</time>
      </trkpt>
      <trkpt lat="45.64151" lon="6.96511">
        <ele>2489</ele>
        <time>2012-07-10T10:11:16Z</time>
      </trkpt>
      <trkpt lat="45.64152" lon="6.96506">
        <ele>2488</ele>
        <time>2012-07-10T10:11:21Z</time>
      </trkpt>
      <trkpt lat="45.64151" lon="6.96499">
        <ele>2487</ele>
        <time>2012-07-10T10:11:26Z</time>
      </trkpt>
      <trkpt lat="45.64151" lon="6.96495">
        <ele>2486</ele>
        <time>2012-07-10T10:11:31Z</time>
      </trkpt>
      <trkpt lat="45.64151" lon="6.96494">
        <ele>2486</ele>
        <time>2012-07-10T10:11:36Z</time>
      </trkpt>
      <trkpt lat="45.64151" lon="6.96493">
        <ele>2486</ele>
        <time>2012-07-10T10:11:41Z</time>
      </trkpt>
      <trkpt lat="45.64151" lon="6.96493">
        <ele>2485</ele>
        <time>2012-07-10T10:11:46Z</time>
      </trkpt>
      <trkpt lat="45.64151" lon="6.96493">
        <ele>2485</ele>
        <time>2012-07-10T10:11:51Z</time>
      </trkpt>
      <trkpt lat="45.64152" lon="6.96489">
        <ele>2484</ele>
        <time>2012-07-10T10:11:56Z</time>
      </trkpt>
      <trkpt lat="45.64151" lon="6.96485">
        <ele>2484</ele>
        <time>2012-07-10T10:12:01Z</time>
      </trkpt>
      <trkpt lat="45.64152" lon="6.96479">
        <ele>2483</ele>
        <time>2012-07-10T10:12:06Z</time>
      </trkpt>
      <trkpt lat="45.64153" lon="6.96474">
        <ele>2481</ele>
        <time>2012-07-10T10:12:11Z</time>
      </trkpt>
      <trkpt lat="45.64151" lon="6.96469">
        <ele>2480</ele>
        <time>2012-07-10T10:12:16Z</time>
      </trkpt>
      <trkpt lat="45.6415" lon="6.96464">
        <ele>2479</ele>
        <time>2012-07-10T10:12:21Z</time>
      </trkpt>
      <trkpt lat="45.64146" lon="6.96459">
        <ele>2479</ele>
        <time>2012-07-10T10:12:26Z</time>
      </trkpt>
      <trkpt lat="45.64145" lon="6.96452">
        <ele>2478</ele>
        <time>2012-07-10T10:12:31Z</time>
      </trkpt>
      <trkpt lat="45.64145" lon="6.96443">
        <ele>2476</ele>
        <time>2012-07-10T10:12:36Z</time>
      </trkpt>
      <trkpt lat="45.64145" lon="6.96435">
        <ele>2474</ele>
        <time>2012-07-10T10:12:41Z</time>
      </trkpt>
      <trkpt lat="45.64146" lon="6.96426">
        <ele>2472</ele>
        <time>2012-07-10T10:12:46Z</time>
      </trkpt>
      <trkpt lat="45.64147" lon="6.96418">
        <ele>2471</ele>
        <time>2012-07-10T10:12:51Z</time>
      </trkpt>
      <trkpt lat="45.64149" lon="6.9641">
        <ele>2470</ele>
        <time>2012-07-10T10:12:56Z</time>
      </trkpt>
      <trkpt lat="45.6415" lon="6.96403">
        <ele>2470</ele>
        <time>2012-07-10T10:13:01Z</time>
      </trkpt>
      <trkpt lat="45.64148" lon="6.96397">
        <ele>2469</ele>
        <time>2012-07-10T10:13:06Z</time>
      </trkpt>
      <trkpt lat="45.64148" lon="6.96389">
        <ele>2468</ele>
        <time>2012-07-10T10:13:11Z</time>
      </trkpt>
      <trkpt lat="45.64148" lon="6.9638">
        <ele>2467</ele>
        <time>2012-07-10T10:13:16Z</time>
      </trkpt>
      <trkpt lat="45.64148" lon="6.96371">
        <ele>2466</ele>
        <time>2012-07-10T10:13:21Z</time>
      </trkpt>
      <trkpt lat="45.64147" lon="6.96363">
        <ele>2465</ele>
        <time>2012-07-10T10:13:26Z</time>
      </trkpt>
      <trkpt lat="45.64148" lon="6.96355">
        <ele>2464</ele>
        <time>2012-07-10T10:13:31Z</time>
      </trkpt>
      <trkpt lat="45.64149" lon="6.96348">
        <ele>2462</ele>
        <time>2012-07-10T10:13:36Z</time>
      </trkpt>
      <trkpt lat="45.64146" lon="6.96344">
        <ele>2461</ele>
        <time>2012-07-10T10:13:41Z</time>
      </trkpt>
      <trkpt lat="45.64146" lon="6.96339">
        <ele>2460</ele>
        <time>2012-07-10T10:13:46Z</time>
      </trkpt>
      <trkpt lat="45.64145" lon="6.96334">
        <ele>2459</ele>
        <time>2012-07-10T10:13:51Z</time>
      </trkpt>
      <trkpt lat="45.64142" lon="6.96326">
        <ele>2456</ele>
        <time>2012-07-10T10:13:56Z</time>
      </trkpt>
      <trkpt lat="45.6414" lon="6.96318">
        <ele>2455</ele>
        <time>2012-07-10T10:14:01Z</time>
      </trkpt>
      <trkpt lat="45.64136" lon="6.96312">
        <ele>2454</ele>
        <time>2012-07-10T10:14:06Z</time>
      </trkpt>
      <trkpt lat="45.64133" lon="6.96305">
        <ele>2454</ele>
        <time>2012-07-10T10:14:11Z</time>
      </trkpt>
      <trkpt lat="45.64128" lon="6.96299">
        <ele>2453</ele>
        <time>2012-07-10T10:14:16Z</time>
      </trkpt>
      <trkpt lat="45.64124" lon="6.96292">
        <ele>2452</ele>
        <time>2012-07-10T10:14:21Z</time>
      </trkpt>
      <trkpt lat="45.64121" lon="6.96285">
        <ele>2451</ele>
        <time>2012-07-10T10:14:26Z</time>
      </trkpt>
      <trkpt lat="45.64119" lon="6.96276">
        <ele>2450</ele>
        <time>2012-07-10T10:14:31Z</time>
      </trkpt>
      <trkpt lat="45.64117" lon="6.96267">
        <ele>2449</ele>
        <time>2012-07-10T10:14:36Z</time>
      </trkpt>
      <trkpt lat="45.64115" lon="6.96259">
        <ele>2448</ele>
        <time>2012-07-10T10:14:41Z</time>
      </trkpt>
      <trkpt lat="45.64112" lon="6.96253">
        <ele>2448</ele>
        <time>2012-07-10T10:14:46Z</time>
      </trkpt>
      <trkpt lat="45.64108" lon="6.96246">
        <ele>2447</ele>
        <time>2012-07-10T10:14:51Z</time>
      </trkpt>
      <trkpt lat="45.64105" lon="6.96239">
        <ele>2447</ele>
        <time>2012-07-10T10:14:56Z</time>
      </trkpt>
      <trkpt lat="45.64101" lon="6.96232">
        <ele>2446</ele>
        <time>2012-07-10T10:15:01Z</time>
      </trkpt>
      <trkpt lat="45.64098" lon="6.96226">
        <ele>2445</ele>
        <time>2012-07-10T10:15:06Z</time>
      </trkpt>
      <trkpt lat="45.64093" lon="6.96221">
        <ele>2444</ele>
        <time>2012-07-10T10:15:11Z</time>
      </trkpt>
      <trkpt lat="45.64089" lon="6.96214">
        <ele>2443</ele>
        <time>2012-07-10T10:15:16Z</time>
      </trkpt>
      <trkpt lat="45.64086" lon="6.96206">
        <ele>2443</ele>
        <time>2012-07-10T10:15:21Z</time>
      </trkpt>
      <trkpt lat="45.64082" lon="6.962">
        <ele>2442</ele>
        <time>2012-07-10T10:15:26Z</time>
      </trkpt>
      <trkpt lat="45.64077" lon="6.96195">
        <ele>2441</ele>
        <time>2012-07-10T10:15:31Z</time>
      </trkpt>
      <trkpt lat="45.64074" lon="6.96192">
        <ele>2442</ele>
        <time>2012-07-10T10:15:36Z</time>
      </trkpt>
      <trkpt lat="45.64071" lon="6.96187">
        <ele>2441</ele>
        <time>2012-07-10T10:15:41Z</time>
      </trkpt>
      <trkpt lat="45.64068" lon="6.96182">
        <ele>2441</ele>
        <time>2012-07-10T10:15:46Z</time>
      </trkpt>
      <trkpt lat="45.64064" lon="6.96176">
        <ele>2440</ele>
        <time>2012-07-10T10:15:51Z</time>
      </trkpt>
      <trkpt lat="45.6406" lon="6.9617">
        <ele>2440</ele>
        <time>2012-07-10T10:15:56Z</time>
      </trkpt>
      <trkpt lat="45.64055" lon="6.96164">
        <ele>2440</ele>
        <time>2012-07-10T10:16:01Z</time>
      </trkpt>
      <trkpt lat="45.64053" lon="6.96156">
        <ele>2440</ele>
        <time>2012-07-10T10:16:06Z</time>
      </trkpt>
      <trkpt lat="45.64053" lon="6.96147">
        <ele>2439</ele>
        <time>2012-07-10T10:16:11Z</time>
      </trkpt>
      <trkpt lat="45.64052" lon="6.96138">
        <ele>2439</ele>
        <time>2012-07-10T10:16:16Z</time>
      </trkpt>
      <trkpt lat="45.64051" lon="6.9613">
        <ele>2439</ele>
        <time>2012-07-10T10:16:21Z</time>
      </trkpt>
      <trkpt lat="45.6405" lon="6.9612">
        <ele>2439</ele>
        <time>2012-07-10T10:16:26Z</time>
      </trkpt>
      <trkpt lat="45.64049" lon="6.96111">
        <ele>2439</ele>
        <time>2012-07-10T10:16:31Z</time>
      </trkpt>
      <trkpt lat="45.6405" lon="6.96102">
        <ele>2438</ele>
        <time>2012-07-10T10:16:36Z</time>
      </trkpt>
      <trkpt lat="45.6405" lon="6.96093">
        <ele>2438</ele>
        <time>2012-07-10T10:16:41Z</time>
      </trkpt>
      <trkpt lat="45.64048" lon="6.96084">
        <ele>2438</ele>
        <time>2012-07-10T10:16:46Z</time>
      </trkpt>
      <trkpt lat="45.64046" lon="6.96074">
        <ele>2438</ele>
        <time>2012-07-10T10:16:51Z</time>
      </trkpt>
      <trkpt lat="45.64045" lon="6.96065">
        <ele>2438</ele>
        <time>2012-07-10T10:16:56Z</time>
      </trkpt>
      <trkpt lat="45.64045" lon="6.96056">
        <ele>2437</ele>
        <time>2012-07-10T10:17:01Z</time>
      </trkpt>
      <trkpt lat="45.64045" lon="6.96047">
        <ele>2436</ele>
        <time>2012-07-10T10:17:06Z</time>
      </trkpt>
      <trkpt lat="45.64045" lon="6.9604">
        <ele>2436</ele>
        <time>2012-07-10T10:17:11Z</time>
      </trkpt>
      <trkpt lat="45.64046" lon="6.96036">
        <ele>2435</ele>
        <time>2012-07-10T10:17:16Z</time>
      </trkpt>
      <trkpt lat="45.64049" lon="6.96035">
        <ele>2434</ele>
        <time>2012-07-10T10:17:21Z</time>
      </trkpt>
      <trkpt lat="45.6405" lon="6.96035">
        <ele>2434</ele>
        <time>2012-07-10T10:17:26Z</time>
      </trkpt>
      <trkpt lat="45.64052" lon="6.96035">
        <ele>2434</ele>
        <time>2012-07-10T10:17:31Z</time>
      </trkpt>
      <trkpt lat="45.64053" lon="6.96032">
        <ele>2434</ele>
        <time>2012-07-10T10:17:36Z</time>
      </trkpt>
      <trkpt lat="45.64052" lon="6.96031">
        <ele>2434</ele>
        <time>2012-07-10T10:17:41Z</time>
      </trkpt>
      <trkpt lat="45.64055" lon="6.96026">
        <ele>2434</ele>
        <time>2012-07-10T10:17:46Z</time>
      </trkpt>
      <trkpt lat="45.64055" lon="6.96025">
        <ele>2434</ele>
        <time>2012-07-10T10:17:51Z</time>
      </trkpt>
      <trkpt lat="45.64055" lon="6.96025">
        <ele>2434</ele>
        <time>2012-07-10T10:17:56Z</time>
      </trkpt>
      <trkpt lat="45.64055" lon="6.96023">
        <ele>2434</ele>
        <time>2012-07-10T10:18:01Z</time>
      </trkpt>
      <trkpt lat="45.64055" lon="6.96022">
        <ele>2433</ele>
        <time>2012-07-10T10:18:06Z</time>
      </trkpt>
      <trkpt lat="45.64058" lon="6.96016">
        <ele>2433</ele>
        <time>2012-07-10T10:18:11Z</time>
      </trkpt>
      <trkpt lat="45.64059" lon="6.9601">
        <ele>2433</ele>
        <time>2012-07-10T10:18:16Z</time>
      </trkpt>
      <trkpt lat="45.64058" lon="6.96003">
        <ele>2433</ele>
        <time>2012-07-10T10:18:21Z</time>
      </trkpt>
      <trkpt lat="45.64058" lon="6.95994">
        <ele>2432</ele>
        <time>2012-07-10T10:18:26Z</time>
      </trkpt>
      <trkpt lat="45.64058" lon="6.95987">
        <ele>2433</ele>
        <time>2012-07-10T10:18:31Z</time>
      </trkpt>
      <trkpt lat="45.64059" lon="6.95979">
        <ele>2433</ele>
        <time>2012-07-10T10:18:36Z</time>
      </trkpt>
      <trkpt lat="45.6406" lon="6.95972">
        <ele>2432</ele>
        <time>2012-07-10T10:18:41Z</time>
      </trkpt>
      <trkpt lat="45.64062" lon="6.95964">
        <ele>2431</ele>
        <time>2012-07-10T10:18:46Z</time>
      </trkpt>
      <trkpt lat="45.64063" lon="6.95956">
        <ele>2430</ele>
        <time>2012-07-10T10:18:51Z</time>
      </trkpt>
      <trkpt lat="45.64066" lon="6.95951">
        <ele>2429</ele>
        <time>2012-07-10T10:18:56Z</time>
      </trkpt>
      <trkpt lat="45.64069" lon="6.95944">
        <ele>2428</ele>
        <time>2012-07-10T10:19:01Z</time>
      </trkpt>
      <trkpt lat="45.64072" lon="6.95938">
        <ele>2427</ele>
        <time>2012-07-10T10:19:06Z</time>
      </trkpt>
      <trkpt lat="45.64075" lon="6.95934">
        <ele>2426</ele>
        <time>2012-07-10T10:19:11Z</time>
      </trkpt>
      <trkpt lat="45.64077" lon="6.9593">
        <ele>2424</ele>
        <time>2012-07-10T10:19:16Z</time>
      </trkpt>
      <trkpt lat="45.6408" lon="6.95924">
        <ele>2422</ele>
        <time>2012-07-10T10:19:21Z</time>
      </trkpt>
      <trkpt lat="45.64079" lon="6.95918">
        <ele>2421</ele>
        <time>2012-07-10T10:19:26Z</time>
      </trkpt>
      <trkpt lat="45.64079" lon="6.95912">
        <ele>2419</ele>
        <time>2012-07-10T10:19:31Z</time>
      </trkpt>
      <trkpt lat="45.64079" lon="6.95905">
        <ele>2418</ele>
        <time>2012-07-10T10:19:36Z</time>
      </trkpt>
      <trkpt lat="45.64078" lon="6.95899">
        <ele>2416</ele>
        <time>2012-07-10T10:19:41Z</time>
      </trkpt>
      <trkpt lat="45.64078" lon="6.95893">
        <ele>2414</ele>
        <time>2012-07-10T10:19:46Z</time>
      </trkpt>
      <trkpt lat="45.64077" lon="6.95886">
        <ele>2412</ele>
        <time>2012-07-10T10:19:51Z</time>
      </trkpt>
      <trkpt lat="45.64075" lon="6.9588">
        <ele>2410</ele>
        <time>2012-07-10T10:19:56Z</time>
      </trkpt>
      <trkpt lat="45.64074" lon="6.95873">
        <ele>2409</ele>
        <time>2012-07-10T10:20:01Z</time>
      </trkpt>
      <trkpt lat="45.64077" lon="6.95867">
        <ele>2407</ele>
        <time>2012-07-10T10:20:06Z</time>
      </trkpt>
      <trkpt lat="45.64081" lon="6.95862">
        <ele>2406</ele>
        <time>2012-07-10T10:20:11Z</time>
      </trkpt>
      <trkpt lat="45.64084" lon="6.95858">
        <ele>2404</ele>
        <time>2012-07-10T10:20:16Z</time>
      </trkpt>
      <trkpt lat="45.64084" lon="6.95851">
        <ele>2402</ele>
        <time>2012-07-10T10:20:21Z</time>
      </trkpt>
      <trkpt lat="45.64082" lon="6.95844">
        <ele>2401</ele>
        <time>2012-07-10T10:20:26Z</time>
      </trkpt>
      <trkpt lat="45.64085" lon="6.9584">
        <ele>2399</ele>
        <time>2012-07-10T10:20:31Z</time>
      </trkpt>
      <trkpt lat="45.64089" lon="6.95838">
        <ele>2398</ele>
        <time>2012-07-10T10:20:36Z</time>
      </trkpt>
      <trkpt lat="45.6409" lon="6.95831">
        <ele>2397</ele>
        <time>2012-07-10T10:20:41Z</time>
      </trkpt>
      <trkpt lat="45.64087" lon="6.95825">
        <ele>2396</ele>
        <time>2012-07-10T10:20:46Z</time>
      </trkpt>
      <trkpt lat="45.64085" lon="6.95819">
        <ele>2394</ele>
        <time>2012-07-10T10:20:51Z</time>
      </trkpt>
      <trkpt lat="45.64082" lon="6.95815">
        <ele>2392</ele>
        <time>2012-07-10T10:20:56Z</time>
      </trkpt>
      <trkpt lat="45.6408" lon="6.95811">
        <ele>2391</ele>
        <time>2012-07-10T10:21:01Z</time>
      </trkpt>
      <trkpt lat="45.64079" lon="6.95811">
        <ele>2390</ele>
        <time>2012-07-10T10:21:06Z</time>
      </trkpt>
      <trkpt lat="45.6408" lon="6.9581">
        <ele>2390</ele>
        <time>2012-07-10T10:21:11Z</time>
      </trkpt>
      <trkpt lat="45.64081" lon="6.95811">
        <ele>2385</ele>
        <time>2012-07-10T10:22:16Z</time>
      </trkpt>
      <trkpt lat="45.64082" lon="6.95811">
        <ele>2385</ele>
        <time>2012-07-10T10:22:21Z</time>
      </trkpt>
      <trkpt lat="45.64081" lon="6.9581">
        <ele>2385</ele>
        <time>2012-07-10T10:22:26Z</time>
      </trkpt>
      <trkpt lat="45.64079" lon="6.95808">
        <ele>2384</ele>
        <time>2012-07-10T10:22:31Z</time>
      </trkpt>
      <trkpt lat="45.64078" lon="6.95803">
        <ele>2383</ele>
        <time>2012-07-10T10:22:36Z</time>
      </trkpt>
      <trkpt lat="45.64076" lon="6.95798">
        <ele>2382</ele>
        <time>2012-07-10T10:22:41Z</time>
      </trkpt>
      <trkpt lat="45.64073" lon="6.95794">
        <ele>2380</ele>
        <time>2012-07-10T10:22:46Z</time>
      </trkpt>
      <trkpt lat="45.64071" lon="6.9579">
        <ele>2379</ele>
        <time>2012-07-10T10:22:51Z</time>
      </trkpt>
      <trkpt lat="45.64068" lon="6.95787">
        <ele>2378</ele>
        <time>2012-07-10T10:22:56Z</time>
      </trkpt>
      <trkpt lat="45.64066" lon="6.95784">
        <ele>2377</ele>
        <time>2012-07-10T10:23:01Z</time>
      </trkpt>
      <trkpt lat="45.64064" lon="6.95779">
        <ele>2376</ele>
        <time>2012-07-10T10:23:06Z</time>
      </trkpt>
      <trkpt lat="45.64062" lon="6.95775">
        <ele>2375</ele>
        <time>2012-07-10T10:23:11Z</time>
      </trkpt>
      <trkpt lat="45.64061" lon="6.9577">
        <ele>2374</ele>
        <time>2012-07-10T10:23:16Z</time>
      </trkpt>
      <trkpt lat="45.6406" lon="6.95767">
        <ele>2373</ele>
        <time>2012-07-10T10:23:21Z</time>
      </trkpt>
      <trkpt lat="45.64058" lon="6.95761">
        <ele>2372</ele>
        <time>2012-07-10T10:23:26Z</time>
      </trkpt>
      <trkpt lat="45.64056" lon="6.95756">
        <ele>2370</ele>
        <time>2012-07-10T10:23:31Z</time>
      </trkpt>
      <trkpt lat="45.64055" lon="6.9575">
        <ele>2369</ele>
        <time>2012-07-10T10:23:36Z</time>
      </trkpt>
      <trkpt lat="45.64053" lon="6.95745">
        <ele>2368</ele>
        <time>2012-07-10T10:23:41Z</time>
      </trkpt>
      <trkpt lat="45.64052" lon="6.95741">
        <ele>2367</ele>
        <time>2012-07-10T10:23:46Z</time>
      </trkpt>
      <trkpt lat="45.64049" lon="6.95736">
        <ele>2366</ele>
        <time>2012-07-10T10:23:51Z</time>
      </trkpt>
      <trkpt lat="45.64048" lon="6.95728">
        <ele>2364</ele>
        <time>2012-07-10T10:23:56Z</time>
      </trkpt>
      <trkpt lat="45.64046" lon="6.95722">
        <ele>2363</ele>
        <time>2012-07-10T10:24:01Z</time>
      </trkpt>
      <trkpt lat="45.64045" lon="6.95717">
        <ele>2362</ele>
        <time>2012-07-10T10:24:06Z</time>
      </trkpt>
      <trkpt lat="45.64045" lon="6.95717">
        <ele>2362</ele>
        <time>2012-07-10T10:24:11Z</time>
      </trkpt>
      <trkpt lat="45.64045" lon="6.95717">
        <ele>2362</ele>
        <time>2012-07-10T10:24:16Z</time>
      </trkpt>
      <trkpt lat="45.64045" lon="6.95717">
        <ele>2362</ele>
        <time>2012-07-10T10:24:21Z</time>
      </trkpt>
      <trkpt lat="45.64045" lon="6.95717">
        <ele>2362</ele>
        <time>2012-07-10T10:24:26Z</time>
      </trkpt>
      <trkpt lat="45.64045" lon="6.95712">
        <ele>2362</ele>
        <time>2012-07-10T10:24:31Z</time>
      </trkpt>
      <trkpt lat="45.64047" lon="6.95705">
        <ele>2361</ele>
        <time>2012-07-10T10:24:36Z</time>
      </trkpt>
      <trkpt lat="45.64047" lon="6.95698">
        <ele>2359</ele>
        <time>2012-07-10T10:24:41Z</time>
      </trkpt>
      <trkpt lat="45.64047" lon="6.95691">
        <ele>2358</ele>
        <time>2012-07-10T10:24:46Z</time>
      </trkpt>
      <trkpt lat="45.64044" lon="6.95686">
        <ele>2357</ele>
        <time>2012-07-10T10:24:51Z</time>
      </trkpt>
      <trkpt lat="45.64042" lon="6.95679">
        <ele>2356</ele>
        <time>2012-07-10T10:24:56Z</time>
      </trkpt>
      <trkpt lat="45.64039" lon="6.95672">
        <ele>2355</ele>
        <time>2012-07-10T10:25:01Z</time>
      </trkpt>
      <trkpt lat="45.64036" lon="6.95665">
        <ele>2354</ele>
        <time>2012-07-10T10:25:06Z</time>
      </trkpt>
      <trkpt lat="45.64032" lon="6.95659">
        <ele>2353</ele>
        <time>2012-07-10T10:25:11Z</time>
      </trkpt>
      <trkpt lat="45.64029" lon="6.95652">
        <ele>2352</ele>
        <time>2012-07-10T10:25:16Z</time>
      </trkpt>
      <trkpt lat="45.64024" lon="6.95645">
        <ele>2351</ele>
        <time>2012-07-10T10:25:21Z</time>
      </trkpt>
      <trkpt lat="45.64021" lon="6.95637">
        <ele>2351</ele>
        <time>2012-07-10T10:25:26Z</time>
      </trkpt>
      <trkpt lat="45.64017" lon="6.95633">
        <ele>2350</ele>
        <time>2012-07-10T10:25:31Z</time>
      </trkpt>
      <trkpt lat="45.64012" lon="6.9563">
        <ele>2350</ele>
        <time>2012-07-10T10:25:36Z</time>
      </trkpt>
      <trkpt lat="45.64007" lon="6.95624">
        <ele>2349</ele>
        <time>2012-07-10T10:25:41Z</time>
      </trkpt>
      <trkpt lat="45.64002" lon="6.9562">
        <ele>2348</ele>
        <time>2012-07-10T10:25:46Z</time>
      </trkpt>
      <trkpt lat="45.63997" lon="6.95617">
        <ele>2347</ele>
        <time>2012-07-10T10:25:51Z</time>
      </trkpt>
      <trkpt lat="45.63994" lon="6.95611">
        <ele>2347</ele>
        <time>2012-07-10T10:25:56Z</time>
      </trkpt>
      <trkpt lat="45.6399" lon="6.95605">
        <ele>2347</ele>
        <time>2012-07-10T10:26:01Z</time>
      </trkpt>
      <trkpt lat="45.63987" lon="6.95604">
        <ele>2346</ele>
        <time>2012-07-10T10:26:06Z</time>
      </trkpt>
      <trkpt lat="45.63984" lon="6.956">
        <ele>2345</ele>
        <time>2012-07-10T10:26:11Z</time>
      </trkpt>
      <trkpt lat="45.63982" lon="6.95599">
        <ele>2345</ele>
        <time>2012-07-10T10:26:16Z</time>
      </trkpt>
      <trkpt lat="45.63981" lon="6.956">
        <ele>2345</ele>
        <time>2012-07-10T10:26:21Z</time>
      </trkpt>
      <trkpt lat="45.63981" lon="6.956">
        <ele>2345</ele>
        <time>2012-07-10T10:26:26Z</time>
      </trkpt>
      <trkpt lat="45.63978" lon="6.95601">
        <ele>2345</ele>
        <time>2012-07-10T10:26:31Z</time>
      </trkpt>
      <trkpt lat="45.63974" lon="6.95599">
        <ele>2345</ele>
        <time>2012-07-10T10:26:36Z</time>
      </trkpt>
      <trkpt lat="45.63971" lon="6.95594">
        <ele>2344</ele>
        <time>2012-07-10T10:26:41Z</time>
      </trkpt>
      <trkpt lat="45.63968" lon="6.9559">
        <ele>2345</ele>
        <time>2012-07-10T10:26:46Z</time>
      </trkpt>
      <trkpt lat="45.63965" lon="6.9559">
        <ele>2345</ele>
        <time>2012-07-10T10:26:51Z</time>
      </trkpt>
      <trkpt lat="45.63961" lon="6.9559">
        <ele>2345</ele>
        <time>2012-07-10T10:26:56Z</time>
      </trkpt>
      <trkpt lat="45.6396" lon="6.95588">
        <ele>2345</ele>
        <time>2012-07-10T10:27:01Z</time>
      </trkpt>
      <trkpt lat="45.63957" lon="6.95585">
        <ele>2345</ele>
        <time>2012-07-10T10:27:06Z</time>
      </trkpt>
      <trkpt lat="45.63955" lon="6.95581">
        <ele>2345</ele>
        <time>2012-07-10T10:27:11Z</time>
      </trkpt>
      <trkpt lat="45.63954" lon="6.95578">
        <ele>2344</ele>
        <time>2012-07-10T10:27:16Z</time>
      </trkpt>
      <trkpt lat="45.63951" lon="6.95573">
        <ele>2344</ele>
        <time>2012-07-10T10:27:21Z</time>
      </trkpt>
      <trkpt lat="45.63949" lon="6.95567">
        <ele>2343</ele>
        <time>2012-07-10T10:27:26Z</time>
      </trkpt>
      <trkpt lat="45.63947" lon="6.95561">
        <ele>2343</ele>
        <time>2012-07-10T10:27:31Z</time>
      </trkpt>
      <trkpt lat="45.63946" lon="6.95556">
        <ele>2342</ele>
        <time>2012-07-10T10:27:36Z</time>
      </trkpt>
      <trkpt lat="45.63947" lon="6.95551">
        <ele>2342</ele>
        <time>2012-07-10T10:27:41Z</time>
      </trkpt>
      <trkpt lat="45.63947" lon="6.9555">
        <ele>2342</ele>
        <time>2012-07-10T10:27:46Z</time>
      </trkpt>
      <trkpt lat="45.63944" lon="6.95544">
        <ele>2341</ele>
        <time>2012-07-10T10:27:51Z</time>
      </trkpt>
      <trkpt lat="45.63944" lon="6.95536">
        <ele>2341</ele>
        <time>2012-07-10T10:27:56Z</time>
      </trkpt>
      <trkpt lat="45.63942" lon="6.95528">
        <ele>2341</ele>
        <time>2012-07-10T10:28:01Z</time>
      </trkpt>
      <trkpt lat="45.63941" lon="6.9552">
        <ele>2341</ele>
        <time>2012-07-10T10:28:06Z</time>
      </trkpt>
      <trkpt lat="45.6394" lon="6.95514">
        <ele>2339</ele>
        <time>2012-07-10T10:28:11Z</time>
      </trkpt>
      <trkpt lat="45.63937" lon="6.95508">
        <ele>2338</ele>
        <time>2012-07-10T10:28:16Z</time>
      </trkpt>
      <trkpt lat="45.63934" lon="6.95502">
        <ele>2337</ele>
        <time>2012-07-10T10:28:21Z</time>
      </trkpt>
      <trkpt lat="45.63933" lon="6.95496">
        <ele>2336</ele>
        <time>2012-07-10T10:28:26Z</time>
      </trkpt>
      <trkpt lat="45.63933" lon="6.9549">
        <ele>2334</ele>
        <time>2012-07-10T10:28:31Z</time>
      </trkpt>
      <trkpt lat="45.63932" lon="6.95484">
        <ele>2333</ele>
        <time>2012-07-10T10:28:36Z</time>
      </trkpt>
      <trkpt lat="45.63929" lon="6.95478">
        <ele>2331</ele>
        <time>2012-07-10T10:28:41Z</time>
      </trkpt>
      <trkpt lat="45.63928" lon="6.95474">
        <ele>2330</ele>
        <time>2012-07-10T10:28:46Z</time>
      </trkpt>
      <trkpt lat="45.63925" lon="6.95468">
        <ele>2329</ele>
        <time>2012-07-10T10:28:51Z</time>
      </trkpt>
      <trkpt lat="45.63923" lon="6.95465">
        <ele>2327</ele>
        <time>2012-07-10T10:28:56Z</time>
      </trkpt>
      <trkpt lat="45.63923" lon="6.9546">
        <ele>2326</ele>
        <time>2012-07-10T10:29:01Z</time>
      </trkpt>
      <trkpt lat="45.63921" lon="6.95456">
        <ele>2325</ele>
        <time>2012-07-10T10:29:06Z</time>
      </trkpt>
      <trkpt lat="45.63919" lon="6.95453">
        <ele>2323</ele>
        <time>2012-07-10T10:29:11Z</time>
      </trkpt>
      <trkpt lat="45.63921" lon="6.95449">
        <ele>2322</ele>
        <time>2012-07-10T10:29:16Z</time>
      </trkpt>
      <trkpt lat="45.63921" lon="6.95446">
        <ele>2321</ele>
        <time>2012-07-10T10:29:21Z</time>
      </trkpt>
      <trkpt lat="45.63918" lon="6.95444">
        <ele>2319</ele>
        <time>2012-07-10T10:29:26Z</time>
      </trkpt>
      <trkpt lat="45.63916" lon="6.95441">
        <ele>2318</ele>
        <time>2012-07-10T10:29:31Z</time>
      </trkpt>
      <trkpt lat="45.63915" lon="6.95437">
        <ele>2317</ele>
        <time>2012-07-10T10:29:36Z</time>
      </trkpt>
      <trkpt lat="45.63915" lon="6.95435">
        <ele>2315</ele>
        <time>2012-07-10T10:29:41Z</time>
      </trkpt>
      <trkpt lat="45.63917" lon="6.95433">
        <ele>2314</ele>
        <time>2012-07-10T10:29:46Z</time>
      </trkpt>
      <trkpt lat="45.63916" lon="6.95428">
        <ele>2313</ele>
        <time>2012-07-10T10:29:51Z</time>
      </trkpt>
      <trkpt lat="45.63913" lon="6.95425">
        <ele>2312</ele>
        <time>2012-07-10T10:29:56Z</time>
      </trkpt>
      <trkpt lat="45.6391" lon="6.95419">
        <ele>2311</ele>
        <time>2012-07-10T10:30:01Z</time>
      </trkpt>
      <trkpt lat="45.63909" lon="6.95414">
        <ele>2311</ele>
        <time>2012-07-10T10:30:06Z</time>
      </trkpt>
      <trkpt lat="45.6391" lon="6.95407">
        <ele>2309</ele>
        <time>2012-07-10T10:30:11Z</time>
      </trkpt>
      <trkpt lat="45.6391" lon="6.954">
        <ele>2308</ele>
        <time>2012-07-10T10:30:16Z</time>
      </trkpt>
      <trkpt lat="45.6391" lon="6.95394">
        <ele>2307</ele>
        <time>2012-07-10T10:30:21Z</time>
      </trkpt>
      <trkpt lat="45.63909" lon="6.95387">
        <ele>2306</ele>
        <time>2012-07-10T10:30:26Z</time>
      </trkpt>
      <trkpt lat="45.63908" lon="6.9538">
        <ele>2305</ele>
        <time>2012-07-10T10:30:31Z</time>
      </trkpt>
      <trkpt lat="45.63906" lon="6.95374">
        <ele>2303</ele>
        <time>2012-07-10T10:30:36Z</time>
      </trkpt>
      <trkpt lat="45.63904" lon="6.95369">
        <ele>2302</ele>
        <time>2012-07-10T10:30:41Z</time>
      </trkpt>
      <trkpt lat="45.63902" lon="6.95362">
        <ele>2300</ele>
        <time>2012-07-10T10:30:46Z</time>
      </trkpt>
      <trkpt lat="45.63902" lon="6.95357">
        <ele>2299</ele>
        <time>2012-07-10T10:30:51Z</time>
      </trkpt>
      <trkpt lat="45.63902" lon="6.95351">
        <ele>2298</ele>
        <time>2012-07-10T10:30:56Z</time>
      </trkpt>
      <trkpt lat="45.639" lon="6.95347">
        <ele>2297</ele>
        <time>2012-07-10T10:31:01Z</time>
      </trkpt>
      <trkpt lat="45.63899" lon="6.95341">
        <ele>2296</ele>
        <time>2012-07-10T10:31:06Z</time>
      </trkpt>
      <trkpt lat="45.63897" lon="6.95335">
        <ele>2295</ele>
        <time>2012-07-10T10:31:11Z</time>
      </trkpt>
      <trkpt lat="45.63897" lon="6.95329">
        <ele>2294</ele>
        <time>2012-07-10T10:31:16Z</time>
      </trkpt>
      <trkpt lat="45.63895" lon="6.95325">
        <ele>2293</ele>
        <time>2012-07-10T10:31:21Z</time>
      </trkpt>
      <trkpt lat="45.63894" lon="6.95322">
        <ele>2292</ele>
        <time>2012-07-10T10:31:26Z</time>
      </trkpt>
      <trkpt lat="45.63892" lon="6.95319">
        <ele>2291</ele>
        <time>2012-07-10T10:31:31Z</time>
      </trkpt>
      <trkpt lat="45.63891" lon="6.95315">
        <ele>2290</ele>
        <time>2012-07-10T10:31:36Z</time>
      </trkpt>
      <trkpt lat="45.63889" lon="6.95309">
        <ele>2289</ele>
        <time>2012-07-10T10:31:41Z</time>
      </trkpt>
      <trkpt lat="45.63887" lon="6.95304">
        <ele>2288</ele>
        <time>2012-07-10T10:31:46Z</time>
      </trkpt>
      <trkpt lat="45.63889" lon="6.95298">
        <ele>2287</ele>
        <time>2012-07-10T10:31:51Z</time>
      </trkpt>
      <trkpt lat="45.63889" lon="6.95293">
        <ele>2285</ele>
        <time>2012-07-10T10:31:56Z</time>
      </trkpt>
      <trkpt lat="45.63888" lon="6.95288">
        <ele>2284</ele>
        <time>2012-07-10T10:32:01Z</time>
      </trkpt>
      <trkpt lat="45.63884" lon="6.95284">
        <ele>2282</ele>
        <time>2012-07-10T10:32:06Z</time>
      </trkpt>
      <trkpt lat="45.63881" lon="6.95279">
        <ele>2281</ele>
        <time>2012-07-10T10:32:11Z</time>
      </trkpt>
      <trkpt lat="45.6388" lon="6.95271">
        <ele>2279</ele>
        <time>2012-07-10T10:32:16Z</time>
      </trkpt>
      <trkpt lat="45.63878" lon="6.95263">
        <ele>2278</ele>
        <time>2012-07-10T10:32:21Z</time>
      </trkpt>
      <trkpt lat="45.63876" lon="6.95255">
        <ele>2277</ele>
        <time>2012-07-10T10:32:26Z</time>
      </trkpt>
      <trkpt lat="45.63876" lon="6.95246">
        <ele>2276</ele>
        <time>2012-07-10T10:32:31Z</time>
      </trkpt>
      <trkpt lat="45.63873" lon="6.95239">
        <ele>2275</ele>
        <time>2012-07-10T10:32:36Z</time>
      </trkpt>
      <trkpt lat="45.63869" lon="6.95234">
        <ele>2274</ele>
        <time>2012-07-10T10:32:41Z</time>
      </trkpt>
      <trkpt lat="45.63866" lon="6.95227">
        <ele>2273</ele>
        <time>2012-07-10T10:32:46Z</time>
      </trkpt>
      <trkpt lat="45.63863" lon="6.95221">
        <ele>2272</ele>
        <time>2012-07-10T10:32:51Z</time>
      </trkpt>
      <trkpt lat="45.6386" lon="6.95214">
        <ele>2271</ele>
        <time>2012-07-10T10:32:56Z</time>
      </trkpt>
      <trkpt lat="45.63858" lon="6.95209">
        <ele>2271</ele>
        <time>2012-07-10T10:33:01Z</time>
      </trkpt>
      <trkpt lat="45.63857" lon="6.95204">
        <ele>2270</ele>
        <time>2012-07-10T10:33:06Z</time>
      </trkpt>
      <trkpt lat="45.63859" lon="6.952">
        <ele>2269</ele>
        <time>2012-07-10T10:33:11Z</time>
      </trkpt>
      <trkpt lat="45.6386" lon="6.95195">
        <ele>2267</ele>
        <time>2012-07-10T10:33:16Z</time>
      </trkpt>
      <trkpt lat="45.6386" lon="6.95191">
        <ele>2266</ele>
        <time>2012-07-10T10:33:21Z</time>
      </trkpt>
      <trkpt lat="45.63862" lon="6.95189">
        <ele>2265</ele>
        <time>2012-07-10T10:33:26Z</time>
      </trkpt>
      <trkpt lat="45.63865" lon="6.95188">
        <ele>2264</ele>
        <time>2012-07-10T10:33:31Z</time>
      </trkpt>
      <trkpt lat="45.63866" lon="6.95192">
        <ele>2263</ele>
        <time>2012-07-10T10:33:36Z</time>
      </trkpt>
      <trkpt lat="45.63868" lon="6.95188">
        <ele>2261</ele>
        <time>2012-07-10T10:33:41Z</time>
      </trkpt>
      <trkpt lat="45.63872" lon="6.9519">
        <ele>2260</ele>
        <time>2012-07-10T10:33:46Z</time>
      </trkpt>
      <trkpt lat="45.63873" lon="6.95186">
        <ele>2258</ele>
        <time>2012-07-10T10:33:51Z</time>
      </trkpt>
      <trkpt lat="45.63871" lon="6.9518">
        <ele>2257</ele>
        <time>2012-07-10T10:33:56Z</time>
      </trkpt>
      <trkpt lat="45.63871" lon="6.95175">
        <ele>2255</ele>
        <time>2012-07-10T10:34:01Z</time>
      </trkpt>
      <trkpt lat="45.63874" lon="6.95173">
        <ele>2254</ele>
        <time>2012-07-10T10:34:06Z</time>
      </trkpt>
      <trkpt lat="45.63873" lon="6.95168">
        <ele>2252</ele>
        <time>2012-07-10T10:34:11Z</time>
      </trkpt>
      <trkpt lat="45.63871" lon="6.95163">
        <ele>2251</ele>
        <time>2012-07-10T10:34:16Z</time>
      </trkpt>
      <trkpt lat="45.63869" lon="6.95158">
        <ele>2249</ele>
        <time>2012-07-10T10:34:21Z</time>
      </trkpt>
      <trkpt lat="45.63867" lon="6.95153">
        <ele>2248</ele>
        <time>2012-07-10T10:34:26Z</time>
      </trkpt>
      <trkpt lat="45.63865" lon="6.9515">
        <ele>2247</ele>
        <time>2012-07-10T10:34:31Z</time>
      </trkpt>
      <trkpt lat="45.63863" lon="6.95144">
        <ele>2245</ele>
        <time>2012-07-10T10:34:36Z</time>
      </trkpt>
      <trkpt lat="45.63861" lon="6.95137">
        <ele>2244</ele>
        <time>2012-07-10T10:34:41Z</time>
      </trkpt>
      <trkpt lat="45.63856" lon="6.95132">
        <ele>2244</ele>
        <time>2012-07-10T10:34:46Z</time>
      </trkpt>
      <trkpt lat="45.63852" lon="6.95126">
        <ele>2243</ele>
        <time>2012-07-10T10:34:51Z</time>
      </trkpt>
      <trkpt lat="45.63847" lon="6.95121">
        <ele>2243</ele>
        <time>2012-07-10T10:34:56Z</time>
      </trkpt>
      <trkpt lat="45.63842" lon="6.95115">
        <ele>2243</ele>
        <time>2012-07-10T10:35:01Z</time>
      </trkpt>
      <trkpt lat="45.63838" lon="6.9511">
        <ele>2243</ele>
        <time>2012-07-10T10:35:06Z</time>
      </trkpt>
      <trkpt lat="45.63832" lon="6.95105">
        <ele>2243</ele>
        <time>2012-07-10T10:35:11Z</time>
      </trkpt>
      <trkpt lat="45.63827" lon="6.951">
        <ele>2242</ele>
        <time>2012-07-10T10:35:16Z</time>
      </trkpt>
      <trkpt lat="45.63821" lon="6.95096">
        <ele>2242</ele>
        <time>2012-07-10T10:35:21Z</time>
      </trkpt>
      <trkpt lat="45.63815" lon="6.95093">
        <ele>2242</ele>
        <time>2012-07-10T10:35:26Z</time>
      </trkpt>
      <trkpt lat="45.6381" lon="6.9509">
        <ele>2242</ele>
        <time>2012-07-10T10:35:31Z</time>
      </trkpt>
      <trkpt lat="45.63804" lon="6.95087">
        <ele>2242</ele>
        <time>2012-07-10T10:35:36Z</time>
      </trkpt>
      <trkpt lat="45.638" lon="6.95087">
        <ele>2242</ele>
        <time>2012-07-10T10:35:41Z</time>
      </trkpt>
      <trkpt lat="45.63797" lon="6.95089">
        <ele>2243</ele>
        <time>2012-07-10T10:35:46Z</time>
      </trkpt>
      <trkpt lat="45.63796" lon="6.95091">
        <ele>2244</ele>
        <time>2012-07-10T10:35:51Z</time>
      </trkpt>
      <trkpt lat="45.63793" lon="6.95089">
        <ele>2244</ele>
        <time>2012-07-10T10:35:56Z</time>
      </trkpt>
      <trkpt lat="45.63789" lon="6.9509">
        <ele>2244</ele>
        <time>2012-07-10T10:36:01Z</time>
      </trkpt>
      <trkpt lat="45.63787" lon="6.9509">
        <ele>2245</ele>
        <time>2012-07-10T10:36:06Z</time>
      </trkpt>
      <trkpt lat="45.63785" lon="6.9509">
        <ele>2246</ele>
        <time>2012-07-10T10:36:11Z</time>
      </trkpt>
      <trkpt lat="45.63784" lon="6.95091">
        <ele>2247</ele>
        <time>2012-07-10T10:36:16Z</time>
      </trkpt>
      <trkpt lat="45.63784" lon="6.95091">
        <ele>2247</ele>
        <time>2012-07-10T10:36:21Z</time>
      </trkpt>
      <trkpt lat="45.63783" lon="6.95092">
        <ele>2247</ele>
        <time>2012-07-10T10:36:26Z</time>
      </trkpt>
      <trkpt lat="45.63781" lon="6.95092">
        <ele>2246</ele>
        <time>2012-07-10T10:36:31Z</time>
      </trkpt>
      <trkpt lat="45.63781" lon="6.95092">
        <ele>2247</ele>
        <time>2012-07-10T10:36:36Z</time>
      </trkpt>
      <trkpt lat="45.63781" lon="6.95092">
        <ele>2247</ele>
        <time>2012-07-10T10:36:41Z</time>
      </trkpt>
      <trkpt lat="45.63781" lon="6.95092">
        <ele>2247</ele>
        <time>2012-07-10T10:36:46Z</time>
      </trkpt>
      <trkpt lat="45.63781" lon="6.95092">
        <ele>2247</ele>
        <time>2012-07-10T10:36:51Z</time>
      </trkpt>
      <trkpt lat="45.63781" lon="6.95092">
        <ele>2247</ele>
        <time>2012-07-10T10:36:56Z</time>
      </trkpt>
      <trkpt lat="45.63781" lon="6.95092">
        <ele>2247</ele>
        <time>2012-07-10T10:37:01Z</time>
      </trkpt>
      <trkpt lat="45.63781" lon="6.95092">
        <ele>2247</ele>
        <time>2012-07-10T10:37:06Z</time>
      </trkpt>
      <trkpt lat="45.63781" lon="6.95092">
        <ele>2247</ele>
        <time>2012-07-10T10:37:11Z</time>
      </trkpt>
      <trkpt lat="45.6378" lon="6.95092">
        <ele>2246</ele>
        <time>2012-07-10T10:37:16Z</time>
      </trkpt>
      <trkpt lat="45.63778" lon="6.95091">
        <ele>2246</ele>
        <time>2012-07-10T10:37:21Z</time>
      </trkpt>
      <trkpt lat="45.63777" lon="6.95089">
        <ele>2245</ele>
        <time>2012-07-10T10:37:26Z</time>
      </trkpt>
      <trkpt lat="45.63775" lon="6.95086">
        <ele>2245</ele>
        <time>2012-07-10T10:37:31Z</time>
      </trkpt>
      <trkpt lat="45.63775" lon="6.95083">
        <ele>2245</ele>
        <time>2012-07-10T10:37:36Z</time>
      </trkpt>
      <trkpt lat="45.63773" lon="6.95082">
        <ele>2245</ele>
        <time>2012-07-10T10:37:41Z</time>
      </trkpt>
      <trkpt lat="45.6377" lon="6.9508">
        <ele>2246</ele>
        <time>2012-07-10T10:37:46Z</time>
      </trkpt>
      <trkpt lat="45.63769" lon="6.95077">
        <ele>2246</ele>
        <time>2012-07-10T10:37:51Z</time>
      </trkpt>
      <trkpt lat="45.63767" lon="6.95077">
        <ele>2245</ele>
        <time>2012-07-10T10:37:56Z</time>
      </trkpt>
      <trkpt lat="45.63766" lon="6.95074">
        <ele>2245</ele>
        <time>2012-07-10T10:38:01Z</time>
      </trkpt>
      <trkpt lat="45.63763" lon="6.95074">
        <ele>2245</ele>
        <time>2012-07-10T10:38:06Z</time>
      </trkpt>
      <trkpt lat="45.63762" lon="6.95072">
        <ele>2247</ele>
        <time>2012-07-10T10:38:11Z</time>
      </trkpt>
      <trkpt lat="45.63761" lon="6.95072">
        <ele>2248</ele>
        <time>2012-07-10T10:38:16Z</time>
      </trkpt>
      <trkpt lat="45.6376" lon="6.95071">
        <ele>2248</ele>
        <time>2012-07-10T10:38:21Z</time>
      </trkpt>
      <trkpt lat="45.6376" lon="6.95071">
        <ele>2250</ele>
        <time>2012-07-10T10:38:26Z</time>
      </trkpt>
      <trkpt lat="45.63759" lon="6.95068">
        <ele>2256</ele>
        <time>2012-07-10T10:38:31Z</time>
      </trkpt>
      <trkpt lat="45.63759" lon="6.95068">
        <ele>2258</ele>
        <time>2012-07-10T10:38:36Z</time>
      </trkpt>
      <trkpt lat="45.63757" lon="6.95069">
        <ele>2259</ele>
        <time>2012-07-10T10:38:41Z</time>
      </trkpt>
      <trkpt lat="45.63756" lon="6.95068">
        <ele>2259</ele>
        <time>2012-07-10T10:38:46Z</time>
      </trkpt>
      <trkpt lat="45.63755" lon="6.95066">
        <ele>2258</ele>
        <time>2012-07-10T10:38:51Z</time>
      </trkpt>
      <trkpt lat="45.63752" lon="6.95066">
        <ele>2254</ele>
        <time>2012-07-10T10:38:56Z</time>
      </trkpt>
      <trkpt lat="45.63751" lon="6.95067">
        <ele>2252</ele>
        <time>2012-07-10T10:39:01Z</time>
      </trkpt>
      <trkpt lat="45.63749" lon="6.95067">
        <ele>2250</ele>
        <time>2012-07-10T10:39:06Z</time>
      </trkpt>
      <trkpt lat="45.63748" lon="6.95066">
        <ele>2250</ele>
        <time>2012-07-10T10:39:11Z</time>
      </trkpt>
      <trkpt lat="45.63747" lon="6.95066">
        <ele>2249</ele>
        <time>2012-07-10T10:39:16Z</time>
      </trkpt>
      <trkpt lat="45.63747" lon="6.95066">
        <ele>2249</ele>
        <time>2012-07-10T10:39:21Z</time>
      </trkpt>
      <trkpt lat="45.63747" lon="6.95066">
        <ele>2248</ele>
        <time>2012-07-10T10:39:26Z</time>
      </trkpt>
      <trkpt lat="45.63747" lon="6.95066">
        <ele>2248</ele>
        <time>2012-07-10T10:39:31Z</time>
      </trkpt>
      <trkpt lat="45.63748" lon="6.95067">
        <ele>2248</ele>
        <time>2012-07-10T10:39:36Z</time>
      </trkpt>
      <trkpt lat="45.63747" lon="6.95065">
        <ele>2247</ele>
        <time>2012-07-10T10:39:41Z</time>
      </trkpt>
      <trkpt lat="45.63746" lon="6.95066">
        <ele>2247</ele>
        <time>2012-07-10T10:39:46Z</time>
      </trkpt>
      <trkpt lat="45.63745" lon="6.95063">
        <ele>2246</ele>
        <time>2012-07-10T10:39:51Z</time>
      </trkpt>
      <trkpt lat="45.63744" lon="6.9506">
        <ele>2245</ele>
        <time>2012-07-10T10:39:56Z</time>
      </trkpt>
      <trkpt lat="45.63743" lon="6.95056">
        <ele>2243</ele>
        <time>2012-07-10T10:40:01Z</time>
      </trkpt>
      <trkpt lat="45.63742" lon="6.95051">
        <ele>2242</ele>
        <time>2012-07-10T10:40:06Z</time>
      </trkpt>
      <trkpt lat="45.6374" lon="6.9505">
        <ele>2243</ele>
        <time>2012-07-10T10:40:11Z</time>
      </trkpt>
      <trkpt lat="45.63741" lon="6.95048">
        <ele>2243</ele>
        <time>2012-07-10T10:40:16Z</time>
      </trkpt>
      <trkpt lat="45.63741" lon="6.95046">
        <ele>2242</ele>
        <time>2012-07-10T10:40:21Z</time>
      </trkpt>
      <trkpt lat="45.63742" lon="6.95044">
        <ele>2242</ele>
        <time>2012-07-10T10:40:26Z</time>
      </trkpt>
      <trkpt lat="45.63742" lon="6.95043">
        <ele>2242</ele>
        <time>2012-07-10T10:40:31Z</time>
      </trkpt>
      <trkpt lat="45.63742" lon="6.9504">
        <ele>2241</ele>
        <time>2012-07-10T10:40:36Z</time>
      </trkpt>
      <trkpt lat="45.63739" lon="6.95038">
        <ele>2241</ele>
        <time>2012-07-10T10:40:41Z</time>
      </trkpt>
      <trkpt lat="45.63738" lon="6.95037">
        <ele>2239</ele>
        <time>2012-07-10T10:40:46Z</time>
      </trkpt>
      <trkpt lat="45.63738" lon="6.95033">
        <ele>2239</ele>
        <time>2012-07-10T10:40:51Z</time>
      </trkpt>
      <trkpt lat="45.63739" lon="6.95031">
        <ele>2238</ele>
        <time>2012-07-10T10:40:56Z</time>
      </trkpt>
      <trkpt lat="45.63739" lon="6.95031">
        <ele>2237</ele>
        <time>2012-07-10T10:41:01Z</time>
      </trkpt>
      <trkpt lat="45.63741" lon="6.9503">
        <ele>2237</ele>
        <time>2012-07-10T10:41:06Z</time>
      </trkpt>
      <trkpt lat="45.63743" lon="6.9503">
        <ele>2236</ele>
        <time>2012-07-10T10:41:11Z</time>
      </trkpt>
      <trkpt lat="45.63745" lon="6.95029">
        <ele>2235</ele>
        <time>2012-07-10T10:41:16Z</time>
      </trkpt>
      <trkpt lat="45.63746" lon="6.95026">
        <ele>2234</ele>
        <time>2012-07-10T10:41:21Z</time>
      </trkpt>
      <trkpt lat="45.63747" lon="6.95022">
        <ele>2234</ele>
        <time>2012-07-10T10:41:26Z</time>
      </trkpt>
      <trkpt lat="45.63745" lon="6.95019">
        <ele>2235</ele>
        <time>2012-07-10T10:41:31Z</time>
      </trkpt>
      <trkpt lat="45.63742" lon="6.9502">
        <ele>2235</ele>
        <time>2012-07-10T10:41:36Z</time>
      </trkpt>
      <trkpt lat="45.63741" lon="6.95014">
        <ele>2234</ele>
        <time>2012-07-10T10:41:41Z</time>
      </trkpt>
      <trkpt lat="45.63742" lon="6.95011">
        <ele>2233</ele>
        <time>2012-07-10T10:41:46Z</time>
      </trkpt>
      <trkpt lat="45.63739" lon="6.95008">
        <ele>2232</ele>
        <time>2012-07-10T10:41:51Z</time>
      </trkpt>
      <trkpt lat="45.63737" lon="6.95003">
        <ele>2232</ele>
        <time>2012-07-10T10:41:56Z</time>
      </trkpt>
      <trkpt lat="45.63737" lon="6.95002">
        <ele>2232</ele>
        <time>2012-07-10T10:42:01Z</time>
      </trkpt>
      <trkpt lat="45.63737" lon="6.94998">
        <ele>2237</ele>
        <time>2012-07-10T10:42:06Z</time>
      </trkpt>
      <trkpt lat="45.63733" lon="6.94998">
        <ele>2236</ele>
        <time>2012-07-10T10:42:11Z</time>
      </trkpt>
      <trkpt lat="45.63732" lon="6.94998">
        <ele>2237</ele>
        <time>2012-07-10T10:42:16Z</time>
      </trkpt>
      <trkpt lat="45.63731" lon="6.94997">
        <ele>2237</ele>
        <time>2012-07-10T10:42:21Z</time>
      </trkpt>
      <trkpt lat="45.6373" lon="6.94998">
        <ele>2237</ele>
        <time>2012-07-10T10:42:26Z</time>
      </trkpt>
      <trkpt lat="45.63728" lon="6.94999">
        <ele>2237</ele>
        <time>2012-07-10T10:42:31Z</time>
      </trkpt>
      <trkpt lat="45.63726" lon="6.94996">
        <ele>2238</ele>
        <time>2012-07-10T10:42:36Z</time>
      </trkpt>
      <trkpt lat="45.63726" lon="6.9499">
        <ele>2237</ele>
        <time>2012-07-10T10:42:41Z</time>
      </trkpt>
      <trkpt lat="45.63724" lon="6.94985">
        <ele>2236</ele>
        <time>2012-07-10T10:42:46Z</time>
      </trkpt>
      <trkpt lat="45.63723" lon="6.94981">
        <ele>2236</ele>
        <time>2012-07-10T10:42:51Z</time>
      </trkpt>
      <trkpt lat="45.63722" lon="6.9498">
        <ele>2235</ele>
        <time>2012-07-10T10:42:56Z</time>
      </trkpt>
      <trkpt lat="45.6372" lon="6.94975">
        <ele>2235</ele>
        <time>2012-07-10T10:43:01Z</time>
      </trkpt>
      <trkpt lat="45.63718" lon="6.94973">
        <ele>2235</ele>
        <time>2012-07-10T10:43:06Z</time>
      </trkpt>
      <trkpt lat="45.63717" lon="6.94969">
        <ele>2234</ele>
        <time>2012-07-10T10:43:11Z</time>
      </trkpt>
      <trkpt lat="45.63717" lon="6.94967">
        <ele>2233</ele>
        <time>2012-07-10T10:43:16Z</time>
      </trkpt>
      <trkpt lat="45.63717" lon="6.9496">
        <ele>2232</ele>
        <time>2012-07-10T10:43:21Z</time>
      </trkpt>
      <trkpt lat="45.63715" lon="6.94958">
        <ele>2232</ele>
        <time>2012-07-10T10:43:26Z</time>
      </trkpt>
      <trkpt lat="45.63713" lon="6.94955">
        <ele>2232</ele>
        <time>2012-07-10T10:43:31Z</time>
      </trkpt>
      <trkpt lat="45.63712" lon="6.9495">
        <ele>2231</ele>
        <time>2012-07-10T10:43:36Z</time>
      </trkpt>
      <trkpt lat="45.63709" lon="6.94948">
        <ele>2231</ele>
        <time>2012-07-10T10:43:41Z</time>
      </trkpt>
      <trkpt lat="45.63708" lon="6.94944">
        <ele>2230</ele>
        <time>2012-07-10T10:43:46Z</time>
      </trkpt>
      <trkpt lat="45.63706" lon="6.9494">
        <ele>2229</ele>
        <time>2012-07-10T10:43:51Z</time>
      </trkpt>
      <trkpt lat="45.63703" lon="6.94938">
        <ele>2228</ele>
        <time>2012-07-10T10:43:56Z</time>
      </trkpt>
      <trkpt lat="45.63701" lon="6.94935">
        <ele>2227</ele>
        <time>2012-07-10T10:44:01Z</time>
      </trkpt>
      <trkpt lat="45.63701" lon="6.9493">
        <ele>2225</ele>
        <time>2012-07-10T10:44:06Z</time>
      </trkpt>
      <trkpt lat="45.63699" lon="6.94925">
        <ele>2224</ele>
        <time>2012-07-10T10:44:11Z</time>
      </trkpt>
      <trkpt lat="45.63696" lon="6.94923">
        <ele>2223</ele>
        <time>2012-07-10T10:44:16Z</time>
      </trkpt>
      <trkpt lat="45.63693" lon="6.94918">
        <ele>2222</ele>
        <time>2012-07-10T10:44:21Z</time>
      </trkpt>
      <trkpt lat="45.63691" lon="6.94914">
        <ele>2221</ele>
        <time>2012-07-10T10:44:26Z</time>
      </trkpt>
      <trkpt lat="45.63689" lon="6.9491">
        <ele>2221</ele>
        <time>2012-07-10T10:44:31Z</time>
      </trkpt>
      <trkpt lat="45.63686" lon="6.94906">
        <ele>2221</ele>
        <time>2012-07-10T10:44:36Z</time>
      </trkpt>
      <trkpt lat="45.63683" lon="6.94902">
        <ele>2220</ele>
        <time>2012-07-10T10:44:41Z</time>
      </trkpt>
      <trkpt lat="45.63683" lon="6.94898">
        <ele>2220</ele>
        <time>2012-07-10T10:44:46Z</time>
      </trkpt>
      <trkpt lat="45.63683" lon="6.94896">
        <ele>2219</ele>
        <time>2012-07-10T10:44:51Z</time>
      </trkpt>
      <trkpt lat="45.63681" lon="6.94892">
        <ele>2218</ele>
        <time>2012-07-10T10:44:56Z</time>
      </trkpt>
      <trkpt lat="45.63678" lon="6.94887">
        <ele>2218</ele>
        <time>2012-07-10T10:45:01Z</time>
      </trkpt>
      <trkpt lat="45.63673" lon="6.94884">
        <ele>2217</ele>
        <time>2012-07-10T10:45:06Z</time>
      </trkpt>
      <trkpt lat="45.63669" lon="6.94882">
        <ele>2217</ele>
        <time>2012-07-10T10:45:11Z</time>
      </trkpt>
      <trkpt lat="45.63667" lon="6.94878">
        <ele>2216</ele>
        <time>2012-07-10T10:45:16Z</time>
      </trkpt>
      <trkpt lat="45.63664" lon="6.94875">
        <ele>2214</ele>
        <time>2012-07-10T10:45:21Z</time>
      </trkpt>
      <trkpt lat="45.63664" lon="6.94872">
        <ele>2213</ele>
        <time>2012-07-10T10:45:26Z</time>
      </trkpt>
      <trkpt lat="45.6366" lon="6.94869">
        <ele>2213</ele>
        <time>2012-07-10T10:45:31Z</time>
      </trkpt>
      <trkpt lat="45.63656" lon="6.94869">
        <ele>2213</ele>
        <time>2012-07-10T10:45:36Z</time>
      </trkpt>
      <trkpt lat="45.63653" lon="6.94867">
        <ele>2212</ele>
        <time>2012-07-10T10:45:41Z</time>
      </trkpt>
      <trkpt lat="45.63651" lon="6.94864">
        <ele>2212</ele>
        <time>2012-07-10T10:45:46Z</time>
      </trkpt>
      <trkpt lat="45.63648" lon="6.94861">
        <ele>2211</ele>
        <time>2012-07-10T10:45:51Z</time>
      </trkpt>
      <trkpt lat="45.63644" lon="6.94857">
        <ele>2210</ele>
        <time>2012-07-10T10:45:56Z</time>
      </trkpt>
      <trkpt lat="45.63641" lon="6.94852">
        <ele>2210</ele>
        <time>2012-07-10T10:46:01Z</time>
      </trkpt>
      <trkpt lat="45.63637" lon="6.94849">
        <ele>2210</ele>
        <time>2012-07-10T10:46:06Z</time>
      </trkpt>
      <trkpt lat="45.63634" lon="6.94848">
        <ele>2210</ele>
        <time>2012-07-10T10:46:11Z</time>
      </trkpt>
      <trkpt lat="45.63631" lon="6.94844">
        <ele>2210</ele>
        <time>2012-07-10T10:46:16Z</time>
      </trkpt>
      <trkpt lat="45.63627" lon="6.94844">
        <ele>2211</ele>
        <time>2012-07-10T10:46:21Z</time>
      </trkpt>
      <trkpt lat="45.63625" lon="6.94841">
        <ele>2212</ele>
        <time>2012-07-10T10:46:26Z</time>
      </trkpt>
      <trkpt lat="45.63622" lon="6.94839">
        <ele>2211</ele>
        <time>2012-07-10T10:46:31Z</time>
      </trkpt>
      <trkpt lat="45.63619" lon="6.94835">
        <ele>2210</ele>
        <time>2012-07-10T10:46:36Z</time>
      </trkpt>
      <trkpt lat="45.63616" lon="6.94833">
        <ele>2209</ele>
        <time>2012-07-10T10:46:41Z</time>
      </trkpt>
      <trkpt lat="45.63616" lon="6.94833">
        <ele>2208</ele>
        <time>2012-07-10T10:46:46Z</time>
      </trkpt>
      <trkpt lat="45.63615" lon="6.94833">
        <ele>2208</ele>
        <time>2012-07-10T10:46:51Z</time>
      </trkpt>
      <trkpt lat="45.63615" lon="6.94833">
        <ele>2208</ele>
        <time>2012-07-10T10:46:56Z</time>
      </trkpt>
      <trkpt lat="45.63615" lon="6.94833">
        <ele>2208</ele>
        <time>2012-07-10T10:47:01Z</time>
      </trkpt>
      <trkpt lat="45.63615" lon="6.94833">
        <ele>2208</ele>
        <time>2012-07-10T10:47:06Z</time>
      </trkpt>
      <trkpt lat="45.63614" lon="6.94834">
        <ele>2208</ele>
        <time>2012-07-10T10:47:11Z</time>
      </trkpt>
      <trkpt lat="45.63613" lon="6.94832">
        <ele>2207</ele>
        <time>2012-07-10T10:47:16Z</time>
      </trkpt>
      <trkpt lat="45.63608" lon="6.94831">
        <ele>2207</ele>
        <time>2012-07-10T10:47:21Z</time>
      </trkpt>
      <trkpt lat="45.63605" lon="6.9483">
        <ele>2207</ele>
        <time>2012-07-10T10:47:26Z</time>
      </trkpt>
      <trkpt lat="45.63602" lon="6.94829">
        <ele>2206</ele>
        <time>2012-07-10T10:47:31Z</time>
      </trkpt>
      <trkpt lat="45.63599" lon="6.9483">
        <ele>2206</ele>
        <time>2012-07-10T10:47:36Z</time>
      </trkpt>
      <trkpt lat="45.63595" lon="6.94827">
        <ele>2205</ele>
        <time>2012-07-10T10:47:41Z</time>
      </trkpt>
      <trkpt lat="45.63592" lon="6.94825">
        <ele>2204</ele>
        <time>2012-07-10T10:47:46Z</time>
      </trkpt>
      <trkpt lat="45.6359" lon="6.94822">
        <ele>2204</ele>
        <time>2012-07-10T10:47:51Z</time>
      </trkpt>
      <trkpt lat="45.63588" lon="6.94819">
        <ele>2202</ele>
        <time>2012-07-10T10:47:56Z</time>
      </trkpt>
      <trkpt lat="45.63584" lon="6.94816">
        <ele>2201</ele>
        <time>2012-07-10T10:48:01Z</time>
      </trkpt>
      <trkpt lat="45.63581" lon="6.94814">
        <ele>2201</ele>
        <time>2012-07-10T10:48:06Z</time>
      </trkpt>
      <trkpt lat="45.63578" lon="6.94812">
        <ele>2200</ele>
        <time>2012-07-10T10:48:11Z</time>
      </trkpt>
      <trkpt lat="45.63577" lon="6.94811">
        <ele>2199</ele>
        <time>2012-07-10T10:48:16Z</time>
      </trkpt>
      <trkpt lat="45.63575" lon="6.94808">
        <ele>2199</ele>
        <time>2012-07-10T10:48:21Z</time>
      </trkpt>
      <trkpt lat="45.63571" lon="6.94806">
        <ele>2198</ele>
        <time>2012-07-10T10:48:26Z</time>
      </trkpt>
      <trkpt lat="45.63567" lon="6.94803">
        <ele>2197</ele>
        <time>2012-07-10T10:48:31Z</time>
      </trkpt>
      <trkpt lat="45.63564" lon="6.94803">
        <ele>2197</ele>
        <time>2012-07-10T10:48:36Z</time>
      </trkpt>
      <trkpt lat="45.63561" lon="6.94804">
        <ele>2197</ele>
        <time>2012-07-10T10:48:41Z</time>
      </trkpt>
      <trkpt lat="45.63557" lon="6.94801">
        <ele>2196</ele>
        <time>2012-07-10T10:48:46Z</time>
      </trkpt>
      <trkpt lat="45.63553" lon="6.948">
        <ele>2196</ele>
        <time>2012-07-10T10:48:51Z</time>
      </trkpt>
      <trkpt lat="45.63548" lon="6.94799">
        <ele>2195</ele>
        <time>2012-07-10T10:48:56Z</time>
      </trkpt>
      <trkpt lat="45.63543" lon="6.948">
        <ele>2195</ele>
        <time>2012-07-10T10:49:01Z</time>
      </trkpt>
      <trkpt lat="45.63537" lon="6.94802">
        <ele>2194</ele>
        <time>2012-07-10T10:49:06Z</time>
      </trkpt>
      <trkpt lat="45.63533" lon="6.94802">
        <ele>2193</ele>
        <time>2012-07-10T10:49:11Z</time>
      </trkpt>
      <trkpt lat="45.63531" lon="6.948">
        <ele>2193</ele>
        <time>2012-07-10T10:49:16Z</time>
      </trkpt>
      <trkpt lat="45.63527" lon="6.948">
        <ele>2192</ele>
        <time>2012-07-10T10:49:21Z</time>
      </trkpt>
      <trkpt lat="45.63522" lon="6.94798">
        <ele>2192</ele>
        <time>2012-07-10T10:49:26Z</time>
      </trkpt>
      <trkpt lat="45.63517" lon="6.94798">
        <ele>2190</ele>
        <time>2012-07-10T10:49:31Z</time>
      </trkpt>
      <trkpt lat="45.63513" lon="6.94796">
        <ele>2190</ele>
        <time>2012-07-10T10:49:36Z</time>
      </trkpt>
      <trkpt lat="45.63509" lon="6.94794">
        <ele>2189</ele>
        <time>2012-07-10T10:49:41Z</time>
      </trkpt>
      <trkpt lat="45.63504" lon="6.94793">
        <ele>2188</ele>
        <time>2012-07-10T10:49:46Z</time>
      </trkpt>
      <trkpt lat="45.635" lon="6.94795">
        <ele>2187</ele>
        <time>2012-07-10T10:49:51Z</time>
      </trkpt>
      <trkpt lat="45.63495" lon="6.94794">
        <ele>2186</ele>
        <time>2012-07-10T10:49:56Z</time>
      </trkpt>
      <trkpt lat="45.63491" lon="6.94792">
        <ele>2184</ele>
        <time>2012-07-10T10:50:01Z</time>
      </trkpt>
      <trkpt lat="45.63485" lon="6.94792">
        <ele>2183</ele>
        <time>2012-07-10T10:50:06Z</time>
      </trkpt>
      <trkpt lat="45.63481" lon="6.94795">
        <ele>2182</ele>
        <time>2012-07-10T10:50:11Z</time>
      </trkpt>
      <trkpt lat="45.63476" lon="6.94792">
        <ele>2181</ele>
        <time>2012-07-10T10:50:16Z</time>
      </trkpt>
      <trkpt lat="45.63472" lon="6.94791">
        <ele>2181</ele>
        <time>2012-07-10T10:50:21Z</time>
      </trkpt>
      <trkpt lat="45.63469" lon="6.94788">
        <ele>2180</ele>
        <time>2012-07-10T10:50:26Z</time>
      </trkpt>
      <trkpt lat="45.63465" lon="6.94787">
        <ele>2180</ele>
        <time>2012-07-10T10:50:31Z</time>
      </trkpt>
      <trkpt lat="45.63465" lon="6.94786">
        <ele>2179</ele>
        <time>2012-07-10T10:50:36Z</time>
      </trkpt>
      <trkpt lat="45.63465" lon="6.94787">
        <ele>2179</ele>
        <time>2012-07-10T10:50:41Z</time>
      </trkpt>
      <trkpt lat="45.63465" lon="6.94787">
        <ele>2179</ele>
        <time>2012-07-10T10:50:46Z</time>
      </trkpt>
      <trkpt lat="45.63465" lon="6.94787">
        <ele>2179</ele>
        <time>2012-07-10T10:50:51Z</time>
      </trkpt>
      <trkpt lat="45.63465" lon="6.94786">
        <ele>2179</ele>
        <time>2012-07-10T10:50:56Z</time>
      </trkpt>
      <trkpt lat="45.63465" lon="6.94787">
        <ele>2179</ele>
        <time>2012-07-10T10:51:01Z</time>
      </trkpt>
      <trkpt lat="45.63465" lon="6.94786">
        <ele>2179</ele>
        <time>2012-07-10T10:51:06Z</time>
      </trkpt>
      <trkpt lat="45.63465" lon="6.94787">
        <ele>2179</ele>
        <time>2012-07-10T10:51:11Z</time>
      </trkpt>
      <trkpt lat="45.63465" lon="6.94786">
        <ele>2179</ele>
        <time>2012-07-10T10:51:16Z</time>
      </trkpt>
      <trkpt lat="45.63465" lon="6.94787">
        <ele>2179</ele>
        <time>2012-07-10T10:51:21Z</time>
      </trkpt>
      <trkpt lat="45.63465" lon="6.94786">
        <ele>2179</ele>
        <time>2012-07-10T10:51:26Z</time>
      </trkpt>
      <trkpt lat="45.63465" lon="6.94786">
        <ele>2179</ele>
        <time>2012-07-10T10:51:31Z</time>
      </trkpt>
      <trkpt lat="45.63465" lon="6.94786">
        <ele>2179</ele>
        <time>2012-07-10T10:51:36Z</time>
      </trkpt>
      <trkpt lat="45.63465" lon="6.94786">
        <ele>2179</ele>
        <time>2012-07-10T10:51:41Z</time>
      </trkpt>
      <trkpt lat="45.63465" lon="6.94786">
        <ele>2179</ele>
        <time>2012-07-10T10:51:46Z</time>
      </trkpt>
      <trkpt lat="45.63463" lon="6.94785">
        <ele>2179</ele>
        <time>2012-07-10T10:51:51Z</time>
      </trkpt>
      <trkpt lat="45.63459" lon="6.94784">
        <ele>2178</ele>
        <time>2012-07-10T10:51:56Z</time>
      </trkpt>
      <trkpt lat="45.63455" lon="6.94783">
        <ele>2177</ele>
        <time>2012-07-10T10:52:01Z</time>
      </trkpt>
      <trkpt lat="45.63454" lon="6.94779">
        <ele>2176</ele>
        <time>2012-07-10T10:52:06Z</time>
      </trkpt>
      <trkpt lat="45.63449" lon="6.94777">
        <ele>2175</ele>
        <time>2012-07-10T10:52:11Z</time>
      </trkpt>
      <trkpt lat="45.63445" lon="6.94775">
        <ele>2174</ele>
        <time>2012-07-10T10:52:16Z</time>
      </trkpt>
      <trkpt lat="45.6344" lon="6.94776">
        <ele>2173</ele>
        <time>2012-07-10T10:52:21Z</time>
      </trkpt>
      <trkpt lat="45.63436" lon="6.94777">
        <ele>2172</ele>
        <time>2012-07-10T10:52:26Z</time>
      </trkpt>
      <trkpt lat="45.63433" lon="6.9478">
        <ele>2171</ele>
        <time>2012-07-10T10:52:31Z</time>
      </trkpt>
      <trkpt lat="45.63429" lon="6.94781">
        <ele>2171</ele>
        <time>2012-07-10T10:52:36Z</time>
      </trkpt>
      <trkpt lat="45.63424" lon="6.9478">
        <ele>2170</ele>
        <time>2012-07-10T10:52:41Z</time>
      </trkpt>
      <trkpt lat="45.63419" lon="6.94778">
        <ele>2169</ele>
        <time>2012-07-10T10:52:46Z</time>
      </trkpt>
      <trkpt lat="45.63414" lon="6.94777">
        <ele>2167</ele>
        <time>2012-07-10T10:52:51Z</time>
      </trkpt>
      <trkpt lat="45.6341" lon="6.94775">
        <ele>2166</ele>
        <time>2012-07-10T10:52:56Z</time>
      </trkpt>
      <trkpt lat="45.63406" lon="6.94774">
        <ele>2165</ele>
        <time>2012-07-10T10:53:01Z</time>
      </trkpt>
      <trkpt lat="45.63401" lon="6.94772">
        <ele>2164</ele>
        <time>2012-07-10T10:53:06Z</time>
      </trkpt>
      <trkpt lat="45.63397" lon="6.94773">
        <ele>2163</ele>
        <time>2012-07-10T10:53:11Z</time>
      </trkpt>
      <trkpt lat="45.63392" lon="6.94774">
        <ele>2162</ele>
        <time>2012-07-10T10:53:16Z</time>
      </trkpt>
      <trkpt lat="45.63387" lon="6.94774">
        <ele>2161</ele>
        <time>2012-07-10T10:53:21Z</time>
      </trkpt>
      <trkpt lat="45.63383" lon="6.94774">
        <ele>2160</ele>
        <time>2012-07-10T10:53:26Z</time>
      </trkpt>
      <trkpt lat="45.63378" lon="6.94779">
        <ele>2159</ele>
        <time>2012-07-10T10:53:31Z</time>
      </trkpt>
      <trkpt lat="45.63374" lon="6.94782">
        <ele>2158</ele>
        <time>2012-07-10T10:53:36Z</time>
      </trkpt>
      <trkpt lat="45.63368" lon="6.94783">
        <ele>2157</ele>
        <time>2012-07-10T10:53:41Z</time>
      </trkpt>
      <trkpt lat="45.63363" lon="6.94784">
        <ele>2156</ele>
        <time>2012-07-10T10:53:46Z</time>
      </trkpt>
      <trkpt lat="45.63358" lon="6.94787">
        <ele>2155</ele>
        <time>2012-07-10T10:53:51Z</time>
      </trkpt>
      <trkpt lat="45.63352" lon="6.94789">
        <ele>2154</ele>
        <time>2012-07-10T10:53:56Z</time>
      </trkpt>
      <trkpt lat="45.63347" lon="6.94789">
        <ele>2153</ele>
        <time>2012-07-10T10:54:01Z</time>
      </trkpt>
      <trkpt lat="45.63343" lon="6.94784">
        <ele>2152</ele>
        <time>2012-07-10T10:54:06Z</time>
      </trkpt>
      <trkpt lat="45.63338" lon="6.9478">
        <ele>2151</ele>
        <time>2012-07-10T10:54:11Z</time>
      </trkpt>
      <trkpt lat="45.63334" lon="6.94775">
        <ele>2151</ele>
        <time>2012-07-10T10:54:16Z</time>
      </trkpt>
      <trkpt lat="45.63331" lon="6.94769">
        <ele>2150</ele>
        <time>2012-07-10T10:54:21Z</time>
      </trkpt>
      <trkpt lat="45.63327" lon="6.94768">
        <ele>2150</ele>
        <time>2012-07-10T10:54:26Z</time>
      </trkpt>
      <trkpt lat="45.63324" lon="6.94764">
        <ele>2150</ele>
        <time>2012-07-10T10:54:31Z</time>
      </trkpt>
      <trkpt lat="45.63321" lon="6.94758">
        <ele>2149</ele>
        <time>2012-07-10T10:54:36Z</time>
      </trkpt>
      <trkpt lat="45.63318" lon="6.94755">
        <ele>2148</ele>
        <time>2012-07-10T10:54:41Z</time>
      </trkpt>
      <trkpt lat="45.63315" lon="6.9475">
        <ele>2148</ele>
        <time>2012-07-10T10:54:46Z</time>
      </trkpt>
      <trkpt lat="45.63312" lon="6.94747">
        <ele>2147</ele>
        <time>2012-07-10T10:54:51Z</time>
      </trkpt>
      <trkpt lat="45.63308" lon="6.94743">
        <ele>2147</ele>
        <time>2012-07-10T10:54:56Z</time>
      </trkpt>
      <trkpt lat="45.63306" lon="6.94737">
        <ele>2147</ele>
        <time>2012-07-10T10:55:01Z</time>
      </trkpt>
      <trkpt lat="45.63303" lon="6.9473">
        <ele>2146</ele>
        <time>2012-07-10T10:55:06Z</time>
      </trkpt>
      <trkpt lat="45.63299" lon="6.94724">
        <ele>2146</ele>
        <time>2012-07-10T10:55:11Z</time>
      </trkpt>
      <trkpt lat="45.63294" lon="6.9472">
        <ele>2145</ele>
        <time>2012-07-10T10:55:16Z</time>
      </trkpt>
      <trkpt lat="45.63288" lon="6.94718">
        <ele>2143</ele>
        <time>2012-07-10T10:55:21Z</time>
      </trkpt>
      <trkpt lat="45.63283" lon="6.9472">
        <ele>2142</ele>
        <time>2012-07-10T10:55:26Z</time>
      </trkpt>
      <trkpt lat="45.6328" lon="6.94717">
        <ele>2141</ele>
        <time>2012-07-10T10:55:31Z</time>
      </trkpt>
      <trkpt lat="45.63276" lon="6.94714">
        <ele>2140</ele>
        <time>2012-07-10T10:55:36Z</time>
      </trkpt>
      <trkpt lat="45.63273" lon="6.94708">
        <ele>2140</ele>
        <time>2012-07-10T10:55:41Z</time>
      </trkpt>
      <trkpt lat="45.6327" lon="6.94705">
        <ele>2139</ele>
        <time>2012-07-10T10:55:46Z</time>
      </trkpt>
      <trkpt lat="45.63265" lon="6.94705">
        <ele>2137</ele>
        <time>2012-07-10T10:55:51Z</time>
      </trkpt>
      <trkpt lat="45.6326" lon="6.94704">
        <ele>2136</ele>
        <time>2012-07-10T10:55:56Z</time>
      </trkpt>
      <trkpt lat="45.63255" lon="6.94704">
        <ele>2135</ele>
        <time>2012-07-10T10:56:01Z</time>
      </trkpt>
      <trkpt lat="45.63249" lon="6.94704">
        <ele>2134</ele>
        <time>2012-07-10T10:56:06Z</time>
      </trkpt>
      <trkpt lat="45.63242" lon="6.94705">
        <ele>2133</ele>
        <time>2012-07-10T10:56:11Z</time>
      </trkpt>
      <trkpt lat="45.63237" lon="6.94707">
        <ele>2131</ele>
        <time>2012-07-10T10:56:16Z</time>
      </trkpt>
      <trkpt lat="45.63233" lon="6.94709">
        <ele>2129</ele>
        <time>2012-07-10T10:56:21Z</time>
      </trkpt>
      <trkpt lat="45.63228" lon="6.94709">
        <ele>2128</ele>
        <time>2012-07-10T10:56:26Z</time>
      </trkpt>
      <trkpt lat="45.63223" lon="6.94707">
        <ele>2127</ele>
        <time>2012-07-10T10:56:31Z</time>
      </trkpt>
      <trkpt lat="45.63217" lon="6.94704">
        <ele>2127</ele>
        <time>2012-07-10T10:56:36Z</time>
      </trkpt>
      <trkpt lat="45.63212" lon="6.947">
        <ele>2126</ele>
        <time>2012-07-10T10:56:41Z</time>
      </trkpt>
      <trkpt lat="45.63207" lon="6.94699">
        <ele>2124</ele>
        <time>2012-07-10T10:56:46Z</time>
      </trkpt>
      <trkpt lat="45.63205" lon="6.94699">
        <ele>2124</ele>
        <time>2012-07-10T10:56:51Z</time>
      </trkpt>
      <trkpt lat="45.63205" lon="6.94699">
        <ele>2124</ele>
        <time>2012-07-10T10:56:56Z</time>
      </trkpt>
      <trkpt lat="45.63205" lon="6.94699">
        <ele>2124</ele>
        <time>2012-07-10T10:57:01Z</time>
      </trkpt>
      <trkpt lat="45.63205" lon="6.94699">
        <ele>2124</ele>
        <time>2012-07-10T10:57:06Z</time>
      </trkpt>
      <trkpt lat="45.63204" lon="6.94699">
        <ele>2124</ele>
        <time>2012-07-10T10:57:11Z</time>
      </trkpt>
      <trkpt lat="45.63203" lon="6.94699">
        <ele>2124</ele>
        <time>2012-07-10T10:57:16Z</time>
      </trkpt>
      <trkpt lat="45.63199" lon="6.94699">
        <ele>2123</ele>
        <time>2012-07-10T10:57:21Z</time>
      </trkpt>
      <trkpt lat="45.63196" lon="6.94697">
        <ele>2123</ele>
        <time>2012-07-10T10:57:26Z</time>
      </trkpt>
      <trkpt lat="45.63194" lon="6.94696">
        <ele>2123</ele>
        <time>2012-07-10T10:57:31Z</time>
      </trkpt>
      <trkpt lat="45.63192" lon="6.94695">
        <ele>2122</ele>
        <time>2012-07-10T10:57:36Z</time>
      </trkpt>
      <trkpt lat="45.63191" lon="6.94694">
        <ele>2122</ele>
        <time>2012-07-10T10:57:41Z</time>
      </trkpt>
      <trkpt lat="45.6319" lon="6.94695">
        <ele>2122</ele>
        <time>2012-07-10T10:57:46Z</time>
      </trkpt>
      <trkpt lat="45.6319" lon="6.94695">
        <ele>2122</ele>
        <time>2012-07-10T10:57:51Z</time>
      </trkpt>
      <trkpt lat="45.6319" lon="6.94695">
        <ele>2122</ele>
        <time>2012-07-10T10:57:56Z</time>
      </trkpt>
      <trkpt lat="45.6319" lon="6.94695">
        <ele>2123</ele>
        <time>2012-07-10T10:58:01Z</time>
      </trkpt>
      <trkpt lat="45.63188" lon="6.94694">
        <ele>2123</ele>
        <time>2012-07-10T10:58:06Z</time>
      </trkpt>
      <trkpt lat="45.63185" lon="6.9469">
        <ele>2122</ele>
        <time>2012-07-10T10:58:11Z</time>
      </trkpt>
      <trkpt lat="45.63182" lon="6.94685">
        <ele>2121</ele>
        <time>2012-07-10T10:58:16Z</time>
      </trkpt>
      <trkpt lat="45.63179" lon="6.94679">
        <ele>2121</ele>
        <time>2012-07-10T10:58:21Z</time>
      </trkpt>
      <trkpt lat="45.63177" lon="6.94674">
        <ele>2119</ele>
        <time>2012-07-10T10:58:26Z</time>
      </trkpt>
      <trkpt lat="45.63174" lon="6.94668">
        <ele>2118</ele>
        <time>2012-07-10T10:58:31Z</time>
      </trkpt>
      <trkpt lat="45.63173" lon="6.94663">
        <ele>2116</ele>
        <time>2012-07-10T10:58:36Z</time>
      </trkpt>
      <trkpt lat="45.63171" lon="6.94656">
        <ele>2116</ele>
        <time>2012-07-10T10:58:41Z</time>
      </trkpt>
      <trkpt lat="45.63168" lon="6.9465">
        <ele>2114</ele>
        <time>2012-07-10T10:58:46Z</time>
      </trkpt>
      <trkpt lat="45.63164" lon="6.94645">
        <ele>2114</ele>
        <time>2012-07-10T10:58:51Z</time>
      </trkpt>
      <trkpt lat="45.63159" lon="6.94642">
        <ele>2112</ele>
        <time>2012-07-10T10:58:56Z</time>
      </trkpt>
      <trkpt lat="45.63154" lon="6.94639">
        <ele>2111</ele>
        <time>2012-07-10T10:59:01Z</time>
      </trkpt>
      <trkpt lat="45.63149" lon="6.94635">
        <ele>2110</ele>
        <time>2012-07-10T10:59:06Z</time>
      </trkpt>
      <trkpt lat="45.63146" lon="6.94631">
        <ele>2109</ele>
        <time>2012-07-10T10:59:11Z</time>
      </trkpt>
      <trkpt lat="45.63142" lon="6.94627">
        <ele>2108</ele>
        <time>2012-07-10T10:59:16Z</time>
      </trkpt>
      <trkpt lat="45.63137" lon="6.94623">
        <ele>2106</ele>
        <time>2012-07-10T10:59:21Z</time>
      </trkpt>
      <trkpt lat="45.63132" lon="6.94621">
        <ele>2105</ele>
        <time>2012-07-10T10:59:26Z</time>
      </trkpt>
      <trkpt lat="45.63128" lon="6.94618">
        <ele>2104</ele>
        <time>2012-07-10T10:59:31Z</time>
      </trkpt>
      <trkpt lat="45.63123" lon="6.94616">
        <ele>2103</ele>
        <time>2012-07-10T10:59:36Z</time>
      </trkpt>
      <trkpt lat="45.6312" lon="6.94612">
        <ele>2101</ele>
        <time>2012-07-10T10:59:41Z</time>
      </trkpt>
      <trkpt lat="45.63116" lon="6.9461">
        <ele>2100</ele>
        <time>2012-07-10T10:59:46Z</time>
      </trkpt>
      <trkpt lat="45.63112" lon="6.94609">
        <ele>2099</ele>
        <time>2012-07-10T10:59:51Z</time>
      </trkpt>
      <trkpt lat="45.63109" lon="6.94603">
        <ele>2098</ele>
        <time>2012-07-10T10:59:56Z</time>
      </trkpt>
      <trkpt lat="45.63106" lon="6.946">
        <ele>2097</ele>
        <time>2012-07-10T11:00:01Z</time>
      </trkpt>
      <trkpt lat="45.63103" lon="6.94596">
        <ele>2095</ele>
        <time>2012-07-10T11:00:06Z</time>
      </trkpt>
      <trkpt lat="45.631" lon="6.94592">
        <ele>2094</ele>
        <time>2012-07-10T11:00:11Z</time>
      </trkpt>
      <trkpt lat="45.63097" lon="6.9459">
        <ele>2093</ele>
        <time>2012-07-10T11:00:16Z</time>
      </trkpt>
      <trkpt lat="45.63096" lon="6.94585">
        <ele>2092</ele>
        <time>2012-07-10T11:00:21Z</time>
      </trkpt>
      <trkpt lat="45.63093" lon="6.94581">
        <ele>2090</ele>
        <time>2012-07-10T11:00:26Z</time>
      </trkpt>
      <trkpt lat="45.63091" lon="6.94575">
        <ele>2089</ele>
        <time>2012-07-10T11:00:31Z</time>
      </trkpt>
      <trkpt lat="45.63089" lon="6.94573">
        <ele>2088</ele>
        <time>2012-07-10T11:00:36Z</time>
      </trkpt>
      <trkpt lat="45.63085" lon="6.94571">
        <ele>2086</ele>
        <time>2012-07-10T11:00:41Z</time>
      </trkpt>
      <trkpt lat="45.63084" lon="6.94566">
        <ele>2085</ele>
        <time>2012-07-10T11:00:46Z</time>
      </trkpt>
      <trkpt lat="45.6308" lon="6.94565">
        <ele>2085</ele>
        <time>2012-07-10T11:00:51Z</time>
      </trkpt>
      <trkpt lat="45.63075" lon="6.94561">
        <ele>2083</ele>
        <time>2012-07-10T11:00:56Z</time>
      </trkpt>
      <trkpt lat="45.6307" lon="6.94561">
        <ele>2083</ele>
        <time>2012-07-10T11:01:01Z</time>
      </trkpt>
      <trkpt lat="45.63065" lon="6.94558">
        <ele>2082</ele>
        <time>2012-07-10T11:01:06Z</time>
      </trkpt>
      <trkpt lat="45.6306" lon="6.94557">
        <ele>2082</ele>
        <time>2012-07-10T11:01:11Z</time>
      </trkpt>
      <trkpt lat="45.63057" lon="6.94556">
        <ele>2080</ele>
        <time>2012-07-10T11:01:16Z</time>
      </trkpt>
      <trkpt lat="45.63054" lon="6.94553">
        <ele>2080</ele>
        <time>2012-07-10T11:01:21Z</time>
      </trkpt>
      <trkpt lat="45.63049" lon="6.94552">
        <ele>2079</ele>
        <time>2012-07-10T11:01:26Z</time>
      </trkpt>
      <trkpt lat="45.63044" lon="6.9455">
        <ele>2079</ele>
        <time>2012-07-10T11:01:31Z</time>
      </trkpt>
      <trkpt lat="45.63039" lon="6.94547">
        <ele>2078</ele>
        <time>2012-07-10T11:01:36Z</time>
      </trkpt>
      <trkpt lat="45.63034" lon="6.94547">
        <ele>2077</ele>
        <time>2012-07-10T11:01:41Z</time>
      </trkpt>
      <trkpt lat="45.6303" lon="6.94548">
        <ele>2077</ele>
        <time>2012-07-10T11:01:46Z</time>
      </trkpt>
      <trkpt lat="45.63025" lon="6.94549">
        <ele>2076</ele>
        <time>2012-07-10T11:01:51Z</time>
      </trkpt>
      <trkpt lat="45.63021" lon="6.94548">
        <ele>2075</ele>
        <time>2012-07-10T11:01:56Z</time>
      </trkpt>
      <trkpt lat="45.63017" lon="6.94549">
        <ele>2074</ele>
        <time>2012-07-10T11:02:01Z</time>
      </trkpt>
      <trkpt lat="45.63013" lon="6.94547">
        <ele>2073</ele>
        <time>2012-07-10T11:02:06Z</time>
      </trkpt>
      <trkpt lat="45.63011" lon="6.94541">
        <ele>2073</ele>
        <time>2012-07-10T11:02:11Z</time>
      </trkpt>
      <trkpt lat="45.6301" lon="6.94535">
        <ele>2071</ele>
        <time>2012-07-10T11:02:16Z</time>
      </trkpt>
      <trkpt lat="45.63007" lon="6.94531">
        <ele>2070</ele>
        <time>2012-07-10T11:02:21Z</time>
      </trkpt>
      <trkpt lat="45.63005" lon="6.9453">
        <ele>2069</ele>
        <time>2012-07-10T11:02:26Z</time>
      </trkpt>
      <trkpt lat="45.63002" lon="6.9453">
        <ele>2068</ele>
        <time>2012-07-10T11:02:31Z</time>
      </trkpt>
      <trkpt lat="45.63002" lon="6.94528">
        <ele>2067</ele>
        <time>2012-07-10T11:02:36Z</time>
      </trkpt>
      <trkpt lat="45.63001" lon="6.94528">
        <ele>2067</ele>
        <time>2012-07-10T11:02:41Z</time>
      </trkpt>
      <trkpt lat="45.63002" lon="6.94529">
        <ele>2067</ele>
        <time>2012-07-10T11:02:46Z</time>
      </trkpt>
      <trkpt lat="45.63002" lon="6.94529">
        <ele>2067</ele>
        <time>2012-07-10T11:02:51Z</time>
      </trkpt>
      <trkpt lat="45.63001" lon="6.94528">
        <ele>2067</ele>
        <time>2012-07-10T11:02:56Z</time>
      </trkpt>
      <trkpt lat="45.62998" lon="6.94525">
        <ele>2066</ele>
        <time>2012-07-10T11:03:01Z</time>
      </trkpt>
      <trkpt lat="45.62998" lon="6.94525">
        <ele>2066</ele>
        <time>2012-07-10T11:03:06Z</time>
      </trkpt>
      <trkpt lat="45.62996" lon="6.94531">
        <ele>2065</ele>
        <time>2012-07-10T11:03:11Z</time>
      </trkpt>
      <trkpt lat="45.62994" lon="6.94535">
        <ele>2064</ele>
        <time>2012-07-10T11:03:16Z</time>
      </trkpt>
      <trkpt lat="45.62993" lon="6.94539">
        <ele>2063</ele>
        <time>2012-07-10T11:03:21Z</time>
      </trkpt>
      <trkpt lat="45.62989" lon="6.94538">
        <ele>2062</ele>
        <time>2012-07-10T11:03:26Z</time>
      </trkpt>
      <trkpt lat="45.62983" lon="6.94539">
        <ele>2061</ele>
        <time>2012-07-10T11:03:31Z</time>
      </trkpt>
      <trkpt lat="45.62978" lon="6.94542">
        <ele>2060</ele>
        <time>2012-07-10T11:03:36Z</time>
      </trkpt>
      <trkpt lat="45.62972" lon="6.94545">
        <ele>2060</ele>
        <time>2012-07-10T11:03:41Z</time>
      </trkpt>
      <trkpt lat="45.62966" lon="6.94546">
        <ele>2060</ele>
        <time>2012-07-10T11:03:46Z</time>
      </trkpt>
      <trkpt lat="45.62961" lon="6.94543">
        <ele>2059</ele>
        <time>2012-07-10T11:03:51Z</time>
      </trkpt>
      <trkpt lat="45.6296" lon="6.94543">
        <ele>2059</ele>
        <time>2012-07-10T11:03:56Z</time>
      </trkpt>
      <trkpt lat="45.6296" lon="6.94542">
        <ele>2059</ele>
        <time>2012-07-10T11:04:01Z</time>
      </trkpt>
      <trkpt lat="45.62961" lon="6.94542">
        <ele>2059</ele>
        <time>2012-07-10T11:04:06Z</time>
      </trkpt>
      <trkpt lat="45.62961" lon="6.94542">
        <ele>2059</ele>
        <time>2012-07-10T11:04:11Z</time>
      </trkpt>
      <trkpt lat="45.62961" lon="6.94542">
        <ele>2059</ele>
        <time>2012-07-10T11:04:16Z</time>
      </trkpt>
      <trkpt lat="45.62961" lon="6.94542">
        <ele>2059</ele>
        <time>2012-07-10T11:04:21Z</time>
      </trkpt>
      <trkpt lat="45.62961" lon="6.94542">
        <ele>2058</ele>
        <time>2012-07-10T11:04:26Z</time>
      </trkpt>
      <trkpt lat="45.6296" lon="6.94542">
        <ele>2058</ele>
        <time>2012-07-10T11:04:31Z</time>
      </trkpt>
      <trkpt lat="45.62959" lon="6.94543">
        <ele>2058</ele>
        <time>2012-07-10T11:04:36Z</time>
      </trkpt>
      <trkpt lat="45.62961" lon="6.94544">
        <ele>2058</ele>
        <time>2012-07-10T11:04:41Z</time>
      </trkpt>
      <trkpt lat="45.62961" lon="6.94544">
        <ele>2058</ele>
        <time>2012-07-10T11:04:46Z</time>
      </trkpt>
      <trkpt lat="45.62961" lon="6.94544">
        <ele>2058</ele>
        <time>2012-07-10T11:04:51Z</time>
      </trkpt>
      <trkpt lat="45.62961" lon="6.94544">
        <ele>2058</ele>
        <time>2012-07-10T11:04:56Z</time>
      </trkpt>
      <trkpt lat="45.62961" lon="6.94543">
        <ele>2057</ele>
        <time>2012-07-10T11:05:01Z</time>
      </trkpt>
      <trkpt lat="45.62961" lon="6.94543">
        <ele>2057</ele>
        <time>2012-07-10T11:05:06Z</time>
      </trkpt>
      <trkpt lat="45.62961" lon="6.94543">
        <ele>2057</ele>
        <time>2012-07-10T11:05:11Z</time>
      </trkpt>
      <trkpt lat="45.62961" lon="6.94542">
        <ele>2057</ele>
        <time>2012-07-10T11:05:16Z</time>
      </trkpt>
      <trkpt lat="45.62961" lon="6.94542">
        <ele>2057</ele>
        <time>2012-07-10T11:05:21Z</time>
      </trkpt>
      <trkpt lat="45.62961" lon="6.94543">
        <ele>2057</ele>
        <time>2012-07-10T11:05:26Z</time>
      </trkpt>
      <trkpt lat="45.62961" lon="6.94543">
        <ele>2056</ele>
        <time>2012-07-10T11:05:31Z</time>
      </trkpt>
      <trkpt lat="45.62961" lon="6.94543">
        <ele>2056</ele>
        <time>2012-07-10T11:05:36Z</time>
      </trkpt>
      <trkpt lat="45.6296" lon="6.94543">
        <ele>2056</ele>
        <time>2012-07-10T11:05:41Z</time>
      </trkpt>
      <trkpt lat="45.62957" lon="6.94541">
        <ele>2056</ele>
        <time>2012-07-10T11:05:46Z</time>
      </trkpt>
      <trkpt lat="45.62953" lon="6.94539">
        <ele>2056</ele>
        <time>2012-07-10T11:05:51Z</time>
      </trkpt>
      <trkpt lat="45.62949" lon="6.94537">
        <ele>2056</ele>
        <time>2012-07-10T11:05:56Z</time>
      </trkpt>
      <trkpt lat="45.62945" lon="6.94537">
        <ele>2055</ele>
        <time>2012-07-10T11:06:01Z</time>
      </trkpt>
      <trkpt lat="45.62941" lon="6.94538">
        <ele>2055</ele>
        <time>2012-07-10T11:06:06Z</time>
      </trkpt>
      <trkpt lat="45.62937" lon="6.94534">
        <ele>2054</ele>
        <time>2012-07-10T11:06:11Z</time>
      </trkpt>
      <trkpt lat="45.62934" lon="6.94529">
        <ele>2054</ele>
        <time>2012-07-10T11:06:16Z</time>
      </trkpt>
      <trkpt lat="45.62929" lon="6.94526">
        <ele>2054</ele>
        <time>2012-07-10T11:06:21Z</time>
      </trkpt>
      <trkpt lat="45.62924" lon="6.94523">
        <ele>2053</ele>
        <time>2012-07-10T11:06:26Z</time>
      </trkpt>
      <trkpt lat="45.62921" lon="6.94515">
        <ele>2052</ele>
        <time>2012-07-10T11:06:31Z</time>
      </trkpt>
      <trkpt lat="45.62919" lon="6.94506">
        <ele>2052</ele>
        <time>2012-07-10T11:06:36Z</time>
      </trkpt>
      <trkpt lat="45.62919" lon="6.94499">
        <ele>2051</ele>
        <time>2012-07-10T11:06:41Z</time>
      </trkpt>
      <trkpt lat="45.6292" lon="6.94498">
        <ele>2052</ele>
        <time>2012-07-10T11:06:46Z</time>
      </trkpt>
      <trkpt lat="45.6292" lon="6.94499">
        <ele>2052</ele>
        <time>2012-07-10T11:06:51Z</time>
      </trkpt>
      <trkpt lat="45.6292" lon="6.94498">
        <ele>2052</ele>
        <time>2012-07-10T11:06:56Z</time>
      </trkpt>
      <trkpt lat="45.6292" lon="6.94497">
        <ele>2052</ele>
        <time>2012-07-10T11:07:01Z</time>
      </trkpt>
      <trkpt lat="45.6292" lon="6.94497">
        <ele>2052</ele>
        <time>2012-07-10T11:07:06Z</time>
      </trkpt>
      <trkpt lat="45.62921" lon="6.94495">
        <ele>2052</ele>
        <time>2012-07-10T11:07:11Z</time>
      </trkpt>
      <trkpt lat="45.62924" lon="6.9449">
        <ele>2052</ele>
        <time>2012-07-10T11:07:16Z</time>
      </trkpt>
      <trkpt lat="45.62925" lon="6.94489">
        <ele>2052</ele>
        <time>2012-07-10T11:07:21Z</time>
      </trkpt>
      <trkpt lat="45.62925" lon="6.94489">
        <ele>2052</ele>
        <time>2012-07-10T11:07:26Z</time>
      </trkpt>
      <trkpt lat="45.62925" lon="6.94489">
        <ele>2052</ele>
        <time>2012-07-10T11:07:31Z</time>
      </trkpt>
      <trkpt lat="45.62927" lon="6.9449">
        <ele>2053</ele>
        <time>2012-07-10T11:07:56Z</time>
      </trkpt>
      <trkpt lat="45.62925" lon="6.94489">
        <ele>2053</ele>
        <time>2012-07-10T11:08:01Z</time>
      </trkpt>
      <trkpt lat="45.62922" lon="6.94487">
        <ele>2052</ele>
        <time>2012-07-10T11:08:06Z</time>
      </trkpt>
      <trkpt lat="45.62921" lon="6.94487">
        <ele>2052</ele>
        <time>2012-07-10T11:08:11Z</time>
      </trkpt>
      <trkpt lat="45.62921" lon="6.94487">
        <ele>2052</ele>
        <time>2012-07-10T11:08:16Z</time>
      </trkpt>
      <trkpt lat="45.6292" lon="6.94487">
        <ele>2052</ele>
        <time>2012-07-10T11:08:21Z</time>
      </trkpt>
      <trkpt lat="45.62919" lon="6.94487">
        <ele>2052</ele>
        <time>2012-07-10T11:08:26Z</time>
      </trkpt>
      <trkpt lat="45.62919" lon="6.94488">
        <ele>2052</ele>
        <time>2012-07-10T11:08:31Z</time>
      </trkpt>
      <trkpt lat="45.62917" lon="6.94485">
        <ele>2052</ele>
        <time>2012-07-10T11:08:36Z</time>
      </trkpt>
      <trkpt lat="45.62916" lon="6.9448">
        <ele>2051</ele>
        <time>2012-07-10T11:08:41Z</time>
      </trkpt>
      <trkpt lat="45.62917" lon="6.94476">
        <ele>2052</ele>
        <time>2012-07-10T11:08:46Z</time>
      </trkpt>
      <trkpt lat="45.62913" lon="6.94473">
        <ele>2052</ele>
        <time>2012-07-10T11:08:51Z</time>
      </trkpt>
      <trkpt lat="45.62909" lon="6.94475">
        <ele>2052</ele>
        <time>2012-07-10T11:08:56Z</time>
      </trkpt>
      <trkpt lat="45.62906" lon="6.94475">
        <ele>2052</ele>
        <time>2012-07-10T11:09:01Z</time>
      </trkpt>
      <trkpt lat="45.62901" lon="6.94475">
        <ele>2052</ele>
        <time>2012-07-10T11:09:06Z</time>
      </trkpt>
      <trkpt lat="45.62897" lon="6.94475">
        <ele>2052</ele>
        <time>2012-07-10T11:09:11Z</time>
      </trkpt>
      <trkpt lat="45.62895" lon="6.94467">
        <ele>2051</ele>
        <time>2012-07-10T11:09:16Z</time>
      </trkpt>
      <trkpt lat="45.62895" lon="6.94459">
        <ele>2052</ele>
        <time>2012-07-10T11:09:21Z</time>
      </trkpt>
      <trkpt lat="45.62892" lon="6.94456">
        <ele>2051</ele>
        <time>2012-07-10T11:09:26Z</time>
      </trkpt>
      <trkpt lat="45.62888" lon="6.94457">
        <ele>2051</ele>
        <time>2012-07-10T11:09:31Z</time>
      </trkpt>
      <trkpt lat="45.62883" lon="6.94455">
        <ele>2050</ele>
        <time>2012-07-10T11:09:36Z</time>
      </trkpt>
      <trkpt lat="45.62878" lon="6.94455">
        <ele>2051</ele>
        <time>2012-07-10T11:09:41Z</time>
      </trkpt>
      <trkpt lat="45.62874" lon="6.94454">
        <ele>2050</ele>
        <time>2012-07-10T11:09:46Z</time>
      </trkpt>
      <trkpt lat="45.6287" lon="6.94449">
        <ele>2050</ele>
        <time>2012-07-10T11:09:51Z</time>
      </trkpt>
      <trkpt lat="45.62866" lon="6.94442">
        <ele>2050</ele>
        <time>2012-07-10T11:09:56Z</time>
      </trkpt>
      <trkpt lat="45.62862" lon="6.94437">
        <ele>2049</ele>
        <time>2012-07-10T11:10:01Z</time>
      </trkpt>
      <trkpt lat="45.62856" lon="6.94434">
        <ele>2049</ele>
        <time>2012-07-10T11:10:06Z</time>
      </trkpt>
      <trkpt lat="45.62852" lon="6.94429">
        <ele>2049</ele>
        <time>2012-07-10T11:10:11Z</time>
      </trkpt>
      <trkpt lat="45.62848" lon="6.94425">
        <ele>2049</ele>
        <time>2012-07-10T11:10:16Z</time>
      </trkpt>
      <trkpt lat="45.62843" lon="6.94421">
        <ele>2048</ele>
        <time>2012-07-10T11:10:21Z</time>
      </trkpt>
      <trkpt lat="45.62839" lon="6.94417">
        <ele>2049</ele>
        <time>2012-07-10T11:10:26Z</time>
      </trkpt>
      <trkpt lat="45.62834" lon="6.94413">
        <ele>2048</ele>
        <time>2012-07-10T11:10:31Z</time>
      </trkpt>
      <trkpt lat="45.62829" lon="6.9441">
        <ele>2048</ele>
        <time>2012-07-10T11:10:36Z</time>
      </trkpt>
      <trkpt lat="45.62823" lon="6.94407">
        <ele>2048</ele>
        <time>2012-07-10T11:10:41Z</time>
      </trkpt>
      <trkpt lat="45.62818" lon="6.94403">
        <ele>2048</ele>
        <time>2012-07-10T11:10:46Z</time>
      </trkpt>
      <trkpt lat="45.62813" lon="6.94401">
        <ele>2048</ele>
        <time>2012-07-10T11:10:51Z</time>
      </trkpt>
      <trkpt lat="45.62808" lon="6.944">
        <ele>2048</ele>
        <time>2012-07-10T11:10:56Z</time>
      </trkpt>
      <trkpt lat="45.62803" lon="6.94395">
        <ele>2047</ele>
        <time>2012-07-10T11:11:01Z</time>
      </trkpt>
      <trkpt lat="45.62798" lon="6.94389">
        <ele>2047</ele>
        <time>2012-07-10T11:11:06Z</time>
      </trkpt>
      <trkpt lat="45.62794" lon="6.94382">
        <ele>2047</ele>
        <time>2012-07-10T11:11:11Z</time>
      </trkpt>
      <trkpt lat="45.62792" lon="6.94375">
        <ele>2047</ele>
        <time>2012-07-10T11:11:16Z</time>
      </trkpt>
      <trkpt lat="45.6279" lon="6.9437">
        <ele>2048</ele>
        <time>2012-07-10T11:11:21Z</time>
      </trkpt>
      <trkpt lat="45.62787" lon="6.94367">
        <ele>2049</ele>
        <time>2012-07-10T11:11:26Z</time>
      </trkpt>
      <trkpt lat="45.62783" lon="6.94368">
        <ele>2049</ele>
        <time>2012-07-10T11:11:31Z</time>
      </trkpt>
      <trkpt lat="45.62779" lon="6.94367">
        <ele>2047</ele>
        <time>2012-07-10T11:11:36Z</time>
      </trkpt>
      <trkpt lat="45.62774" lon="6.94361">
        <ele>2047</ele>
        <time>2012-07-10T11:11:41Z</time>
      </trkpt>
      <trkpt lat="45.62769" lon="6.94356">
        <ele>2046</ele>
        <time>2012-07-10T11:11:46Z</time>
      </trkpt>
      <trkpt lat="45.62764" lon="6.9435">
        <ele>2046</ele>
        <time>2012-07-10T11:11:51Z</time>
      </trkpt>
      <trkpt lat="45.6276" lon="6.94344">
        <ele>2046</ele>
        <time>2012-07-10T11:11:56Z</time>
      </trkpt>
      <trkpt lat="45.62755" lon="6.94339">
        <ele>2046</ele>
        <time>2012-07-10T11:12:01Z</time>
      </trkpt>
      <trkpt lat="45.6275" lon="6.94334">
        <ele>2046</ele>
        <time>2012-07-10T11:12:06Z</time>
      </trkpt>
      <trkpt lat="45.62744" lon="6.94331">
        <ele>2046</ele>
        <time>2012-07-10T11:12:11Z</time>
      </trkpt>
      <trkpt lat="45.62738" lon="6.94328">
        <ele>2045</ele>
        <time>2012-07-10T11:12:16Z</time>
      </trkpt>
      <trkpt lat="45.62733" lon="6.94323">
        <ele>2045</ele>
        <time>2012-07-10T11:12:21Z</time>
      </trkpt>
      <trkpt lat="45.62728" lon="6.94319">
        <ele>2045</ele>
        <time>2012-07-10T11:12:26Z</time>
      </trkpt>
      <trkpt lat="45.62722" lon="6.94317">
        <ele>2045</ele>
        <time>2012-07-10T11:12:31Z</time>
      </trkpt>
      <trkpt lat="45.62716" lon="6.94318">
        <ele>2045</ele>
        <time>2012-07-10T11:12:36Z</time>
      </trkpt>
      <trkpt lat="45.6271" lon="6.94318">
        <ele>2045</ele>
        <time>2012-07-10T11:12:41Z</time>
      </trkpt>
      <trkpt lat="45.62704" lon="6.94316">
        <ele>2045</ele>
        <time>2012-07-10T11:12:46Z</time>
      </trkpt>
      <trkpt lat="45.62698" lon="6.94314">
        <ele>2044</ele>
        <time>2012-07-10T11:12:51Z</time>
      </trkpt>
      <trkpt lat="45.62693" lon="6.94314">
        <ele>2044</ele>
        <time>2012-07-10T11:12:56Z</time>
      </trkpt>
      <trkpt lat="45.62688" lon="6.94313">
        <ele>2044</ele>
        <time>2012-07-10T11:13:01Z</time>
      </trkpt>
      <trkpt lat="45.62686" lon="6.94309">
        <ele>2044</ele>
        <time>2012-07-10T11:13:06Z</time>
      </trkpt>
      <trkpt lat="45.62686" lon="6.94309">
        <ele>2044</ele>
        <time>2012-07-10T11:13:11Z</time>
      </trkpt>
      <trkpt lat="45.62686" lon="6.9431">
        <ele>2043</ele>
        <time>2012-07-10T11:13:16Z</time>
      </trkpt>
      <trkpt lat="45.62686" lon="6.9431">
        <ele>2043</ele>
        <time>2012-07-10T11:13:21Z</time>
      </trkpt>
      <trkpt lat="45.62686" lon="6.94309">
        <ele>2043</ele>
        <time>2012-07-10T11:13:26Z</time>
      </trkpt>
      <trkpt lat="45.62685" lon="6.94309">
        <ele>2044</ele>
        <time>2012-07-10T11:13:31Z</time>
      </trkpt>
      <trkpt lat="45.62685" lon="6.94309">
        <ele>2044</ele>
        <time>2012-07-10T11:13:36Z</time>
      </trkpt>
      <trkpt lat="45.62685" lon="6.94309">
        <ele>2044</ele>
        <time>2012-07-10T11:13:41Z</time>
      </trkpt>
      <trkpt lat="45.62685" lon="6.94309">
        <ele>2044</ele>
        <time>2012-07-10T11:13:46Z</time>
      </trkpt>
      <trkpt lat="45.62682" lon="6.94309">
        <ele>2045</ele>
        <time>2012-07-10T11:13:51Z</time>
      </trkpt>
      <trkpt lat="45.62679" lon="6.9431">
        <ele>2045</ele>
        <time>2012-07-10T11:13:56Z</time>
      </trkpt>
      <trkpt lat="45.62674" lon="6.94311">
        <ele>2044</ele>
        <time>2012-07-10T11:14:01Z</time>
      </trkpt>
      <trkpt lat="45.62669" lon="6.9431">
        <ele>2044</ele>
        <time>2012-07-10T11:14:06Z</time>
      </trkpt>
      <trkpt lat="45.62664" lon="6.94308">
        <ele>2044</ele>
        <time>2012-07-10T11:14:11Z</time>
      </trkpt>
      <trkpt lat="45.62658" lon="6.94306">
        <ele>2044</ele>
        <time>2012-07-10T11:14:16Z</time>
      </trkpt>
      <trkpt lat="45.62653" lon="6.94303">
        <ele>2044</ele>
        <time>2012-07-10T11:14:21Z</time>
      </trkpt>
      <trkpt lat="45.62648" lon="6.94298">
        <ele>2044</ele>
        <time>2012-07-10T11:14:26Z</time>
      </trkpt>
      <trkpt lat="45.62643" lon="6.94294">
        <ele>2044</ele>
        <time>2012-07-10T11:14:31Z</time>
      </trkpt>
      <trkpt lat="45.62639" lon="6.9429">
        <ele>2043</ele>
        <time>2012-07-10T11:14:36Z</time>
      </trkpt>
      <trkpt lat="45.62636" lon="6.94283">
        <ele>2043</ele>
        <time>2012-07-10T11:14:41Z</time>
      </trkpt>
      <trkpt lat="45.62633" lon="6.94277">
        <ele>2043</ele>
        <time>2012-07-10T11:14:46Z</time>
      </trkpt>
      <trkpt lat="45.6263" lon="6.9427">
        <ele>2043</ele>
        <time>2012-07-10T11:14:51Z</time>
      </trkpt>
      <trkpt lat="45.62627" lon="6.94264">
        <ele>2042</ele>
        <time>2012-07-10T11:14:56Z</time>
      </trkpt>
      <trkpt lat="45.62623" lon="6.94258">
        <ele>2042</ele>
        <time>2012-07-10T11:15:01Z</time>
      </trkpt>
      <trkpt lat="45.62618" lon="6.94253">
        <ele>2042</ele>
        <time>2012-07-10T11:15:06Z</time>
      </trkpt>
      <trkpt lat="45.62613" lon="6.9425">
        <ele>2042</ele>
        <time>2012-07-10T11:15:11Z</time>
      </trkpt>
      <trkpt lat="45.62607" lon="6.94246">
        <ele>2042</ele>
        <time>2012-07-10T11:15:16Z</time>
      </trkpt>
      <trkpt lat="45.62602" lon="6.94243">
        <ele>2042</ele>
        <time>2012-07-10T11:15:21Z</time>
      </trkpt>
      <trkpt lat="45.62597" lon="6.9424">
        <ele>2042</ele>
        <time>2012-07-10T11:15:26Z</time>
      </trkpt>
      <trkpt lat="45.62591" lon="6.94237">
        <ele>2041</ele>
        <time>2012-07-10T11:15:31Z</time>
      </trkpt>
      <trkpt lat="45.62586" lon="6.94234">
        <ele>2041</ele>
        <time>2012-07-10T11:15:36Z</time>
      </trkpt>
      <trkpt lat="45.6258" lon="6.9423">
        <ele>2041</ele>
        <time>2012-07-10T11:15:41Z</time>
      </trkpt>
      <trkpt lat="45.62575" lon="6.94226">
        <ele>2041</ele>
        <time>2012-07-10T11:15:46Z</time>
      </trkpt>
      <trkpt lat="45.6257" lon="6.94221">
        <ele>2041</ele>
        <time>2012-07-10T11:15:51Z</time>
      </trkpt>
      <trkpt lat="45.62566" lon="6.94214">
        <ele>2040</ele>
        <time>2012-07-10T11:15:56Z</time>
      </trkpt>
      <trkpt lat="45.62561" lon="6.94208">
        <ele>2040</ele>
        <time>2012-07-10T11:16:01Z</time>
      </trkpt>
      <trkpt lat="45.62557" lon="6.94201">
        <ele>2040</ele>
        <time>2012-07-10T11:16:06Z</time>
      </trkpt>
      <trkpt lat="45.62552" lon="6.94195">
        <ele>2040</ele>
        <time>2012-07-10T11:16:11Z</time>
      </trkpt>
      <trkpt lat="45.62549" lon="6.94189">
        <ele>2040</ele>
        <time>2012-07-10T11:16:16Z</time>
      </trkpt>
      <trkpt lat="45.62547" lon="6.94188">
        <ele>2039</ele>
        <time>2012-07-10T11:16:21Z</time>
      </trkpt>
      <trkpt lat="45.62548" lon="6.94188">
        <ele>2039</ele>
        <time>2012-07-10T11:16:26Z</time>
      </trkpt>
      <trkpt lat="45.62548" lon="6.94188">
        <ele>2039</ele>
        <time>2012-07-10T11:16:31Z</time>
      </trkpt>
      <trkpt lat="45.62548" lon="6.94188">
        <ele>2039</ele>
        <time>2012-07-10T11:16:36Z</time>
      </trkpt>
      <trkpt lat="45.62548" lon="6.94188">
        <ele>2039</ele>
        <time>2012-07-10T11:16:41Z</time>
      </trkpt>
      <trkpt lat="45.62546" lon="6.94184">
        <ele>2039</ele>
        <time>2012-07-10T11:16:46Z</time>
      </trkpt>
      <trkpt lat="45.62542" lon="6.94178">
        <ele>2039</ele>
        <time>2012-07-10T11:16:51Z</time>
      </trkpt>
      <trkpt lat="45.62538" lon="6.94171">
        <ele>2039</ele>
        <time>2012-07-10T11:16:56Z</time>
      </trkpt>
      <trkpt lat="45.62533" lon="6.94164">
        <ele>2039</ele>
        <time>2012-07-10T11:17:01Z</time>
      </trkpt>
      <trkpt lat="45.62533" lon="6.94157">
        <ele>2038</ele>
        <time>2012-07-10T11:17:06Z</time>
      </trkpt>
      <trkpt lat="45.62536" lon="6.94151">
        <ele>2038</ele>
        <time>2012-07-10T11:17:11Z</time>
      </trkpt>
      <trkpt lat="45.62541" lon="6.94145">
        <ele>2039</ele>
        <time>2012-07-10T11:17:16Z</time>
      </trkpt>
      <trkpt lat="45.62546" lon="6.94139">
        <ele>2039</ele>
        <time>2012-07-10T11:17:21Z</time>
      </trkpt>
      <trkpt lat="45.62551" lon="6.94132">
        <ele>2038</ele>
        <time>2012-07-10T11:17:26Z</time>
      </trkpt>
      <trkpt lat="45.62555" lon="6.94126">
        <ele>2039</ele>
        <time>2012-07-10T11:17:31Z</time>
      </trkpt>
      <trkpt lat="45.62557" lon="6.94119">
        <ele>2039</ele>
        <time>2012-07-10T11:17:36Z</time>
      </trkpt>
      <trkpt lat="45.6256" lon="6.9412">
        <ele>2040</ele>
        <time>2012-07-10T11:17:41Z</time>
      </trkpt>
      <trkpt lat="45.62563" lon="6.94128">
        <ele>2042</ele>
        <time>2012-07-10T11:28:09Z</time>
      </trkpt>
    </trkseg>
  </trk>
</gpx>